<?xml version="1.0" encoding="UTF-8" standalone="no" ?>
<gpx xmlns="http://www.topografix.com/GPX/1/1" xmlns:xsi="http://www.w3.org/2001/XMLSchema-instance" xsi:schemaLocation="http://www.topografix.com/GPX/1/1 http://www.topografix.com/GPX/1/1/gpx.xsd" version="1.1" creator="VisuGPX - https://www.visugpx.com">
  <metadata>
    <name>creuzier riboulet le 18 04 2015</name>
    <desc><![CDATA[boucle au depart de creuzier le vieux retour gr3  roulant 60kms
]]></desc>
  </metadata>
  <trk>
    <name><![CDATA[2015-04-18 14:29]]></name>
    <desc><![CDATA[<h1>OruxMaps</h1><br /><hr align="center" width="480" style="height: 2px; width: 517px"/><h2>Nom: 2015-04-18 14:29</h2><br /><p>Temps de départ: 04/18/2015 14:29</p><p>Temps d'arrivée: 04/18/2015 19:27</p><p>Distance: 59,4km (04:58)</p><p>Temps déplacement: 03:42</p><p>Vitesse moyenne: 11,9km/h</p><p>Vitesse moyenne: 16km/h</p><p>Vitess Max.: 54,5km/h</p><p>Altitude minimale: 273m</p><p>Altitude maximale: 606m</p><p>Vitesse d'élévation: 538,5m/h</p><p>Vitesse de descente: -950,6m/h</p><p>Gain Altitude: 1445m</p><p>Perte Altitude: -1455m</p><p>Temps d'élévation: 02:41</p><p>Temps de descente: 01:31</p><hr align="center" width="480" style="height: 2px; width: 517px"/>]]></desc>
    <trkseg>
      <trkpt lat="46.17285" lon="3.43941">
        <ele>337.58</ele>
        <time>2015-04-18T12:29:20Z</time>
      </trkpt>
      <trkpt lat="46.17274" lon="3.43919">
        <ele>337.55</ele>
        <time>2015-04-18T12:30:00Z</time>
      </trkpt>
      <trkpt lat="46.17254" lon="3.43919">
        <ele>337.55</ele>
        <time>2015-04-18T12:30:08Z</time>
      </trkpt>
      <trkpt lat="46.17235" lon="3.43926">
        <ele>337.55</ele>
        <time>2015-04-18T12:30:16Z</time>
      </trkpt>
      <trkpt lat="46.17216" lon="3.4393">
        <ele>337.55</ele>
        <time>2015-04-18T12:30:24Z</time>
      </trkpt>
      <trkpt lat="46.17196" lon="3.43939">
        <ele>337.55</ele>
        <time>2015-04-18T12:30:32Z</time>
      </trkpt>
      <trkpt lat="46.17177" lon="3.43945">
        <ele>337.55</ele>
        <time>2015-04-18T12:30:40Z</time>
      </trkpt>
      <trkpt lat="46.17158" lon="3.43951">
        <ele>337.55</ele>
        <time>2015-04-18T12:30:48Z</time>
      </trkpt>
      <trkpt lat="46.17139" lon="3.43958">
        <ele>337.55</ele>
        <time>2015-04-18T12:30:57Z</time>
      </trkpt>
      <trkpt lat="46.17119" lon="3.43964">
        <ele>337.55</ele>
        <time>2015-04-18T12:31:06Z</time>
      </trkpt>
      <trkpt lat="46.17102" lon="3.43973">
        <ele>337.55</ele>
        <time>2015-04-18T12:31:15Z</time>
      </trkpt>
      <trkpt lat="46.17085" lon="3.43984">
        <ele>337.55</ele>
        <time>2015-04-18T12:31:25Z</time>
      </trkpt>
      <trkpt lat="46.17067" lon="3.43994">
        <ele>338.54</ele>
        <time>2015-04-18T12:31:36Z</time>
      </trkpt>
      <trkpt lat="46.17048" lon="3.44003">
        <ele>338.55</ele>
        <time>2015-04-18T12:31:46Z</time>
      </trkpt>
      <trkpt lat="46.17031" lon="3.44012">
        <ele>338.55</ele>
        <time>2015-04-18T12:31:55Z</time>
      </trkpt>
      <trkpt lat="46.17012" lon="3.44018">
        <ele>338.55</ele>
        <time>2015-04-18T12:32:04Z</time>
      </trkpt>
      <trkpt lat="46.16993" lon="3.44024">
        <ele>339.05</ele>
        <time>2015-04-18T12:32:13Z</time>
      </trkpt>
      <trkpt lat="46.16974" lon="3.44024">
        <ele>339.55</ele>
        <time>2015-04-18T12:32:20Z</time>
      </trkpt>
      <trkpt lat="46.16955" lon="3.44024">
        <ele>339.55</ele>
        <time>2015-04-18T12:32:28Z</time>
      </trkpt>
      <trkpt lat="46.16935" lon="3.44024">
        <ele>340.52</ele>
        <time>2015-04-18T12:32:36Z</time>
      </trkpt>
      <trkpt lat="46.16916" lon="3.44027">
        <ele>340.55</ele>
        <time>2015-04-18T12:32:44Z</time>
      </trkpt>
      <trkpt lat="46.16897" lon="3.44033">
        <ele>341.55</ele>
        <time>2015-04-18T12:32:52Z</time>
      </trkpt>
      <trkpt lat="46.16879" lon="3.44042">
        <ele>341.55</ele>
        <time>2015-04-18T12:32:59Z</time>
      </trkpt>
      <trkpt lat="46.16862" lon="3.44052">
        <ele>342.55</ele>
        <time>2015-04-18T12:33:06Z</time>
      </trkpt>
      <trkpt lat="46.16851" lon="3.44076">
        <ele>342.55</ele>
        <time>2015-04-18T12:33:12Z</time>
      </trkpt>
      <trkpt lat="46.16838" lon="3.44097">
        <ele>343.52</ele>
        <time>2015-04-18T12:33:19Z</time>
      </trkpt>
      <trkpt lat="46.16826" lon="3.44119">
        <ele>343.55</ele>
        <time>2015-04-18T12:33:26Z</time>
      </trkpt>
      <trkpt lat="46.16813" lon="3.44142">
        <ele>344.54</ele>
        <time>2015-04-18T12:33:33Z</time>
      </trkpt>
      <trkpt lat="46.16805" lon="3.44166">
        <ele>346.29</ele>
        <time>2015-04-18T12:33:39Z</time>
      </trkpt>
      <trkpt lat="46.16796" lon="3.44192">
        <ele>348.41</ele>
        <time>2015-04-18T12:33:46Z</time>
      </trkpt>
      <trkpt lat="46.1679" lon="3.44218">
        <ele>350.41</ele>
        <time>2015-04-18T12:33:53Z</time>
      </trkpt>
      <trkpt lat="46.16787" lon="3.44243">
        <ele>352.98</ele>
        <time>2015-04-18T12:34:00Z</time>
      </trkpt>
      <trkpt lat="46.16778" lon="3.44267">
        <ele>355.27</ele>
        <time>2015-04-18T12:34:07Z</time>
      </trkpt>
      <trkpt lat="46.16761" lon="3.44275">
        <ele>357.41</ele>
        <time>2015-04-18T12:34:14Z</time>
      </trkpt>
      <trkpt lat="46.16743" lon="3.44284">
        <ele>359.41</ele>
        <time>2015-04-18T12:34:21Z</time>
      </trkpt>
      <trkpt lat="46.16724" lon="3.4429">
        <ele>361.42</ele>
        <time>2015-04-18T12:34:29Z</time>
      </trkpt>
      <trkpt lat="46.16706" lon="3.44299">
        <ele>363.42</ele>
        <time>2015-04-18T12:34:37Z</time>
      </trkpt>
      <trkpt lat="46.16689" lon="3.44312">
        <ele>365.29</ele>
        <time>2015-04-18T12:34:45Z</time>
      </trkpt>
      <trkpt lat="46.16673" lon="3.44327">
        <ele>366.49</ele>
        <time>2015-04-18T12:34:52Z</time>
      </trkpt>
      <trkpt lat="46.16657" lon="3.4434">
        <ele>367.49</ele>
        <time>2015-04-18T12:34:58Z</time>
      </trkpt>
      <trkpt lat="46.16639" lon="3.44353">
        <ele>368.54</ele>
        <time>2015-04-18T12:35:05Z</time>
      </trkpt>
      <trkpt lat="46.16619" lon="3.44363">
        <ele>370.05</ele>
        <time>2015-04-18T12:35:12Z</time>
      </trkpt>
      <trkpt lat="46.166" lon="3.44376">
        <ele>370.55</ele>
        <time>2015-04-18T12:35:19Z</time>
      </trkpt>
      <trkpt lat="46.1658" lon="3.44389">
        <ele>371.54</ele>
        <time>2015-04-18T12:35:25Z</time>
      </trkpt>
      <trkpt lat="46.16561" lon="3.444">
        <ele>372.43</ele>
        <time>2015-04-18T12:35:30Z</time>
      </trkpt>
      <trkpt lat="46.16542" lon="3.44409">
        <ele>374.24</ele>
        <time>2015-04-18T12:35:35Z</time>
      </trkpt>
      <trkpt lat="46.16524" lon="3.44421">
        <ele>375.42</ele>
        <time>2015-04-18T12:35:40Z</time>
      </trkpt>
      <trkpt lat="46.16508" lon="3.44436">
        <ele>376.42</ele>
        <time>2015-04-18T12:35:45Z</time>
      </trkpt>
      <trkpt lat="46.16492" lon="3.44451">
        <ele>377.52</ele>
        <time>2015-04-18T12:35:50Z</time>
      </trkpt>
      <trkpt lat="46.16477" lon="3.44466">
        <ele>378.49</ele>
        <time>2015-04-18T12:35:55Z</time>
      </trkpt>
      <trkpt lat="46.1646" lon="3.44484">
        <ele>378.55</ele>
        <time>2015-04-18T12:36:00Z</time>
      </trkpt>
      <trkpt lat="46.16445" lon="3.44499">
        <ele>379.3</ele>
        <time>2015-04-18T12:36:05Z</time>
      </trkpt>
      <trkpt lat="46.16429" lon="3.44516">
        <ele>379.55</ele>
        <time>2015-04-18T12:36:11Z</time>
      </trkpt>
      <trkpt lat="46.16414" lon="3.44531">
        <ele>379.55</ele>
        <time>2015-04-18T12:36:16Z</time>
      </trkpt>
      <trkpt lat="46.16398" lon="3.44546">
        <ele>380.05</ele>
        <time>2015-04-18T12:36:22Z</time>
      </trkpt>
      <trkpt lat="46.16381" lon="3.44563">
        <ele>380.55</ele>
        <time>2015-04-18T12:36:28Z</time>
      </trkpt>
      <trkpt lat="46.16363" lon="3.44574">
        <ele>381.3</ele>
        <time>2015-04-18T12:36:34Z</time>
      </trkpt>
      <trkpt lat="46.16345" lon="3.44576">
        <ele>381.55</ele>
        <time>2015-04-18T12:36:39Z</time>
      </trkpt>
      <trkpt lat="46.16326" lon="3.44578">
        <ele>381.55</ele>
        <time>2015-04-18T12:36:44Z</time>
      </trkpt>
      <trkpt lat="46.16306" lon="3.44584">
        <ele>382.52</ele>
        <time>2015-04-18T12:36:50Z</time>
      </trkpt>
      <trkpt lat="46.16288" lon="3.44591">
        <ele>382.55</ele>
        <time>2015-04-18T12:36:55Z</time>
      </trkpt>
      <trkpt lat="46.16267" lon="3.44599">
        <ele>382.55</ele>
        <time>2015-04-18T12:37:01Z</time>
      </trkpt>
      <trkpt lat="46.16248" lon="3.44606">
        <ele>383.54</ele>
        <time>2015-04-18T12:37:07Z</time>
      </trkpt>
      <trkpt lat="46.16228" lon="3.44612">
        <ele>383.55</ele>
        <time>2015-04-18T12:37:13Z</time>
      </trkpt>
      <trkpt lat="46.16209" lon="3.44617">
        <ele>384.3</ele>
        <time>2015-04-18T12:37:18Z</time>
      </trkpt>
      <trkpt lat="46.16188" lon="3.44623">
        <ele>385.97</ele>
        <time>2015-04-18T12:37:22Z</time>
      </trkpt>
      <trkpt lat="46.1617" lon="3.4464">
        <ele>386.52</ele>
        <time>2015-04-18T12:37:26Z</time>
      </trkpt>
      <trkpt lat="46.16155" lon="3.4466">
        <ele>387.49</ele>
        <time>2015-04-18T12:37:30Z</time>
      </trkpt>
      <trkpt lat="46.16142" lon="3.44681">
        <ele>388.49</ele>
        <time>2015-04-18T12:37:34Z</time>
      </trkpt>
      <trkpt lat="46.16128" lon="3.44698">
        <ele>389.42</ele>
        <time>2015-04-18T12:37:38Z</time>
      </trkpt>
      <trkpt lat="46.16107" lon="3.44705">
        <ele>390.42</ele>
        <time>2015-04-18T12:37:43Z</time>
      </trkpt>
      <trkpt lat="46.16088" lon="3.447">
        <ele>391.3</ele>
        <time>2015-04-18T12:37:48Z</time>
      </trkpt>
      <trkpt lat="46.16069" lon="3.44692">
        <ele>392.3</ele>
        <time>2015-04-18T12:37:53Z</time>
      </trkpt>
      <trkpt lat="46.1605" lon="3.44687">
        <ele>392.54</ele>
        <time>2015-04-18T12:37:57Z</time>
      </trkpt>
      <trkpt lat="46.16029" lon="3.44685">
        <ele>393.49</ele>
        <time>2015-04-18T12:38:01Z</time>
      </trkpt>
      <trkpt lat="46.1601" lon="3.44687">
        <ele>394.99</ele>
        <time>2015-04-18T12:38:05Z</time>
      </trkpt>
      <trkpt lat="46.15992" lon="3.44692">
        <ele>395.52</ele>
        <time>2015-04-18T12:38:09Z</time>
      </trkpt>
      <trkpt lat="46.1597" lon="3.44696">
        <ele>396.52</ele>
        <time>2015-04-18T12:38:14Z</time>
      </trkpt>
      <trkpt lat="46.15952" lon="3.44698">
        <ele>397.05</ele>
        <time>2015-04-18T12:38:18Z</time>
      </trkpt>
      <trkpt lat="46.15934" lon="3.447">
        <ele>397.52</ele>
        <time>2015-04-18T12:38:22Z</time>
      </trkpt>
      <trkpt lat="46.15913" lon="3.44705">
        <ele>397.55</ele>
        <time>2015-04-18T12:38:26Z</time>
      </trkpt>
      <trkpt lat="46.15893" lon="3.44713">
        <ele>398.3</ele>
        <time>2015-04-18T12:38:30Z</time>
      </trkpt>
      <trkpt lat="46.15873" lon="3.44726">
        <ele>398.54</ele>
        <time>2015-04-18T12:38:34Z</time>
      </trkpt>
      <trkpt lat="46.15852" lon="3.44739">
        <ele>399.49</ele>
        <time>2015-04-18T12:38:38Z</time>
      </trkpt>
      <trkpt lat="46.15831" lon="3.44752">
        <ele>399.55</ele>
        <time>2015-04-18T12:38:42Z</time>
      </trkpt>
      <trkpt lat="46.1581" lon="3.44765">
        <ele>399.55</ele>
        <time>2015-04-18T12:38:46Z</time>
      </trkpt>
      <trkpt lat="46.1579" lon="3.44778">
        <ele>399.55</ele>
        <time>2015-04-18T12:38:50Z</time>
      </trkpt>
      <trkpt lat="46.15773" lon="3.44788">
        <ele>399.55</ele>
        <time>2015-04-18T12:38:53Z</time>
      </trkpt>
      <trkpt lat="46.15754" lon="3.44797">
        <ele>400.43</ele>
        <time>2015-04-18T12:38:56Z</time>
      </trkpt>
      <trkpt lat="46.15733" lon="3.44803">
        <ele>399.79</ele>
        <time>2015-04-18T12:38:59Z</time>
      </trkpt>
      <trkpt lat="46.15711" lon="3.44812">
        <ele>399.58</ele>
        <time>2015-04-18T12:39:02Z</time>
      </trkpt>
      <trkpt lat="46.15687" lon="3.44818">
        <ele>398.68</ele>
        <time>2015-04-18T12:39:05Z</time>
      </trkpt>
      <trkpt lat="46.1567" lon="3.44827">
        <ele>398.59</ele>
        <time>2015-04-18T12:39:07Z</time>
      </trkpt>
      <trkpt lat="46.15653" lon="3.44838">
        <ele>398.56</ele>
        <time>2015-04-18T12:39:09Z</time>
      </trkpt>
      <trkpt lat="46.1564" lon="3.44863">
        <ele>397.18</ele>
        <time>2015-04-18T12:39:12Z</time>
      </trkpt>
      <trkpt lat="46.1563" lon="3.44891">
        <ele>396.13</ele>
        <time>2015-04-18T12:39:15Z</time>
      </trkpt>
      <trkpt lat="46.1561" lon="3.44917">
        <ele>394.88</ele>
        <time>2015-04-18T12:39:18Z</time>
      </trkpt>
      <trkpt lat="46.1559" lon="3.44934">
        <ele>393.88</ele>
        <time>2015-04-18T12:39:20Z</time>
      </trkpt>
      <trkpt lat="46.1557" lon="3.44947">
        <ele>393.64</ele>
        <time>2015-04-18T12:39:22Z</time>
      </trkpt>
      <trkpt lat="46.15552" lon="3.44958">
        <ele>392.82</ele>
        <time>2015-04-18T12:39:24Z</time>
      </trkpt>
      <trkpt lat="46.15557" lon="3.44988">
        <ele>392.06</ele>
        <time>2015-04-18T12:39:31Z</time>
      </trkpt>
      <trkpt lat="46.15571" lon="3.45014">
        <ele>387.54</ele>
        <time>2015-04-18T12:39:36Z</time>
      </trkpt>
      <trkpt lat="46.15575" lon="3.45039">
        <ele>384.99</ele>
        <time>2015-04-18T12:39:40Z</time>
      </trkpt>
      <trkpt lat="46.15581" lon="3.45069">
        <ele>382.85</ele>
        <time>2015-04-18T12:39:45Z</time>
      </trkpt>
      <trkpt lat="46.15584" lon="3.45095">
        <ele>382.57</ele>
        <time>2015-04-18T12:39:49Z</time>
      </trkpt>
      <trkpt lat="46.15585" lon="3.45125">
        <ele>381.58</ele>
        <time>2015-04-18T12:39:54Z</time>
      </trkpt>
      <trkpt lat="46.15586" lon="3.45153">
        <ele>382.43</ele>
        <time>2015-04-18T12:39:59Z</time>
      </trkpt>
      <trkpt lat="46.15589" lon="3.45181">
        <ele>383.05</ele>
        <time>2015-04-18T12:40:04Z</time>
      </trkpt>
      <trkpt lat="46.15592" lon="3.45207">
        <ele>383.52</ele>
        <time>2015-04-18T12:40:08Z</time>
      </trkpt>
      <trkpt lat="46.15597" lon="3.45237">
        <ele>383.55</ele>
        <time>2015-04-18T12:40:12Z</time>
      </trkpt>
      <trkpt lat="46.156" lon="3.45263">
        <ele>383.55</ele>
        <time>2015-04-18T12:40:15Z</time>
      </trkpt>
      <trkpt lat="46.15594" lon="3.45288">
        <ele>384.3</ele>
        <time>2015-04-18T12:40:18Z</time>
      </trkpt>
      <trkpt lat="46.1558" lon="3.45318">
        <ele>384.52</ele>
        <time>2015-04-18T12:40:21Z</time>
      </trkpt>
      <trkpt lat="46.15572" lon="3.45346">
        <ele>384.55</ele>
        <time>2015-04-18T12:40:24Z</time>
      </trkpt>
      <trkpt lat="46.1557" lon="3.45374">
        <ele>384.55</ele>
        <time>2015-04-18T12:40:27Z</time>
      </trkpt>
      <trkpt lat="46.15573" lon="3.45408">
        <ele>383.8</ele>
        <time>2015-04-18T12:40:31Z</time>
      </trkpt>
      <trkpt lat="46.15576" lon="3.45434">
        <ele>383.57</ele>
        <time>2015-04-18T12:40:35Z</time>
      </trkpt>
      <trkpt lat="46.15583" lon="3.45466">
        <ele>383.55</ele>
        <time>2015-04-18T12:40:39Z</time>
      </trkpt>
      <trkpt lat="46.15599" lon="3.45494">
        <ele>382.68</ele>
        <time>2015-04-18T12:40:42Z</time>
      </trkpt>
      <trkpt lat="46.15614" lon="3.45526">
        <ele>382.07</ele>
        <time>2015-04-18T12:40:45Z</time>
      </trkpt>
      <trkpt lat="46.15616" lon="3.45563">
        <ele>381.62</ele>
        <time>2015-04-18T12:40:48Z</time>
      </trkpt>
      <trkpt lat="46.15612" lon="3.45597">
        <ele>381.56</ele>
        <time>2015-04-18T12:40:51Z</time>
      </trkpt>
      <trkpt lat="46.15602" lon="3.45629">
        <ele>379.43</ele>
        <time>2015-04-18T12:40:54Z</time>
      </trkpt>
      <trkpt lat="46.15596" lon="3.45657">
        <ele>374.41</ele>
        <time>2015-04-18T12:40:57Z</time>
      </trkpt>
      <trkpt lat="46.15604" lon="3.45681">
        <ele>369.41</ele>
        <time>2015-04-18T12:41:00Z</time>
      </trkpt>
      <trkpt lat="46.15616" lon="3.45711">
        <ele>362.86</ele>
        <time>2015-04-18T12:41:04Z</time>
      </trkpt>
      <trkpt lat="46.15626" lon="3.45737">
        <ele>354.47</ele>
        <time>2015-04-18T12:41:07Z</time>
      </trkpt>
      <trkpt lat="46.15636" lon="3.45762">
        <ele>347.67</ele>
        <time>2015-04-18T12:41:10Z</time>
      </trkpt>
      <trkpt lat="46.15633" lon="3.45797">
        <ele>341.69</ele>
        <time>2015-04-18T12:41:14Z</time>
      </trkpt>
      <trkpt lat="46.15629" lon="3.45823">
        <ele>339.07</ele>
        <time>2015-04-18T12:41:17Z</time>
      </trkpt>
      <trkpt lat="46.15619" lon="3.4585">
        <ele>336.9</ele>
        <time>2015-04-18T12:41:21Z</time>
      </trkpt>
      <trkpt lat="46.15601" lon="3.45868">
        <ele>335.7</ele>
        <time>2015-04-18T12:41:25Z</time>
      </trkpt>
      <trkpt lat="46.15579" lon="3.45878">
        <ele>335.56</ele>
        <time>2015-04-18T12:41:29Z</time>
      </trkpt>
      <trkpt lat="46.15568" lon="3.45906">
        <ele>336.05</ele>
        <time>2015-04-18T12:41:33Z</time>
      </trkpt>
      <trkpt lat="46.1557" lon="3.45943">
        <ele>338.33</ele>
        <time>2015-04-18T12:41:37Z</time>
      </trkpt>
      <trkpt lat="46.15577" lon="3.45979">
        <ele>339.4</ele>
        <time>2015-04-18T12:41:40Z</time>
      </trkpt>
      <trkpt lat="46.15577" lon="3.46016">
        <ele>339.53</ele>
        <time>2015-04-18T12:41:43Z</time>
      </trkpt>
      <trkpt lat="46.15577" lon="3.46048">
        <ele>338.68</ele>
        <time>2015-04-18T12:41:46Z</time>
      </trkpt>
      <trkpt lat="46.15579" lon="3.46082">
        <ele>336.87</ele>
        <time>2015-04-18T12:41:50Z</time>
      </trkpt>
      <trkpt lat="46.15571" lon="3.46106">
        <ele>336.56</ele>
        <time>2015-04-18T12:41:55Z</time>
      </trkpt>
      <trkpt lat="46.15556" lon="3.46121">
        <ele>334.24</ele>
        <time>2015-04-18T12:41:59Z</time>
      </trkpt>
      <trkpt lat="46.15541" lon="3.4614">
        <ele>331.91</ele>
        <time>2015-04-18T12:42:03Z</time>
      </trkpt>
      <trkpt lat="46.15531" lon="3.46164">
        <ele>330.85</ele>
        <time>2015-04-18T12:42:06Z</time>
      </trkpt>
      <trkpt lat="46.15524" lon="3.46187">
        <ele>329.84</ele>
        <time>2015-04-18T12:42:09Z</time>
      </trkpt>
      <trkpt lat="46.15515" lon="3.4622">
        <ele>328.7</ele>
        <time>2015-04-18T12:42:13Z</time>
      </trkpt>
      <trkpt lat="46.15507" lon="3.4625">
        <ele>327.62</ele>
        <time>2015-04-18T12:42:17Z</time>
      </trkpt>
      <trkpt lat="46.15497" lon="3.46277">
        <ele>326.81</ele>
        <time>2015-04-18T12:42:21Z</time>
      </trkpt>
      <trkpt lat="46.15487" lon="3.46305">
        <ele>326.57</ele>
        <time>2015-04-18T12:42:25Z</time>
      </trkpt>
      <trkpt lat="46.15477" lon="3.46333">
        <ele>326.55</ele>
        <time>2015-04-18T12:42:29Z</time>
      </trkpt>
      <trkpt lat="46.15467" lon="3.46361">
        <ele>326.55</ele>
        <time>2015-04-18T12:42:33Z</time>
      </trkpt>
      <trkpt lat="46.15457" lon="3.46391">
        <ele>326.55</ele>
        <time>2015-04-18T12:42:37Z</time>
      </trkpt>
      <trkpt lat="46.15448" lon="3.46421">
        <ele>325.8</ele>
        <time>2015-04-18T12:42:41Z</time>
      </trkpt>
      <trkpt lat="46.15439" lon="3.46453">
        <ele>325.07</ele>
        <time>2015-04-18T12:42:45Z</time>
      </trkpt>
      <trkpt lat="46.15433" lon="3.46479">
        <ele>324.62</ele>
        <time>2015-04-18T12:42:48Z</time>
      </trkpt>
      <trkpt lat="46.15424" lon="3.46505">
        <ele>323.81</ele>
        <time>2015-04-18T12:42:51Z</time>
      </trkpt>
      <trkpt lat="46.15413" lon="3.46529">
        <ele>323.59</ele>
        <time>2015-04-18T12:42:54Z</time>
      </trkpt>
      <trkpt lat="46.15402" lon="3.4655">
        <ele>322.68</ele>
        <time>2015-04-18T12:42:57Z</time>
      </trkpt>
      <trkpt lat="46.15388" lon="3.46569">
        <ele>322.57</ele>
        <time>2015-04-18T12:43:00Z</time>
      </trkpt>
      <trkpt lat="46.15374" lon="3.46589">
        <ele>322.56</ele>
        <time>2015-04-18T12:43:03Z</time>
      </trkpt>
      <trkpt lat="46.15354" lon="3.46595">
        <ele>323.43</ele>
        <time>2015-04-18T12:43:07Z</time>
      </trkpt>
      <trkpt lat="46.15336" lon="3.46584">
        <ele>323.55</ele>
        <time>2015-04-18T12:43:12Z</time>
      </trkpt>
      <trkpt lat="46.15319" lon="3.46574">
        <ele>323.55</ele>
        <time>2015-04-18T12:43:17Z</time>
      </trkpt>
      <trkpt lat="46.15299" lon="3.46561">
        <ele>322.12</ele>
        <time>2015-04-18T12:43:22Z</time>
      </trkpt>
      <trkpt lat="46.15281" lon="3.4655">
        <ele>320.71</ele>
        <time>2015-04-18T12:43:26Z</time>
      </trkpt>
      <trkpt lat="46.15262" lon="3.46533">
        <ele>318.84</ele>
        <time>2015-04-18T12:43:31Z</time>
      </trkpt>
      <trkpt lat="46.15246" lon="3.46509">
        <ele>317.69</ele>
        <time>2015-04-18T12:43:36Z</time>
      </trkpt>
      <trkpt lat="46.15234" lon="3.46486">
        <ele>317.56</ele>
        <time>2015-04-18T12:43:41Z</time>
      </trkpt>
      <trkpt lat="46.1522" lon="3.46464">
        <ele>317.55</ele>
        <time>2015-04-18T12:43:46Z</time>
      </trkpt>
      <trkpt lat="46.15203" lon="3.46449">
        <ele>317.55</ele>
        <time>2015-04-18T12:43:51Z</time>
      </trkpt>
      <trkpt lat="46.15185" lon="3.46434">
        <ele>318.05</ele>
        <time>2015-04-18T12:43:56Z</time>
      </trkpt>
      <trkpt lat="46.15167" lon="3.46421">
        <ele>318.54</ele>
        <time>2015-04-18T12:44:01Z</time>
      </trkpt>
      <trkpt lat="46.15147" lon="3.46406">
        <ele>319.05</ele>
        <time>2015-04-18T12:44:06Z</time>
      </trkpt>
      <trkpt lat="46.15129" lon="3.46393">
        <ele>319.54</ele>
        <time>2015-04-18T12:44:11Z</time>
      </trkpt>
      <trkpt lat="46.15113" lon="3.46372">
        <ele>320.52</ele>
        <time>2015-04-18T12:44:16Z</time>
      </trkpt>
      <trkpt lat="46.15101" lon="3.46348">
        <ele>320.55</ele>
        <time>2015-04-18T12:44:21Z</time>
      </trkpt>
      <trkpt lat="46.15088" lon="3.46329">
        <ele>320.55</ele>
        <time>2015-04-18T12:44:26Z</time>
      </trkpt>
      <trkpt lat="46.15071" lon="3.46314">
        <ele>321.05</ele>
        <time>2015-04-18T12:44:31Z</time>
      </trkpt>
      <trkpt lat="46.15053" lon="3.46308">
        <ele>321.54</ele>
        <time>2015-04-18T12:44:36Z</time>
      </trkpt>
      <trkpt lat="46.15034" lon="3.46312">
        <ele>321.55</ele>
        <time>2015-04-18T12:44:42Z</time>
      </trkpt>
      <trkpt lat="46.15015" lon="3.46327">
        <ele>321.55</ele>
        <time>2015-04-18T12:44:48Z</time>
      </trkpt>
      <trkpt lat="46.14998" lon="3.4634">
        <ele>321.55</ele>
        <time>2015-04-18T12:44:54Z</time>
      </trkpt>
      <trkpt lat="46.1498" lon="3.46355">
        <ele>322.54</ele>
        <time>2015-04-18T12:45:00Z</time>
      </trkpt>
      <trkpt lat="46.14962" lon="3.4637">
        <ele>322.55</ele>
        <time>2015-04-18T12:45:06Z</time>
      </trkpt>
      <trkpt lat="46.14943" lon="3.46383">
        <ele>322.55</ele>
        <time>2015-04-18T12:45:12Z</time>
      </trkpt>
      <trkpt lat="46.14924" lon="3.46393">
        <ele>323.49</ele>
        <time>2015-04-18T12:45:18Z</time>
      </trkpt>
      <trkpt lat="46.14906" lon="3.46404">
        <ele>323.55</ele>
        <time>2015-04-18T12:45:24Z</time>
      </trkpt>
      <trkpt lat="46.14887" lon="3.46408">
        <ele>324.43</ele>
        <time>2015-04-18T12:45:30Z</time>
      </trkpt>
      <trkpt lat="46.14867" lon="3.46411">
        <ele>324.55</ele>
        <time>2015-04-18T12:45:36Z</time>
      </trkpt>
      <trkpt lat="46.14847" lon="3.46411">
        <ele>324.55</ele>
        <time>2015-04-18T12:45:42Z</time>
      </trkpt>
      <trkpt lat="46.14825" lon="3.46411">
        <ele>325.54</ele>
        <time>2015-04-18T12:45:48Z</time>
      </trkpt>
      <trkpt lat="46.14805" lon="3.46406">
        <ele>325.55</ele>
        <time>2015-04-18T12:45:54Z</time>
      </trkpt>
      <trkpt lat="46.14787" lon="3.46402">
        <ele>326.52</ele>
        <time>2015-04-18T12:45:59Z</time>
      </trkpt>
      <trkpt lat="46.14767" lon="3.46395">
        <ele>327.43</ele>
        <time>2015-04-18T12:46:05Z</time>
      </trkpt>
      <trkpt lat="46.14748" lon="3.46393">
        <ele>328.05</ele>
        <time>2015-04-18T12:46:11Z</time>
      </trkpt>
      <trkpt lat="46.14729" lon="3.46391">
        <ele>328.55</ele>
        <time>2015-04-18T12:46:17Z</time>
      </trkpt>
      <trkpt lat="46.14708" lon="3.46393">
        <ele>329.49</ele>
        <time>2015-04-18T12:46:23Z</time>
      </trkpt>
      <trkpt lat="46.1469" lon="3.46395">
        <ele>329.55</ele>
        <time>2015-04-18T12:46:28Z</time>
      </trkpt>
      <trkpt lat="46.14672" lon="3.46398">
        <ele>330.49</ele>
        <time>2015-04-18T12:46:33Z</time>
      </trkpt>
      <trkpt lat="46.14654" lon="3.46402">
        <ele>331.05</ele>
        <time>2015-04-18T12:46:38Z</time>
      </trkpt>
      <trkpt lat="46.14633" lon="3.46406">
        <ele>331.55</ele>
        <time>2015-04-18T12:46:44Z</time>
      </trkpt>
      <trkpt lat="46.14613" lon="3.46413">
        <ele>332.43</ele>
        <time>2015-04-18T12:46:50Z</time>
      </trkpt>
      <trkpt lat="46.14604" lon="3.46436">
        <ele>333.05</ele>
        <time>2015-04-18T12:46:56Z</time>
      </trkpt>
      <trkpt lat="46.14599" lon="3.46464">
        <ele>334.49</ele>
        <time>2015-04-18T12:47:03Z</time>
      </trkpt>
      <trkpt lat="46.14587" lon="3.4649">
        <ele>338.04</ele>
        <time>2015-04-18T12:47:09Z</time>
      </trkpt>
      <trkpt lat="46.14572" lon="3.46507">
        <ele>343.46</ele>
        <time>2015-04-18T12:47:13Z</time>
      </trkpt>
      <trkpt lat="46.14556" lon="3.46522">
        <ele>345.17</ele>
        <time>2015-04-18T12:47:16Z</time>
      </trkpt>
      <trkpt lat="46.14538" lon="3.46539">
        <ele>346.25</ele>
        <time>2015-04-18T12:47:19Z</time>
      </trkpt>
      <trkpt lat="46.1452" lon="3.46556">
        <ele>346.52</ele>
        <time>2015-04-18T12:47:22Z</time>
      </trkpt>
      <trkpt lat="46.14505" lon="3.46578">
        <ele>346.55</ele>
        <time>2015-04-18T12:47:26Z</time>
      </trkpt>
      <trkpt lat="46.14509" lon="3.46606">
        <ele>346.55</ele>
        <time>2015-04-18T12:47:31Z</time>
      </trkpt>
      <trkpt lat="46.14516" lon="3.46629">
        <ele>346.55</ele>
        <time>2015-04-18T12:47:35Z</time>
      </trkpt>
      <trkpt lat="46.14524" lon="3.46659">
        <ele>345.8</ele>
        <time>2015-04-18T12:47:40Z</time>
      </trkpt>
      <trkpt lat="46.14529" lon="3.46687">
        <ele>345.57</ele>
        <time>2015-04-18T12:47:44Z</time>
      </trkpt>
      <trkpt lat="46.14537" lon="3.46715">
        <ele>344.62</ele>
        <time>2015-04-18T12:47:48Z</time>
      </trkpt>
      <trkpt lat="46.14549" lon="3.46741">
        <ele>344.56</ele>
        <time>2015-04-18T12:47:52Z</time>
      </trkpt>
      <trkpt lat="46.1456" lon="3.46767">
        <ele>344.55</ele>
        <time>2015-04-18T12:47:56Z</time>
      </trkpt>
      <trkpt lat="46.14572" lon="3.4679">
        <ele>345.49</ele>
        <time>2015-04-18T12:48:00Z</time>
      </trkpt>
      <trkpt lat="46.14583" lon="3.46814">
        <ele>345.55</ele>
        <time>2015-04-18T12:48:04Z</time>
      </trkpt>
      <trkpt lat="46.14588" lon="3.46842">
        <ele>345.55</ele>
        <time>2015-04-18T12:48:08Z</time>
      </trkpt>
      <trkpt lat="46.14583" lon="3.4687">
        <ele>344.8</ele>
        <time>2015-04-18T12:48:12Z</time>
      </trkpt>
      <trkpt lat="46.14576" lon="3.46895">
        <ele>344.56</ele>
        <time>2015-04-18T12:48:17Z</time>
      </trkpt>
      <trkpt lat="46.1459" lon="3.46917">
        <ele>344.55</ele>
        <time>2015-04-18T12:48:24Z</time>
      </trkpt>
      <trkpt lat="46.14598" lon="3.46941">
        <ele>344.55</ele>
        <time>2015-04-18T12:48:29Z</time>
      </trkpt>
      <trkpt lat="46.1459" lon="3.46968">
        <ele>343.68</ele>
        <time>2015-04-18T12:48:33Z</time>
      </trkpt>
      <trkpt lat="46.14582" lon="3.46992">
        <ele>343.57</ele>
        <time>2015-04-18T12:48:36Z</time>
      </trkpt>
      <trkpt lat="46.14572" lon="3.4702">
        <ele>343.55</ele>
        <time>2015-04-18T12:48:40Z</time>
      </trkpt>
      <trkpt lat="46.14566" lon="3.47048">
        <ele>344.3</ele>
        <time>2015-04-18T12:48:44Z</time>
      </trkpt>
      <trkpt lat="46.14559" lon="3.47078">
        <ele>344.55</ele>
        <time>2015-04-18T12:48:49Z</time>
      </trkpt>
      <trkpt lat="46.14549" lon="3.47099">
        <ele>344.55</ele>
        <time>2015-04-18T12:48:54Z</time>
      </trkpt>
      <trkpt lat="46.14536" lon="3.47121">
        <ele>344.55</ele>
        <time>2015-04-18T12:48:59Z</time>
      </trkpt>
      <trkpt lat="46.14523" lon="3.4714">
        <ele>345.43</ele>
        <time>2015-04-18T12:49:04Z</time>
      </trkpt>
      <trkpt lat="46.14509" lon="3.47164">
        <ele>345.55</ele>
        <time>2015-04-18T12:49:10Z</time>
      </trkpt>
      <trkpt lat="46.14495" lon="3.47187">
        <ele>344.68</ele>
        <time>2015-04-18T12:49:16Z</time>
      </trkpt>
      <trkpt lat="46.14482" lon="3.47209">
        <ele>344.55</ele>
        <time>2015-04-18T12:49:22Z</time>
      </trkpt>
      <trkpt lat="46.14467" lon="3.47228">
        <ele>344.55</ele>
        <time>2015-04-18T12:49:28Z</time>
      </trkpt>
      <trkpt lat="46.14458" lon="3.47252">
        <ele>344.55</ele>
        <time>2015-04-18T12:49:34Z</time>
      </trkpt>
      <trkpt lat="46.14472" lon="3.47273">
        <ele>345.55</ele>
        <time>2015-04-18T12:49:41Z</time>
      </trkpt>
      <trkpt lat="46.14493" lon="3.47284">
        <ele>348.62</ele>
        <time>2015-04-18T12:49:46Z</time>
      </trkpt>
      <trkpt lat="46.14509" lon="3.47297">
        <ele>351.12</ele>
        <time>2015-04-18T12:49:50Z</time>
      </trkpt>
      <trkpt lat="46.14525" lon="3.47314">
        <ele>352.9</ele>
        <time>2015-04-18T12:49:54Z</time>
      </trkpt>
      <trkpt lat="46.14539" lon="3.47337">
        <ele>353.51</ele>
        <time>2015-04-18T12:49:58Z</time>
      </trkpt>
      <trkpt lat="46.14552" lon="3.47361">
        <ele>353.55</ele>
        <time>2015-04-18T12:50:02Z</time>
      </trkpt>
      <trkpt lat="46.14568" lon="3.4738">
        <ele>353.05</ele>
        <time>2015-04-18T12:50:06Z</time>
      </trkpt>
      <trkpt lat="46.14585" lon="3.47395">
        <ele>352.58</ele>
        <time>2015-04-18T12:50:10Z</time>
      </trkpt>
      <trkpt lat="46.146" lon="3.47415">
        <ele>351.62</ele>
        <time>2015-04-18T12:50:14Z</time>
      </trkpt>
      <trkpt lat="46.14596" lon="3.47445">
        <ele>351.56</ele>
        <time>2015-04-18T12:50:19Z</time>
      </trkpt>
      <trkpt lat="46.14587" lon="3.47468">
        <ele>351.55</ele>
        <time>2015-04-18T12:50:23Z</time>
      </trkpt>
      <trkpt lat="46.14567" lon="3.47479">
        <ele>351.55</ele>
        <time>2015-04-18T12:50:27Z</time>
      </trkpt>
      <trkpt lat="46.14544" lon="3.47486">
        <ele>352.3</ele>
        <time>2015-04-18T12:50:31Z</time>
      </trkpt>
      <trkpt lat="46.14525" lon="3.47483">
        <ele>352.54</ele>
        <time>2015-04-18T12:50:35Z</time>
      </trkpt>
      <trkpt lat="46.14504" lon="3.47479">
        <ele>352.55</ele>
        <time>2015-04-18T12:50:41Z</time>
      </trkpt>
      <trkpt lat="46.14485" lon="3.47473">
        <ele>352.55</ele>
        <time>2015-04-18T12:50:46Z</time>
      </trkpt>
      <trkpt lat="46.14468" lon="3.47458">
        <ele>352.55</ele>
        <time>2015-04-18T12:50:52Z</time>
      </trkpt>
      <trkpt lat="46.14453" lon="3.47443">
        <ele>352.55</ele>
        <time>2015-04-18T12:50:57Z</time>
      </trkpt>
      <trkpt lat="46.14432" lon="3.47432">
        <ele>353.43</ele>
        <time>2015-04-18T12:51:02Z</time>
      </trkpt>
      <trkpt lat="46.14414" lon="3.47423">
        <ele>353.04</ele>
        <time>2015-04-18T12:51:05Z</time>
      </trkpt>
      <trkpt lat="46.14393" lon="3.47417">
        <ele>352.58</ele>
        <time>2015-04-18T12:51:09Z</time>
      </trkpt>
      <trkpt lat="46.14376" lon="3.47406">
        <ele>352.55</ele>
        <time>2015-04-18T12:51:13Z</time>
      </trkpt>
      <trkpt lat="46.14359" lon="3.47398">
        <ele>352.05</ele>
        <time>2015-04-18T12:51:17Z</time>
      </trkpt>
      <trkpt lat="46.14343" lon="3.47385">
        <ele>351.08</ele>
        <time>2015-04-18T12:51:21Z</time>
      </trkpt>
      <trkpt lat="46.14325" lon="3.47372">
        <ele>350.59</ele>
        <time>2015-04-18T12:51:25Z</time>
      </trkpt>
      <trkpt lat="46.14308" lon="3.47361">
        <ele>350.56</ele>
        <time>2015-04-18T12:51:28Z</time>
      </trkpt>
      <trkpt lat="46.14286" lon="3.47357">
        <ele>349.68</ele>
        <time>2015-04-18T12:51:31Z</time>
      </trkpt>
      <trkpt lat="46.1426" lon="3.47355">
        <ele>349.57</ele>
        <time>2015-04-18T12:51:34Z</time>
      </trkpt>
      <trkpt lat="46.14241" lon="3.4735">
        <ele>348.81</ele>
        <time>2015-04-18T12:51:36Z</time>
      </trkpt>
      <trkpt lat="46.1422" lon="3.47342">
        <ele>348.62</ele>
        <time>2015-04-18T12:51:38Z</time>
      </trkpt>
      <trkpt lat="46.14203" lon="3.47333">
        <ele>349.07</ele>
        <time>2015-04-18T12:51:40Z</time>
      </trkpt>
      <trkpt lat="46.14181" lon="3.4732">
        <ele>349.49</ele>
        <time>2015-04-18T12:51:43Z</time>
      </trkpt>
      <trkpt lat="46.14158" lon="3.47318">
        <ele>349.05</ele>
        <time>2015-04-18T12:51:46Z</time>
      </trkpt>
      <trkpt lat="46.1414" lon="3.47325">
        <ele>348.18</ele>
        <time>2015-04-18T12:51:48Z</time>
      </trkpt>
      <trkpt lat="46.14123" lon="3.47335">
        <ele>346.46</ele>
        <time>2015-04-18T12:51:50Z</time>
      </trkpt>
      <trkpt lat="46.14104" lon="3.47344">
        <ele>345.03</ele>
        <time>2015-04-18T12:51:52Z</time>
      </trkpt>
      <trkpt lat="46.14086" lon="3.4735">
        <ele>343.92</ele>
        <time>2015-04-18T12:51:54Z</time>
      </trkpt>
      <trkpt lat="46.14061" lon="3.47361">
        <ele>342.72</ele>
        <time>2015-04-18T12:51:57Z</time>
      </trkpt>
      <trkpt lat="46.14044" lon="3.47393">
        <ele>341.7</ele>
        <time>2015-04-18T12:52:00Z</time>
      </trkpt>
      <trkpt lat="46.14031" lon="3.47425">
        <ele>339.45</ele>
        <time>2015-04-18T12:52:03Z</time>
      </trkpt>
      <trkpt lat="46.1402" lon="3.47451">
        <ele>336.54</ele>
        <time>2015-04-18T12:52:06Z</time>
      </trkpt>
      <trkpt lat="46.14013" lon="3.47477">
        <ele>332.18</ele>
        <time>2015-04-18T12:52:09Z</time>
      </trkpt>
      <trkpt lat="46.14002" lon="3.47501">
        <ele>326.88</ele>
        <time>2015-04-18T12:52:14Z</time>
      </trkpt>
      <trkpt lat="46.13982" lon="3.47509">
        <ele>324.81</ele>
        <time>2015-04-18T12:52:22Z</time>
      </trkpt>
      <trkpt lat="46.13964" lon="3.47501">
        <ele>322.07</ele>
        <time>2015-04-18T12:52:26Z</time>
      </trkpt>
      <trkpt lat="46.13946" lon="3.47494">
        <ele>316.65</ele>
        <time>2015-04-18T12:52:30Z</time>
      </trkpt>
      <trkpt lat="46.13925" lon="3.47492">
        <ele>312.81</ele>
        <time>2015-04-18T12:52:35Z</time>
      </trkpt>
      <trkpt lat="46.13909" lon="3.47505">
        <ele>311.19</ele>
        <time>2015-04-18T12:52:39Z</time>
      </trkpt>
      <trkpt lat="46.13889" lon="3.47513">
        <ele>309.72</ele>
        <time>2015-04-18T12:52:43Z</time>
      </trkpt>
      <trkpt lat="46.13869" lon="3.47505">
        <ele>308.2</ele>
        <time>2015-04-18T12:52:46Z</time>
      </trkpt>
      <trkpt lat="46.13852" lon="3.47486">
        <ele>307.13</ele>
        <time>2015-04-18T12:52:49Z</time>
      </trkpt>
      <trkpt lat="46.13832" lon="3.47473">
        <ele>306.63</ele>
        <time>2015-04-18T12:52:52Z</time>
      </trkpt>
      <trkpt lat="46.13813" lon="3.47471">
        <ele>306.56</ele>
        <time>2015-04-18T12:52:55Z</time>
      </trkpt>
      <trkpt lat="46.138" lon="3.47447">
        <ele>307.3</ele>
        <time>2015-04-18T12:52:59Z</time>
      </trkpt>
      <trkpt lat="46.13789" lon="3.47419">
        <ele>308.41</ele>
        <time>2015-04-18T12:53:03Z</time>
      </trkpt>
      <trkpt lat="46.13777" lon="3.47391">
        <ele>308.54</ele>
        <time>2015-04-18T12:53:07Z</time>
      </trkpt>
      <trkpt lat="46.13765" lon="3.47363">
        <ele>307.61</ele>
        <time>2015-04-18T12:53:11Z</time>
      </trkpt>
      <trkpt lat="46.13748" lon="3.4734">
        <ele>306.81</ele>
        <time>2015-04-18T12:53:15Z</time>
      </trkpt>
      <trkpt lat="46.1373" lon="3.47359">
        <ele>303.94</ele>
        <time>2015-04-18T12:53:19Z</time>
      </trkpt>
      <trkpt lat="46.13718" lon="3.47387">
        <ele>298.83</ele>
        <time>2015-04-18T12:53:23Z</time>
      </trkpt>
      <trkpt lat="46.13707" lon="3.4741">
        <ele>295.07</ele>
        <time>2015-04-18T12:53:27Z</time>
      </trkpt>
      <trkpt lat="46.13696" lon="3.47434">
        <ele>293.65</ele>
        <time>2015-04-18T12:53:31Z</time>
      </trkpt>
      <trkpt lat="46.13682" lon="3.47456">
        <ele>292.81</ele>
        <time>2015-04-18T12:53:35Z</time>
      </trkpt>
      <trkpt lat="46.13667" lon="3.47473">
        <ele>292.57</ele>
        <time>2015-04-18T12:53:39Z</time>
      </trkpt>
      <trkpt lat="46.13654" lon="3.47494">
        <ele>291.8</ele>
        <time>2015-04-18T12:53:43Z</time>
      </trkpt>
      <trkpt lat="46.13649" lon="3.47524">
        <ele>292.31</ele>
        <time>2015-04-18T12:53:48Z</time>
      </trkpt>
      <trkpt lat="46.13658" lon="3.47554">
        <ele>293.42</ele>
        <time>2015-04-18T12:53:53Z</time>
      </trkpt>
      <trkpt lat="46.13666" lon="3.47584">
        <ele>294.49</ele>
        <time>2015-04-18T12:53:58Z</time>
      </trkpt>
      <trkpt lat="46.13672" lon="3.47614">
        <ele>295.49</ele>
        <time>2015-04-18T12:54:03Z</time>
      </trkpt>
      <trkpt lat="46.13675" lon="3.4764">
        <ele>296.42</ele>
        <time>2015-04-18T12:54:07Z</time>
      </trkpt>
      <trkpt lat="46.1368" lon="3.4767">
        <ele>296.55</ele>
        <time>2015-04-18T12:54:12Z</time>
      </trkpt>
      <trkpt lat="46.13673" lon="3.47696">
        <ele>296.55</ele>
        <time>2015-04-18T12:54:16Z</time>
      </trkpt>
      <trkpt lat="46.13656" lon="3.47711">
        <ele>296.55</ele>
        <time>2015-04-18T12:54:20Z</time>
      </trkpt>
      <trkpt lat="46.13638" lon="3.47726">
        <ele>296.55</ele>
        <time>2015-04-18T12:54:26Z</time>
      </trkpt>
      <trkpt lat="46.13618" lon="3.47737">
        <ele>296.55</ele>
        <time>2015-04-18T12:54:35Z</time>
      </trkpt>
      <trkpt lat="46.13598" lon="3.47741">
        <ele>295.58</ele>
        <time>2015-04-18T12:54:43Z</time>
      </trkpt>
      <trkpt lat="46.13578" lon="3.47745">
        <ele>295.55</ele>
        <time>2015-04-18T12:54:51Z</time>
      </trkpt>
      <trkpt lat="46.13559" lon="3.47754">
        <ele>295.55</ele>
        <time>2015-04-18T12:54:59Z</time>
      </trkpt>
      <trkpt lat="46.13541" lon="3.47764">
        <ele>295.55</ele>
        <time>2015-04-18T12:55:07Z</time>
      </trkpt>
      <trkpt lat="46.13522" lon="3.47782">
        <ele>296.05</ele>
        <time>2015-04-18T12:55:17Z</time>
      </trkpt>
      <trkpt lat="46.13503" lon="3.47795">
        <ele>297.43</ele>
        <time>2015-04-18T12:55:27Z</time>
      </trkpt>
      <trkpt lat="46.13483" lon="3.47799">
        <ele>298.05</ele>
        <time>2015-04-18T12:55:36Z</time>
      </trkpt>
      <trkpt lat="46.13463" lon="3.47805">
        <ele>299.05</ele>
        <time>2015-04-18T12:55:46Z</time>
      </trkpt>
      <trkpt lat="46.13447" lon="3.47818">
        <ele>299.55</ele>
        <time>2015-04-18T12:55:55Z</time>
      </trkpt>
      <trkpt lat="46.13426" lon="3.47842">
        <ele>301.05</ele>
        <time>2015-04-18T12:56:09Z</time>
      </trkpt>
      <trkpt lat="46.13409" lon="3.47855">
        <ele>303.49</ele>
        <time>2015-04-18T12:56:21Z</time>
      </trkpt>
      <trkpt lat="46.13394" lon="3.47872">
        <ele>305.05</ele>
        <time>2015-04-18T12:56:32Z</time>
      </trkpt>
      <trkpt lat="46.13376" lon="3.47893">
        <ele>307.49</ele>
        <time>2015-04-18T12:56:45Z</time>
      </trkpt>
      <trkpt lat="46.13362" lon="3.47919">
        <ele>309.99</ele>
        <time>2015-04-18T12:56:57Z</time>
      </trkpt>
      <trkpt lat="46.13344" lon="3.4794">
        <ele>312.05</ele>
        <time>2015-04-18T12:57:10Z</time>
      </trkpt>
      <trkpt lat="46.13328" lon="3.47955">
        <ele>314.05</ele>
        <time>2015-04-18T12:57:22Z</time>
      </trkpt>
      <trkpt lat="46.13309" lon="3.47966">
        <ele>315.52</ele>
        <time>2015-04-18T12:57:34Z</time>
      </trkpt>
      <trkpt lat="46.13292" lon="3.47975">
        <ele>316.55</ele>
        <time>2015-04-18T12:57:44Z</time>
      </trkpt>
      <trkpt lat="46.13275" lon="3.47986">
        <ele>317.55</ele>
        <time>2015-04-18T12:57:54Z</time>
      </trkpt>
      <trkpt lat="46.13256" lon="3.47994">
        <ele>318.55</ele>
        <time>2015-04-18T12:58:04Z</time>
      </trkpt>
      <trkpt lat="46.13238" lon="3.48001">
        <ele>319.55</ele>
        <time>2015-04-18T12:58:14Z</time>
      </trkpt>
      <trkpt lat="46.13219" lon="3.48007">
        <ele>321.52</ele>
        <time>2015-04-18T12:58:25Z</time>
      </trkpt>
      <trkpt lat="46.13201" lon="3.48013">
        <ele>323.49</ele>
        <time>2015-04-18T12:58:35Z</time>
      </trkpt>
      <trkpt lat="46.13183" lon="3.4802">
        <ele>325.49</ele>
        <time>2015-04-18T12:58:45Z</time>
      </trkpt>
      <trkpt lat="46.13165" lon="3.48028">
        <ele>327.49</ele>
        <time>2015-04-18T12:58:55Z</time>
      </trkpt>
      <trkpt lat="46.13146" lon="3.48039">
        <ele>329.52</ele>
        <time>2015-04-18T12:59:05Z</time>
      </trkpt>
      <trkpt lat="46.13128" lon="3.48046">
        <ele>337.42</ele>
        <time>2015-04-18T13:00:01Z</time>
      </trkpt>
      <trkpt lat="46.13109" lon="3.4805">
        <ele>340.27</ele>
        <time>2015-04-18T13:00:11Z</time>
      </trkpt>
      <trkpt lat="46.13091" lon="3.48052">
        <ele>342.49</ele>
        <time>2015-04-18T13:00:21Z</time>
      </trkpt>
      <trkpt lat="46.13072" lon="3.4805">
        <ele>344.52</ele>
        <time>2015-04-18T13:00:30Z</time>
      </trkpt>
      <trkpt lat="46.13057" lon="3.48031">
        <ele>347.02</ele>
        <time>2015-04-18T13:00:40Z</time>
      </trkpt>
      <trkpt lat="46.13051" lon="3.48003">
        <ele>348.42</ele>
        <time>2015-04-18T13:00:47Z</time>
      </trkpt>
      <trkpt lat="46.13048" lon="3.47975">
        <ele>350.02</ele>
        <time>2015-04-18T13:00:52Z</time>
      </trkpt>
      <trkpt lat="46.13044" lon="3.4794">
        <ele>357.6</ele>
        <time>2015-04-18T13:00:57Z</time>
      </trkpt>
      <trkpt lat="46.13041" lon="3.47908">
        <ele>362.49</ele>
        <time>2015-04-18T13:01:01Z</time>
      </trkpt>
      <trkpt lat="46.13035" lon="3.4788">
        <ele>364.17</ele>
        <time>2015-04-18T13:01:04Z</time>
      </trkpt>
      <trkpt lat="46.13028" lon="3.47855">
        <ele>365.88</ele>
        <time>2015-04-18T13:01:07Z</time>
      </trkpt>
      <trkpt lat="46.13025" lon="3.47827">
        <ele>367.89</ele>
        <time>2015-04-18T13:01:11Z</time>
      </trkpt>
      <trkpt lat="46.13008" lon="3.47816">
        <ele>368.53</ele>
        <time>2015-04-18T13:01:16Z</time>
      </trkpt>
      <trkpt lat="46.1299" lon="3.47818">
        <ele>368.55</ele>
        <time>2015-04-18T13:01:23Z</time>
      </trkpt>
      <trkpt lat="46.12971" lon="3.47825">
        <ele>367.68</ele>
        <time>2015-04-18T13:01:32Z</time>
      </trkpt>
      <trkpt lat="46.12955" lon="3.4784">
        <ele>367.55</ele>
        <time>2015-04-18T13:01:40Z</time>
      </trkpt>
      <trkpt lat="46.12935" lon="3.47842">
        <ele>367.55</ele>
        <time>2015-04-18T13:01:47Z</time>
      </trkpt>
      <trkpt lat="46.12915" lon="3.4784">
        <ele>366.68</ele>
        <time>2015-04-18T13:01:54Z</time>
      </trkpt>
      <trkpt lat="46.12894" lon="3.47835">
        <ele>366.55</ele>
        <time>2015-04-18T13:02:01Z</time>
      </trkpt>
      <trkpt lat="46.12876" lon="3.47831">
        <ele>366.55</ele>
        <time>2015-04-18T13:02:08Z</time>
      </trkpt>
      <trkpt lat="46.12857" lon="3.47844">
        <ele>366.55</ele>
        <time>2015-04-18T13:02:16Z</time>
      </trkpt>
      <trkpt lat="46.12837" lon="3.47848">
        <ele>367.49</ele>
        <time>2015-04-18T13:02:24Z</time>
      </trkpt>
      <trkpt lat="46.12818" lon="3.4785">
        <ele>368.05</ele>
        <time>2015-04-18T13:02:32Z</time>
      </trkpt>
      <trkpt lat="46.12797" lon="3.4785">
        <ele>369.05</ele>
        <time>2015-04-18T13:02:41Z</time>
      </trkpt>
      <trkpt lat="46.12774" lon="3.47857">
        <ele>370.05</ele>
        <time>2015-04-18T13:02:54Z</time>
      </trkpt>
      <trkpt lat="46.12749" lon="3.47863">
        <ele>371.54</ele>
        <time>2015-04-18T13:03:10Z</time>
      </trkpt>
      <trkpt lat="46.12728" lon="3.47865">
        <ele>372.55</ele>
        <time>2015-04-18T13:03:22Z</time>
      </trkpt>
      <trkpt lat="46.12709" lon="3.47865">
        <ele>374.05</ele>
        <time>2015-04-18T13:03:32Z</time>
      </trkpt>
      <trkpt lat="46.12689" lon="3.47867">
        <ele>375.55</ele>
        <time>2015-04-18T13:03:46Z</time>
      </trkpt>
      <trkpt lat="46.12671" lon="3.47874">
        <ele>377.05</ele>
        <time>2015-04-18T13:03:57Z</time>
      </trkpt>
      <trkpt lat="46.12651" lon="3.47876">
        <ele>378.49</ele>
        <time>2015-04-18T13:04:07Z</time>
      </trkpt>
      <trkpt lat="46.12632" lon="3.47876">
        <ele>379.49</ele>
        <time>2015-04-18T13:04:17Z</time>
      </trkpt>
      <trkpt lat="46.12613" lon="3.47883">
        <ele>381.43</ele>
        <time>2015-04-18T13:04:29Z</time>
      </trkpt>
      <trkpt lat="46.12599" lon="3.479">
        <ele>383.05</ele>
        <time>2015-04-18T13:04:40Z</time>
      </trkpt>
      <trkpt lat="46.12592" lon="3.47923">
        <ele>385.3</ele>
        <time>2015-04-18T13:04:53Z</time>
      </trkpt>
      <trkpt lat="46.12587" lon="3.47949">
        <ele>387.05</ele>
        <time>2015-04-18T13:05:05Z</time>
      </trkpt>
      <trkpt lat="46.12585" lon="3.47977">
        <ele>389.43</ele>
        <time>2015-04-18T13:05:19Z</time>
      </trkpt>
      <trkpt lat="46.12581" lon="3.48003">
        <ele>392.29</ele>
        <time>2015-04-18T13:05:31Z</time>
      </trkpt>
      <trkpt lat="46.12579" lon="3.48031">
        <ele>395.49</ele>
        <time>2015-04-18T13:05:47Z</time>
      </trkpt>
      <trkpt lat="46.12574" lon="3.48056">
        <ele>398.42</ele>
        <time>2015-04-18T13:05:59Z</time>
      </trkpt>
      <trkpt lat="46.12564" lon="3.48078">
        <ele>401.29</ele>
        <time>2015-04-18T13:06:12Z</time>
      </trkpt>
      <trkpt lat="46.12555" lon="3.48101">
        <ele>403.42</ele>
        <time>2015-04-18T13:06:24Z</time>
      </trkpt>
      <trkpt lat="46.12553" lon="3.48131">
        <ele>405.52</ele>
        <time>2015-04-18T13:06:37Z</time>
      </trkpt>
      <trkpt lat="46.12555" lon="3.48161">
        <ele>408.04</ele>
        <time>2015-04-18T13:06:49Z</time>
      </trkpt>
      <trkpt lat="46.12556" lon="3.48189">
        <ele>409.49</ele>
        <time>2015-04-18T13:06:58Z</time>
      </trkpt>
      <trkpt lat="46.12553" lon="3.48217">
        <ele>411.43</ele>
        <time>2015-04-18T13:07:08Z</time>
      </trkpt>
      <trkpt lat="46.12548" lon="3.48243">
        <ele>413.04</ele>
        <time>2015-04-18T13:07:17Z</time>
      </trkpt>
      <trkpt lat="46.12541" lon="3.48269">
        <ele>414.52</ele>
        <time>2015-04-18T13:07:26Z</time>
      </trkpt>
      <trkpt lat="46.12532" lon="3.48292">
        <ele>416.49</ele>
        <time>2015-04-18T13:07:36Z</time>
      </trkpt>
      <trkpt lat="46.12526" lon="3.4832">
        <ele>419.29</ele>
        <time>2015-04-18T13:07:47Z</time>
      </trkpt>
      <trkpt lat="46.12519" lon="3.48348">
        <ele>421.52</ele>
        <time>2015-04-18T13:07:59Z</time>
      </trkpt>
      <trkpt lat="46.12513" lon="3.48374">
        <ele>423.54</ele>
        <time>2015-04-18T13:08:10Z</time>
      </trkpt>
      <trkpt lat="46.12506" lon="3.484">
        <ele>426.29</ele>
        <time>2015-04-18T13:08:21Z</time>
      </trkpt>
      <trkpt lat="46.12497" lon="3.48423">
        <ele>428.29</ele>
        <time>2015-04-18T13:08:30Z</time>
      </trkpt>
      <trkpt lat="46.12488" lon="3.48447">
        <ele>430.49</ele>
        <time>2015-04-18T13:08:40Z</time>
      </trkpt>
      <trkpt lat="46.1248" lon="3.4847">
        <ele>433.02</ele>
        <time>2015-04-18T13:08:50Z</time>
      </trkpt>
      <trkpt lat="46.12473" lon="3.48496">
        <ele>435.29</ele>
        <time>2015-04-18T13:09:01Z</time>
      </trkpt>
      <trkpt lat="46.12465" lon="3.4852">
        <ele>436.54</ele>
        <time>2015-04-18T13:09:11Z</time>
      </trkpt>
      <trkpt lat="46.12455" lon="3.48546">
        <ele>438.43</ele>
        <time>2015-04-18T13:09:21Z</time>
      </trkpt>
      <trkpt lat="46.12446" lon="3.48569">
        <ele>439.52</ele>
        <time>2015-04-18T13:09:31Z</time>
      </trkpt>
      <trkpt lat="46.12434" lon="3.48591">
        <ele>440.52</ele>
        <time>2015-04-18T13:09:41Z</time>
      </trkpt>
      <trkpt lat="46.1242" lon="3.4861">
        <ele>441.54</ele>
        <time>2015-04-18T13:09:51Z</time>
      </trkpt>
      <trkpt lat="46.12405" lon="3.48625">
        <ele>442.52</ele>
        <time>2015-04-18T13:10:00Z</time>
      </trkpt>
      <trkpt lat="46.12389" lon="3.4864">
        <ele>443.52</ele>
        <time>2015-04-18T13:10:10Z</time>
      </trkpt>
      <trkpt lat="46.12372" lon="3.48651">
        <ele>444.52</ele>
        <time>2015-04-18T13:10:19Z</time>
      </trkpt>
      <trkpt lat="46.12356" lon="3.48664">
        <ele>445.52</ele>
        <time>2015-04-18T13:10:28Z</time>
      </trkpt>
      <trkpt lat="46.12342" lon="3.48683">
        <ele>446.49</ele>
        <time>2015-04-18T13:10:36Z</time>
      </trkpt>
      <trkpt lat="46.12328" lon="3.487">
        <ele>447.05</ele>
        <time>2015-04-18T13:10:43Z</time>
      </trkpt>
      <trkpt lat="46.12313" lon="3.48717">
        <ele>447.55</ele>
        <time>2015-04-18T13:10:51Z</time>
      </trkpt>
      <trkpt lat="46.123" lon="3.48737">
        <ele>448.54</ele>
        <time>2015-04-18T13:10:59Z</time>
      </trkpt>
      <trkpt lat="46.12285" lon="3.48756">
        <ele>449.49</ele>
        <time>2015-04-18T13:11:07Z</time>
      </trkpt>
      <trkpt lat="46.12271" lon="3.48773">
        <ele>450.05</ele>
        <time>2015-04-18T13:11:14Z</time>
      </trkpt>
      <trkpt lat="46.12256" lon="3.48788">
        <ele>450.55</ele>
        <time>2015-04-18T13:11:21Z</time>
      </trkpt>
      <trkpt lat="46.12242" lon="3.48805">
        <ele>451.52</ele>
        <time>2015-04-18T13:11:28Z</time>
      </trkpt>
      <trkpt lat="46.12228" lon="3.48822">
        <ele>452.43</ele>
        <time>2015-04-18T13:11:35Z</time>
      </trkpt>
      <trkpt lat="46.12215" lon="3.48844">
        <ele>453.49</ele>
        <time>2015-04-18T13:11:43Z</time>
      </trkpt>
      <trkpt lat="46.12204" lon="3.48867">
        <ele>454.52</ele>
        <time>2015-04-18T13:11:51Z</time>
      </trkpt>
      <trkpt lat="46.12197" lon="3.48893">
        <ele>455.54</ele>
        <time>2015-04-18T13:11:59Z</time>
      </trkpt>
      <trkpt lat="46.12189" lon="3.48921">
        <ele>457.42</ele>
        <time>2015-04-18T13:12:07Z</time>
      </trkpt>
      <trkpt lat="46.12183" lon="3.48953">
        <ele>461.55</ele>
        <time>2015-04-18T13:12:12Z</time>
      </trkpt>
      <trkpt lat="46.12176" lon="3.48983">
        <ele>462.43</ele>
        <time>2015-04-18T13:12:15Z</time>
      </trkpt>
      <trkpt lat="46.12171" lon="3.49013">
        <ele>463.42</ele>
        <time>2015-04-18T13:12:19Z</time>
      </trkpt>
      <trkpt lat="46.12168" lon="3.49039">
        <ele>463.55</ele>
        <time>2015-04-18T13:12:24Z</time>
      </trkpt>
      <trkpt lat="46.12171" lon="3.49065">
        <ele>463.55</ele>
        <time>2015-04-18T13:12:28Z</time>
      </trkpt>
      <trkpt lat="46.12167" lon="3.49097">
        <ele>463.55</ele>
        <time>2015-04-18T13:12:33Z</time>
      </trkpt>
      <trkpt lat="46.12155" lon="3.49123">
        <ele>464.3</ele>
        <time>2015-04-18T13:12:38Z</time>
      </trkpt>
      <trkpt lat="46.12144" lon="3.49144">
        <ele>464.54</ele>
        <time>2015-04-18T13:12:42Z</time>
      </trkpt>
      <trkpt lat="46.1213" lon="3.49168">
        <ele>465.52</ele>
        <time>2015-04-18T13:12:47Z</time>
      </trkpt>
      <trkpt lat="46.12114" lon="3.49189">
        <ele>465.05</ele>
        <time>2015-04-18T13:12:52Z</time>
      </trkpt>
      <trkpt lat="46.12097" lon="3.49209">
        <ele>464.57</ele>
        <time>2015-04-18T13:12:57Z</time>
      </trkpt>
      <trkpt lat="46.1208" lon="3.49228">
        <ele>464.55</ele>
        <time>2015-04-18T13:13:02Z</time>
      </trkpt>
      <trkpt lat="46.12065" lon="3.49243">
        <ele>464.55</ele>
        <time>2015-04-18T13:13:06Z</time>
      </trkpt>
      <trkpt lat="46.12048" lon="3.49262">
        <ele>464.55</ele>
        <time>2015-04-18T13:13:11Z</time>
      </trkpt>
      <trkpt lat="46.12033" lon="3.49277">
        <ele>464.05</ele>
        <time>2015-04-18T13:13:15Z</time>
      </trkpt>
      <trkpt lat="46.12015" lon="3.49294">
        <ele>464.54</ele>
        <time>2015-04-18T13:13:20Z</time>
      </trkpt>
      <trkpt lat="46.11998" lon="3.49312">
        <ele>464.55</ele>
        <time>2015-04-18T13:13:25Z</time>
      </trkpt>
      <trkpt lat="46.1198" lon="3.49327">
        <ele>464.55</ele>
        <time>2015-04-18T13:13:30Z</time>
      </trkpt>
      <trkpt lat="46.1196" lon="3.49337">
        <ele>465.3</ele>
        <time>2015-04-18T13:13:35Z</time>
      </trkpt>
      <trkpt lat="46.11941" lon="3.49348">
        <ele>465.55</ele>
        <time>2015-04-18T13:13:40Z</time>
      </trkpt>
      <trkpt lat="46.11923" lon="3.49346">
        <ele>466.05</ele>
        <time>2015-04-18T13:13:45Z</time>
      </trkpt>
      <trkpt lat="46.11916" lon="3.49322">
        <ele>467.04</ele>
        <time>2015-04-18T13:13:50Z</time>
      </trkpt>
      <trkpt lat="46.11907" lon="3.49297">
        <ele>468.41</ele>
        <time>2015-04-18T13:13:55Z</time>
      </trkpt>
      <trkpt lat="46.119" lon="3.49273">
        <ele>469.48</ele>
        <time>2015-04-18T13:13:59Z</time>
      </trkpt>
      <trkpt lat="46.11892" lon="3.49247">
        <ele>470.49</ele>
        <time>2015-04-18T13:14:03Z</time>
      </trkpt>
      <trkpt lat="46.11884" lon="3.49219">
        <ele>471.42</ele>
        <time>2015-04-18T13:14:07Z</time>
      </trkpt>
      <trkpt lat="46.11877" lon="3.49191">
        <ele>471.54</ele>
        <time>2015-04-18T13:14:11Z</time>
      </trkpt>
      <trkpt lat="46.1187" lon="3.49161">
        <ele>472.43</ele>
        <time>2015-04-18T13:14:16Z</time>
      </trkpt>
      <trkpt lat="46.11863" lon="3.49131">
        <ele>472.55</ele>
        <time>2015-04-18T13:14:21Z</time>
      </trkpt>
      <trkpt lat="46.11857" lon="3.49103">
        <ele>473.49</ele>
        <time>2015-04-18T13:14:25Z</time>
      </trkpt>
      <trkpt lat="46.11849" lon="3.49078">
        <ele>473.55</ele>
        <time>2015-04-18T13:14:29Z</time>
      </trkpt>
      <trkpt lat="46.11844" lon="3.4905">
        <ele>473.55</ele>
        <time>2015-04-18T13:14:33Z</time>
      </trkpt>
      <trkpt lat="46.11838" lon="3.49022">
        <ele>473.55</ele>
        <time>2015-04-18T13:14:37Z</time>
      </trkpt>
      <trkpt lat="46.11834" lon="3.4899">
        <ele>473.05</ele>
        <time>2015-04-18T13:14:41Z</time>
      </trkpt>
      <trkpt lat="46.11831" lon="3.48964">
        <ele>472.62</ele>
        <time>2015-04-18T13:14:44Z</time>
      </trkpt>
      <trkpt lat="46.11826" lon="3.48936">
        <ele>472.56</ele>
        <time>2015-04-18T13:14:47Z</time>
      </trkpt>
      <trkpt lat="46.11817" lon="3.48906">
        <ele>471.62</ele>
        <time>2015-04-18T13:14:51Z</time>
      </trkpt>
      <trkpt lat="46.11805" lon="3.48882">
        <ele>471.56</ele>
        <time>2015-04-18T13:14:55Z</time>
      </trkpt>
      <trkpt lat="46.11792" lon="3.48855">
        <ele>471.55</ele>
        <time>2015-04-18T13:14:59Z</time>
      </trkpt>
      <trkpt lat="46.11785" lon="3.48831">
        <ele>471.55</ele>
        <time>2015-04-18T13:15:04Z</time>
      </trkpt>
      <trkpt lat="46.11776" lon="3.48799">
        <ele>471.55</ele>
        <time>2015-04-18T13:15:08Z</time>
      </trkpt>
      <trkpt lat="46.11769" lon="3.48771">
        <ele>470.68</ele>
        <time>2015-04-18T13:15:11Z</time>
      </trkpt>
      <trkpt lat="46.11758" lon="3.48743">
        <ele>469.82</ele>
        <time>2015-04-18T13:15:14Z</time>
      </trkpt>
      <trkpt lat="46.11743" lon="3.48717">
        <ele>468.82</ele>
        <time>2015-04-18T13:15:18Z</time>
      </trkpt>
      <trkpt lat="46.11737" lon="3.48691">
        <ele>467.19</ele>
        <time>2015-04-18T13:15:22Z</time>
      </trkpt>
      <trkpt lat="46.11734" lon="3.48664">
        <ele>463.76</ele>
        <time>2015-04-18T13:15:25Z</time>
      </trkpt>
      <trkpt lat="46.11734" lon="3.48634">
        <ele>458.45</ele>
        <time>2015-04-18T13:15:28Z</time>
      </trkpt>
      <trkpt lat="46.11734" lon="3.48606">
        <ele>452.54</ele>
        <time>2015-04-18T13:15:31Z</time>
      </trkpt>
      <trkpt lat="46.11735" lon="3.48571">
        <ele>445.8</ele>
        <time>2015-04-18T13:15:35Z</time>
      </trkpt>
      <trkpt lat="46.11733" lon="3.48535">
        <ele>441.57</ele>
        <time>2015-04-18T13:15:39Z</time>
      </trkpt>
      <trkpt lat="46.11728" lon="3.48507">
        <ele>439.24</ele>
        <time>2015-04-18T13:15:43Z</time>
      </trkpt>
      <trkpt lat="46.11718" lon="3.48481">
        <ele>436.91</ele>
        <time>2015-04-18T13:15:47Z</time>
      </trkpt>
      <trkpt lat="46.11708" lon="3.48453">
        <ele>435.22</ele>
        <time>2015-04-18T13:15:50Z</time>
      </trkpt>
      <trkpt lat="46.117" lon="3.48423">
        <ele>433.89</ele>
        <time>2015-04-18T13:15:53Z</time>
      </trkpt>
      <trkpt lat="46.11695" lon="3.48393">
        <ele>432.72</ele>
        <time>2015-04-18T13:15:56Z</time>
      </trkpt>
      <trkpt lat="46.11693" lon="3.48361">
        <ele>431.82</ele>
        <time>2015-04-18T13:15:59Z</time>
      </trkpt>
      <trkpt lat="46.11691" lon="3.48325">
        <ele>431.09</ele>
        <time>2015-04-18T13:16:02Z</time>
      </trkpt>
      <trkpt lat="46.11689" lon="3.48286">
        <ele>429.37</ele>
        <time>2015-04-18T13:16:05Z</time>
      </trkpt>
      <trkpt lat="46.1169" lon="3.48252">
        <ele>426.53</ele>
        <time>2015-04-18T13:16:08Z</time>
      </trkpt>
      <trkpt lat="46.11694" lon="3.48219">
        <ele>421.43</ele>
        <time>2015-04-18T13:16:11Z</time>
      </trkpt>
      <trkpt lat="46.11695" lon="3.48187">
        <ele>415.54</ele>
        <time>2015-04-18T13:16:14Z</time>
      </trkpt>
      <trkpt lat="46.11696" lon="3.48151">
        <ele>410.3</ele>
        <time>2015-04-18T13:16:17Z</time>
      </trkpt>
      <trkpt lat="46.11693" lon="3.48116">
        <ele>406.65</ele>
        <time>2015-04-18T13:16:20Z</time>
      </trkpt>
      <trkpt lat="46.11686" lon="3.48084">
        <ele>404.44</ele>
        <time>2015-04-18T13:16:23Z</time>
      </trkpt>
      <trkpt lat="46.11678" lon="3.48052">
        <ele>401.92</ele>
        <time>2015-04-18T13:16:27Z</time>
      </trkpt>
      <trkpt lat="46.11666" lon="3.48026">
        <ele>400.22</ele>
        <time>2015-04-18T13:16:30Z</time>
      </trkpt>
      <trkpt lat="46.11654" lon="3.48005">
        <ele>398.01</ele>
        <time>2015-04-18T13:16:33Z</time>
      </trkpt>
      <trkpt lat="46.11639" lon="3.4799">
        <ele>395.99</ele>
        <time>2015-04-18T13:16:36Z</time>
      </trkpt>
      <trkpt lat="46.11619" lon="3.47988">
        <ele>394.86</ele>
        <time>2015-04-18T13:16:39Z</time>
      </trkpt>
      <trkpt lat="46.11604" lon="3.48003">
        <ele>394.63</ele>
        <time>2015-04-18T13:16:41Z</time>
      </trkpt>
      <trkpt lat="46.11585" lon="3.48022">
        <ele>393.69</ele>
        <time>2015-04-18T13:16:44Z</time>
      </trkpt>
      <trkpt lat="46.11567" lon="3.48007">
        <ele>393.56</ele>
        <time>2015-04-18T13:16:49Z</time>
      </trkpt>
      <trkpt lat="46.11568" lon="3.47977">
        <ele>392.18</ele>
        <time>2015-04-18T13:16:52Z</time>
      </trkpt>
      <trkpt lat="46.11565" lon="3.47951">
        <ele>390.88</ele>
        <time>2015-04-18T13:16:55Z</time>
      </trkpt>
      <trkpt lat="46.11557" lon="3.47925">
        <ele>389.84</ele>
        <time>2015-04-18T13:16:58Z</time>
      </trkpt>
      <trkpt lat="46.11553" lon="3.47895">
        <ele>388.21</ele>
        <time>2015-04-18T13:17:01Z</time>
      </trkpt>
      <trkpt lat="46.11555" lon="3.47861">
        <ele>385.51</ele>
        <time>2015-04-18T13:17:04Z</time>
      </trkpt>
      <trkpt lat="46.11572" lon="3.47833">
        <ele>380.42</ele>
        <time>2015-04-18T13:17:07Z</time>
      </trkpt>
      <trkpt lat="46.11587" lon="3.47812">
        <ele>373.66</ele>
        <time>2015-04-18T13:17:10Z</time>
      </trkpt>
      <trkpt lat="46.11598" lon="3.47784">
        <ele>368.94</ele>
        <time>2015-04-18T13:17:13Z</time>
      </trkpt>
      <trkpt lat="46.11612" lon="3.4776">
        <ele>364.73</ele>
        <time>2015-04-18T13:17:16Z</time>
      </trkpt>
      <trkpt lat="46.11625" lon="3.47737">
        <ele>360.7</ele>
        <time>2015-04-18T13:17:19Z</time>
      </trkpt>
      <trkpt lat="46.11637" lon="3.47704">
        <ele>357.57</ele>
        <time>2015-04-18T13:17:22Z</time>
      </trkpt>
      <trkpt lat="46.1164" lon="3.4767">
        <ele>355.31</ele>
        <time>2015-04-18T13:17:25Z</time>
      </trkpt>
      <trkpt lat="46.1164" lon="3.47638">
        <ele>353.27</ele>
        <time>2015-04-18T13:17:28Z</time>
      </trkpt>
      <trkpt lat="46.11643" lon="3.4761">
        <ele>349.77</ele>
        <time>2015-04-18T13:17:31Z</time>
      </trkpt>
      <trkpt lat="46.11652" lon="3.47586">
        <ele>344.25</ele>
        <time>2015-04-18T13:17:35Z</time>
      </trkpt>
      <trkpt lat="46.11657" lon="3.47559">
        <ele>338.39</ele>
        <time>2015-04-18T13:17:40Z</time>
      </trkpt>
      <trkpt lat="46.11663" lon="3.47533">
        <ele>329.24</ele>
        <time>2015-04-18T13:17:51Z</time>
      </trkpt>
      <trkpt lat="46.11647" lon="3.47516">
        <ele>324.2</ele>
        <time>2015-04-18T13:18:02Z</time>
      </trkpt>
      <trkpt lat="46.11634" lon="3.47496">
        <ele>321.21</ele>
        <time>2015-04-18T13:18:09Z</time>
      </trkpt>
      <trkpt lat="46.11608" lon="3.47492">
        <ele>317.05</ele>
        <time>2015-04-18T13:18:24Z</time>
      </trkpt>
      <trkpt lat="46.1159" lon="3.47492">
        <ele>313.06</ele>
        <time>2015-04-18T13:18:41Z</time>
      </trkpt>
      <trkpt lat="46.11577" lon="3.47473">
        <ele>311.06</ele>
        <time>2015-04-18T13:18:54Z</time>
      </trkpt>
      <trkpt lat="46.11558" lon="3.47458">
        <ele>309.56</ele>
        <time>2015-04-18T13:19:08Z</time>
      </trkpt>
      <trkpt lat="46.1154" lon="3.47453">
        <ele>309.55</ele>
        <time>2015-04-18T13:19:22Z</time>
      </trkpt>
      <trkpt lat="46.11554" lon="3.47473">
        <ele>308.58</ele>
        <time>2015-04-18T13:19:46Z</time>
      </trkpt>
      <trkpt lat="46.11555" lon="3.47505">
        <ele>308.55</ele>
        <time>2015-04-18T13:20:04Z</time>
      </trkpt>
      <trkpt lat="46.11546" lon="3.47528">
        <ele>309.54</ele>
        <time>2015-04-18T13:20:16Z</time>
      </trkpt>
      <trkpt lat="46.11532" lon="3.47548">
        <ele>310.05</ele>
        <time>2015-04-18T13:20:26Z</time>
      </trkpt>
      <trkpt lat="46.11517" lon="3.47569">
        <ele>310.55</ele>
        <time>2015-04-18T13:20:37Z</time>
      </trkpt>
      <trkpt lat="46.11503" lon="3.47589">
        <ele>311.55</ele>
        <time>2015-04-18T13:20:50Z</time>
      </trkpt>
      <trkpt lat="46.11492" lon="3.4761">
        <ele>313.3</ele>
        <time>2015-04-18T13:21:05Z</time>
      </trkpt>
      <trkpt lat="46.11482" lon="3.47634">
        <ele>315.05</ele>
        <time>2015-04-18T13:21:21Z</time>
      </trkpt>
      <trkpt lat="46.1147" lon="3.47655">
        <ele>316.52</ele>
        <time>2015-04-18T13:21:32Z</time>
      </trkpt>
      <trkpt lat="46.11459" lon="3.47677">
        <ele>319.49</ele>
        <time>2015-04-18T13:21:44Z</time>
      </trkpt>
      <trkpt lat="46.11446" lon="3.47698">
        <ele>323.29</ele>
        <time>2015-04-18T13:21:58Z</time>
      </trkpt>
      <trkpt lat="46.11435" lon="3.47719">
        <ele>326.02</ele>
        <time>2015-04-18T13:22:10Z</time>
      </trkpt>
      <trkpt lat="46.11423" lon="3.47741">
        <ele>328.52</ele>
        <time>2015-04-18T13:22:22Z</time>
      </trkpt>
      <trkpt lat="46.1141" lon="3.47762">
        <ele>332.02</ele>
        <time>2015-04-18T13:22:35Z</time>
      </trkpt>
      <trkpt lat="46.11401" lon="3.47786">
        <ele>334.48</ele>
        <time>2015-04-18T13:22:46Z</time>
      </trkpt>
      <trkpt lat="46.11388" lon="3.47805">
        <ele>338.02</ele>
        <time>2015-04-18T13:22:57Z</time>
      </trkpt>
      <trkpt lat="46.11372" lon="3.47818">
        <ele>341.29</ele>
        <time>2015-04-18T13:23:09Z</time>
      </trkpt>
      <trkpt lat="46.11354" lon="3.47814">
        <ele>342.54</ele>
        <time>2015-04-18T13:23:19Z</time>
      </trkpt>
      <trkpt lat="46.11357" lon="3.47786">
        <ele>343.52</ele>
        <time>2015-04-18T13:23:30Z</time>
      </trkpt>
      <trkpt lat="46.1137" lon="3.47767">
        <ele>344.52</ele>
        <time>2015-04-18T13:23:39Z</time>
      </trkpt>
      <trkpt lat="46.11373" lon="3.47741">
        <ele>346.52</ele>
        <time>2015-04-18T13:23:51Z</time>
      </trkpt>
      <trkpt lat="46.11367" lon="3.47715">
        <ele>348.52</ele>
        <time>2015-04-18T13:24:02Z</time>
      </trkpt>
      <trkpt lat="46.11379" lon="3.47692">
        <ele>350.3</ele>
        <time>2015-04-18T13:24:11Z</time>
      </trkpt>
      <trkpt lat="46.11396" lon="3.47679">
        <ele>351.05</ele>
        <time>2015-04-18T13:24:18Z</time>
      </trkpt>
      <trkpt lat="46.11404" lon="3.47655">
        <ele>351.55</ele>
        <time>2015-04-18T13:24:24Z</time>
      </trkpt>
      <trkpt lat="46.11411" lon="3.47631">
        <ele>352.49</ele>
        <time>2015-04-18T13:24:30Z</time>
      </trkpt>
      <trkpt lat="46.11415" lon="3.47604">
        <ele>352.55</ele>
        <time>2015-04-18T13:24:36Z</time>
      </trkpt>
      <trkpt lat="46.114" lon="3.47589">
        <ele>353.05</ele>
        <time>2015-04-18T13:24:42Z</time>
      </trkpt>
      <trkpt lat="46.1138" lon="3.47582">
        <ele>353.55</ele>
        <time>2015-04-18T13:24:49Z</time>
      </trkpt>
      <trkpt lat="46.11362" lon="3.47576">
        <ele>354.05</ele>
        <time>2015-04-18T13:24:57Z</time>
      </trkpt>
      <trkpt lat="46.11344" lon="3.47571">
        <ele>355.05</ele>
        <time>2015-04-18T13:25:06Z</time>
      </trkpt>
      <trkpt lat="46.11326" lon="3.47565">
        <ele>356.52</ele>
        <time>2015-04-18T13:25:16Z</time>
      </trkpt>
      <trkpt lat="46.11307" lon="3.47559">
        <ele>358.49</ele>
        <time>2015-04-18T13:25:25Z</time>
      </trkpt>
      <trkpt lat="46.11289" lon="3.47552">
        <ele>360.92</ele>
        <time>2015-04-18T13:25:33Z</time>
      </trkpt>
      <trkpt lat="46.11271" lon="3.47546">
        <ele>363.27</ele>
        <time>2015-04-18T13:25:40Z</time>
      </trkpt>
      <trkpt lat="46.11251" lon="3.47546">
        <ele>366.23</ele>
        <time>2015-04-18T13:25:47Z</time>
      </trkpt>
      <trkpt lat="46.11232" lon="3.47548">
        <ele>369.39</ele>
        <time>2015-04-18T13:25:55Z</time>
      </trkpt>
      <trkpt lat="46.1122" lon="3.47569">
        <ele>376.04</ele>
        <time>2015-04-18T13:26:17Z</time>
      </trkpt>
      <trkpt lat="46.11223" lon="3.47597">
        <ele>380.42</ele>
        <time>2015-04-18T13:26:37Z</time>
      </trkpt>
      <trkpt lat="46.11222" lon="3.47625">
        <ele>384.04</ele>
        <time>2015-04-18T13:26:53Z</time>
      </trkpt>
      <trkpt lat="46.1122" lon="3.47655">
        <ele>386.54</ele>
        <time>2015-04-18T13:27:09Z</time>
      </trkpt>
      <trkpt lat="46.11215" lon="3.47681">
        <ele>387.52</ele>
        <time>2015-04-18T13:27:19Z</time>
      </trkpt>
      <trkpt lat="46.1121" lon="3.47707">
        <ele>387.55</ele>
        <time>2015-04-18T13:27:30Z</time>
      </trkpt>
      <trkpt lat="46.11204" lon="3.47732">
        <ele>387.55</ele>
        <time>2015-04-18T13:27:40Z</time>
      </trkpt>
      <trkpt lat="46.11194" lon="3.47754">
        <ele>387.55</ele>
        <time>2015-04-18T13:27:55Z</time>
      </trkpt>
      <trkpt lat="46.11176" lon="3.47762">
        <ele>387.55</ele>
        <time>2015-04-18T13:28:16Z</time>
      </trkpt>
      <trkpt lat="46.11157" lon="3.47767">
        <ele>389.3</ele>
        <time>2015-04-18T13:28:25Z</time>
      </trkpt>
      <trkpt lat="46.11138" lon="3.47769">
        <ele>390.99</ele>
        <time>2015-04-18T13:28:31Z</time>
      </trkpt>
      <trkpt lat="46.1112" lon="3.47771">
        <ele>392.49</ele>
        <time>2015-04-18T13:28:39Z</time>
      </trkpt>
      <trkpt lat="46.11101" lon="3.47771">
        <ele>394.54</ele>
        <time>2015-04-18T13:28:49Z</time>
      </trkpt>
      <trkpt lat="46.11083" lon="3.47769">
        <ele>397.02</ele>
        <time>2015-04-18T13:28:58Z</time>
      </trkpt>
      <trkpt lat="46.11064" lon="3.47767">
        <ele>399.98</ele>
        <time>2015-04-18T13:29:06Z</time>
      </trkpt>
      <trkpt lat="46.11046" lon="3.47769">
        <ele>402.27</ele>
        <time>2015-04-18T13:29:14Z</time>
      </trkpt>
      <trkpt lat="46.11027" lon="3.47771">
        <ele>405.29</ele>
        <time>2015-04-18T13:29:27Z</time>
      </trkpt>
      <trkpt lat="46.11009" lon="3.47773">
        <ele>407.49</ele>
        <time>2015-04-18T13:29:42Z</time>
      </trkpt>
      <trkpt lat="46.10991" lon="3.4778">
        <ele>409.54</ele>
        <time>2015-04-18T13:29:56Z</time>
      </trkpt>
      <trkpt lat="46.10973" lon="3.47786">
        <ele>410.55</ele>
        <time>2015-04-18T13:30:12Z</time>
      </trkpt>
      <trkpt lat="46.10954" lon="3.4779">
        <ele>412.02</ele>
        <time>2015-04-18T13:30:24Z</time>
      </trkpt>
      <trkpt lat="46.10936" lon="3.47797">
        <ele>414.49</ele>
        <time>2015-04-18T13:30:34Z</time>
      </trkpt>
      <trkpt lat="46.10918" lon="3.4781">
        <ele>418.02</ele>
        <time>2015-04-18T13:30:45Z</time>
      </trkpt>
      <trkpt lat="46.10902" lon="3.47822">
        <ele>420.48</ele>
        <time>2015-04-18T13:30:55Z</time>
      </trkpt>
      <trkpt lat="46.10884" lon="3.47833">
        <ele>423.42</ele>
        <time>2015-04-18T13:31:06Z</time>
      </trkpt>
      <trkpt lat="46.10865" lon="3.47837">
        <ele>424.55</ele>
        <time>2015-04-18T13:31:20Z</time>
      </trkpt>
      <trkpt lat="46.10845" lon="3.47842">
        <ele>424.55</ele>
        <time>2015-04-18T13:31:28Z</time>
      </trkpt>
      <trkpt lat="46.10824" lon="3.47842">
        <ele>424.55</ele>
        <time>2015-04-18T13:31:32Z</time>
      </trkpt>
      <trkpt lat="46.10804" lon="3.47842">
        <ele>425.43</ele>
        <time>2015-04-18T13:31:36Z</time>
      </trkpt>
      <trkpt lat="46.10784" lon="3.47837">
        <ele>425.55</ele>
        <time>2015-04-18T13:31:41Z</time>
      </trkpt>
      <trkpt lat="46.1076" lon="3.47833">
        <ele>426.3</ele>
        <time>2015-04-18T13:31:45Z</time>
      </trkpt>
      <trkpt lat="46.10741" lon="3.47827">
        <ele>429.77</ele>
        <time>2015-04-18T13:31:48Z</time>
      </trkpt>
      <trkpt lat="46.10719" lon="3.47825">
        <ele>432</ele>
        <time>2015-04-18T13:31:52Z</time>
      </trkpt>
      <trkpt lat="46.10698" lon="3.47822">
        <ele>433.96</ele>
        <time>2015-04-18T13:31:56Z</time>
      </trkpt>
      <trkpt lat="46.10678" lon="3.47822">
        <ele>434.52</ele>
        <time>2015-04-18T13:32:00Z</time>
      </trkpt>
      <trkpt lat="46.1066" lon="3.47837">
        <ele>436.05</ele>
        <time>2015-04-18T13:32:16Z</time>
      </trkpt>
      <trkpt lat="46.10649" lon="3.47859">
        <ele>436.05</ele>
        <time>2015-04-18T13:32:33Z</time>
      </trkpt>
      <trkpt lat="46.10635" lon="3.47878">
        <ele>434.58</ele>
        <time>2015-04-18T13:32:43Z</time>
      </trkpt>
      <trkpt lat="46.10623" lon="3.479">
        <ele>433.58</ele>
        <time>2015-04-18T13:32:52Z</time>
      </trkpt>
      <trkpt lat="46.10612" lon="3.47928">
        <ele>433.55</ele>
        <time>2015-04-18T13:33:02Z</time>
      </trkpt>
      <trkpt lat="46.10606" lon="3.47955">
        <ele>433.55</ele>
        <time>2015-04-18T13:33:12Z</time>
      </trkpt>
      <trkpt lat="46.10597" lon="3.47983">
        <ele>434.05</ele>
        <time>2015-04-18T13:33:20Z</time>
      </trkpt>
      <trkpt lat="46.10591" lon="3.48011">
        <ele>434.55</ele>
        <time>2015-04-18T13:33:29Z</time>
      </trkpt>
      <trkpt lat="46.10586" lon="3.48039">
        <ele>434.55</ele>
        <time>2015-04-18T13:33:37Z</time>
      </trkpt>
      <trkpt lat="46.10583" lon="3.48069">
        <ele>434.05</ele>
        <time>2015-04-18T13:33:46Z</time>
      </trkpt>
      <trkpt lat="46.10577" lon="3.48097">
        <ele>432.12</ele>
        <time>2015-04-18T13:33:53Z</time>
      </trkpt>
      <trkpt lat="46.1057" lon="3.48123">
        <ele>429.71</ele>
        <time>2015-04-18T13:33:57Z</time>
      </trkpt>
      <trkpt lat="46.10562" lon="3.48151">
        <ele>426.06</ele>
        <time>2015-04-18T13:34:01Z</time>
      </trkpt>
      <trkpt lat="46.10547" lon="3.48174">
        <ele>423.77</ele>
        <time>2015-04-18T13:34:05Z</time>
      </trkpt>
      <trkpt lat="46.10532" lon="3.482">
        <ele>423.57</ele>
        <time>2015-04-18T13:34:09Z</time>
      </trkpt>
      <trkpt lat="46.10519" lon="3.48222">
        <ele>422.96</ele>
        <time>2015-04-18T13:34:14Z</time>
      </trkpt>
      <trkpt lat="46.10522" lon="3.48252">
        <ele>423.43</ele>
        <time>2015-04-18T13:34:22Z</time>
      </trkpt>
      <trkpt lat="46.10534" lon="3.48273">
        <ele>423.55</ele>
        <time>2015-04-18T13:34:29Z</time>
      </trkpt>
      <trkpt lat="46.10537" lon="3.48299">
        <ele>422.57</ele>
        <time>2015-04-18T13:34:35Z</time>
      </trkpt>
      <trkpt lat="46.10545" lon="3.48327">
        <ele>418.52</ele>
        <time>2015-04-18T13:34:40Z</time>
      </trkpt>
      <trkpt lat="46.10554" lon="3.48352">
        <ele>417.58</ele>
        <time>2015-04-18T13:34:45Z</time>
      </trkpt>
      <trkpt lat="46.10565" lon="3.48374">
        <ele>416.62</ele>
        <time>2015-04-18T13:34:50Z</time>
      </trkpt>
      <trkpt lat="46.1058" lon="3.48397">
        <ele>415.55</ele>
        <time>2015-04-18T13:34:56Z</time>
      </trkpt>
      <trkpt lat="46.10595" lon="3.48419">
        <ele>411.55</ele>
        <time>2015-04-18T13:35:00Z</time>
      </trkpt>
      <trkpt lat="46.10612" lon="3.48443">
        <ele>408.93</ele>
        <time>2015-04-18T13:35:04Z</time>
      </trkpt>
      <trkpt lat="46.10624" lon="3.48464">
        <ele>407.64</ele>
        <time>2015-04-18T13:35:08Z</time>
      </trkpt>
      <trkpt lat="46.10633" lon="3.48488">
        <ele>407.56</ele>
        <time>2015-04-18T13:35:12Z</time>
      </trkpt>
      <trkpt lat="46.10636" lon="3.48522">
        <ele>406.62</ele>
        <time>2015-04-18T13:35:16Z</time>
      </trkpt>
      <trkpt lat="46.1064" lon="3.48554">
        <ele>405.81</ele>
        <time>2015-04-18T13:35:19Z</time>
      </trkpt>
      <trkpt lat="46.10646" lon="3.48582">
        <ele>403.88</ele>
        <time>2015-04-18T13:35:23Z</time>
      </trkpt>
      <trkpt lat="46.10655" lon="3.48612">
        <ele>400.62</ele>
        <time>2015-04-18T13:35:30Z</time>
      </trkpt>
      <trkpt lat="46.10658" lon="3.48638">
        <ele>395.56</ele>
        <time>2015-04-18T13:35:41Z</time>
      </trkpt>
      <trkpt lat="46.10651" lon="3.48664">
        <ele>390.26</ele>
        <time>2015-04-18T13:35:48Z</time>
      </trkpt>
      <trkpt lat="46.10644" lon="3.48689">
        <ele>383.78</ele>
        <time>2015-04-18T13:35:52Z</time>
      </trkpt>
      <trkpt lat="46.10644" lon="3.48719">
        <ele>380.1</ele>
        <time>2015-04-18T13:35:58Z</time>
      </trkpt>
      <trkpt lat="46.10644" lon="3.48747">
        <ele>375.09</ele>
        <time>2015-04-18T13:36:07Z</time>
      </trkpt>
      <trkpt lat="46.10622" lon="3.48734">
        <ele>367.05</ele>
        <time>2015-04-18T13:37:18Z</time>
      </trkpt>
      <trkpt lat="46.1061" lon="3.48713">
        <ele>370.02</ele>
        <time>2015-04-18T13:37:29Z</time>
      </trkpt>
      <trkpt lat="46.10601" lon="3.48687">
        <ele>372.99</ele>
        <time>2015-04-18T13:37:38Z</time>
      </trkpt>
      <trkpt lat="46.10595" lon="3.48659">
        <ele>375.04</ele>
        <time>2015-04-18T13:37:48Z</time>
      </trkpt>
      <trkpt lat="46.10586" lon="3.48634">
        <ele>377.04</ele>
        <time>2015-04-18T13:37:58Z</time>
      </trkpt>
      <trkpt lat="46.10574" lon="3.48612">
        <ele>379.05</ele>
        <time>2015-04-18T13:38:13Z</time>
      </trkpt>
      <trkpt lat="46.1056" lon="3.48595">
        <ele>382.55</ele>
        <time>2015-04-18T13:38:38Z</time>
      </trkpt>
      <trkpt lat="46.10542" lon="3.48586">
        <ele>385.49</ele>
        <time>2015-04-18T13:38:54Z</time>
      </trkpt>
      <trkpt lat="46.10523" lon="3.48584">
        <ele>387.05</ele>
        <time>2015-04-18T13:39:06Z</time>
      </trkpt>
      <trkpt lat="46.10505" lon="3.48586">
        <ele>387.55</ele>
        <time>2015-04-18T13:39:16Z</time>
      </trkpt>
      <trkpt lat="46.10486" lon="3.48586">
        <ele>388.55</ele>
        <time>2015-04-18T13:39:28Z</time>
      </trkpt>
      <trkpt lat="46.10467" lon="3.48578">
        <ele>389.55</ele>
        <time>2015-04-18T13:39:39Z</time>
      </trkpt>
      <trkpt lat="46.10449" lon="3.48569">
        <ele>390.54</ele>
        <time>2015-04-18T13:39:50Z</time>
      </trkpt>
      <trkpt lat="46.10431" lon="3.48563">
        <ele>390.55</ele>
        <time>2015-04-18T13:40:05Z</time>
      </trkpt>
      <trkpt lat="46.10412" lon="3.48561">
        <ele>391.55</ele>
        <time>2015-04-18T13:40:18Z</time>
      </trkpt>
      <trkpt lat="46.10393" lon="3.48556">
        <ele>392.52</ele>
        <time>2015-04-18T13:40:25Z</time>
      </trkpt>
      <trkpt lat="46.10376" lon="3.48546">
        <ele>392.55</ele>
        <time>2015-04-18T13:40:31Z</time>
      </trkpt>
      <trkpt lat="46.10359" lon="3.48535">
        <ele>393.52</ele>
        <time>2015-04-18T13:40:39Z</time>
      </trkpt>
      <trkpt lat="46.10344" lon="3.4852">
        <ele>393.55</ele>
        <time>2015-04-18T13:40:47Z</time>
      </trkpt>
      <trkpt lat="46.10328" lon="3.48507">
        <ele>393.55</ele>
        <time>2015-04-18T13:40:56Z</time>
      </trkpt>
      <trkpt lat="46.10312" lon="3.48492">
        <ele>393.55</ele>
        <time>2015-04-18T13:41:05Z</time>
      </trkpt>
      <trkpt lat="46.10295" lon="3.48481">
        <ele>393.55</ele>
        <time>2015-04-18T13:41:13Z</time>
      </trkpt>
      <trkpt lat="46.10277" lon="3.48473">
        <ele>393.55</ele>
        <time>2015-04-18T13:41:21Z</time>
      </trkpt>
      <trkpt lat="46.10259" lon="3.4846">
        <ele>393.55</ele>
        <time>2015-04-18T13:41:29Z</time>
      </trkpt>
      <trkpt lat="46.10242" lon="3.48449">
        <ele>393.55</ele>
        <time>2015-04-18T13:41:40Z</time>
      </trkpt>
      <trkpt lat="46.10258" lon="3.48466">
        <ele>387.22</ele>
        <time>2015-04-18T13:41:56Z</time>
      </trkpt>
      <trkpt lat="46.10276" lon="3.4847">
        <ele>382.26</ele>
        <time>2015-04-18T13:42:04Z</time>
      </trkpt>
      <trkpt lat="46.10291" lon="3.48485">
        <ele>378.21</ele>
        <time>2015-04-18T13:42:13Z</time>
      </trkpt>
      <trkpt lat="46.10305" lon="3.48503">
        <ele>374.84</ele>
        <time>2015-04-18T13:42:22Z</time>
      </trkpt>
      <trkpt lat="46.10318" lon="3.48522">
        <ele>372.62</ele>
        <time>2015-04-18T13:42:31Z</time>
      </trkpt>
      <trkpt lat="46.10331" lon="3.48541">
        <ele>370.62</ele>
        <time>2015-04-18T13:42:39Z</time>
      </trkpt>
      <trkpt lat="46.10348" lon="3.48554">
        <ele>369.57</ele>
        <time>2015-04-18T13:42:47Z</time>
      </trkpt>
      <trkpt lat="46.10364" lon="3.48569">
        <ele>368.06</ele>
        <time>2015-04-18T13:42:54Z</time>
      </trkpt>
      <trkpt lat="46.10374" lon="3.48593">
        <ele>366.68</ele>
        <time>2015-04-18T13:43:01Z</time>
      </trkpt>
      <trkpt lat="46.10378" lon="3.48621">
        <ele>365.58</ele>
        <time>2015-04-18T13:43:09Z</time>
      </trkpt>
      <trkpt lat="46.1038" lon="3.48651">
        <ele>363.81</ele>
        <time>2015-04-18T13:43:18Z</time>
      </trkpt>
      <trkpt lat="46.10394" lon="3.48668">
        <ele>363.55</ele>
        <time>2015-04-18T13:43:28Z</time>
      </trkpt>
      <trkpt lat="46.1041" lon="3.48655">
        <ele>364.52</ele>
        <time>2015-04-18T13:43:37Z</time>
      </trkpt>
      <trkpt lat="46.10428" lon="3.4864">
        <ele>364.55</ele>
        <time>2015-04-18T13:43:47Z</time>
      </trkpt>
      <trkpt lat="46.10447" lon="3.48642">
        <ele>365.05</ele>
        <time>2015-04-18T13:43:57Z</time>
      </trkpt>
      <trkpt lat="46.10463" lon="3.48657">
        <ele>365.55</ele>
        <time>2015-04-18T13:44:06Z</time>
      </trkpt>
      <trkpt lat="46.10477" lon="3.48676">
        <ele>366.3</ele>
        <time>2015-04-18T13:44:16Z</time>
      </trkpt>
      <trkpt lat="46.10482" lon="3.48702">
        <ele>368.05</ele>
        <time>2015-04-18T13:44:32Z</time>
      </trkpt>
      <trkpt lat="46.10475" lon="3.48726">
        <ele>369.3</ele>
        <time>2015-04-18T13:44:40Z</time>
      </trkpt>
      <trkpt lat="46.10464" lon="3.48747">
        <ele>370.43</ele>
        <time>2015-04-18T13:44:49Z</time>
      </trkpt>
      <trkpt lat="46.10456" lon="3.48771">
        <ele>371.05</ele>
        <time>2015-04-18T13:44:59Z</time>
      </trkpt>
      <trkpt lat="46.10448" lon="3.48794">
        <ele>371.55</ele>
        <time>2015-04-18T13:45:09Z</time>
      </trkpt>
      <trkpt lat="46.10444" lon="3.4882">
        <ele>372.55</ele>
        <time>2015-04-18T13:45:18Z</time>
      </trkpt>
      <trkpt lat="46.10438" lon="3.48846">
        <ele>373.05</ele>
        <time>2015-04-18T13:45:27Z</time>
      </trkpt>
      <trkpt lat="46.10432" lon="3.48872">
        <ele>373.55</ele>
        <time>2015-04-18T13:45:35Z</time>
      </trkpt>
      <trkpt lat="46.10425" lon="3.48897">
        <ele>374.52</ele>
        <time>2015-04-18T13:45:43Z</time>
      </trkpt>
      <trkpt lat="46.10418" lon="3.48923">
        <ele>375.43</ele>
        <time>2015-04-18T13:45:50Z</time>
      </trkpt>
      <trkpt lat="46.1041" lon="3.48947">
        <ele>376.05</ele>
        <time>2015-04-18T13:45:57Z</time>
      </trkpt>
      <trkpt lat="46.10403" lon="3.48973">
        <ele>377.05</ele>
        <time>2015-04-18T13:46:04Z</time>
      </trkpt>
      <trkpt lat="46.10395" lon="3.48998">
        <ele>378.05</ele>
        <time>2015-04-18T13:46:11Z</time>
      </trkpt>
      <trkpt lat="46.10383" lon="3.49022">
        <ele>378.55</ele>
        <time>2015-04-18T13:46:19Z</time>
      </trkpt>
      <trkpt lat="46.10365" lon="3.49033">
        <ele>379.55</ele>
        <time>2015-04-18T13:46:26Z</time>
      </trkpt>
      <trkpt lat="46.10345" lon="3.49035">
        <ele>380.43</ele>
        <time>2015-04-18T13:46:33Z</time>
      </trkpt>
      <trkpt lat="46.10327" lon="3.49035">
        <ele>380.55</ele>
        <time>2015-04-18T13:46:39Z</time>
      </trkpt>
      <trkpt lat="46.10306" lon="3.49035">
        <ele>381.3</ele>
        <time>2015-04-18T13:46:45Z</time>
      </trkpt>
      <trkpt lat="46.10286" lon="3.49039">
        <ele>381.55</ele>
        <time>2015-04-18T13:46:51Z</time>
      </trkpt>
      <trkpt lat="46.10267" lon="3.49048">
        <ele>383.02</ele>
        <time>2015-04-18T13:46:57Z</time>
      </trkpt>
      <trkpt lat="46.10247" lon="3.49058">
        <ele>384.29</ele>
        <time>2015-04-18T13:47:03Z</time>
      </trkpt>
      <trkpt lat="46.10231" lon="3.49071">
        <ele>386.27</ele>
        <time>2015-04-18T13:47:09Z</time>
      </trkpt>
      <trkpt lat="46.10216" lon="3.49091">
        <ele>388.29</ele>
        <time>2015-04-18T13:47:16Z</time>
      </trkpt>
      <trkpt lat="46.10212" lon="3.49118">
        <ele>390.02</ele>
        <time>2015-04-18T13:47:22Z</time>
      </trkpt>
      <trkpt lat="46.10224" lon="3.49144">
        <ele>391.49</ele>
        <time>2015-04-18T13:47:30Z</time>
      </trkpt>
      <trkpt lat="46.10238" lon="3.49161">
        <ele>392.52</ele>
        <time>2015-04-18T13:47:36Z</time>
      </trkpt>
      <trkpt lat="46.10252" lon="3.49183">
        <ele>394.04</ele>
        <time>2015-04-18T13:47:43Z</time>
      </trkpt>
      <trkpt lat="46.10262" lon="3.49204">
        <ele>395.05</ele>
        <time>2015-04-18T13:47:49Z</time>
      </trkpt>
      <trkpt lat="46.10275" lon="3.49228">
        <ele>396.3</ele>
        <time>2015-04-18T13:47:56Z</time>
      </trkpt>
      <trkpt lat="46.10284" lon="3.49254">
        <ele>397.42</ele>
        <time>2015-04-18T13:48:02Z</time>
      </trkpt>
      <trkpt lat="46.10289" lon="3.49279">
        <ele>398.05</ele>
        <time>2015-04-18T13:48:07Z</time>
      </trkpt>
      <trkpt lat="46.10291" lon="3.49307">
        <ele>398.54</ele>
        <time>2015-04-18T13:48:12Z</time>
      </trkpt>
      <trkpt lat="46.10291" lon="3.49337">
        <ele>399.54</ele>
        <time>2015-04-18T13:48:18Z</time>
      </trkpt>
      <trkpt lat="46.10291" lon="3.49367">
        <ele>400.52</ele>
        <time>2015-04-18T13:48:25Z</time>
      </trkpt>
      <trkpt lat="46.10288" lon="3.49397">
        <ele>401.43</ele>
        <time>2015-04-18T13:48:32Z</time>
      </trkpt>
      <trkpt lat="46.10277" lon="3.49421">
        <ele>401.55</ele>
        <time>2015-04-18T13:48:40Z</time>
      </trkpt>
      <trkpt lat="46.1026" lon="3.49432">
        <ele>401.55</ele>
        <time>2015-04-18T13:48:47Z</time>
      </trkpt>
      <trkpt lat="46.10241" lon="3.49434">
        <ele>400.56</ele>
        <time>2015-04-18T13:48:54Z</time>
      </trkpt>
      <trkpt lat="46.10222" lon="3.4944">
        <ele>399.58</ele>
        <time>2015-04-18T13:49:01Z</time>
      </trkpt>
      <trkpt lat="46.10207" lon="3.49455">
        <ele>399.55</ele>
        <time>2015-04-18T13:49:07Z</time>
      </trkpt>
      <trkpt lat="46.10203" lon="3.49488">
        <ele>398.8</ele>
        <time>2015-04-18T13:49:13Z</time>
      </trkpt>
      <trkpt lat="46.10209" lon="3.49513">
        <ele>398.56</ele>
        <time>2015-04-18T13:49:18Z</time>
      </trkpt>
      <trkpt lat="46.10217" lon="3.49537">
        <ele>399.05</ele>
        <time>2015-04-18T13:49:22Z</time>
      </trkpt>
      <trkpt lat="46.10228" lon="3.49563">
        <ele>399.55</ele>
        <time>2015-04-18T13:49:28Z</time>
      </trkpt>
      <trkpt lat="46.10226" lon="3.49593">
        <ele>400.49</ele>
        <time>2015-04-18T13:49:34Z</time>
      </trkpt>
      <trkpt lat="46.10217" lon="3.49618">
        <ele>407.05</ele>
        <time>2015-04-18T13:49:38Z</time>
      </trkpt>
      <trkpt lat="46.10209" lon="3.49646">
        <ele>412.46</ele>
        <time>2015-04-18T13:49:42Z</time>
      </trkpt>
      <trkpt lat="46.10199" lon="3.4967">
        <ele>414.23</ele>
        <time>2015-04-18T13:49:46Z</time>
      </trkpt>
      <trkpt lat="46.10186" lon="3.49691">
        <ele>414.54</ele>
        <time>2015-04-18T13:49:51Z</time>
      </trkpt>
      <trkpt lat="46.10165" lon="3.49685">
        <ele>413.58</ele>
        <time>2015-04-18T13:49:56Z</time>
      </trkpt>
      <trkpt lat="46.10145" lon="3.49679">
        <ele>413.55</ele>
        <time>2015-04-18T13:50:01Z</time>
      </trkpt>
      <trkpt lat="46.10126" lon="3.49668">
        <ele>413.55</ele>
        <time>2015-04-18T13:50:06Z</time>
      </trkpt>
      <trkpt lat="46.10107" lon="3.49666">
        <ele>412.58</ele>
        <time>2015-04-18T13:50:12Z</time>
      </trkpt>
      <trkpt lat="46.1009" lon="3.49679">
        <ele>411.62</ele>
        <time>2015-04-18T13:50:18Z</time>
      </trkpt>
      <trkpt lat="46.1007" lon="3.49687">
        <ele>410.68</ele>
        <time>2015-04-18T13:50:24Z</time>
      </trkpt>
      <trkpt lat="46.10055" lon="3.49702">
        <ele>410.55</ele>
        <time>2015-04-18T13:50:30Z</time>
      </trkpt>
      <trkpt lat="46.10048" lon="3.49728">
        <ele>409.57</ele>
        <time>2015-04-18T13:50:36Z</time>
      </trkpt>
      <trkpt lat="46.10052" lon="3.49754">
        <ele>409.55</ele>
        <time>2015-04-18T13:50:42Z</time>
      </trkpt>
      <trkpt lat="46.1006" lon="3.49777">
        <ele>409.55</ele>
        <time>2015-04-18T13:50:48Z</time>
      </trkpt>
      <trkpt lat="46.10064" lon="3.49805">
        <ele>409.55</ele>
        <time>2015-04-18T13:50:55Z</time>
      </trkpt>
      <trkpt lat="46.10059" lon="3.49835">
        <ele>409.55</ele>
        <time>2015-04-18T13:51:02Z</time>
      </trkpt>
      <trkpt lat="46.10052" lon="3.49865">
        <ele>409.55</ele>
        <time>2015-04-18T13:51:08Z</time>
      </trkpt>
      <trkpt lat="46.10046" lon="3.49891">
        <ele>409.55</ele>
        <time>2015-04-18T13:51:14Z</time>
      </trkpt>
      <trkpt lat="46.10038" lon="3.49917">
        <ele>410.52</ele>
        <time>2015-04-18T13:51:20Z</time>
      </trkpt>
      <trkpt lat="46.10029" lon="3.49942">
        <ele>410.55</ele>
        <time>2015-04-18T13:51:27Z</time>
      </trkpt>
      <trkpt lat="46.10013" lon="3.49975">
        <ele>410.05</ele>
        <time>2015-04-18T13:51:38Z</time>
      </trkpt>
      <trkpt lat="46.09993" lon="3.49985">
        <ele>409.55</ele>
        <time>2015-04-18T13:51:47Z</time>
      </trkpt>
      <trkpt lat="46.09973" lon="3.4999">
        <ele>409.55</ele>
        <time>2015-04-18T13:51:55Z</time>
      </trkpt>
      <trkpt lat="46.09953" lon="3.49994">
        <ele>409.05</ele>
        <time>2015-04-18T13:52:01Z</time>
      </trkpt>
      <trkpt lat="46.09932" lon="3.49996">
        <ele>408.56</ele>
        <time>2015-04-18T13:52:07Z</time>
      </trkpt>
      <trkpt lat="46.09912" lon="3.49994">
        <ele>408.05</ele>
        <time>2015-04-18T13:52:14Z</time>
      </trkpt>
      <trkpt lat="46.09899" lon="3.50018">
        <ele>407.56</ele>
        <time>2015-04-18T13:52:21Z</time>
      </trkpt>
      <trkpt lat="46.099" lon="3.50045">
        <ele>407.55</ele>
        <time>2015-04-18T13:52:27Z</time>
      </trkpt>
      <trkpt lat="46.09906" lon="3.50071">
        <ele>407.55</ele>
        <time>2015-04-18T13:52:32Z</time>
      </trkpt>
      <trkpt lat="46.09921" lon="3.50093">
        <ele>408.3</ele>
        <time>2015-04-18T13:52:38Z</time>
      </trkpt>
      <trkpt lat="46.09938" lon="3.50108">
        <ele>413.79</ele>
        <time>2015-04-18T13:52:42Z</time>
      </trkpt>
      <trkpt lat="46.09956" lon="3.50125">
        <ele>418.51</ele>
        <time>2015-04-18T13:52:46Z</time>
      </trkpt>
      <trkpt lat="46.09974" lon="3.50142">
        <ele>421.18</ele>
        <time>2015-04-18T13:52:50Z</time>
      </trkpt>
      <trkpt lat="46.09992" lon="3.50161">
        <ele>423.22</ele>
        <time>2015-04-18T13:52:54Z</time>
      </trkpt>
      <trkpt lat="46.10009" lon="3.50178">
        <ele>424.28</ele>
        <time>2015-04-18T13:52:58Z</time>
      </trkpt>
      <trkpt lat="46.1002" lon="3.50206">
        <ele>423.16</ele>
        <time>2015-04-18T13:53:02Z</time>
      </trkpt>
      <trkpt lat="46.10025" lon="3.50241">
        <ele>421.15</ele>
        <time>2015-04-18T13:53:06Z</time>
      </trkpt>
      <trkpt lat="46.10025" lon="3.50275">
        <ele>421.47</ele>
        <time>2015-04-18T13:53:10Z</time>
      </trkpt>
      <trkpt lat="46.10024" lon="3.50303">
        <ele>421.55</ele>
        <time>2015-04-18T13:53:14Z</time>
      </trkpt>
      <trkpt lat="46.10031" lon="3.50329">
        <ele>422.54</ele>
        <time>2015-04-18T13:53:20Z</time>
      </trkpt>
      <trkpt lat="46.10037" lon="3.50354">
        <ele>423.43</ele>
        <time>2015-04-18T13:53:25Z</time>
      </trkpt>
      <trkpt lat="46.1004" lon="3.50382">
        <ele>424.3</ele>
        <time>2015-04-18T13:53:31Z</time>
      </trkpt>
      <trkpt lat="46.10038" lon="3.50415">
        <ele>425.05</ele>
        <time>2015-04-18T13:53:36Z</time>
      </trkpt>
      <trkpt lat="46.10034" lon="3.50442">
        <ele>426.04</ele>
        <time>2015-04-18T13:53:41Z</time>
      </trkpt>
      <trkpt lat="46.10025" lon="3.50472">
        <ele>426.54</ele>
        <time>2015-04-18T13:53:46Z</time>
      </trkpt>
      <trkpt lat="46.10018" lon="3.50498">
        <ele>426.55</ele>
        <time>2015-04-18T13:53:50Z</time>
      </trkpt>
      <trkpt lat="46.10011" lon="3.50524">
        <ele>426.55</ele>
        <time>2015-04-18T13:53:54Z</time>
      </trkpt>
      <trkpt lat="46.10006" lon="3.50554">
        <ele>426.55</ele>
        <time>2015-04-18T13:53:58Z</time>
      </trkpt>
      <trkpt lat="46.10003" lon="3.50582">
        <ele>425.18</ele>
        <time>2015-04-18T13:54:02Z</time>
      </trkpt>
      <trkpt lat="46.09994" lon="3.5061">
        <ele>423.14</ele>
        <time>2015-04-18T13:54:07Z</time>
      </trkpt>
      <trkpt lat="46.09981" lon="3.50642">
        <ele>422.55</ele>
        <time>2015-04-18T13:54:16Z</time>
      </trkpt>
      <trkpt lat="46.09977" lon="3.50668">
        <ele>421.56</ele>
        <time>2015-04-18T13:54:27Z</time>
      </trkpt>
      <trkpt lat="46.09981" lon="3.50696">
        <ele>421.05</ele>
        <time>2015-04-18T13:54:34Z</time>
      </trkpt>
      <trkpt lat="46.09982" lon="3.50726">
        <ele>420.56</ele>
        <time>2015-04-18T13:54:40Z</time>
      </trkpt>
      <trkpt lat="46.09978" lon="3.50754">
        <ele>419.58</ele>
        <time>2015-04-18T13:54:46Z</time>
      </trkpt>
      <trkpt lat="46.0997" lon="3.50788">
        <ele>417.06</ele>
        <time>2015-04-18T13:54:58Z</time>
      </trkpt>
      <trkpt lat="46.09985" lon="3.50807">
        <ele>415.07</ele>
        <time>2015-04-18T13:55:09Z</time>
      </trkpt>
      <trkpt lat="46.10004" lon="3.50807">
        <ele>413.59</ele>
        <time>2015-04-18T13:55:16Z</time>
      </trkpt>
      <trkpt lat="46.09988" lon="3.5082">
        <ele>408.77</ele>
        <time>2015-04-18T13:55:44Z</time>
      </trkpt>
      <trkpt lat="46.0997" lon="3.50822">
        <ele>407.13</ele>
        <time>2015-04-18T13:55:48Z</time>
      </trkpt>
      <trkpt lat="46.09946" lon="3.50831">
        <ele>404.13</ele>
        <time>2015-04-18T13:55:56Z</time>
      </trkpt>
      <trkpt lat="46.09929" lon="3.50839">
        <ele>401.57</ele>
        <time>2015-04-18T13:56:04Z</time>
      </trkpt>
      <trkpt lat="46.0991" lon="3.50842">
        <ele>398.56</ele>
        <time>2015-04-18T13:56:16Z</time>
      </trkpt>
      <trkpt lat="46.09891" lon="3.50839">
        <ele>397.55</ele>
        <time>2015-04-18T13:57:18Z</time>
      </trkpt>
      <trkpt lat="46.09875" lon="3.50852">
        <ele>397.55</ele>
        <time>2015-04-18T13:57:33Z</time>
      </trkpt>
      <trkpt lat="46.09856" lon="3.50861">
        <ele>398.3</ele>
        <time>2015-04-18T13:57:46Z</time>
      </trkpt>
      <trkpt lat="46.09848" lon="3.50887">
        <ele>398.55</ele>
        <time>2015-04-18T13:57:51Z</time>
      </trkpt>
      <trkpt lat="46.09851" lon="3.50912">
        <ele>398.55</ele>
        <time>2015-04-18T13:57:57Z</time>
      </trkpt>
      <trkpt lat="46.09869" lon="3.50927">
        <ele>398.55</ele>
        <time>2015-04-18T13:58:04Z</time>
      </trkpt>
      <trkpt lat="46.09888" lon="3.5093">
        <ele>398.55</ele>
        <time>2015-04-18T13:58:11Z</time>
      </trkpt>
      <trkpt lat="46.09908" lon="3.5093">
        <ele>397.68</ele>
        <time>2015-04-18T13:58:18Z</time>
      </trkpt>
      <trkpt lat="46.0993" lon="3.50934">
        <ele>396.8</ele>
        <time>2015-04-18T13:58:24Z</time>
      </trkpt>
      <trkpt lat="46.09946" lon="3.50947">
        <ele>396.56</ele>
        <time>2015-04-18T13:58:29Z</time>
      </trkpt>
      <trkpt lat="46.09965" lon="3.50957">
        <ele>394.82</ele>
        <time>2015-04-18T13:58:35Z</time>
      </trkpt>
      <trkpt lat="46.09986" lon="3.50966">
        <ele>393.12</ele>
        <time>2015-04-18T13:58:41Z</time>
      </trkpt>
      <trkpt lat="46.10004" lon="3.50977">
        <ele>391.12</ele>
        <time>2015-04-18T13:58:47Z</time>
      </trkpt>
      <trkpt lat="46.10022" lon="3.5097">
        <ele>389.12</ele>
        <time>2015-04-18T13:58:53Z</time>
      </trkpt>
      <trkpt lat="46.10041" lon="3.50962">
        <ele>387.12</ele>
        <time>2015-04-18T13:58:59Z</time>
      </trkpt>
      <trkpt lat="46.10059" lon="3.5097">
        <ele>385.09</ele>
        <time>2015-04-18T13:59:06Z</time>
      </trkpt>
      <trkpt lat="46.10074" lon="3.50987">
        <ele>382.84</ele>
        <time>2015-04-18T13:59:13Z</time>
      </trkpt>
      <trkpt lat="46.10086" lon="3.51009">
        <ele>381.12</ele>
        <time>2015-04-18T13:59:19Z</time>
      </trkpt>
      <trkpt lat="46.10099" lon="3.51033">
        <ele>379.69</ele>
        <time>2015-04-18T13:59:25Z</time>
      </trkpt>
      <trkpt lat="46.10111" lon="3.51056">
        <ele>378.68</ele>
        <time>2015-04-18T13:59:30Z</time>
      </trkpt>
      <trkpt lat="46.10118" lon="3.51082">
        <ele>377.59</ele>
        <time>2015-04-18T13:59:36Z</time>
      </trkpt>
      <trkpt lat="46.10118" lon="3.5111">
        <ele>376.58</ele>
        <time>2015-04-18T13:59:42Z</time>
      </trkpt>
      <trkpt lat="46.10109" lon="3.51138">
        <ele>375.62</ele>
        <time>2015-04-18T13:59:47Z</time>
      </trkpt>
      <trkpt lat="46.101" lon="3.51163">
        <ele>367.62</ele>
        <time>2015-04-18T13:59:51Z</time>
      </trkpt>
      <trkpt lat="46.10096" lon="3.51189">
        <ele>362.55</ele>
        <time>2015-04-18T14:01:04Z</time>
      </trkpt>
      <trkpt lat="46.10096" lon="3.51217">
        <ele>360.93</ele>
        <time>2015-04-18T14:01:07Z</time>
      </trkpt>
      <trkpt lat="46.10092" lon="3.51243">
        <ele>360.58</ele>
        <time>2015-04-18T14:01:11Z</time>
      </trkpt>
      <trkpt lat="46.10084" lon="3.51266">
        <ele>357.24</ele>
        <time>2015-04-18T14:01:15Z</time>
      </trkpt>
      <trkpt lat="46.10077" lon="3.5129">
        <ele>355.55</ele>
        <time>2015-04-18T14:01:27Z</time>
      </trkpt>
      <trkpt lat="46.10093" lon="3.51275">
        <ele>343.7</ele>
        <time>2015-04-18T14:01:42Z</time>
      </trkpt>
      <trkpt lat="46.10111" lon="3.51264">
        <ele>341.25</ele>
        <time>2015-04-18T14:01:46Z</time>
      </trkpt>
      <trkpt lat="46.10128" lon="3.51254">
        <ele>339.27</ele>
        <time>2015-04-18T14:01:49Z</time>
      </trkpt>
      <trkpt lat="46.10147" lon="3.51236">
        <ele>337.89</ele>
        <time>2015-04-18T14:01:52Z</time>
      </trkpt>
      <trkpt lat="46.10166" lon="3.51221">
        <ele>336.22</ele>
        <time>2015-04-18T14:01:55Z</time>
      </trkpt>
      <trkpt lat="46.10184" lon="3.51206">
        <ele>335.14</ele>
        <time>2015-04-18T14:01:58Z</time>
      </trkpt>
      <trkpt lat="46.10201" lon="3.51185">
        <ele>334.59</ele>
        <time>2015-04-18T14:02:02Z</time>
      </trkpt>
      <trkpt lat="46.10213" lon="3.51157">
        <ele>332.87</ele>
        <time>2015-04-18T14:02:06Z</time>
      </trkpt>
      <trkpt lat="46.10224" lon="3.51131">
        <ele>331.14</ele>
        <time>2015-04-18T14:02:10Z</time>
      </trkpt>
      <trkpt lat="46.10238" lon="3.51105">
        <ele>331.54</ele>
        <time>2015-04-18T14:02:15Z</time>
      </trkpt>
      <trkpt lat="46.10256" lon="3.51105">
        <ele>331.55</ele>
        <time>2015-04-18T14:02:19Z</time>
      </trkpt>
      <trkpt lat="46.10273" lon="3.51123">
        <ele>332.3</ele>
        <time>2015-04-18T14:02:24Z</time>
      </trkpt>
      <trkpt lat="46.10291" lon="3.51131">
        <ele>332.05</ele>
        <time>2015-04-18T14:02:31Z</time>
      </trkpt>
      <trkpt lat="46.10301" lon="3.51155">
        <ele>333.05</ele>
        <time>2015-04-18T14:02:37Z</time>
      </trkpt>
      <trkpt lat="46.103" lon="3.51183">
        <ele>335.91</ele>
        <time>2015-04-18T14:02:44Z</time>
      </trkpt>
      <trkpt lat="46.10287" lon="3.51206">
        <ele>339.22</ele>
        <time>2015-04-18T14:02:51Z</time>
      </trkpt>
      <trkpt lat="46.10278" lon="3.51232">
        <ele>343.51</ele>
        <time>2015-04-18T14:03:15Z</time>
      </trkpt>
      <trkpt lat="46.10269" lon="3.51256">
        <ele>346.99</ele>
        <time>2015-04-18T14:03:23Z</time>
      </trkpt>
      <trkpt lat="46.10257" lon="3.51281">
        <ele>349.02</ele>
        <time>2015-04-18T14:03:31Z</time>
      </trkpt>
      <trkpt lat="46.10247" lon="3.51307">
        <ele>350.52</ele>
        <time>2015-04-18T14:03:38Z</time>
      </trkpt>
      <trkpt lat="46.1024" lon="3.51333">
        <ele>352.02</ele>
        <time>2015-04-18T14:03:46Z</time>
      </trkpt>
      <trkpt lat="46.10231" lon="3.51361">
        <ele>353.05</ele>
        <time>2015-04-18T14:03:56Z</time>
      </trkpt>
      <trkpt lat="46.10223" lon="3.51389">
        <ele>353.55</ele>
        <time>2015-04-18T14:04:07Z</time>
      </trkpt>
      <trkpt lat="46.10209" lon="3.51408">
        <ele>353.55</ele>
        <time>2015-04-18T14:04:19Z</time>
      </trkpt>
      <trkpt lat="46.10191" lon="3.51417">
        <ele>353.55</ele>
        <time>2015-04-18T14:04:29Z</time>
      </trkpt>
      <trkpt lat="46.1017" lon="3.51419">
        <ele>353.55</ele>
        <time>2015-04-18T14:04:36Z</time>
      </trkpt>
      <trkpt lat="46.10151" lon="3.51419">
        <ele>353.05</ele>
        <time>2015-04-18T14:04:48Z</time>
      </trkpt>
      <trkpt lat="46.10164" lon="3.51451">
        <ele>352.55</ele>
        <time>2015-04-18T14:05:15Z</time>
      </trkpt>
      <trkpt lat="46.10181" lon="3.51466">
        <ele>353.43</ele>
        <time>2015-04-18T14:05:29Z</time>
      </trkpt>
      <trkpt lat="46.10189" lon="3.5149">
        <ele>353.55</ele>
        <time>2015-04-18T14:05:41Z</time>
      </trkpt>
      <trkpt lat="46.10194" lon="3.51515">
        <ele>354.55</ele>
        <time>2015-04-18T14:05:52Z</time>
      </trkpt>
      <trkpt lat="46.10199" lon="3.51541">
        <ele>354.55</ele>
        <time>2015-04-18T14:06:04Z</time>
      </trkpt>
      <trkpt lat="46.10204" lon="3.51567">
        <ele>355.55</ele>
        <time>2015-04-18T14:06:17Z</time>
      </trkpt>
      <trkpt lat="46.10215" lon="3.5159">
        <ele>356.49</ele>
        <time>2015-04-18T14:06:29Z</time>
      </trkpt>
      <trkpt lat="46.10229" lon="3.51608">
        <ele>356.55</ele>
        <time>2015-04-18T14:06:39Z</time>
      </trkpt>
      <trkpt lat="46.10241" lon="3.51629">
        <ele>357.54</ele>
        <time>2015-04-18T14:06:50Z</time>
      </trkpt>
      <trkpt lat="46.10255" lon="3.51648">
        <ele>358.55</ele>
        <time>2015-04-18T14:07:02Z</time>
      </trkpt>
      <trkpt lat="46.10271" lon="3.51635">
        <ele>360.55</ele>
        <time>2015-04-18T14:07:29Z</time>
      </trkpt>
      <trkpt lat="46.10271" lon="3.51605">
        <ele>362.05</ele>
        <time>2015-04-18T14:07:39Z</time>
      </trkpt>
      <trkpt lat="46.10272" lon="3.51575">
        <ele>363.49</ele>
        <time>2015-04-18T14:07:48Z</time>
      </trkpt>
      <trkpt lat="46.10278" lon="3.51547">
        <ele>365.49</ele>
        <time>2015-04-18T14:07:58Z</time>
      </trkpt>
      <trkpt lat="46.10289" lon="3.51524">
        <ele>367.49</ele>
        <time>2015-04-18T14:08:08Z</time>
      </trkpt>
      <trkpt lat="46.10299" lon="3.515">
        <ele>370.41</ele>
        <time>2015-04-18T14:08:18Z</time>
      </trkpt>
      <trkpt lat="46.10309" lon="3.51477">
        <ele>373.42</ele>
        <time>2015-04-18T14:08:28Z</time>
      </trkpt>
      <trkpt lat="46.10319" lon="3.51455">
        <ele>376.42</ele>
        <time>2015-04-18T14:08:38Z</time>
      </trkpt>
      <trkpt lat="46.1033" lon="3.51434">
        <ele>379.02</ele>
        <time>2015-04-18T14:08:48Z</time>
      </trkpt>
      <trkpt lat="46.10341" lon="3.51412">
        <ele>381.49</ele>
        <time>2015-04-18T14:08:59Z</time>
      </trkpt>
      <trkpt lat="46.10353" lon="3.51391">
        <ele>383.49</ele>
        <time>2015-04-18T14:09:09Z</time>
      </trkpt>
      <trkpt lat="46.10356" lon="3.51417">
        <ele>385.49</ele>
        <time>2015-04-18T14:09:24Z</time>
      </trkpt>
      <trkpt lat="46.10349" lon="3.51442">
        <ele>386.49</ele>
        <time>2015-04-18T14:09:35Z</time>
      </trkpt>
      <trkpt lat="46.10348" lon="3.5147">
        <ele>387.55</ele>
        <time>2015-04-18T14:09:47Z</time>
      </trkpt>
      <trkpt lat="46.10351" lon="3.51496">
        <ele>388.55</ele>
        <time>2015-04-18T14:09:58Z</time>
      </trkpt>
      <trkpt lat="46.10353" lon="3.51524">
        <ele>389.55</ele>
        <time>2015-04-18T14:10:10Z</time>
      </trkpt>
      <trkpt lat="46.10356" lon="3.5155">
        <ele>390.55</ele>
        <time>2015-04-18T14:10:21Z</time>
      </trkpt>
      <trkpt lat="46.1036" lon="3.51575">
        <ele>392.05</ele>
        <time>2015-04-18T14:10:33Z</time>
      </trkpt>
      <trkpt lat="46.10364" lon="3.51608">
        <ele>393.52</ele>
        <time>2015-04-18T14:10:44Z</time>
      </trkpt>
      <trkpt lat="46.10371" lon="3.51633">
        <ele>395.05</ele>
        <time>2015-04-18T14:10:53Z</time>
      </trkpt>
      <trkpt lat="46.10378" lon="3.51659">
        <ele>397.27</ele>
        <time>2015-04-18T14:11:01Z</time>
      </trkpt>
      <trkpt lat="46.10387" lon="3.51685">
        <ele>399.49</ele>
        <time>2015-04-18T14:11:10Z</time>
      </trkpt>
      <trkpt lat="46.10394" lon="3.51711">
        <ele>402.29</ele>
        <time>2015-04-18T14:11:20Z</time>
      </trkpt>
      <trkpt lat="46.10401" lon="3.51736">
        <ele>404.42</ele>
        <time>2015-04-18T14:11:29Z</time>
      </trkpt>
      <trkpt lat="46.10407" lon="3.51762">
        <ele>407.02</ele>
        <time>2015-04-18T14:11:38Z</time>
      </trkpt>
      <trkpt lat="46.10414" lon="3.51788">
        <ele>410.02</ele>
        <time>2015-04-18T14:11:49Z</time>
      </trkpt>
      <trkpt lat="46.10421" lon="3.51811">
        <ele>412.42</ele>
        <time>2015-04-18T14:12:00Z</time>
      </trkpt>
      <trkpt lat="46.1043" lon="3.51835">
        <ele>414.52</ele>
        <time>2015-04-18T14:12:11Z</time>
      </trkpt>
      <trkpt lat="46.10445" lon="3.5185">
        <ele>416.43</ele>
        <time>2015-04-18T14:12:21Z</time>
      </trkpt>
      <trkpt lat="46.10461" lon="3.51863">
        <ele>417.55</ele>
        <time>2015-04-18T14:12:31Z</time>
      </trkpt>
      <trkpt lat="46.10475" lon="3.5188">
        <ele>419.05</ele>
        <time>2015-04-18T14:12:40Z</time>
      </trkpt>
      <trkpt lat="46.10488" lon="3.51899">
        <ele>420.43</ele>
        <time>2015-04-18T14:12:50Z</time>
      </trkpt>
      <trkpt lat="46.10501" lon="3.51919">
        <ele>421.54</ele>
        <time>2015-04-18T14:13:00Z</time>
      </trkpt>
      <trkpt lat="46.10516" lon="3.51938">
        <ele>423.49</ele>
        <time>2015-04-18T14:13:11Z</time>
      </trkpt>
      <trkpt lat="46.10523" lon="3.51962">
        <ele>424.55</ele>
        <time>2015-04-18T14:13:22Z</time>
      </trkpt>
      <trkpt lat="46.10519" lon="3.5199">
        <ele>425.54</ele>
        <time>2015-04-18T14:13:28Z</time>
      </trkpt>
      <trkpt lat="46.1051" lon="3.52017">
        <ele>426.52</ele>
        <time>2015-04-18T14:13:34Z</time>
      </trkpt>
      <trkpt lat="46.10503" lon="3.52043">
        <ele>427.3</ele>
        <time>2015-04-18T14:13:39Z</time>
      </trkpt>
      <trkpt lat="46.10495" lon="3.52069">
        <ele>427.55</ele>
        <time>2015-04-18T14:13:44Z</time>
      </trkpt>
      <trkpt lat="46.1049" lon="3.52095">
        <ele>428.43</ele>
        <time>2015-04-18T14:13:49Z</time>
      </trkpt>
      <trkpt lat="46.10483" lon="3.5212">
        <ele>428.55</ele>
        <time>2015-04-18T14:13:54Z</time>
      </trkpt>
      <trkpt lat="46.10478" lon="3.52148">
        <ele>429.3</ele>
        <time>2015-04-18T14:14:00Z</time>
      </trkpt>
      <trkpt lat="46.10473" lon="3.52174">
        <ele>429.55</ele>
        <time>2015-04-18T14:14:05Z</time>
      </trkpt>
      <trkpt lat="46.10467" lon="3.52204">
        <ele>430.3</ele>
        <time>2015-04-18T14:14:11Z</time>
      </trkpt>
      <trkpt lat="46.10462" lon="3.52234">
        <ele>430.55</ele>
        <time>2015-04-18T14:14:17Z</time>
      </trkpt>
      <trkpt lat="46.10456" lon="3.52262">
        <ele>431.52</ele>
        <time>2015-04-18T14:14:23Z</time>
      </trkpt>
      <trkpt lat="46.10451" lon="3.52288">
        <ele>431.55</ele>
        <time>2015-04-18T14:14:28Z</time>
      </trkpt>
      <trkpt lat="46.10446" lon="3.52314">
        <ele>432.52</ele>
        <time>2015-04-18T14:14:33Z</time>
      </trkpt>
      <trkpt lat="46.10439" lon="3.52341">
        <ele>433.3</ele>
        <time>2015-04-18T14:14:39Z</time>
      </trkpt>
      <trkpt lat="46.10435" lon="3.52367">
        <ele>433.55</ele>
        <time>2015-04-18T14:14:44Z</time>
      </trkpt>
      <trkpt lat="46.1043" lon="3.52393">
        <ele>434.43</ele>
        <time>2015-04-18T14:14:49Z</time>
      </trkpt>
      <trkpt lat="46.10424" lon="3.52419">
        <ele>434.55</ele>
        <time>2015-04-18T14:14:54Z</time>
      </trkpt>
      <trkpt lat="46.10418" lon="3.52449">
        <ele>435.54</ele>
        <time>2015-04-18T14:15:00Z</time>
      </trkpt>
      <trkpt lat="46.10412" lon="3.52477">
        <ele>436.49</ele>
        <time>2015-04-18T14:15:06Z</time>
      </trkpt>
      <trkpt lat="46.10408" lon="3.52504">
        <ele>438.05</ele>
        <time>2015-04-18T14:15:11Z</time>
      </trkpt>
      <trkpt lat="46.10405" lon="3.5253">
        <ele>440.33</ele>
        <time>2015-04-18T14:15:15Z</time>
      </trkpt>
      <trkpt lat="46.10402" lon="3.52562">
        <ele>441.48</ele>
        <time>2015-04-18T14:15:19Z</time>
      </trkpt>
      <trkpt lat="46.104" lon="3.5259">
        <ele>441.54</ele>
        <time>2015-04-18T14:15:22Z</time>
      </trkpt>
      <trkpt lat="46.10397" lon="3.5262">
        <ele>441.55</ele>
        <time>2015-04-18T14:15:25Z</time>
      </trkpt>
      <trkpt lat="46.10393" lon="3.5265">
        <ele>441.55</ele>
        <time>2015-04-18T14:15:28Z</time>
      </trkpt>
      <trkpt lat="46.1039" lon="3.52678">
        <ele>441.55</ele>
        <time>2015-04-18T14:15:31Z</time>
      </trkpt>
      <trkpt lat="46.10386" lon="3.52704">
        <ele>441.55</ele>
        <time>2015-04-18T14:15:34Z</time>
      </trkpt>
      <trkpt lat="46.10378" lon="3.52728">
        <ele>441.55</ele>
        <time>2015-04-18T14:15:37Z</time>
      </trkpt>
      <trkpt lat="46.10363" lon="3.52747">
        <ele>441.55</ele>
        <time>2015-04-18T14:15:41Z</time>
      </trkpt>
      <trkpt lat="46.1035" lon="3.52766">
        <ele>441.55</ele>
        <time>2015-04-18T14:15:45Z</time>
      </trkpt>
      <trkpt lat="46.10341" lon="3.5279">
        <ele>441.55</ele>
        <time>2015-04-18T14:15:49Z</time>
      </trkpt>
      <trkpt lat="46.10328" lon="3.52813">
        <ele>442.05</ele>
        <time>2015-04-18T14:15:54Z</time>
      </trkpt>
      <trkpt lat="46.10315" lon="3.52835">
        <ele>442.54</ele>
        <time>2015-04-18T14:15:59Z</time>
      </trkpt>
      <trkpt lat="46.10302" lon="3.52854">
        <ele>442.55</ele>
        <time>2015-04-18T14:16:05Z</time>
      </trkpt>
      <trkpt lat="46.10288" lon="3.52876">
        <ele>442.55</ele>
        <time>2015-04-18T14:16:11Z</time>
      </trkpt>
      <trkpt lat="46.10274" lon="3.52899">
        <ele>443.43</ele>
        <time>2015-04-18T14:16:17Z</time>
      </trkpt>
      <trkpt lat="46.10261" lon="3.52919">
        <ele>443.55</ele>
        <time>2015-04-18T14:16:23Z</time>
      </trkpt>
      <trkpt lat="46.1025" lon="3.5294">
        <ele>443.55</ele>
        <time>2015-04-18T14:16:29Z</time>
      </trkpt>
      <trkpt lat="46.10237" lon="3.52959">
        <ele>444.55</ele>
        <time>2015-04-18T14:16:37Z</time>
      </trkpt>
      <trkpt lat="46.10224" lon="3.52979">
        <ele>445.43</ele>
        <time>2015-04-18T14:16:44Z</time>
      </trkpt>
      <trkpt lat="46.10209" lon="3.52998">
        <ele>446.43</ele>
        <time>2015-04-18T14:16:52Z</time>
      </trkpt>
      <trkpt lat="46.10192" lon="3.53019">
        <ele>447.49</ele>
        <time>2015-04-18T14:17:02Z</time>
      </trkpt>
      <trkpt lat="46.10173" lon="3.53043">
        <ele>448.55</ele>
        <time>2015-04-18T14:17:13Z</time>
      </trkpt>
      <trkpt lat="46.1016" lon="3.53062">
        <ele>449.54</ele>
        <time>2015-04-18T14:17:21Z</time>
      </trkpt>
      <trkpt lat="46.10142" lon="3.53086">
        <ele>451.05</ele>
        <time>2015-04-18T14:17:31Z</time>
      </trkpt>
      <trkpt lat="46.10127" lon="3.53105">
        <ele>453.04</ele>
        <time>2015-04-18T14:17:40Z</time>
      </trkpt>
      <trkpt lat="46.10109" lon="3.53125">
        <ele>454.99</ele>
        <time>2015-04-18T14:17:50Z</time>
      </trkpt>
      <trkpt lat="46.10094" lon="3.53142">
        <ele>456.43</ele>
        <time>2015-04-18T14:17:58Z</time>
      </trkpt>
      <trkpt lat="46.10079" lon="3.53159">
        <ele>457.49</ele>
        <time>2015-04-18T14:18:07Z</time>
      </trkpt>
      <trkpt lat="46.10067" lon="3.5318">
        <ele>458.54</ele>
        <time>2015-04-18T14:18:15Z</time>
      </trkpt>
      <trkpt lat="46.10056" lon="3.53204">
        <ele>460.3</ele>
        <time>2015-04-18T14:18:23Z</time>
      </trkpt>
      <trkpt lat="46.10044" lon="3.53223">
        <ele>461.49</ele>
        <time>2015-04-18T14:18:31Z</time>
      </trkpt>
      <trkpt lat="46.10026" lon="3.53236">
        <ele>463.04</ele>
        <time>2015-04-18T14:18:41Z</time>
      </trkpt>
      <trkpt lat="46.10006" lon="3.53243">
        <ele>464.05</ele>
        <time>2015-04-18T14:18:51Z</time>
      </trkpt>
      <trkpt lat="46.09989" lon="3.53251">
        <ele>466.04</ele>
        <time>2015-04-18T14:19:01Z</time>
      </trkpt>
      <trkpt lat="46.09976" lon="3.53271">
        <ele>468.29</ele>
        <time>2015-04-18T14:19:11Z</time>
      </trkpt>
      <trkpt lat="46.09965" lon="3.53296">
        <ele>469.42</ele>
        <time>2015-04-18T14:19:17Z</time>
      </trkpt>
      <trkpt lat="46.09957" lon="3.5332">
        <ele>470.49</ele>
        <time>2015-04-18T14:19:22Z</time>
      </trkpt>
      <trkpt lat="46.09947" lon="3.53348">
        <ele>475.43</ele>
        <time>2015-04-18T14:19:27Z</time>
      </trkpt>
      <trkpt lat="46.09941" lon="3.53374">
        <ele>478.17</ele>
        <time>2015-04-18T14:19:31Z</time>
      </trkpt>
      <trkpt lat="46.09933" lon="3.53401">
        <ele>479.4</ele>
        <time>2015-04-18T14:19:35Z</time>
      </trkpt>
      <trkpt lat="46.0992" lon="3.53427">
        <ele>480.29</ele>
        <time>2015-04-18T14:19:39Z</time>
      </trkpt>
      <trkpt lat="46.09902" lon="3.53436">
        <ele>480.52</ele>
        <time>2015-04-18T14:19:42Z</time>
      </trkpt>
      <trkpt lat="46.09875" lon="3.53436">
        <ele>480.42</ele>
        <time>2015-04-18T14:19:45Z</time>
      </trkpt>
      <trkpt lat="46.0985" lon="3.53438">
        <ele>480.54</ele>
        <time>2015-04-18T14:19:48Z</time>
      </trkpt>
      <trkpt lat="46.09826" lon="3.53444">
        <ele>480.55</ele>
        <time>2015-04-18T14:19:51Z</time>
      </trkpt>
      <trkpt lat="46.09801" lon="3.53451">
        <ele>479.68</ele>
        <time>2015-04-18T14:19:54Z</time>
      </trkpt>
      <trkpt lat="46.09782" lon="3.53468">
        <ele>478.19</ele>
        <time>2015-04-18T14:19:57Z</time>
      </trkpt>
      <trkpt lat="46.09766" lon="3.53498">
        <ele>477.13</ele>
        <time>2015-04-18T14:20:00Z</time>
      </trkpt>
      <trkpt lat="46.09752" lon="3.53526">
        <ele>476.63</ele>
        <time>2015-04-18T14:20:03Z</time>
      </trkpt>
      <trkpt lat="46.09738" lon="3.53543">
        <ele>476.57</ele>
        <time>2015-04-18T14:20:05Z</time>
      </trkpt>
      <trkpt lat="46.09717" lon="3.53565">
        <ele>476.06</ele>
        <time>2015-04-18T14:20:07Z</time>
      </trkpt>
      <trkpt lat="46.09695" lon="3.53582">
        <ele>475.18</ele>
        <time>2015-04-18T14:20:09Z</time>
      </trkpt>
      <trkpt lat="46.09676" lon="3.53592">
        <ele>474.71</ele>
        <time>2015-04-18T14:20:11Z</time>
      </trkpt>
      <trkpt lat="46.0965" lon="3.53599">
        <ele>473.7</ele>
        <time>2015-04-18T14:20:14Z</time>
      </trkpt>
      <trkpt lat="46.09627" lon="3.5361">
        <ele>473.57</ele>
        <time>2015-04-18T14:20:17Z</time>
      </trkpt>
      <trkpt lat="46.09606" lon="3.5362">
        <ele>473.56</ele>
        <time>2015-04-18T14:20:20Z</time>
      </trkpt>
      <trkpt lat="46.09589" lon="3.5364">
        <ele>472.8</ele>
        <time>2015-04-18T14:20:23Z</time>
      </trkpt>
      <trkpt lat="46.09575" lon="3.53672">
        <ele>470.96</ele>
        <time>2015-04-18T14:20:26Z</time>
      </trkpt>
      <trkpt lat="46.09565" lon="3.537">
        <ele>470.15</ele>
        <time>2015-04-18T14:20:28Z</time>
      </trkpt>
      <trkpt lat="46.09556" lon="3.53723">
        <ele>469.2</ele>
        <time>2015-04-18T14:20:30Z</time>
      </trkpt>
      <trkpt lat="46.09547" lon="3.53747">
        <ele>468.22</ele>
        <time>2015-04-18T14:20:32Z</time>
      </trkpt>
      <trkpt lat="46.09536" lon="3.53768">
        <ele>466.97</ele>
        <time>2015-04-18T14:20:34Z</time>
      </trkpt>
      <trkpt lat="46.09517" lon="3.5379">
        <ele>464.48</ele>
        <time>2015-04-18T14:20:37Z</time>
      </trkpt>
      <trkpt lat="46.09497" lon="3.53811">
        <ele>462.04</ele>
        <time>2015-04-18T14:20:40Z</time>
      </trkpt>
      <trkpt lat="46.09475" lon="3.53824">
        <ele>459.99</ele>
        <time>2015-04-18T14:20:43Z</time>
      </trkpt>
      <trkpt lat="46.09452" lon="3.53835">
        <ele>457.98</ele>
        <time>2015-04-18T14:20:46Z</time>
      </trkpt>
      <trkpt lat="46.09429" lon="3.53837">
        <ele>455.48</ele>
        <time>2015-04-18T14:20:49Z</time>
      </trkpt>
      <trkpt lat="46.09411" lon="3.53841">
        <ele>452.29</ele>
        <time>2015-04-18T14:20:52Z</time>
      </trkpt>
      <trkpt lat="46.09391" lon="3.53843">
        <ele>446.49</ele>
        <time>2015-04-18T14:20:54Z</time>
      </trkpt>
      <trkpt lat="46.09369" lon="3.53841">
        <ele>441.79</ele>
        <time>2015-04-18T14:20:56Z</time>
      </trkpt>
      <trkpt lat="46.09348" lon="3.53841">
        <ele>438.11</ele>
        <time>2015-04-18T14:20:58Z</time>
      </trkpt>
      <trkpt lat="46.09329" lon="3.53841">
        <ele>435.69</ele>
        <time>2015-04-18T14:21:00Z</time>
      </trkpt>
      <trkpt lat="46.09303" lon="3.53837">
        <ele>433.95</ele>
        <time>2015-04-18T14:21:03Z</time>
      </trkpt>
      <trkpt lat="46.09277" lon="3.53826">
        <ele>431.98</ele>
        <time>2015-04-18T14:21:06Z</time>
      </trkpt>
      <trkpt lat="46.09253" lon="3.5382">
        <ele>430.23</ele>
        <time>2015-04-18T14:21:09Z</time>
      </trkpt>
      <trkpt lat="46.0923" lon="3.53813">
        <ele>428.89</ele>
        <time>2015-04-18T14:21:12Z</time>
      </trkpt>
      <trkpt lat="46.09208" lon="3.53805">
        <ele>427.22</ele>
        <time>2015-04-18T14:21:15Z</time>
      </trkpt>
      <trkpt lat="46.09184" lon="3.53796">
        <ele>425.26</ele>
        <time>2015-04-18T14:21:18Z</time>
      </trkpt>
      <trkpt lat="46.09161" lon="3.53788">
        <ele>423.89</ele>
        <time>2015-04-18T14:21:21Z</time>
      </trkpt>
      <trkpt lat="46.09141" lon="3.53781">
        <ele>422.85</ele>
        <time>2015-04-18T14:21:24Z</time>
      </trkpt>
      <trkpt lat="46.0912" lon="3.53786">
        <ele>421.32</ele>
        <time>2015-04-18T14:21:28Z</time>
      </trkpt>
      <trkpt lat="46.09099" lon="3.53788">
        <ele>419.23</ele>
        <time>2015-04-18T14:21:32Z</time>
      </trkpt>
      <trkpt lat="46.0908" lon="3.53796">
        <ele>416.28</ele>
        <time>2015-04-18T14:21:36Z</time>
      </trkpt>
      <trkpt lat="46.0906" lon="3.53809">
        <ele>413.91</ele>
        <time>2015-04-18T14:21:40Z</time>
      </trkpt>
      <trkpt lat="46.09043" lon="3.53818">
        <ele>412.72</ele>
        <time>2015-04-18T14:21:43Z</time>
      </trkpt>
      <trkpt lat="46.09025" lon="3.53828">
        <ele>411.7</ele>
        <time>2015-04-18T14:21:46Z</time>
      </trkpt>
      <trkpt lat="46.09004" lon="3.53835">
        <ele>410.7</ele>
        <time>2015-04-18T14:21:49Z</time>
      </trkpt>
      <trkpt lat="46.0898" lon="3.53835">
        <ele>409.2</ele>
        <time>2015-04-18T14:21:52Z</time>
      </trkpt>
      <trkpt lat="46.08956" lon="3.53833">
        <ele>407.01</ele>
        <time>2015-04-18T14:21:55Z</time>
      </trkpt>
      <trkpt lat="46.08931" lon="3.53826">
        <ele>404.48</ele>
        <time>2015-04-18T14:21:58Z</time>
      </trkpt>
      <trkpt lat="46.08908" lon="3.53813">
        <ele>401.54</ele>
        <time>2015-04-18T14:22:01Z</time>
      </trkpt>
      <trkpt lat="46.0889" lon="3.53801">
        <ele>399.43</ele>
        <time>2015-04-18T14:22:04Z</time>
      </trkpt>
      <trkpt lat="46.0887" lon="3.53792">
        <ele>395.05</ele>
        <time>2015-04-18T14:22:08Z</time>
      </trkpt>
      <trkpt lat="46.08852" lon="3.53786">
        <ele>390.08</ele>
        <time>2015-04-18T14:22:12Z</time>
      </trkpt>
      <trkpt lat="46.08833" lon="3.53788">
        <ele>386.63</ele>
        <time>2015-04-18T14:22:20Z</time>
      </trkpt>
      <trkpt lat="46.08813" lon="3.53786">
        <ele>385.62</ele>
        <time>2015-04-18T14:22:26Z</time>
      </trkpt>
      <trkpt lat="46.08795" lon="3.53779">
        <ele>384.62</ele>
        <time>2015-04-18T14:22:30Z</time>
      </trkpt>
      <trkpt lat="46.08773" lon="3.53781">
        <ele>381.57</ele>
        <time>2015-04-18T14:22:40Z</time>
      </trkpt>
      <trkpt lat="46.08755" lon="3.53788">
        <ele>377.86</ele>
        <time>2015-04-18T14:22:47Z</time>
      </trkpt>
      <trkpt lat="46.08735" lon="3.53794">
        <ele>372.84</ele>
        <time>2015-04-18T14:22:54Z</time>
      </trkpt>
      <trkpt lat="46.08719" lon="3.53779">
        <ele>362.76</ele>
        <time>2015-04-18T14:22:58Z</time>
      </trkpt>
      <trkpt lat="46.08703" lon="3.53762">
        <ele>356.19</ele>
        <time>2015-04-18T14:23:02Z</time>
      </trkpt>
      <trkpt lat="46.08685" lon="3.53749">
        <ele>352.01</ele>
        <time>2015-04-18T14:23:07Z</time>
      </trkpt>
      <trkpt lat="46.08667" lon="3.53747">
        <ele>351.56</ele>
        <time>2015-04-18T14:23:13Z</time>
      </trkpt>
      <trkpt lat="46.08649" lon="3.53749">
        <ele>350.68</ele>
        <time>2015-04-18T14:23:19Z</time>
      </trkpt>
      <trkpt lat="46.08629" lon="3.53755">
        <ele>350.55</ele>
        <time>2015-04-18T14:23:26Z</time>
      </trkpt>
      <trkpt lat="46.0861" lon="3.5376">
        <ele>349.56</ele>
        <time>2015-04-18T14:23:33Z</time>
      </trkpt>
      <trkpt lat="46.08591" lon="3.53766">
        <ele>349.05</ele>
        <time>2015-04-18T14:23:40Z</time>
      </trkpt>
      <trkpt lat="46.08573" lon="3.53768">
        <ele>348.56</ele>
        <time>2015-04-18T14:23:46Z</time>
      </trkpt>
      <trkpt lat="46.08552" lon="3.5377">
        <ele>348.55</ele>
        <time>2015-04-18T14:23:53Z</time>
      </trkpt>
      <trkpt lat="46.08534" lon="3.53777">
        <ele>348.55</ele>
        <time>2015-04-18T14:23:59Z</time>
      </trkpt>
      <trkpt lat="46.08514" lon="3.53781">
        <ele>348.55</ele>
        <time>2015-04-18T14:24:05Z</time>
      </trkpt>
      <trkpt lat="46.08495" lon="3.53786">
        <ele>349.52</ele>
        <time>2015-04-18T14:24:10Z</time>
      </trkpt>
      <trkpt lat="46.08475" lon="3.53792">
        <ele>349.55</ele>
        <time>2015-04-18T14:24:16Z</time>
      </trkpt>
      <trkpt lat="46.08455" lon="3.53798">
        <ele>349.55</ele>
        <time>2015-04-18T14:24:22Z</time>
      </trkpt>
      <trkpt lat="46.08436" lon="3.53803">
        <ele>349.55</ele>
        <time>2015-04-18T14:24:27Z</time>
      </trkpt>
      <trkpt lat="46.08418" lon="3.53811">
        <ele>349.55</ele>
        <time>2015-04-18T14:24:33Z</time>
      </trkpt>
      <trkpt lat="46.08401" lon="3.5382">
        <ele>349.55</ele>
        <time>2015-04-18T14:24:39Z</time>
      </trkpt>
      <trkpt lat="46.08386" lon="3.53803">
        <ele>349.05</ele>
        <time>2015-04-18T14:24:53Z</time>
      </trkpt>
      <trkpt lat="46.08368" lon="3.53805">
        <ele>348.55</ele>
        <time>2015-04-18T14:25:08Z</time>
      </trkpt>
      <trkpt lat="46.08351" lon="3.5382">
        <ele>348.55</ele>
        <time>2015-04-18T14:25:19Z</time>
      </trkpt>
      <trkpt lat="46.08334" lon="3.53835">
        <ele>348.55</ele>
        <time>2015-04-18T14:25:31Z</time>
      </trkpt>
      <trkpt lat="46.08318" lon="3.5385">
        <ele>349.05</ele>
        <time>2015-04-18T14:25:45Z</time>
      </trkpt>
      <trkpt lat="46.08293" lon="3.53858">
        <ele>351.05</ele>
        <time>2015-04-18T14:26:03Z</time>
      </trkpt>
      <trkpt lat="46.08275" lon="3.53848">
        <ele>353.54</ele>
        <time>2015-04-18T14:26:16Z</time>
      </trkpt>
      <trkpt lat="46.08269" lon="3.53822">
        <ele>357.41</ele>
        <time>2015-04-18T14:26:33Z</time>
      </trkpt>
      <trkpt lat="46.08266" lon="3.53796">
        <ele>360.41</ele>
        <time>2015-04-18T14:26:44Z</time>
      </trkpt>
      <trkpt lat="46.08263" lon="3.5377">
        <ele>364.97</ele>
        <time>2015-04-18T14:26:56Z</time>
      </trkpt>
      <trkpt lat="46.08256" lon="3.53745">
        <ele>370.23</ele>
        <time>2015-04-18T14:27:10Z</time>
      </trkpt>
      <trkpt lat="46.0825" lon="3.53719">
        <ele>375.27</ele>
        <time>2015-04-18T14:27:24Z</time>
      </trkpt>
      <trkpt lat="46.0824" lon="3.53695">
        <ele>379.41</ele>
        <time>2015-04-18T14:27:37Z</time>
      </trkpt>
      <trkpt lat="46.08227" lon="3.53674">
        <ele>387.22</ele>
        <time>2015-04-18T14:27:52Z</time>
      </trkpt>
      <trkpt lat="46.08217" lon="3.5365">
        <ele>394.42</ele>
        <time>2015-04-18T14:28:14Z</time>
      </trkpt>
      <trkpt lat="46.08208" lon="3.53627">
        <ele>395.55</ele>
        <time>2015-04-18T14:28:32Z</time>
      </trkpt>
      <trkpt lat="46.08197" lon="3.53605">
        <ele>396.55</ele>
        <time>2015-04-18T14:28:47Z</time>
      </trkpt>
      <trkpt lat="46.08184" lon="3.53586">
        <ele>396.55</ele>
        <time>2015-04-18T14:29:04Z</time>
      </trkpt>
      <trkpt lat="46.08167" lon="3.53597">
        <ele>397.55</ele>
        <time>2015-04-18T14:29:16Z</time>
      </trkpt>
      <trkpt lat="46.08152" lon="3.53614">
        <ele>397.55</ele>
        <time>2015-04-18T14:29:21Z</time>
      </trkpt>
      <trkpt lat="46.08134" lon="3.53629">
        <ele>398.3</ele>
        <time>2015-04-18T14:29:26Z</time>
      </trkpt>
      <trkpt lat="46.08117" lon="3.53646">
        <ele>399.47</ele>
        <time>2015-04-18T14:29:30Z</time>
      </trkpt>
      <trkpt lat="46.08099" lon="3.53661">
        <ele>400.3</ele>
        <time>2015-04-18T14:29:34Z</time>
      </trkpt>
      <trkpt lat="46.08082" lon="3.53676">
        <ele>399.58</ele>
        <time>2015-04-18T14:29:39Z</time>
      </trkpt>
      <trkpt lat="46.08065" lon="3.53687">
        <ele>399.55</ele>
        <time>2015-04-18T14:29:46Z</time>
      </trkpt>
      <trkpt lat="46.08048" lon="3.53698">
        <ele>398.62</ele>
        <time>2015-04-18T14:29:53Z</time>
      </trkpt>
      <trkpt lat="46.08031" lon="3.53706">
        <ele>398.55</ele>
        <time>2015-04-18T14:29:59Z</time>
      </trkpt>
      <trkpt lat="46.08013" lon="3.53717">
        <ele>397.68</ele>
        <time>2015-04-18T14:30:05Z</time>
      </trkpt>
      <trkpt lat="46.07995" lon="3.53728">
        <ele>397.55</ele>
        <time>2015-04-18T14:30:11Z</time>
      </trkpt>
      <trkpt lat="46.07979" lon="3.53743">
        <ele>397.55</ele>
        <time>2015-04-18T14:30:17Z</time>
      </trkpt>
      <trkpt lat="46.07964" lon="3.53758">
        <ele>397.55</ele>
        <time>2015-04-18T14:30:23Z</time>
      </trkpt>
      <trkpt lat="46.07947" lon="3.53773">
        <ele>398.05</ele>
        <time>2015-04-18T14:30:30Z</time>
      </trkpt>
      <trkpt lat="46.07926" lon="3.53783">
        <ele>398.55</ele>
        <time>2015-04-18T14:30:36Z</time>
      </trkpt>
      <trkpt lat="46.07905" lon="3.53783">
        <ele>398.74</ele>
        <time>2015-04-18T14:30:40Z</time>
      </trkpt>
      <trkpt lat="46.07886" lon="3.53775">
        <ele>398.56</ele>
        <time>2015-04-18T14:30:44Z</time>
      </trkpt>
      <trkpt lat="46.07869" lon="3.53762">
        <ele>397.12</ele>
        <time>2015-04-18T14:30:48Z</time>
      </trkpt>
      <trkpt lat="46.07853" lon="3.53745">
        <ele>396.59</ele>
        <time>2015-04-18T14:30:52Z</time>
      </trkpt>
      <trkpt lat="46.07838" lon="3.5373">
        <ele>396.06</ele>
        <time>2015-04-18T14:30:56Z</time>
      </trkpt>
      <trkpt lat="46.07821" lon="3.53715">
        <ele>395.57</ele>
        <time>2015-04-18T14:31:01Z</time>
      </trkpt>
      <trkpt lat="46.07804" lon="3.53698">
        <ele>395.55</ele>
        <time>2015-04-18T14:31:07Z</time>
      </trkpt>
      <trkpt lat="46.07787" lon="3.5368">
        <ele>395.55</ele>
        <time>2015-04-18T14:31:12Z</time>
      </trkpt>
      <trkpt lat="46.07769" lon="3.5368">
        <ele>394.8</ele>
        <time>2015-04-18T14:31:16Z</time>
      </trkpt>
      <trkpt lat="46.07753" lon="3.53704">
        <ele>394.55</ele>
        <time>2015-04-18T14:31:24Z</time>
      </trkpt>
      <trkpt lat="46.07738" lon="3.53721">
        <ele>394.55</ele>
        <time>2015-04-18T14:31:31Z</time>
      </trkpt>
      <trkpt lat="46.07716" lon="3.53732">
        <ele>395.3</ele>
        <time>2015-04-18T14:31:35Z</time>
      </trkpt>
      <trkpt lat="46.07711" lon="3.53758">
        <ele>396.41</ele>
        <time>2015-04-18T14:31:39Z</time>
      </trkpt>
      <trkpt lat="46.07713" lon="3.53786">
        <ele>397.52</ele>
        <time>2015-04-18T14:31:44Z</time>
      </trkpt>
      <trkpt lat="46.07721" lon="3.53811">
        <ele>398.43</ele>
        <time>2015-04-18T14:31:50Z</time>
      </trkpt>
      <trkpt lat="46.07722" lon="3.53839">
        <ele>398.55</ele>
        <time>2015-04-18T14:31:58Z</time>
      </trkpt>
      <trkpt lat="46.07722" lon="3.53867">
        <ele>398.55</ele>
        <time>2015-04-18T14:32:06Z</time>
      </trkpt>
      <trkpt lat="46.07708" lon="3.53886">
        <ele>398.55</ele>
        <time>2015-04-18T14:32:13Z</time>
      </trkpt>
      <trkpt lat="46.07689" lon="3.53878">
        <ele>399.43</ele>
        <time>2015-04-18T14:32:19Z</time>
      </trkpt>
      <trkpt lat="46.07668" lon="3.53869">
        <ele>398.58</ele>
        <time>2015-04-18T14:32:24Z</time>
      </trkpt>
      <trkpt lat="46.07649" lon="3.53891">
        <ele>397.81</ele>
        <time>2015-04-18T14:32:27Z</time>
      </trkpt>
      <trkpt lat="46.07631" lon="3.53916">
        <ele>397.58</ele>
        <time>2015-04-18T14:32:30Z</time>
      </trkpt>
      <trkpt lat="46.07617" lon="3.53944">
        <ele>396.81</ele>
        <time>2015-04-18T14:32:33Z</time>
      </trkpt>
      <trkpt lat="46.076" lon="3.5397">
        <ele>395.83</ele>
        <time>2015-04-18T14:32:36Z</time>
      </trkpt>
      <trkpt lat="46.07577" lon="3.53976">
        <ele>394.84</ele>
        <time>2015-04-18T14:32:39Z</time>
      </trkpt>
      <trkpt lat="46.07553" lon="3.53968">
        <ele>392.46</ele>
        <time>2015-04-18T14:32:42Z</time>
      </trkpt>
      <trkpt lat="46.07533" lon="3.53961">
        <ele>388.55</ele>
        <time>2015-04-18T14:32:46Z</time>
      </trkpt>
      <trkpt lat="46.07524" lon="3.53987">
        <ele>385.05</ele>
        <time>2015-04-18T14:32:50Z</time>
      </trkpt>
      <trkpt lat="46.07537" lon="3.54013">
        <ele>382.9</ele>
        <time>2015-04-18T14:32:54Z</time>
      </trkpt>
      <trkpt lat="46.07559" lon="3.54028">
        <ele>380.89</ele>
        <time>2015-04-18T14:32:58Z</time>
      </trkpt>
      <trkpt lat="46.07574" lon="3.54054">
        <ele>378.89</ele>
        <time>2015-04-18T14:33:02Z</time>
      </trkpt>
      <trkpt lat="46.07588" lon="3.54071">
        <ele>377.22</ele>
        <time>2015-04-18T14:33:05Z</time>
      </trkpt>
      <trkpt lat="46.07604" lon="3.54086">
        <ele>375.22</ele>
        <time>2015-04-18T14:33:09Z</time>
      </trkpt>
      <trkpt lat="46.07587" lon="3.54095">
        <ele>373.22</ele>
        <time>2015-04-18T14:33:13Z</time>
      </trkpt>
      <trkpt lat="46.07565" lon="3.54095">
        <ele>372.14</ele>
        <time>2015-04-18T14:33:16Z</time>
      </trkpt>
      <trkpt lat="46.07547" lon="3.54097">
        <ele>371.57</ele>
        <time>2015-04-18T14:33:21Z</time>
      </trkpt>
      <trkpt lat="46.07529" lon="3.54095">
        <ele>371.05</ele>
        <time>2015-04-18T14:33:35Z</time>
      </trkpt>
      <trkpt lat="46.0751" lon="3.54082">
        <ele>370.05</ele>
        <time>2015-04-18T14:33:47Z</time>
      </trkpt>
      <trkpt lat="46.07492" lon="3.54075">
        <ele>369.55</ele>
        <time>2015-04-18T14:33:57Z</time>
      </trkpt>
      <trkpt lat="46.07474" lon="3.54069">
        <ele>369.55</ele>
        <time>2015-04-18T14:34:07Z</time>
      </trkpt>
      <trkpt lat="46.07461" lon="3.54049">
        <ele>370.55</ele>
        <time>2015-04-18T14:34:19Z</time>
      </trkpt>
      <trkpt lat="46.07447" lon="3.5403">
        <ele>370.55</ele>
        <time>2015-04-18T14:34:36Z</time>
      </trkpt>
      <trkpt lat="46.07421" lon="3.54013">
        <ele>371.55</ele>
        <time>2015-04-18T14:35:01Z</time>
      </trkpt>
      <trkpt lat="46.07405" lon="3.53998">
        <ele>372.55</ele>
        <time>2015-04-18T14:35:24Z</time>
      </trkpt>
      <trkpt lat="46.07388" lon="3.53985">
        <ele>374.05</ele>
        <time>2015-04-18T14:35:43Z</time>
      </trkpt>
      <trkpt lat="46.0738" lon="3.53959">
        <ele>376.05</ele>
        <time>2015-04-18T14:36:03Z</time>
      </trkpt>
      <trkpt lat="46.07362" lon="3.53951">
        <ele>385.29</ele>
        <time>2015-04-18T14:37:05Z</time>
      </trkpt>
      <trkpt lat="46.07344" lon="3.53946">
        <ele>392.52</ele>
        <time>2015-04-18T14:37:38Z</time>
      </trkpt>
      <trkpt lat="46.07326" lon="3.53949">
        <ele>397.04</ele>
        <time>2015-04-18T14:38:00Z</time>
      </trkpt>
      <trkpt lat="46.07308" lon="3.53951">
        <ele>401.42</ele>
        <time>2015-04-18T14:38:21Z</time>
      </trkpt>
      <trkpt lat="46.07289" lon="3.53951">
        <ele>405.3</ele>
        <time>2015-04-18T14:38:43Z</time>
      </trkpt>
      <trkpt lat="46.07272" lon="3.53942">
        <ele>408.55</ele>
        <time>2015-04-18T14:39:10Z</time>
      </trkpt>
      <trkpt lat="46.07253" lon="3.53936">
        <ele>409.55</ele>
        <time>2015-04-18T14:39:33Z</time>
      </trkpt>
      <trkpt lat="46.07235" lon="3.53934">
        <ele>411.54</ele>
        <time>2015-04-18T14:39:50Z</time>
      </trkpt>
      <trkpt lat="46.07216" lon="3.53929">
        <ele>418.02</ele>
        <time>2015-04-18T14:40:18Z</time>
      </trkpt>
      <trkpt lat="46.07198" lon="3.53934">
        <ele>422.42</ele>
        <time>2015-04-18T14:40:37Z</time>
      </trkpt>
      <trkpt lat="46.07181" lon="3.53944">
        <ele>426.52</ele>
        <time>2015-04-18T14:40:56Z</time>
      </trkpt>
      <trkpt lat="46.07163" lon="3.53951">
        <ele>429.55</ele>
        <time>2015-04-18T14:41:21Z</time>
      </trkpt>
      <trkpt lat="46.07145" lon="3.53955">
        <ele>432.52</ele>
        <time>2015-04-18T14:41:35Z</time>
      </trkpt>
      <trkpt lat="46.07126" lon="3.53953">
        <ele>435.04</ele>
        <time>2015-04-18T14:41:46Z</time>
      </trkpt>
      <trkpt lat="46.07108" lon="3.53946">
        <ele>436.52</ele>
        <time>2015-04-18T14:41:56Z</time>
      </trkpt>
      <trkpt lat="46.07089" lon="3.53938">
        <ele>438.52</ele>
        <time>2015-04-18T14:42:06Z</time>
      </trkpt>
      <trkpt lat="46.07071" lon="3.53925">
        <ele>440.49</ele>
        <time>2015-04-18T14:42:16Z</time>
      </trkpt>
      <trkpt lat="46.07054" lon="3.53912">
        <ele>441.52</ele>
        <time>2015-04-18T14:42:23Z</time>
      </trkpt>
      <trkpt lat="46.07037" lon="3.53897">
        <ele>442.54</ele>
        <time>2015-04-18T14:42:30Z</time>
      </trkpt>
      <trkpt lat="46.07021" lon="3.5388">
        <ele>443.54</ele>
        <time>2015-04-18T14:42:37Z</time>
      </trkpt>
      <trkpt lat="46.07006" lon="3.53861">
        <ele>444.43</ele>
        <time>2015-04-18T14:42:43Z</time>
      </trkpt>
      <trkpt lat="46.0699" lon="3.53846">
        <ele>444.55</ele>
        <time>2015-04-18T14:42:49Z</time>
      </trkpt>
      <trkpt lat="46.0697" lon="3.53839">
        <ele>446.04</ele>
        <time>2015-04-18T14:42:55Z</time>
      </trkpt>
      <trkpt lat="46.0695" lon="3.53837">
        <ele>447.48</ele>
        <time>2015-04-18T14:43:01Z</time>
      </trkpt>
      <trkpt lat="46.06931" lon="3.53835">
        <ele>449.27</ele>
        <time>2015-04-18T14:43:06Z</time>
      </trkpt>
      <trkpt lat="46.06913" lon="3.53833">
        <ele>451.02</ele>
        <time>2015-04-18T14:43:12Z</time>
      </trkpt>
      <trkpt lat="46.06894" lon="3.53837">
        <ele>453.29</ele>
        <time>2015-04-18T14:43:21Z</time>
      </trkpt>
      <trkpt lat="46.06874" lon="3.53843">
        <ele>455.43</ele>
        <time>2015-04-18T14:43:33Z</time>
      </trkpt>
      <trkpt lat="46.06855" lon="3.5385">
        <ele>456.55</ele>
        <time>2015-04-18T14:43:44Z</time>
      </trkpt>
      <trkpt lat="46.06837" lon="3.53856">
        <ele>457.55</ele>
        <time>2015-04-18T14:43:54Z</time>
      </trkpt>
      <trkpt lat="46.06818" lon="3.53856">
        <ele>458.55</ele>
        <time>2015-04-18T14:44:06Z</time>
      </trkpt>
      <trkpt lat="46.068" lon="3.53861">
        <ele>459.55</ele>
        <time>2015-04-18T14:44:18Z</time>
      </trkpt>
      <trkpt lat="46.06782" lon="3.53869">
        <ele>459.55</ele>
        <time>2015-04-18T14:44:29Z</time>
      </trkpt>
      <trkpt lat="46.06764" lon="3.5388">
        <ele>459.55</ele>
        <time>2015-04-18T14:44:40Z</time>
      </trkpt>
      <trkpt lat="46.06745" lon="3.53895">
        <ele>461.04</ele>
        <time>2015-04-18T14:44:46Z</time>
      </trkpt>
      <trkpt lat="46.06732" lon="3.53914">
        <ele>462.27</ele>
        <time>2015-04-18T14:44:50Z</time>
      </trkpt>
      <trkpt lat="46.06722" lon="3.5394">
        <ele>463.41</ele>
        <time>2015-04-18T14:44:54Z</time>
      </trkpt>
      <trkpt lat="46.06706" lon="3.53959">
        <ele>465.02</ele>
        <time>2015-04-18T14:44:59Z</time>
      </trkpt>
      <trkpt lat="46.06688" lon="3.5397">
        <ele>465.54</ele>
        <time>2015-04-18T14:45:05Z</time>
      </trkpt>
      <trkpt lat="46.06671" lon="3.53983">
        <ele>466.54</ele>
        <time>2015-04-18T14:45:11Z</time>
      </trkpt>
      <trkpt lat="46.06656" lon="3.53998">
        <ele>466.55</ele>
        <time>2015-04-18T14:45:17Z</time>
      </trkpt>
      <trkpt lat="46.0665" lon="3.54026">
        <ele>468.05</ele>
        <time>2015-04-18T14:45:25Z</time>
      </trkpt>
      <trkpt lat="46.06661" lon="3.54047">
        <ele>469.24</ele>
        <time>2015-04-18T14:45:28Z</time>
      </trkpt>
      <trkpt lat="46.06675" lon="3.54071">
        <ele>468.76</ele>
        <time>2015-04-18T14:45:31Z</time>
      </trkpt>
      <trkpt lat="46.0669" lon="3.54097">
        <ele>468.08</ele>
        <time>2015-04-18T14:45:34Z</time>
      </trkpt>
      <trkpt lat="46.06707" lon="3.54116">
        <ele>467.62</ele>
        <time>2015-04-18T14:45:37Z</time>
      </trkpt>
      <trkpt lat="46.06725" lon="3.54133">
        <ele>467.06</ele>
        <time>2015-04-18T14:45:40Z</time>
      </trkpt>
      <trkpt lat="46.06744" lon="3.54148">
        <ele>466.62</ele>
        <time>2015-04-18T14:45:43Z</time>
      </trkpt>
      <trkpt lat="46.06762" lon="3.54161">
        <ele>466.56</ele>
        <time>2015-04-18T14:45:46Z</time>
      </trkpt>
      <trkpt lat="46.06773" lon="3.54189">
        <ele>465.62</ele>
        <time>2015-04-18T14:45:50Z</time>
      </trkpt>
      <trkpt lat="46.06781" lon="3.54217">
        <ele>464.62</ele>
        <time>2015-04-18T14:45:54Z</time>
      </trkpt>
      <trkpt lat="46.06788" lon="3.5424">
        <ele>463.68</ele>
        <time>2015-04-18T14:46:01Z</time>
      </trkpt>
      <trkpt lat="46.06786" lon="3.54277">
        <ele>463.05</ele>
        <time>2015-04-18T14:46:11Z</time>
      </trkpt>
      <trkpt lat="46.06787" lon="3.54307">
        <ele>461.63</ele>
        <time>2015-04-18T14:46:16Z</time>
      </trkpt>
      <trkpt lat="46.06789" lon="3.54333">
        <ele>459.12</ele>
        <time>2015-04-18T14:46:20Z</time>
      </trkpt>
      <trkpt lat="46.06795" lon="3.54363">
        <ele>452.03</ele>
        <time>2015-04-18T14:46:24Z</time>
      </trkpt>
      <trkpt lat="46.06801" lon="3.54393">
        <ele>448.83</ele>
        <time>2015-04-18T14:46:28Z</time>
      </trkpt>
      <trkpt lat="46.06802" lon="3.54421">
        <ele>447.34</ele>
        <time>2015-04-18T14:46:31Z</time>
      </trkpt>
      <trkpt lat="46.06801" lon="3.54449">
        <ele>445.28</ele>
        <time>2015-04-18T14:46:34Z</time>
      </trkpt>
      <trkpt lat="46.06799" lon="3.54479">
        <ele>443.85</ele>
        <time>2015-04-18T14:46:38Z</time>
      </trkpt>
      <trkpt lat="46.06798" lon="3.54509">
        <ele>442.7</ele>
        <time>2015-04-18T14:46:42Z</time>
      </trkpt>
      <trkpt lat="46.06794" lon="3.54537">
        <ele>440.87</ele>
        <time>2015-04-18T14:46:46Z</time>
      </trkpt>
      <trkpt lat="46.06789" lon="3.54564">
        <ele>440.57</ele>
        <time>2015-04-18T14:46:50Z</time>
      </trkpt>
      <trkpt lat="46.06785" lon="3.5459">
        <ele>439.68</ele>
        <time>2015-04-18T14:46:54Z</time>
      </trkpt>
      <trkpt lat="46.06783" lon="3.54616">
        <ele>438.81</ele>
        <time>2015-04-18T14:46:59Z</time>
      </trkpt>
      <trkpt lat="46.06781" lon="3.54646">
        <ele>437.68</ele>
        <time>2015-04-18T14:47:05Z</time>
      </trkpt>
      <trkpt lat="46.06782" lon="3.54676">
        <ele>436.62</ele>
        <time>2015-04-18T14:47:11Z</time>
      </trkpt>
      <trkpt lat="46.06784" lon="3.54704">
        <ele>435.09</ele>
        <time>2015-04-18T14:47:17Z</time>
      </trkpt>
      <trkpt lat="46.06791" lon="3.54732">
        <ele>433.68</ele>
        <time>2015-04-18T14:47:24Z</time>
      </trkpt>
      <trkpt lat="46.068" lon="3.54755">
        <ele>432.8</ele>
        <time>2015-04-18T14:47:31Z</time>
      </trkpt>
      <trkpt lat="46.06781" lon="3.54768">
        <ele>430.58</ele>
        <time>2015-04-18T14:47:59Z</time>
      </trkpt>
      <trkpt lat="46.06792" lon="3.54747">
        <ele>430.55</ele>
        <time>2015-04-18T14:57:38Z</time>
      </trkpt>
      <trkpt lat="46.06809" lon="3.54762">
        <ele>430.55</ele>
        <time>2015-04-18T14:57:45Z</time>
      </trkpt>
      <trkpt lat="46.06825" lon="3.54783">
        <ele>429.05</ele>
        <time>2015-04-18T14:58:02Z</time>
      </trkpt>
      <trkpt lat="46.06841" lon="3.54796">
        <ele>426.49</ele>
        <time>2015-04-18T14:58:05Z</time>
      </trkpt>
      <trkpt lat="46.06864" lon="3.54813">
        <ele>424.92</ele>
        <time>2015-04-18T14:58:08Z</time>
      </trkpt>
      <trkpt lat="46.06886" lon="3.54835">
        <ele>423.85</ele>
        <time>2015-04-18T14:58:11Z</time>
      </trkpt>
      <trkpt lat="46.06901" lon="3.5485">
        <ele>422.38</ele>
        <time>2015-04-18T14:58:13Z</time>
      </trkpt>
      <trkpt lat="46.06919" lon="3.54869">
        <ele>421.16</ele>
        <time>2015-04-18T14:58:16Z</time>
      </trkpt>
      <trkpt lat="46.06935" lon="3.54886">
        <ele>420.09</ele>
        <time>2015-04-18T14:58:20Z</time>
      </trkpt>
      <trkpt lat="46.06938" lon="3.54916">
        <ele>419.56</ele>
        <time>2015-04-18T14:58:27Z</time>
      </trkpt>
      <trkpt lat="46.06918" lon="3.54916">
        <ele>418.8</ele>
        <time>2015-04-18T14:58:33Z</time>
      </trkpt>
      <trkpt lat="46.06901" lon="3.54906">
        <ele>418.56</ele>
        <time>2015-04-18T14:58:38Z</time>
      </trkpt>
      <trkpt lat="46.06883" lon="3.54891">
        <ele>415.77</ele>
        <time>2015-04-18T14:58:43Z</time>
      </trkpt>
      <trkpt lat="46.06862" lon="3.54903">
        <ele>413.93</ele>
        <time>2015-04-18T14:58:48Z</time>
      </trkpt>
      <trkpt lat="46.0685" lon="3.54934">
        <ele>412.7</ele>
        <time>2015-04-18T14:58:52Z</time>
      </trkpt>
      <trkpt lat="46.06842" lon="3.54957">
        <ele>411.82</ele>
        <time>2015-04-18T14:58:55Z</time>
      </trkpt>
      <trkpt lat="46.06828" lon="3.54983">
        <ele>411.57</ele>
        <time>2015-04-18T14:58:59Z</time>
      </trkpt>
      <trkpt lat="46.0681" lon="3.54985">
        <ele>411.05</ele>
        <time>2015-04-18T14:59:03Z</time>
      </trkpt>
      <trkpt lat="46.06787" lon="3.54985">
        <ele>410.58</ele>
        <time>2015-04-18T14:59:07Z</time>
      </trkpt>
      <trkpt lat="46.06764" lon="3.54981">
        <ele>409.62</ele>
        <time>2015-04-18T14:59:11Z</time>
      </trkpt>
      <trkpt lat="46.06745" lon="3.54979">
        <ele>408.81</ele>
        <time>2015-04-18T14:59:14Z</time>
      </trkpt>
      <trkpt lat="46.06721" lon="3.54989">
        <ele>405.96</ele>
        <time>2015-04-18T14:59:17Z</time>
      </trkpt>
      <trkpt lat="46.067" lon="3.55">
        <ele>402.35</ele>
        <time>2015-04-18T14:59:20Z</time>
      </trkpt>
      <trkpt lat="46.0668" lon="3.55015">
        <ele>401.6</ele>
        <time>2015-04-18T14:59:24Z</time>
      </trkpt>
      <trkpt lat="46.06663" lon="3.55028">
        <ele>400.62</ele>
        <time>2015-04-18T14:59:28Z</time>
      </trkpt>
      <trkpt lat="46.06645" lon="3.55041">
        <ele>399.81</ele>
        <time>2015-04-18T14:59:33Z</time>
      </trkpt>
      <trkpt lat="46.06627" lon="3.55052">
        <ele>399.56</ele>
        <time>2015-04-18T14:59:39Z</time>
      </trkpt>
      <trkpt lat="46.06611" lon="3.55067">
        <ele>398.56</ele>
        <time>2015-04-18T14:59:46Z</time>
      </trkpt>
      <trkpt lat="46.06597" lon="3.55084">
        <ele>398.55</ele>
        <time>2015-04-18T14:59:52Z</time>
      </trkpt>
      <trkpt lat="46.06582" lon="3.55099">
        <ele>398.55</ele>
        <time>2015-04-18T14:59:58Z</time>
      </trkpt>
      <trkpt lat="46.06566" lon="3.55114">
        <ele>397.56</ele>
        <time>2015-04-18T15:00:06Z</time>
      </trkpt>
      <trkpt lat="46.06555" lon="3.55142">
        <ele>398.49</ele>
        <time>2015-04-18T15:00:19Z</time>
      </trkpt>
      <trkpt lat="46.06547" lon="3.55172">
        <ele>399.05</ele>
        <time>2015-04-18T15:00:35Z</time>
      </trkpt>
      <trkpt lat="46.06533" lon="3.552">
        <ele>400.05</ele>
        <time>2015-04-18T15:00:48Z</time>
      </trkpt>
      <trkpt lat="46.06523" lon="3.55227">
        <ele>400.55</ele>
        <time>2015-04-18T15:01:00Z</time>
      </trkpt>
      <trkpt lat="46.06523" lon="3.55262">
        <ele>402.05</ele>
        <time>2015-04-18T15:01:12Z</time>
      </trkpt>
      <trkpt lat="46.06532" lon="3.55288">
        <ele>403.49</ele>
        <time>2015-04-18T15:01:21Z</time>
      </trkpt>
      <trkpt lat="46.06549" lon="3.55307">
        <ele>405.05</ele>
        <time>2015-04-18T15:01:30Z</time>
      </trkpt>
      <trkpt lat="46.06564" lon="3.55324">
        <ele>406.43</ele>
        <time>2015-04-18T15:01:38Z</time>
      </trkpt>
      <trkpt lat="46.06574" lon="3.5535">
        <ele>407.49</ele>
        <time>2015-04-18T15:01:46Z</time>
      </trkpt>
      <trkpt lat="46.06582" lon="3.55373">
        <ele>408.52</ele>
        <time>2015-04-18T15:01:54Z</time>
      </trkpt>
      <trkpt lat="46.06597" lon="3.55399">
        <ele>409.52</ele>
        <time>2015-04-18T15:02:04Z</time>
      </trkpt>
      <trkpt lat="46.0661" lon="3.55418">
        <ele>411.05</ele>
        <time>2015-04-18T15:02:13Z</time>
      </trkpt>
      <trkpt lat="46.06624" lon="3.5544">
        <ele>412.3</ele>
        <time>2015-04-18T15:02:21Z</time>
      </trkpt>
      <trkpt lat="46.06625" lon="3.55468">
        <ele>413.43</ele>
        <time>2015-04-18T15:02:29Z</time>
      </trkpt>
      <trkpt lat="46.06612" lon="3.55489">
        <ele>413.55</ele>
        <time>2015-04-18T15:02:35Z</time>
      </trkpt>
      <trkpt lat="46.06602" lon="3.55515">
        <ele>414.54</ele>
        <time>2015-04-18T15:02:42Z</time>
      </trkpt>
      <trkpt lat="46.06596" lon="3.55541">
        <ele>415.43</ele>
        <time>2015-04-18T15:02:49Z</time>
      </trkpt>
      <trkpt lat="46.06592" lon="3.55569">
        <ele>416.05</ele>
        <time>2015-04-18T15:02:56Z</time>
      </trkpt>
      <trkpt lat="46.06589" lon="3.55597">
        <ele>416.55</ele>
        <time>2015-04-18T15:03:04Z</time>
      </trkpt>
      <trkpt lat="46.06588" lon="3.55624">
        <ele>417.55</ele>
        <time>2015-04-18T15:03:12Z</time>
      </trkpt>
      <trkpt lat="46.06586" lon="3.5565">
        <ele>419.05</ele>
        <time>2015-04-18T15:03:21Z</time>
      </trkpt>
      <trkpt lat="46.06576" lon="3.55674">
        <ele>420.54</ele>
        <time>2015-04-18T15:03:32Z</time>
      </trkpt>
      <trkpt lat="46.0656" lon="3.55689">
        <ele>422.05</ele>
        <time>2015-04-18T15:03:39Z</time>
      </trkpt>
      <trkpt lat="46.06539" lon="3.55689">
        <ele>423.05</ele>
        <time>2015-04-18T15:03:46Z</time>
      </trkpt>
      <trkpt lat="46.06521" lon="3.5568">
        <ele>423.55</ele>
        <time>2015-04-18T15:03:53Z</time>
      </trkpt>
      <trkpt lat="46.065" lon="3.55687">
        <ele>426.54</ele>
        <time>2015-04-18T15:04:00Z</time>
      </trkpt>
      <trkpt lat="46.0648" lon="3.55697">
        <ele>430.05</ele>
        <time>2015-04-18T15:04:04Z</time>
      </trkpt>
      <trkpt lat="46.06463" lon="3.55708">
        <ele>431.37</ele>
        <time>2015-04-18T15:04:07Z</time>
      </trkpt>
      <trkpt lat="46.06445" lon="3.55721">
        <ele>431.53</ele>
        <time>2015-04-18T15:04:10Z</time>
      </trkpt>
      <trkpt lat="46.06426" lon="3.55734">
        <ele>430.68</ele>
        <time>2015-04-18T15:04:14Z</time>
      </trkpt>
      <trkpt lat="46.06421" lon="3.55762">
        <ele>430.56</ele>
        <time>2015-04-18T15:04:19Z</time>
      </trkpt>
      <trkpt lat="46.06431" lon="3.55792">
        <ele>430.55</ele>
        <time>2015-04-18T15:04:23Z</time>
      </trkpt>
      <trkpt lat="46.06441" lon="3.55818">
        <ele>430.55</ele>
        <time>2015-04-18T15:04:26Z</time>
      </trkpt>
      <trkpt lat="46.06454" lon="3.55839">
        <ele>430.55</ele>
        <time>2015-04-18T15:04:29Z</time>
      </trkpt>
      <trkpt lat="46.0647" lon="3.55858">
        <ele>430.55</ele>
        <time>2015-04-18T15:04:32Z</time>
      </trkpt>
      <trkpt lat="46.06486" lon="3.55873">
        <ele>429.8</ele>
        <time>2015-04-18T15:04:35Z</time>
      </trkpt>
      <trkpt lat="46.06507" lon="3.55886">
        <ele>429.63</ele>
        <time>2015-04-18T15:04:39Z</time>
      </trkpt>
      <trkpt lat="46.06523" lon="3.55901">
        <ele>429.56</ele>
        <time>2015-04-18T15:04:42Z</time>
      </trkpt>
      <trkpt lat="46.06534" lon="3.55925">
        <ele>428.18</ele>
        <time>2015-04-18T15:04:45Z</time>
      </trkpt>
      <trkpt lat="46.06547" lon="3.55944">
        <ele>426.88</ele>
        <time>2015-04-18T15:04:48Z</time>
      </trkpt>
      <trkpt lat="46.0657" lon="3.55953">
        <ele>424.26</ele>
        <time>2015-04-18T15:04:52Z</time>
      </trkpt>
      <trkpt lat="46.06592" lon="3.55953">
        <ele>419.78</ele>
        <time>2015-04-18T15:04:56Z</time>
      </trkpt>
      <trkpt lat="46.06615" lon="3.55963">
        <ele>415.57</ele>
        <time>2015-04-18T15:05:00Z</time>
      </trkpt>
      <trkpt lat="46.06625" lon="3.55985">
        <ele>413.93</ele>
        <time>2015-04-18T15:05:03Z</time>
      </trkpt>
      <trkpt lat="46.06632" lon="3.56015">
        <ele>412.73</ele>
        <time>2015-04-18T15:05:06Z</time>
      </trkpt>
      <trkpt lat="46.06631" lon="3.56043">
        <ele>411.7</ele>
        <time>2015-04-18T15:05:09Z</time>
      </trkpt>
      <trkpt lat="46.06617" lon="3.56062">
        <ele>409.75</ele>
        <time>2015-04-18T15:05:13Z</time>
      </trkpt>
      <trkpt lat="46.06594" lon="3.56066">
        <ele>406.94</ele>
        <time>2015-04-18T15:05:17Z</time>
      </trkpt>
      <trkpt lat="46.06579" lon="3.56081">
        <ele>402.73</ele>
        <time>2015-04-18T15:05:20Z</time>
      </trkpt>
      <trkpt lat="46.06576" lon="3.56114">
        <ele>398.06</ele>
        <time>2015-04-18T15:05:24Z</time>
      </trkpt>
      <trkpt lat="46.06568" lon="3.56139">
        <ele>395.66</ele>
        <time>2015-04-18T15:05:29Z</time>
      </trkpt>
      <trkpt lat="46.06553" lon="3.56154">
        <ele>394.12</ele>
        <time>2015-04-18T15:05:34Z</time>
      </trkpt>
      <trkpt lat="46.06538" lon="3.56169">
        <ele>392.84</ele>
        <time>2015-04-18T15:05:38Z</time>
      </trkpt>
      <trkpt lat="46.06523" lon="3.56187">
        <ele>391.12</ele>
        <time>2015-04-18T15:05:43Z</time>
      </trkpt>
      <trkpt lat="46.06507" lon="3.56206">
        <ele>388.84</ele>
        <time>2015-04-18T15:05:49Z</time>
      </trkpt>
      <trkpt lat="46.06492" lon="3.56221">
        <ele>387.12</ele>
        <time>2015-04-18T15:05:54Z</time>
      </trkpt>
      <trkpt lat="46.06475" lon="3.56236">
        <ele>384.2</ele>
        <time>2015-04-18T15:05:59Z</time>
      </trkpt>
      <trkpt lat="46.06457" lon="3.56249">
        <ele>377.04</ele>
        <time>2015-04-18T15:06:04Z</time>
      </trkpt>
      <trkpt lat="46.0644" lon="3.56264">
        <ele>376.07</ele>
        <time>2015-04-18T15:06:09Z</time>
      </trkpt>
      <trkpt lat="46.06424" lon="3.56281">
        <ele>373.88</ele>
        <time>2015-04-18T15:06:14Z</time>
      </trkpt>
      <trkpt lat="46.06408" lon="3.56296">
        <ele>372.69</ele>
        <time>2015-04-18T15:06:19Z</time>
      </trkpt>
      <trkpt lat="46.06394" lon="3.56315">
        <ele>372.56</ele>
        <time>2015-04-18T15:06:25Z</time>
      </trkpt>
      <trkpt lat="46.06379" lon="3.56335">
        <ele>372.55</ele>
        <time>2015-04-18T15:06:31Z</time>
      </trkpt>
      <trkpt lat="46.06366" lon="3.56354">
        <ele>372.55</ele>
        <time>2015-04-18T15:06:36Z</time>
      </trkpt>
      <trkpt lat="46.06351" lon="3.56371">
        <ele>372.55</ele>
        <time>2015-04-18T15:06:41Z</time>
      </trkpt>
      <trkpt lat="46.06335" lon="3.56384">
        <ele>372.55</ele>
        <time>2015-04-18T15:06:46Z</time>
      </trkpt>
      <trkpt lat="46.06317" lon="3.56397">
        <ele>372.55</ele>
        <time>2015-04-18T15:06:52Z</time>
      </trkpt>
      <trkpt lat="46.063" lon="3.56412">
        <ele>372.55</ele>
        <time>2015-04-18T15:06:58Z</time>
      </trkpt>
      <trkpt lat="46.06285" lon="3.56427">
        <ele>372.55</ele>
        <time>2015-04-18T15:07:04Z</time>
      </trkpt>
      <trkpt lat="46.06268" lon="3.56438">
        <ele>372.55</ele>
        <time>2015-04-18T15:07:09Z</time>
      </trkpt>
      <trkpt lat="46.06248" lon="3.56451">
        <ele>371.68</ele>
        <time>2015-04-18T15:07:14Z</time>
      </trkpt>
      <trkpt lat="46.06229" lon="3.56459">
        <ele>371.56</ele>
        <time>2015-04-18T15:07:19Z</time>
      </trkpt>
      <trkpt lat="46.06211" lon="3.56461">
        <ele>371.55</ele>
        <time>2015-04-18T15:07:25Z</time>
      </trkpt>
      <trkpt lat="46.06193" lon="3.56463">
        <ele>371.55</ele>
        <time>2015-04-18T15:07:31Z</time>
      </trkpt>
      <trkpt lat="46.06175" lon="3.5647">
        <ele>371.55</ele>
        <time>2015-04-18T15:07:37Z</time>
      </trkpt>
      <trkpt lat="46.06155" lon="3.56478">
        <ele>371.46</ele>
        <time>2015-04-18T15:07:43Z</time>
      </trkpt>
      <trkpt lat="46.06135" lon="3.56485">
        <ele>371.55</ele>
        <time>2015-04-18T15:07:49Z</time>
      </trkpt>
      <trkpt lat="46.06115" lon="3.56489">
        <ele>371.55</ele>
        <time>2015-04-18T15:07:55Z</time>
      </trkpt>
      <trkpt lat="46.06094" lon="3.56496">
        <ele>371.55</ele>
        <time>2015-04-18T15:08:00Z</time>
      </trkpt>
      <trkpt lat="46.06077" lon="3.56504">
        <ele>371.55</ele>
        <time>2015-04-18T15:08:04Z</time>
      </trkpt>
      <trkpt lat="46.06059" lon="3.56515">
        <ele>371.55</ele>
        <time>2015-04-18T15:08:09Z</time>
      </trkpt>
      <trkpt lat="46.06042" lon="3.56524">
        <ele>371.55</ele>
        <time>2015-04-18T15:08:14Z</time>
      </trkpt>
      <trkpt lat="46.06022" lon="3.56534">
        <ele>371.55</ele>
        <time>2015-04-18T15:08:20Z</time>
      </trkpt>
      <trkpt lat="46.06004" lon="3.56543">
        <ele>371.55</ele>
        <time>2015-04-18T15:08:25Z</time>
      </trkpt>
      <trkpt lat="46.05984" lon="3.56554">
        <ele>373.24</ele>
        <time>2015-04-18T15:08:30Z</time>
      </trkpt>
      <trkpt lat="46.05964" lon="3.56566">
        <ele>375.26</ele>
        <time>2015-04-18T15:08:35Z</time>
      </trkpt>
      <trkpt lat="46.0595" lon="3.5659">
        <ele>375.54</ele>
        <time>2015-04-18T15:08:40Z</time>
      </trkpt>
      <trkpt lat="46.0594" lon="3.56611">
        <ele>376.43</ele>
        <time>2015-04-18T15:08:43Z</time>
      </trkpt>
      <trkpt lat="46.05923" lon="3.56627">
        <ele>376.55</ele>
        <time>2015-04-18T15:08:47Z</time>
      </trkpt>
      <trkpt lat="46.05913" lon="3.56657">
        <ele>375.8</ele>
        <time>2015-04-18T15:08:51Z</time>
      </trkpt>
      <trkpt lat="46.05909" lon="3.56689">
        <ele>375.58</ele>
        <time>2015-04-18T15:08:54Z</time>
      </trkpt>
      <trkpt lat="46.05906" lon="3.56721">
        <ele>375.06</ele>
        <time>2015-04-18T15:08:57Z</time>
      </trkpt>
      <trkpt lat="46.05904" lon="3.56747">
        <ele>374.62</ele>
        <time>2015-04-18T15:09:00Z</time>
      </trkpt>
      <trkpt lat="46.05905" lon="3.56777">
        <ele>374.56</ele>
        <time>2015-04-18T15:09:04Z</time>
      </trkpt>
      <trkpt lat="46.05906" lon="3.56805">
        <ele>373.8</ele>
        <time>2015-04-18T15:09:08Z</time>
      </trkpt>
      <trkpt lat="46.05895" lon="3.56828">
        <ele>373.56</ele>
        <time>2015-04-18T15:09:14Z</time>
      </trkpt>
      <trkpt lat="46.05876" lon="3.56843">
        <ele>372.58</ele>
        <time>2015-04-18T15:09:20Z</time>
      </trkpt>
      <trkpt lat="46.05861" lon="3.5686">
        <ele>372.55</ele>
        <time>2015-04-18T15:09:25Z</time>
      </trkpt>
      <trkpt lat="46.05872" lon="3.56886">
        <ele>372.55</ele>
        <time>2015-04-18T15:09:31Z</time>
      </trkpt>
      <trkpt lat="46.05886" lon="3.56905">
        <ele>372.55</ele>
        <time>2015-04-18T15:09:36Z</time>
      </trkpt>
      <trkpt lat="46.05904" lon="3.56923">
        <ele>371.8</ele>
        <time>2015-04-18T15:09:41Z</time>
      </trkpt>
      <trkpt lat="46.05903" lon="3.56951">
        <ele>371.55</ele>
        <time>2015-04-18T15:09:48Z</time>
      </trkpt>
      <trkpt lat="46.05891" lon="3.56976">
        <ele>372.43</ele>
        <time>2015-04-18T15:09:55Z</time>
      </trkpt>
      <trkpt lat="46.0588" lon="3.57">
        <ele>372.55</ele>
        <time>2015-04-18T15:10:01Z</time>
      </trkpt>
      <trkpt lat="46.05868" lon="3.57021">
        <ele>372.55</ele>
        <time>2015-04-18T15:10:06Z</time>
      </trkpt>
      <trkpt lat="46.05854" lon="3.57043">
        <ele>372.55</ele>
        <time>2015-04-18T15:10:11Z</time>
      </trkpt>
      <trkpt lat="46.05837" lon="3.57051">
        <ele>371.68</ele>
        <time>2015-04-18T15:10:15Z</time>
      </trkpt>
      <trkpt lat="46.05813" lon="3.57049">
        <ele>372.44</ele>
        <time>2015-04-18T15:10:19Z</time>
      </trkpt>
      <trkpt lat="46.05791" lon="3.57049">
        <ele>372.55</ele>
        <time>2015-04-18T15:10:23Z</time>
      </trkpt>
      <trkpt lat="46.05769" lon="3.57047">
        <ele>372.55</ele>
        <time>2015-04-18T15:10:27Z</time>
      </trkpt>
      <trkpt lat="46.05749" lon="3.57047">
        <ele>372.05</ele>
        <time>2015-04-18T15:10:31Z</time>
      </trkpt>
      <trkpt lat="46.05731" lon="3.57051">
        <ele>371.08</ele>
        <time>2015-04-18T15:10:35Z</time>
      </trkpt>
      <trkpt lat="46.05712" lon="3.5706">
        <ele>370.59</ele>
        <time>2015-04-18T15:10:39Z</time>
      </trkpt>
      <trkpt lat="46.05695" lon="3.57069">
        <ele>370.56</ele>
        <time>2015-04-18T15:10:43Z</time>
      </trkpt>
      <trkpt lat="46.05675" lon="3.57084">
        <ele>369.58</ele>
        <time>2015-04-18T15:10:48Z</time>
      </trkpt>
      <trkpt lat="46.05657" lon="3.57094">
        <ele>370.05</ele>
        <time>2015-04-18T15:10:52Z</time>
      </trkpt>
      <trkpt lat="46.05638" lon="3.57105">
        <ele>369.65</ele>
        <time>2015-04-18T15:10:56Z</time>
      </trkpt>
      <trkpt lat="46.0562" lon="3.57118">
        <ele>369.56</ele>
        <time>2015-04-18T15:11:00Z</time>
      </trkpt>
      <trkpt lat="46.05603" lon="3.57129">
        <ele>369.55</ele>
        <time>2015-04-18T15:11:04Z</time>
      </trkpt>
      <trkpt lat="46.05582" lon="3.57137">
        <ele>369.55</ele>
        <time>2015-04-18T15:11:09Z</time>
      </trkpt>
      <trkpt lat="46.05562" lon="3.5715">
        <ele>370.05</ele>
        <time>2015-04-18T15:11:14Z</time>
      </trkpt>
      <trkpt lat="46.05547" lon="3.57165">
        <ele>370.52</ele>
        <time>2015-04-18T15:11:18Z</time>
      </trkpt>
      <trkpt lat="46.05531" lon="3.57187">
        <ele>371.43</ele>
        <time>2015-04-18T15:11:23Z</time>
      </trkpt>
      <trkpt lat="46.05513" lon="3.57206">
        <ele>371.55</ele>
        <time>2015-04-18T15:11:28Z</time>
      </trkpt>
      <trkpt lat="46.05496" lon="3.57223">
        <ele>370.68</ele>
        <time>2015-04-18T15:11:33Z</time>
      </trkpt>
      <trkpt lat="46.05481" lon="3.57238">
        <ele>369.69</ele>
        <time>2015-04-18T15:11:37Z</time>
      </trkpt>
      <trkpt lat="46.05463" lon="3.57255">
        <ele>369.06</ele>
        <time>2015-04-18T15:11:41Z</time>
      </trkpt>
      <trkpt lat="46.05445" lon="3.5727">
        <ele>369.15</ele>
        <time>2015-04-18T15:11:45Z</time>
      </trkpt>
      <trkpt lat="46.05425" lon="3.57283">
        <ele>369.53</ele>
        <time>2015-04-18T15:11:49Z</time>
      </trkpt>
      <trkpt lat="46.05403" lon="3.57292">
        <ele>368.8</ele>
        <time>2015-04-18T15:11:53Z</time>
      </trkpt>
      <trkpt lat="46.05382" lon="3.57302">
        <ele>368.57</ele>
        <time>2015-04-18T15:11:57Z</time>
      </trkpt>
      <trkpt lat="46.0536" lon="3.57309">
        <ele>368.55</ele>
        <time>2015-04-18T15:12:01Z</time>
      </trkpt>
      <trkpt lat="46.05339" lon="3.57309">
        <ele>368.55</ele>
        <time>2015-04-18T15:12:05Z</time>
      </trkpt>
      <trkpt lat="46.05317" lon="3.57307">
        <ele>369.3</ele>
        <time>2015-04-18T15:12:09Z</time>
      </trkpt>
      <trkpt lat="46.05299" lon="3.57305">
        <ele>369.54</ele>
        <time>2015-04-18T15:12:13Z</time>
      </trkpt>
      <trkpt lat="46.0528" lon="3.57302">
        <ele>370.43</ele>
        <time>2015-04-18T15:12:17Z</time>
      </trkpt>
      <trkpt lat="46.05258" lon="3.57302">
        <ele>370.55</ele>
        <time>2015-04-18T15:12:21Z</time>
      </trkpt>
      <trkpt lat="46.05237" lon="3.573">
        <ele>371.3</ele>
        <time>2015-04-18T15:12:25Z</time>
      </trkpt>
      <trkpt lat="46.05219" lon="3.57298">
        <ele>372.27</ele>
        <time>2015-04-18T15:12:28Z</time>
      </trkpt>
      <trkpt lat="46.05197" lon="3.5729">
        <ele>373.27</ele>
        <time>2015-04-18T15:12:31Z</time>
      </trkpt>
      <trkpt lat="46.05178" lon="3.57283">
        <ele>374.89</ele>
        <time>2015-04-18T15:12:34Z</time>
      </trkpt>
      <trkpt lat="46.0516" lon="3.57281">
        <ele>375.47</ele>
        <time>2015-04-18T15:12:37Z</time>
      </trkpt>
      <trkpt lat="46.05138" lon="3.57275">
        <ele>376.49</ele>
        <time>2015-04-18T15:12:41Z</time>
      </trkpt>
      <trkpt lat="46.05117" lon="3.5727">
        <ele>377.3</ele>
        <time>2015-04-18T15:12:46Z</time>
      </trkpt>
      <trkpt lat="46.05096" lon="3.57266">
        <ele>377.55</ele>
        <time>2015-04-18T15:12:52Z</time>
      </trkpt>
      <trkpt lat="46.05081" lon="3.57249">
        <ele>377.55</ele>
        <time>2015-04-18T15:12:58Z</time>
      </trkpt>
      <trkpt lat="46.05067" lon="3.57229">
        <ele>377.55</ele>
        <time>2015-04-18T15:13:05Z</time>
      </trkpt>
      <trkpt lat="46.05048" lon="3.57206">
        <ele>378.05</ele>
        <time>2015-04-18T15:13:17Z</time>
      </trkpt>
      <trkpt lat="46.05033" lon="3.57189">
        <ele>378.55</ele>
        <time>2015-04-18T15:13:27Z</time>
      </trkpt>
      <trkpt lat="46.05022" lon="3.57165">
        <ele>379.05</ele>
        <time>2015-04-18T15:13:37Z</time>
      </trkpt>
      <trkpt lat="46.05014" lon="3.57139">
        <ele>380.05</ele>
        <time>2015-04-18T15:13:47Z</time>
      </trkpt>
      <trkpt lat="46.05004" lon="3.57114">
        <ele>381.05</ele>
        <time>2015-04-18T15:13:59Z</time>
      </trkpt>
      <trkpt lat="46.04984" lon="3.57099">
        <ele>385.02</ele>
        <time>2015-04-18T15:14:21Z</time>
      </trkpt>
      <trkpt lat="46.04968" lon="3.57116">
        <ele>387.04</ele>
        <time>2015-04-18T15:14:32Z</time>
      </trkpt>
      <trkpt lat="46.0496" lon="3.57141">
        <ele>389.05</ele>
        <time>2015-04-18T15:14:46Z</time>
      </trkpt>
      <trkpt lat="46.04972" lon="3.57172">
        <ele>391.05</ele>
        <time>2015-04-18T15:14:58Z</time>
      </trkpt>
      <trkpt lat="46.04976" lon="3.57202">
        <ele>392.05</ele>
        <time>2015-04-18T15:15:10Z</time>
      </trkpt>
      <trkpt lat="46.04953" lon="3.57206">
        <ele>394.55</ele>
        <time>2015-04-18T15:15:36Z</time>
      </trkpt>
      <trkpt lat="46.04936" lon="3.57195">
        <ele>396.04</ele>
        <time>2015-04-18T15:15:47Z</time>
      </trkpt>
      <trkpt lat="46.04918" lon="3.57187">
        <ele>397.52</ele>
        <time>2015-04-18T15:15:57Z</time>
      </trkpt>
      <trkpt lat="46.049" lon="3.57182">
        <ele>399.3</ele>
        <time>2015-04-18T15:16:07Z</time>
      </trkpt>
      <trkpt lat="46.04882" lon="3.57184">
        <ele>400.54</ele>
        <time>2015-04-18T15:16:18Z</time>
      </trkpt>
      <trkpt lat="46.04863" lon="3.57191">
        <ele>403.3</ele>
        <time>2015-04-18T15:16:31Z</time>
      </trkpt>
      <trkpt lat="46.04844" lon="3.57184">
        <ele>405.42</ele>
        <time>2015-04-18T15:16:42Z</time>
      </trkpt>
      <trkpt lat="46.04831" lon="3.57165">
        <ele>408.04</ele>
        <time>2015-04-18T15:16:54Z</time>
      </trkpt>
      <trkpt lat="46.04827" lon="3.57139">
        <ele>410.52</ele>
        <time>2015-04-18T15:17:05Z</time>
      </trkpt>
      <trkpt lat="46.04825" lon="3.57114">
        <ele>413.42</ele>
        <time>2015-04-18T15:17:16Z</time>
      </trkpt>
      <trkpt lat="46.04819" lon="3.57088">
        <ele>416.29</ele>
        <time>2015-04-18T15:17:27Z</time>
      </trkpt>
      <trkpt lat="46.04812" lon="3.57062">
        <ele>418.49</ele>
        <time>2015-04-18T15:17:38Z</time>
      </trkpt>
      <trkpt lat="46.04801" lon="3.57039">
        <ele>421.04</ele>
        <time>2015-04-18T15:17:49Z</time>
      </trkpt>
      <trkpt lat="46.04783" lon="3.5703">
        <ele>424.29</ele>
        <time>2015-04-18T15:18:02Z</time>
      </trkpt>
      <trkpt lat="46.04769" lon="3.57047">
        <ele>427.02</ele>
        <time>2015-04-18T15:18:13Z</time>
      </trkpt>
      <trkpt lat="46.04757" lon="3.57069">
        <ele>430.02</ele>
        <time>2015-04-18T15:18:25Z</time>
      </trkpt>
      <trkpt lat="46.04742" lon="3.57084">
        <ele>433.29</ele>
        <time>2015-04-18T15:18:38Z</time>
      </trkpt>
      <trkpt lat="46.04724" lon="3.57084">
        <ele>436.29</ele>
        <time>2015-04-18T15:18:50Z</time>
      </trkpt>
      <trkpt lat="46.04707" lon="3.57069">
        <ele>437.54</ele>
        <time>2015-04-18T15:19:00Z</time>
      </trkpt>
      <trkpt lat="46.04696" lon="3.57047">
        <ele>439.05</ele>
        <time>2015-04-18T15:19:10Z</time>
      </trkpt>
      <trkpt lat="46.04689" lon="3.57023">
        <ele>440.49</ele>
        <time>2015-04-18T15:19:20Z</time>
      </trkpt>
      <trkpt lat="46.0468" lon="3.57">
        <ele>442.43</ele>
        <time>2015-04-18T15:19:30Z</time>
      </trkpt>
      <trkpt lat="46.04675" lon="3.56974">
        <ele>444.04</ele>
        <time>2015-04-18T15:19:39Z</time>
      </trkpt>
      <trkpt lat="46.04654" lon="3.56963">
        <ele>447.3</ele>
        <time>2015-04-18T15:19:51Z</time>
      </trkpt>
      <trkpt lat="46.04632" lon="3.56966">
        <ele>451.79</ele>
        <time>2015-04-18T15:19:55Z</time>
      </trkpt>
      <trkpt lat="46.04612" lon="3.56972">
        <ele>454.08</ele>
        <time>2015-04-18T15:19:58Z</time>
      </trkpt>
      <trkpt lat="46.04593" lon="3.56987">
        <ele>455.37</ele>
        <time>2015-04-18T15:20:01Z</time>
      </trkpt>
      <trkpt lat="46.04578" lon="3.57006">
        <ele>455.54</ele>
        <time>2015-04-18T15:20:05Z</time>
      </trkpt>
      <trkpt lat="46.0456" lon="3.57032">
        <ele>455.55</ele>
        <time>2015-04-18T15:20:16Z</time>
      </trkpt>
      <trkpt lat="46.04537" lon="3.57058">
        <ele>456.55</ele>
        <time>2015-04-18T15:20:28Z</time>
      </trkpt>
      <trkpt lat="46.04518" lon="3.57069">
        <ele>457.93</ele>
        <time>2015-04-18T15:20:34Z</time>
      </trkpt>
      <trkpt lat="46.04497" lon="3.57075">
        <ele>459.01</ele>
        <time>2015-04-18T15:20:38Z</time>
      </trkpt>
      <trkpt lat="46.04476" lon="3.57084">
        <ele>459.52</ele>
        <time>2015-04-18T15:20:42Z</time>
      </trkpt>
      <trkpt lat="46.0446" lon="3.57099">
        <ele>459.55</ele>
        <time>2015-04-18T15:20:48Z</time>
      </trkpt>
      <trkpt lat="46.04444" lon="3.57116">
        <ele>459.55</ele>
        <time>2015-04-18T15:20:54Z</time>
      </trkpt>
      <trkpt lat="46.0443" lon="3.57133">
        <ele>459.55</ele>
        <time>2015-04-18T15:21:00Z</time>
      </trkpt>
      <trkpt lat="46.04416" lon="3.57152">
        <ele>459.55</ele>
        <time>2015-04-18T15:21:06Z</time>
      </trkpt>
      <trkpt lat="46.04403" lon="3.57172">
        <ele>459.55</ele>
        <time>2015-04-18T15:21:12Z</time>
      </trkpt>
      <trkpt lat="46.04387" lon="3.57193">
        <ele>459.55</ele>
        <time>2015-04-18T15:21:19Z</time>
      </trkpt>
      <trkpt lat="46.04371" lon="3.57212">
        <ele>460.3</ele>
        <time>2015-04-18T15:21:24Z</time>
      </trkpt>
      <trkpt lat="46.04355" lon="3.57234">
        <ele>460.54</ele>
        <time>2015-04-18T15:21:28Z</time>
      </trkpt>
      <trkpt lat="46.04337" lon="3.57238">
        <ele>459.68</ele>
        <time>2015-04-18T15:21:31Z</time>
      </trkpt>
      <trkpt lat="46.04319" lon="3.57229">
        <ele>459.56</ele>
        <time>2015-04-18T15:21:35Z</time>
      </trkpt>
      <trkpt lat="46.04298" lon="3.57227">
        <ele>458.3</ele>
        <time>2015-04-18T15:21:38Z</time>
      </trkpt>
      <trkpt lat="46.0428" lon="3.57236">
        <ele>456.99</ele>
        <time>2015-04-18T15:21:40Z</time>
      </trkpt>
      <trkpt lat="46.04264" lon="3.57253">
        <ele>455.91</ele>
        <time>2015-04-18T15:21:42Z</time>
      </trkpt>
      <trkpt lat="46.04247" lon="3.57268">
        <ele>454.89</ele>
        <time>2015-04-18T15:21:44Z</time>
      </trkpt>
      <trkpt lat="46.04224" lon="3.57287">
        <ele>454.6</ele>
        <time>2015-04-18T15:21:47Z</time>
      </trkpt>
      <trkpt lat="46.04209" lon="3.57302">
        <ele>455.06</ele>
        <time>2015-04-18T15:21:50Z</time>
      </trkpt>
      <trkpt lat="46.04192" lon="3.57328">
        <ele>455.55</ele>
        <time>2015-04-18T15:22:07Z</time>
      </trkpt>
      <trkpt lat="46.04183" lon="3.57358">
        <ele>455.55</ele>
        <time>2015-04-18T15:22:24Z</time>
      </trkpt>
      <trkpt lat="46.04162" lon="3.57373">
        <ele>456.05</ele>
        <time>2015-04-18T15:22:46Z</time>
      </trkpt>
      <trkpt lat="46.04144" lon="3.57384">
        <ele>456.05</ele>
        <time>2015-04-18T15:23:01Z</time>
      </trkpt>
      <trkpt lat="46.04128" lon="3.57399">
        <ele>456.49</ele>
        <time>2015-04-18T15:23:14Z</time>
      </trkpt>
      <trkpt lat="46.04108" lon="3.57423">
        <ele>457.05</ele>
        <time>2015-04-18T15:23:33Z</time>
      </trkpt>
      <trkpt lat="46.04093" lon="3.5744">
        <ele>458.05</ele>
        <time>2015-04-18T15:23:49Z</time>
      </trkpt>
      <trkpt lat="46.04071" lon="3.57457">
        <ele>461.55</ele>
        <time>2015-04-18T15:24:12Z</time>
      </trkpt>
      <trkpt lat="46.04053" lon="3.57468">
        <ele>464.05</ele>
        <time>2015-04-18T15:24:28Z</time>
      </trkpt>
      <trkpt lat="46.04034" lon="3.57476">
        <ele>467.05</ele>
        <time>2015-04-18T15:24:44Z</time>
      </trkpt>
      <trkpt lat="46.04017" lon="3.57485">
        <ele>470.49</ele>
        <time>2015-04-18T15:25:01Z</time>
      </trkpt>
      <trkpt lat="46.04001" lon="3.57498">
        <ele>472.55</ele>
        <time>2015-04-18T15:25:19Z</time>
      </trkpt>
      <trkpt lat="46.03983" lon="3.57506">
        <ele>475.43</ele>
        <time>2015-04-18T15:25:35Z</time>
      </trkpt>
      <trkpt lat="46.03965" lon="3.57515">
        <ele>477.55</ele>
        <time>2015-04-18T15:25:58Z</time>
      </trkpt>
      <trkpt lat="46.03946" lon="3.57519">
        <ele>480.04</ele>
        <time>2015-04-18T15:26:14Z</time>
      </trkpt>
      <trkpt lat="46.03928" lon="3.57513">
        <ele>483.49</ele>
        <time>2015-04-18T15:26:32Z</time>
      </trkpt>
      <trkpt lat="46.03911" lon="3.57504">
        <ele>485.55</ele>
        <time>2015-04-18T15:26:54Z</time>
      </trkpt>
      <trkpt lat="46.03899" lon="3.57483">
        <ele>487.55</ele>
        <time>2015-04-18T15:27:17Z</time>
      </trkpt>
      <trkpt lat="46.03881" lon="3.57481">
        <ele>495.41</ele>
        <time>2015-04-18T15:28:19Z</time>
      </trkpt>
      <trkpt lat="46.03863" lon="3.57485">
        <ele>500.02</ele>
        <time>2015-04-18T15:28:34Z</time>
      </trkpt>
      <trkpt lat="46.03845" lon="3.57496">
        <ele>504.42</ele>
        <time>2015-04-18T15:28:57Z</time>
      </trkpt>
      <trkpt lat="46.03826" lon="3.57504">
        <ele>506.52</ele>
        <time>2015-04-18T15:29:11Z</time>
      </trkpt>
      <trkpt lat="46.03808" lon="3.57508">
        <ele>509.3</ele>
        <time>2015-04-18T15:29:28Z</time>
      </trkpt>
      <trkpt lat="46.03791" lon="3.57517">
        <ele>510.49</ele>
        <time>2015-04-18T15:29:52Z</time>
      </trkpt>
      <trkpt lat="46.03773" lon="3.57523">
        <ele>514.42</ele>
        <time>2015-04-18T15:30:09Z</time>
      </trkpt>
      <trkpt lat="46.03754" lon="3.57528">
        <ele>517.42</ele>
        <time>2015-04-18T15:30:22Z</time>
      </trkpt>
      <trkpt lat="46.03737" lon="3.57538">
        <ele>520.49</ele>
        <time>2015-04-18T15:30:37Z</time>
      </trkpt>
      <trkpt lat="46.03722" lon="3.57553">
        <ele>523.49</ele>
        <time>2015-04-18T15:30:50Z</time>
      </trkpt>
      <trkpt lat="46.03704" lon="3.57562">
        <ele>526.29</ele>
        <time>2015-04-18T15:31:02Z</time>
      </trkpt>
      <trkpt lat="46.03686" lon="3.57569">
        <ele>528.05</ele>
        <time>2015-04-18T15:31:13Z</time>
      </trkpt>
      <trkpt lat="46.03666" lon="3.57575">
        <ele>530.04</ele>
        <time>2015-04-18T15:31:24Z</time>
      </trkpt>
      <trkpt lat="46.03648" lon="3.57577">
        <ele>531.43</ele>
        <time>2015-04-18T15:31:33Z</time>
      </trkpt>
      <trkpt lat="46.0363" lon="3.57579">
        <ele>532.43</ele>
        <time>2015-04-18T15:31:43Z</time>
      </trkpt>
      <trkpt lat="46.03612" lon="3.57581">
        <ele>533.43</ele>
        <time>2015-04-18T15:31:54Z</time>
      </trkpt>
      <trkpt lat="46.03594" lon="3.5759">
        <ele>535.04</ele>
        <time>2015-04-18T15:32:03Z</time>
      </trkpt>
      <trkpt lat="46.03576" lon="3.57594">
        <ele>536.52</ele>
        <time>2015-04-18T15:32:14Z</time>
      </trkpt>
      <trkpt lat="46.03558" lon="3.57599">
        <ele>538.52</ele>
        <time>2015-04-18T15:32:26Z</time>
      </trkpt>
      <trkpt lat="46.0354" lon="3.57596">
        <ele>540.3</ele>
        <time>2015-04-18T15:32:36Z</time>
      </trkpt>
      <trkpt lat="46.0352" lon="3.57596">
        <ele>542.05</ele>
        <time>2015-04-18T15:32:47Z</time>
      </trkpt>
      <trkpt lat="46.03501" lon="3.57596">
        <ele>544.29</ele>
        <time>2015-04-18T15:32:58Z</time>
      </trkpt>
      <trkpt lat="46.03482" lon="3.57594">
        <ele>546.49</ele>
        <time>2015-04-18T15:33:09Z</time>
      </trkpt>
      <trkpt lat="46.03464" lon="3.57594">
        <ele>548.43</ele>
        <time>2015-04-18T15:33:20Z</time>
      </trkpt>
      <trkpt lat="46.03445" lon="3.57594">
        <ele>549.55</ele>
        <time>2015-04-18T15:33:31Z</time>
      </trkpt>
      <trkpt lat="46.03427" lon="3.57594">
        <ele>551.52</ele>
        <time>2015-04-18T15:33:42Z</time>
      </trkpt>
      <trkpt lat="46.03409" lon="3.57594">
        <ele>554.04</ele>
        <time>2015-04-18T15:33:55Z</time>
      </trkpt>
      <trkpt lat="46.03391" lon="3.5759">
        <ele>556.52</ele>
        <time>2015-04-18T15:34:08Z</time>
      </trkpt>
      <trkpt lat="46.03371" lon="3.57592">
        <ele>558.52</ele>
        <time>2015-04-18T15:34:19Z</time>
      </trkpt>
      <trkpt lat="46.03352" lon="3.57592">
        <ele>560.3</ele>
        <time>2015-04-18T15:34:27Z</time>
      </trkpt>
      <trkpt lat="46.03332" lon="3.57592">
        <ele>561.3</ele>
        <time>2015-04-18T15:34:34Z</time>
      </trkpt>
      <trkpt lat="46.03313" lon="3.57592">
        <ele>561.55</ele>
        <time>2015-04-18T15:34:39Z</time>
      </trkpt>
      <trkpt lat="46.03293" lon="3.57588">
        <ele>562.43</ele>
        <time>2015-04-18T15:34:45Z</time>
      </trkpt>
      <trkpt lat="46.03274" lon="3.57584">
        <ele>562.55</ele>
        <time>2015-04-18T15:34:51Z</time>
      </trkpt>
      <trkpt lat="46.03255" lon="3.57577">
        <ele>562.55</ele>
        <time>2015-04-18T15:34:57Z</time>
      </trkpt>
      <trkpt lat="46.03236" lon="3.57575">
        <ele>563.43</ele>
        <time>2015-04-18T15:35:04Z</time>
      </trkpt>
      <trkpt lat="46.03217" lon="3.57575">
        <ele>563.55</ele>
        <time>2015-04-18T15:35:12Z</time>
      </trkpt>
      <trkpt lat="46.03197" lon="3.57575">
        <ele>564.43</ele>
        <time>2015-04-18T15:44:29Z</time>
      </trkpt>
      <trkpt lat="46.03179" lon="3.57577">
        <ele>564.55</ele>
        <time>2015-04-18T15:44:37Z</time>
      </trkpt>
      <trkpt lat="46.03159" lon="3.57577">
        <ele>565.43</ele>
        <time>2015-04-18T15:44:45Z</time>
      </trkpt>
      <trkpt lat="46.03141" lon="3.57577">
        <ele>565.55</ele>
        <time>2015-04-18T15:44:52Z</time>
      </trkpt>
      <trkpt lat="46.03121" lon="3.57575">
        <ele>566.43</ele>
        <time>2015-04-18T15:44:58Z</time>
      </trkpt>
      <trkpt lat="46.03102" lon="3.57571">
        <ele>567.05</ele>
        <time>2015-04-18T15:45:05Z</time>
      </trkpt>
      <trkpt lat="46.03083" lon="3.57569">
        <ele>567.55</ele>
        <time>2015-04-18T15:45:12Z</time>
      </trkpt>
      <trkpt lat="46.03064" lon="3.57566">
        <ele>568.49</ele>
        <time>2015-04-18T15:45:18Z</time>
      </trkpt>
      <trkpt lat="46.03044" lon="3.57564">
        <ele>569.3</ele>
        <time>2015-04-18T15:45:25Z</time>
      </trkpt>
      <trkpt lat="46.03026" lon="3.57566">
        <ele>570.3</ele>
        <time>2015-04-18T15:45:32Z</time>
      </trkpt>
      <trkpt lat="46.03013" lon="3.57586">
        <ele>571.3</ele>
        <time>2015-04-18T15:45:39Z</time>
      </trkpt>
      <trkpt lat="46.03004" lon="3.57609">
        <ele>572.42</ele>
        <time>2015-04-18T15:45:45Z</time>
      </trkpt>
      <trkpt lat="46.02993" lon="3.57635">
        <ele>573.43</ele>
        <time>2015-04-18T15:45:51Z</time>
      </trkpt>
      <trkpt lat="46.02979" lon="3.57654">
        <ele>574.49</ele>
        <time>2015-04-18T15:45:58Z</time>
      </trkpt>
      <trkpt lat="46.0296" lon="3.57652">
        <ele>575.3</ele>
        <time>2015-04-18T15:46:03Z</time>
      </trkpt>
      <trkpt lat="46.02941" lon="3.57641">
        <ele>575.55</ele>
        <time>2015-04-18T15:46:09Z</time>
      </trkpt>
      <trkpt lat="46.02921" lon="3.57639">
        <ele>576.54</ele>
        <time>2015-04-18T15:46:15Z</time>
      </trkpt>
      <trkpt lat="46.02899" lon="3.57641">
        <ele>577.49</ele>
        <time>2015-04-18T15:46:21Z</time>
      </trkpt>
      <trkpt lat="46.02878" lon="3.57646">
        <ele>578.05</ele>
        <time>2015-04-18T15:46:27Z</time>
      </trkpt>
      <trkpt lat="46.02857" lon="3.57648">
        <ele>578.55</ele>
        <time>2015-04-18T15:46:33Z</time>
      </trkpt>
      <trkpt lat="46.02837" lon="3.57652">
        <ele>579.43</ele>
        <time>2015-04-18T15:46:39Z</time>
      </trkpt>
      <trkpt lat="46.02817" lon="3.57656">
        <ele>579.55</ele>
        <time>2015-04-18T15:46:45Z</time>
      </trkpt>
      <trkpt lat="46.02798" lon="3.5765">
        <ele>579.55</ele>
        <time>2015-04-18T15:46:50Z</time>
      </trkpt>
      <trkpt lat="46.02785" lon="3.57626">
        <ele>580.52</ele>
        <time>2015-04-18T15:46:55Z</time>
      </trkpt>
      <trkpt lat="46.02781" lon="3.57599">
        <ele>583.11</ele>
        <time>2015-04-18T15:46:59Z</time>
      </trkpt>
      <trkpt lat="46.02782" lon="3.57569">
        <ele>584.96</ele>
        <time>2015-04-18T15:47:03Z</time>
      </trkpt>
      <trkpt lat="46.02785" lon="3.57543">
        <ele>585.52</ele>
        <time>2015-04-18T15:47:07Z</time>
      </trkpt>
      <trkpt lat="46.0279" lon="3.57517">
        <ele>586.43</ele>
        <time>2015-04-18T15:47:11Z</time>
      </trkpt>
      <trkpt lat="46.02793" lon="3.57491">
        <ele>586.55</ele>
        <time>2015-04-18T15:47:15Z</time>
      </trkpt>
      <trkpt lat="46.02794" lon="3.57459">
        <ele>586.55</ele>
        <time>2015-04-18T15:47:20Z</time>
      </trkpt>
      <trkpt lat="46.02794" lon="3.57429">
        <ele>585.8</ele>
        <time>2015-04-18T15:47:25Z</time>
      </trkpt>
      <trkpt lat="46.02797" lon="3.57397">
        <ele>585.55</ele>
        <time>2015-04-18T15:47:33Z</time>
      </trkpt>
      <trkpt lat="46.02807" lon="3.57371">
        <ele>585.55</ele>
        <time>2015-04-18T15:47:41Z</time>
      </trkpt>
      <trkpt lat="46.02821" lon="3.5735">
        <ele>584.8</ele>
        <time>2015-04-18T15:47:46Z</time>
      </trkpt>
      <trkpt lat="46.02838" lon="3.57328">
        <ele>583.62</ele>
        <time>2015-04-18T15:47:51Z</time>
      </trkpt>
      <trkpt lat="46.02852" lon="3.57309">
        <ele>583.06</ele>
        <time>2015-04-18T15:47:55Z</time>
      </trkpt>
      <trkpt lat="46.02867" lon="3.5729">
        <ele>582.57</ele>
        <time>2015-04-18T15:48:00Z</time>
      </trkpt>
      <trkpt lat="46.02881" lon="3.57268">
        <ele>582.55</ele>
        <time>2015-04-18T15:48:05Z</time>
      </trkpt>
      <trkpt lat="46.02893" lon="3.57247">
        <ele>582.55</ele>
        <time>2015-04-18T15:48:10Z</time>
      </trkpt>
      <trkpt lat="46.02906" lon="3.57223">
        <ele>582.55</ele>
        <time>2015-04-18T15:48:15Z</time>
      </trkpt>
      <trkpt lat="46.0292" lon="3.57202">
        <ele>582.55</ele>
        <time>2015-04-18T15:48:20Z</time>
      </trkpt>
      <trkpt lat="46.02935" lon="3.57178">
        <ele>582.55</ele>
        <time>2015-04-18T15:48:25Z</time>
      </trkpt>
      <trkpt lat="46.02945" lon="3.57157">
        <ele>583.05</ele>
        <time>2015-04-18T15:48:28Z</time>
      </trkpt>
      <trkpt lat="46.02956" lon="3.57135">
        <ele>583.49</ele>
        <time>2015-04-18T15:48:31Z</time>
      </trkpt>
      <trkpt lat="46.02971" lon="3.57107">
        <ele>583.55</ele>
        <time>2015-04-18T15:48:34Z</time>
      </trkpt>
      <trkpt lat="46.02989" lon="3.57081">
        <ele>583.55</ele>
        <time>2015-04-18T15:48:37Z</time>
      </trkpt>
      <trkpt lat="46.03004" lon="3.57066">
        <ele>583.05</ele>
        <time>2015-04-18T15:48:39Z</time>
      </trkpt>
      <trkpt lat="46.03019" lon="3.57051">
        <ele>582.68</ele>
        <time>2015-04-18T15:48:41Z</time>
      </trkpt>
      <trkpt lat="46.03042" lon="3.5703">
        <ele>582.57</ele>
        <time>2015-04-18T15:48:44Z</time>
      </trkpt>
      <trkpt lat="46.03064" lon="3.57011">
        <ele>582.05</ele>
        <time>2015-04-18T15:48:47Z</time>
      </trkpt>
      <trkpt lat="46.03085" lon="3.56989">
        <ele>581.62</ele>
        <time>2015-04-18T15:48:50Z</time>
      </trkpt>
      <trkpt lat="46.031" lon="3.5697">
        <ele>581.56</ele>
        <time>2015-04-18T15:48:53Z</time>
      </trkpt>
      <trkpt lat="46.03114" lon="3.56944">
        <ele>582.49</ele>
        <time>2015-04-18T15:48:57Z</time>
      </trkpt>
      <trkpt lat="46.03126" lon="3.56916">
        <ele>582.55</ele>
        <time>2015-04-18T15:49:01Z</time>
      </trkpt>
      <trkpt lat="46.03136" lon="3.5689">
        <ele>582.55</ele>
        <time>2015-04-18T15:49:05Z</time>
      </trkpt>
      <trkpt lat="46.03146" lon="3.56863">
        <ele>581.62</ele>
        <time>2015-04-18T15:49:09Z</time>
      </trkpt>
      <trkpt lat="46.03155" lon="3.56835">
        <ele>581.56</ele>
        <time>2015-04-18T15:49:13Z</time>
      </trkpt>
      <trkpt lat="46.03162" lon="3.56805">
        <ele>580.68</ele>
        <time>2015-04-18T15:49:17Z</time>
      </trkpt>
      <trkpt lat="46.03167" lon="3.56777">
        <ele>580.56</ele>
        <time>2015-04-18T15:49:21Z</time>
      </trkpt>
      <trkpt lat="46.03171" lon="3.56747">
        <ele>580.55</ele>
        <time>2015-04-18T15:49:25Z</time>
      </trkpt>
      <trkpt lat="46.03175" lon="3.56717">
        <ele>580.55</ele>
        <time>2015-04-18T15:49:29Z</time>
      </trkpt>
      <trkpt lat="46.0318" lon="3.56689">
        <ele>579.8</ele>
        <time>2015-04-18T15:49:33Z</time>
      </trkpt>
      <trkpt lat="46.03188" lon="3.56663">
        <ele>579.57</ele>
        <time>2015-04-18T15:49:37Z</time>
      </trkpt>
      <trkpt lat="46.03199" lon="3.56639">
        <ele>578.68</ele>
        <time>2015-04-18T15:49:41Z</time>
      </trkpt>
      <trkpt lat="46.03211" lon="3.56618">
        <ele>578.56</ele>
        <time>2015-04-18T15:49:45Z</time>
      </trkpt>
      <trkpt lat="46.03222" lon="3.56592">
        <ele>577.8</ele>
        <time>2015-04-18T15:49:49Z</time>
      </trkpt>
      <trkpt lat="46.03232" lon="3.56569">
        <ele>578.32</ele>
        <time>2015-04-18T15:49:53Z</time>
      </trkpt>
      <trkpt lat="46.03239" lon="3.56541">
        <ele>578.54</ele>
        <time>2015-04-18T15:49:57Z</time>
      </trkpt>
      <trkpt lat="46.03249" lon="3.56513">
        <ele>578.55</ele>
        <time>2015-04-18T15:50:01Z</time>
      </trkpt>
      <trkpt lat="46.03262" lon="3.56489">
        <ele>579.3</ele>
        <time>2015-04-18T15:50:05Z</time>
      </trkpt>
      <trkpt lat="46.0327" lon="3.56463">
        <ele>579.54</ele>
        <time>2015-04-18T15:50:09Z</time>
      </trkpt>
      <trkpt lat="46.03273" lon="3.56436">
        <ele>580.52</ele>
        <time>2015-04-18T15:50:14Z</time>
      </trkpt>
      <trkpt lat="46.03271" lon="3.56408">
        <ele>580.55</ele>
        <time>2015-04-18T15:50:18Z</time>
      </trkpt>
      <trkpt lat="46.03273" lon="3.56378">
        <ele>580.55</ele>
        <time>2015-04-18T15:50:22Z</time>
      </trkpt>
      <trkpt lat="46.03282" lon="3.5635">
        <ele>581.49</ele>
        <time>2015-04-18T15:50:26Z</time>
      </trkpt>
      <trkpt lat="46.03294" lon="3.56326">
        <ele>581.55</ele>
        <time>2015-04-18T15:50:30Z</time>
      </trkpt>
      <trkpt lat="46.03308" lon="3.56303">
        <ele>581.55</ele>
        <time>2015-04-18T15:50:36Z</time>
      </trkpt>
      <trkpt lat="46.0332" lon="3.56281">
        <ele>581.55</ele>
        <time>2015-04-18T15:50:42Z</time>
      </trkpt>
      <trkpt lat="46.03332" lon="3.56257">
        <ele>582.05</ele>
        <time>2015-04-18T15:50:48Z</time>
      </trkpt>
      <trkpt lat="46.03343" lon="3.56234">
        <ele>582.55</ele>
        <time>2015-04-18T15:50:54Z</time>
      </trkpt>
      <trkpt lat="46.03355" lon="3.56212">
        <ele>583.3</ele>
        <time>2015-04-18T15:50:59Z</time>
      </trkpt>
      <trkpt lat="46.03371" lon="3.56189">
        <ele>584.42</ele>
        <time>2015-04-18T15:51:04Z</time>
      </trkpt>
      <trkpt lat="46.03384" lon="3.56169">
        <ele>584.04</ele>
        <time>2015-04-18T15:51:08Z</time>
      </trkpt>
      <trkpt lat="46.034" lon="3.56148">
        <ele>583.57</ele>
        <time>2015-04-18T15:51:13Z</time>
      </trkpt>
      <trkpt lat="46.03416" lon="3.56127">
        <ele>584.54</ele>
        <time>2015-04-18T15:51:19Z</time>
      </trkpt>
      <trkpt lat="46.03432" lon="3.56112">
        <ele>585.49</ele>
        <time>2015-04-18T15:51:24Z</time>
      </trkpt>
      <trkpt lat="46.0345" lon="3.56099">
        <ele>586.49</ele>
        <time>2015-04-18T15:51:28Z</time>
      </trkpt>
      <trkpt lat="46.0347" lon="3.5609">
        <ele>586.55</ele>
        <time>2015-04-18T15:51:32Z</time>
      </trkpt>
      <trkpt lat="46.0349" lon="3.56079">
        <ele>586.99</ele>
        <time>2015-04-18T15:51:36Z</time>
      </trkpt>
      <trkpt lat="46.0351" lon="3.56069">
        <ele>586.58</ele>
        <time>2015-04-18T15:51:40Z</time>
      </trkpt>
      <trkpt lat="46.03529" lon="3.56051">
        <ele>586.55</ele>
        <time>2015-04-18T15:51:44Z</time>
      </trkpt>
      <trkpt lat="46.03547" lon="3.56034">
        <ele>586.55</ele>
        <time>2015-04-18T15:51:48Z</time>
      </trkpt>
      <trkpt lat="46.03564" lon="3.56015">
        <ele>586.55</ele>
        <time>2015-04-18T15:51:52Z</time>
      </trkpt>
      <trkpt lat="46.03577" lon="3.55991">
        <ele>586.55</ele>
        <time>2015-04-18T15:51:56Z</time>
      </trkpt>
      <trkpt lat="46.03585" lon="3.55968">
        <ele>586.55</ele>
        <time>2015-04-18T15:51:59Z</time>
      </trkpt>
      <trkpt lat="46.03593" lon="3.55942">
        <ele>586.55</ele>
        <time>2015-04-18T15:52:03Z</time>
      </trkpt>
      <trkpt lat="46.03602" lon="3.55918">
        <ele>585.8</ele>
        <time>2015-04-18T15:52:07Z</time>
      </trkpt>
      <trkpt lat="46.03612" lon="3.55895">
        <ele>585.57</ele>
        <time>2015-04-18T15:52:11Z</time>
      </trkpt>
      <trkpt lat="46.03621" lon="3.55871">
        <ele>585.55</ele>
        <time>2015-04-18T15:52:15Z</time>
      </trkpt>
      <trkpt lat="46.03634" lon="3.55843">
        <ele>585.55</ele>
        <time>2015-04-18T15:52:19Z</time>
      </trkpt>
      <trkpt lat="46.0365" lon="3.55818">
        <ele>585.55</ele>
        <time>2015-04-18T15:52:23Z</time>
      </trkpt>
      <trkpt lat="46.03668" lon="3.55798">
        <ele>585.55</ele>
        <time>2015-04-18T15:52:27Z</time>
      </trkpt>
      <trkpt lat="46.03683" lon="3.55783">
        <ele>585.55</ele>
        <time>2015-04-18T15:52:30Z</time>
      </trkpt>
      <trkpt lat="46.03702" lon="3.55762">
        <ele>585.55</ele>
        <time>2015-04-18T15:52:34Z</time>
      </trkpt>
      <trkpt lat="46.0372" lon="3.55738">
        <ele>585.55</ele>
        <time>2015-04-18T15:52:38Z</time>
      </trkpt>
      <trkpt lat="46.03734" lon="3.55719">
        <ele>585.55</ele>
        <time>2015-04-18T15:52:41Z</time>
      </trkpt>
      <trkpt lat="46.03748" lon="3.557">
        <ele>585.55</ele>
        <time>2015-04-18T15:52:44Z</time>
      </trkpt>
      <trkpt lat="46.03764" lon="3.55676">
        <ele>585.55</ele>
        <time>2015-04-18T15:52:48Z</time>
      </trkpt>
      <trkpt lat="46.03777" lon="3.55657">
        <ele>584.62</ele>
        <time>2015-04-18T15:52:52Z</time>
      </trkpt>
      <trkpt lat="46.03792" lon="3.55637">
        <ele>584.56</ele>
        <time>2015-04-18T15:52:56Z</time>
      </trkpt>
      <trkpt lat="46.03807" lon="3.55618">
        <ele>584.55</ele>
        <time>2015-04-18T15:53:00Z</time>
      </trkpt>
      <trkpt lat="46.03822" lon="3.55597">
        <ele>584.55</ele>
        <time>2015-04-18T15:53:04Z</time>
      </trkpt>
      <trkpt lat="46.03833" lon="3.55573">
        <ele>584.55</ele>
        <time>2015-04-18T15:53:08Z</time>
      </trkpt>
      <trkpt lat="46.03841" lon="3.55549">
        <ele>584.55</ele>
        <time>2015-04-18T15:53:12Z</time>
      </trkpt>
      <trkpt lat="46.03849" lon="3.55524">
        <ele>584.55</ele>
        <time>2015-04-18T15:53:16Z</time>
      </trkpt>
      <trkpt lat="46.03856" lon="3.555">
        <ele>583.8</ele>
        <time>2015-04-18T15:53:20Z</time>
      </trkpt>
      <trkpt lat="46.03865" lon="3.5547">
        <ele>583.56</ele>
        <time>2015-04-18T15:53:25Z</time>
      </trkpt>
      <trkpt lat="46.0387" lon="3.55444">
        <ele>583.55</ele>
        <time>2015-04-18T15:53:30Z</time>
      </trkpt>
      <trkpt lat="46.03872" lon="3.55414">
        <ele>583.55</ele>
        <time>2015-04-18T15:53:36Z</time>
      </trkpt>
      <trkpt lat="46.03873" lon="3.55384">
        <ele>583.55</ele>
        <time>2015-04-18T15:53:42Z</time>
      </trkpt>
      <trkpt lat="46.03876" lon="3.55356">
        <ele>583.55</ele>
        <time>2015-04-18T15:53:49Z</time>
      </trkpt>
      <trkpt lat="46.03874" lon="3.55326">
        <ele>584.3</ele>
        <time>2015-04-18T15:53:58Z</time>
      </trkpt>
      <trkpt lat="46.03876" lon="3.55298">
        <ele>584.55</ele>
        <time>2015-04-18T15:54:06Z</time>
      </trkpt>
      <trkpt lat="46.0388" lon="3.5527">
        <ele>585.43</ele>
        <time>2015-04-18T15:54:12Z</time>
      </trkpt>
      <trkpt lat="46.03884" lon="3.5524">
        <ele>585.55</ele>
        <time>2015-04-18T15:54:18Z</time>
      </trkpt>
      <trkpt lat="46.03891" lon="3.5521">
        <ele>585.55</ele>
        <time>2015-04-18T15:54:23Z</time>
      </trkpt>
      <trkpt lat="46.039" lon="3.55187">
        <ele>585.55</ele>
        <time>2015-04-18T15:54:28Z</time>
      </trkpt>
      <trkpt lat="46.03909" lon="3.55163">
        <ele>585.55</ele>
        <time>2015-04-18T15:54:33Z</time>
      </trkpt>
      <trkpt lat="46.03924" lon="3.55142">
        <ele>586.3</ele>
        <time>2015-04-18T15:54:38Z</time>
      </trkpt>
      <trkpt lat="46.03943" lon="3.55129">
        <ele>589.7</ele>
        <time>2015-04-18T15:54:43Z</time>
      </trkpt>
      <trkpt lat="46.03962" lon="3.55122">
        <ele>592.43</ele>
        <time>2015-04-18T15:54:48Z</time>
      </trkpt>
      <trkpt lat="46.03982" lon="3.55118">
        <ele>592.55</ele>
        <time>2015-04-18T15:54:54Z</time>
      </trkpt>
      <trkpt lat="46.0396" lon="3.55116">
        <ele>594.55</ele>
        <time>2015-04-18T15:55:08Z</time>
      </trkpt>
      <trkpt lat="46.03941" lon="3.55118">
        <ele>596.47</ele>
        <time>2015-04-18T15:55:14Z</time>
      </trkpt>
      <trkpt lat="46.03953" lon="3.55097">
        <ele>596.55</ele>
        <time>2015-04-18T15:55:22Z</time>
      </trkpt>
      <trkpt lat="46.0397" lon="3.55082">
        <ele>598.68</ele>
        <time>2015-04-18T15:55:26Z</time>
      </trkpt>
      <trkpt lat="46.0399" lon="3.55064">
        <ele>600.37</ele>
        <time>2015-04-18T15:55:30Z</time>
      </trkpt>
      <trkpt lat="46.04007" lon="3.55052">
        <ele>600.53</ele>
        <time>2015-04-18T15:55:33Z</time>
      </trkpt>
      <trkpt lat="46.04027" lon="3.55037">
        <ele>601.05</ele>
        <time>2015-04-18T15:55:37Z</time>
      </trkpt>
      <trkpt lat="46.04044" lon="3.55019">
        <ele>601.52</ele>
        <time>2015-04-18T15:55:41Z</time>
      </trkpt>
      <trkpt lat="46.0406" lon="3.55004">
        <ele>599.86</ele>
        <time>2015-04-18T15:55:45Z</time>
      </trkpt>
      <trkpt lat="46.04077" lon="3.54987">
        <ele>598.7</ele>
        <time>2015-04-18T15:55:49Z</time>
      </trkpt>
      <trkpt lat="46.04095" lon="3.5497">
        <ele>598.37</ele>
        <time>2015-04-18T15:55:53Z</time>
      </trkpt>
      <trkpt lat="46.04118" lon="3.54957">
        <ele>600.23</ele>
        <time>2015-04-18T15:55:57Z</time>
      </trkpt>
      <trkpt lat="46.04137" lon="3.54944">
        <ele>601.28</ele>
        <time>2015-04-18T15:56:01Z</time>
      </trkpt>
      <trkpt lat="46.04157" lon="3.54934">
        <ele>601.54</ele>
        <time>2015-04-18T15:56:06Z</time>
      </trkpt>
      <trkpt lat="46.04174" lon="3.54921">
        <ele>601.55</ele>
        <time>2015-04-18T15:56:12Z</time>
      </trkpt>
      <trkpt lat="46.04192" lon="3.54906">
        <ele>600.8</ele>
        <time>2015-04-18T15:56:17Z</time>
      </trkpt>
      <trkpt lat="46.0421" lon="3.54891">
        <ele>600.58</ele>
        <time>2015-04-18T15:56:20Z</time>
      </trkpt>
      <trkpt lat="46.04232" lon="3.54878">
        <ele>600.56</ele>
        <time>2015-04-18T15:56:23Z</time>
      </trkpt>
      <trkpt lat="46.04253" lon="3.54863">
        <ele>601.05</ele>
        <time>2015-04-18T15:56:26Z</time>
      </trkpt>
      <trkpt lat="46.04277" lon="3.5485">
        <ele>602.24</ele>
        <time>2015-04-18T15:56:29Z</time>
      </trkpt>
      <trkpt lat="46.04298" lon="3.54839">
        <ele>603.01</ele>
        <time>2015-04-18T15:56:32Z</time>
      </trkpt>
      <trkpt lat="46.04318" lon="3.54826">
        <ele>603.99</ele>
        <time>2015-04-18T15:56:35Z</time>
      </trkpt>
      <trkpt lat="46.04336" lon="3.54818">
        <ele>604.48</ele>
        <time>2015-04-18T15:56:38Z</time>
      </trkpt>
      <trkpt lat="46.04355" lon="3.54807">
        <ele>605.42</ele>
        <time>2015-04-18T15:56:41Z</time>
      </trkpt>
      <trkpt lat="46.04377" lon="3.54794">
        <ele>606.41</ele>
        <time>2015-04-18T15:56:44Z</time>
      </trkpt>
      <trkpt lat="46.04395" lon="3.54779">
        <ele>605.79</ele>
        <time>2015-04-18T15:56:48Z</time>
      </trkpt>
      <trkpt lat="46.04415" lon="3.54764">
        <ele>603.34</ele>
        <time>2015-04-18T15:56:53Z</time>
      </trkpt>
      <trkpt lat="46.04437" lon="3.54753">
        <ele>601.73</ele>
        <time>2015-04-18T15:56:57Z</time>
      </trkpt>
      <trkpt lat="46.04458" lon="3.54745">
        <ele>600.19</ele>
        <time>2015-04-18T15:57:01Z</time>
      </trkpt>
      <trkpt lat="46.04475" lon="3.54734">
        <ele>598.38</ele>
        <time>2015-04-18T15:57:04Z</time>
      </trkpt>
      <trkpt lat="46.04492" lon="3.54721">
        <ele>596.73</ele>
        <time>2015-04-18T15:57:08Z</time>
      </trkpt>
      <trkpt lat="46.04505" lon="3.54702">
        <ele>595.56</ele>
        <time>2015-04-18T15:57:20Z</time>
      </trkpt>
      <trkpt lat="46.04519" lon="3.54678">
        <ele>595.55</ele>
        <time>2015-04-18T15:57:44Z</time>
      </trkpt>
      <trkpt lat="46.04536" lon="3.54667">
        <ele>595.55</ele>
        <time>2015-04-18T15:57:54Z</time>
      </trkpt>
      <trkpt lat="46.0456" lon="3.54655">
        <ele>595.05</ele>
        <time>2015-04-18T15:58:12Z</time>
      </trkpt>
      <trkpt lat="46.04575" lon="3.54635">
        <ele>595.55</ele>
        <time>2015-04-18T15:58:24Z</time>
      </trkpt>
      <trkpt lat="46.04594" lon="3.54633">
        <ele>594.06</ele>
        <time>2015-04-18T15:58:36Z</time>
      </trkpt>
      <trkpt lat="46.04616" lon="3.54629">
        <ele>593.05</ele>
        <time>2015-04-18T15:58:45Z</time>
      </trkpt>
      <trkpt lat="46.04633" lon="3.5462">
        <ele>591.62</ele>
        <time>2015-04-18T15:58:51Z</time>
      </trkpt>
      <trkpt lat="46.0465" lon="3.54609">
        <ele>590.68</ele>
        <time>2015-04-18T15:58:56Z</time>
      </trkpt>
      <trkpt lat="46.04668" lon="3.54599">
        <ele>590.06</ele>
        <time>2015-04-18T15:59:01Z</time>
      </trkpt>
      <trkpt lat="46.04686" lon="3.54586">
        <ele>589.57</ele>
        <time>2015-04-18T15:59:06Z</time>
      </trkpt>
      <trkpt lat="46.04704" lon="3.54573">
        <ele>588.57</ele>
        <time>2015-04-18T15:59:12Z</time>
      </trkpt>
      <trkpt lat="46.04722" lon="3.54558">
        <ele>587.07</ele>
        <time>2015-04-18T15:59:18Z</time>
      </trkpt>
      <trkpt lat="46.04739" lon="3.54547">
        <ele>586.06</ele>
        <time>2015-04-18T15:59:24Z</time>
      </trkpt>
      <trkpt lat="46.04757" lon="3.54539">
        <ele>585.06</ele>
        <time>2015-04-18T15:59:30Z</time>
      </trkpt>
      <trkpt lat="46.04778" lon="3.54532">
        <ele>584.06</ele>
        <time>2015-04-18T15:59:37Z</time>
      </trkpt>
      <trkpt lat="46.04797" lon="3.5453">
        <ele>582.81</ele>
        <time>2015-04-18T15:59:43Z</time>
      </trkpt>
      <trkpt lat="46.04818" lon="3.54528">
        <ele>581.68</ele>
        <time>2015-04-18T15:59:49Z</time>
      </trkpt>
      <trkpt lat="46.04837" lon="3.54526">
        <ele>579.84</ele>
        <time>2015-04-18T15:59:55Z</time>
      </trkpt>
      <trkpt lat="46.04855" lon="3.54526">
        <ele>578.62</ele>
        <time>2015-04-18T16:00:01Z</time>
      </trkpt>
      <trkpt lat="46.04875" lon="3.54526">
        <ele>577.81</ele>
        <time>2015-04-18T16:00:06Z</time>
      </trkpt>
      <trkpt lat="46.04895" lon="3.54528">
        <ele>577.56</ele>
        <time>2015-04-18T16:00:11Z</time>
      </trkpt>
      <trkpt lat="46.04912" lon="3.54537">
        <ele>576.62</ele>
        <time>2015-04-18T16:00:16Z</time>
      </trkpt>
      <trkpt lat="46.04927" lon="3.54552">
        <ele>575.68</ele>
        <time>2015-04-18T16:00:20Z</time>
      </trkpt>
      <trkpt lat="46.04944" lon="3.54569">
        <ele>574.68</ele>
        <time>2015-04-18T16:00:25Z</time>
      </trkpt>
      <trkpt lat="46.0496" lon="3.5459">
        <ele>571.06</ele>
        <time>2015-04-18T16:00:30Z</time>
      </trkpt>
      <trkpt lat="46.04976" lon="3.54607">
        <ele>570.56</ele>
        <time>2015-04-18T16:00:36Z</time>
      </trkpt>
      <trkpt lat="46.04995" lon="3.54616">
        <ele>569.68</ele>
        <time>2015-04-18T16:00:41Z</time>
      </trkpt>
      <trkpt lat="46.05013" lon="3.5462">
        <ele>569.56</ele>
        <time>2015-04-18T16:00:46Z</time>
      </trkpt>
      <trkpt lat="46.05031" lon="3.54622">
        <ele>568.8</ele>
        <time>2015-04-18T16:00:50Z</time>
      </trkpt>
      <trkpt lat="46.0505" lon="3.54622">
        <ele>567.82</ele>
        <time>2015-04-18T16:00:54Z</time>
      </trkpt>
      <trkpt lat="46.05069" lon="3.54625">
        <ele>567.59</ele>
        <time>2015-04-18T16:00:57Z</time>
      </trkpt>
      <trkpt lat="46.05087" lon="3.54627">
        <ele>566.81</ele>
        <time>2015-04-18T16:01:00Z</time>
      </trkpt>
      <trkpt lat="46.05109" lon="3.54631">
        <ele>567.44</ele>
        <time>2015-04-18T16:01:04Z</time>
      </trkpt>
      <trkpt lat="46.0513" lon="3.54637">
        <ele>567.55</ele>
        <time>2015-04-18T16:01:08Z</time>
      </trkpt>
      <trkpt lat="46.05149" lon="3.54646">
        <ele>567.55</ele>
        <time>2015-04-18T16:01:12Z</time>
      </trkpt>
      <trkpt lat="46.05167" lon="3.54659">
        <ele>566.8</ele>
        <time>2015-04-18T16:01:16Z</time>
      </trkpt>
      <trkpt lat="46.05186" lon="3.54672">
        <ele>566.56</ele>
        <time>2015-04-18T16:01:21Z</time>
      </trkpt>
      <trkpt lat="46.05203" lon="3.54682">
        <ele>566.55</ele>
        <time>2015-04-18T16:01:26Z</time>
      </trkpt>
      <trkpt lat="46.05224" lon="3.54693">
        <ele>562.3</ele>
        <time>2015-04-18T16:01:31Z</time>
      </trkpt>
      <trkpt lat="46.05245" lon="3.547">
        <ele>560.85</ele>
        <time>2015-04-18T16:01:35Z</time>
      </trkpt>
      <trkpt lat="46.05263" lon="3.54704">
        <ele>560.59</ele>
        <time>2015-04-18T16:01:38Z</time>
      </trkpt>
      <trkpt lat="46.05281" lon="3.5471">
        <ele>560.56</ele>
        <time>2015-04-18T16:01:41Z</time>
      </trkpt>
      <trkpt lat="46.053" lon="3.54715">
        <ele>560.55</ele>
        <time>2015-04-18T16:01:44Z</time>
      </trkpt>
      <trkpt lat="46.05323" lon="3.54721">
        <ele>560.55</ele>
        <time>2015-04-18T16:01:47Z</time>
      </trkpt>
      <trkpt lat="46.05344" lon="3.5473">
        <ele>559.8</ele>
        <time>2015-04-18T16:01:50Z</time>
      </trkpt>
      <trkpt lat="46.05366" lon="3.54736">
        <ele>558.83</ele>
        <time>2015-04-18T16:01:53Z</time>
      </trkpt>
      <trkpt lat="46.05387" lon="3.54743">
        <ele>557.84</ele>
        <time>2015-04-18T16:01:56Z</time>
      </trkpt>
      <trkpt lat="46.05408" lon="3.54747">
        <ele>556.71</ele>
        <time>2015-04-18T16:01:59Z</time>
      </trkpt>
      <trkpt lat="46.05428" lon="3.54749">
        <ele>555.2</ele>
        <time>2015-04-18T16:02:02Z</time>
      </trkpt>
      <trkpt lat="46.05447" lon="3.54749">
        <ele>554.13</ele>
        <time>2015-04-18T16:02:05Z</time>
      </trkpt>
      <trkpt lat="46.05466" lon="3.54745">
        <ele>553.63</ele>
        <time>2015-04-18T16:02:08Z</time>
      </trkpt>
      <trkpt lat="46.05487" lon="3.54743">
        <ele>553.56</ele>
        <time>2015-04-18T16:02:11Z</time>
      </trkpt>
      <trkpt lat="46.05506" lon="3.54743">
        <ele>553.55</ele>
        <time>2015-04-18T16:02:14Z</time>
      </trkpt>
      <trkpt lat="46.05529" lon="3.54745">
        <ele>553.55</ele>
        <time>2015-04-18T16:02:17Z</time>
      </trkpt>
      <trkpt lat="46.05555" lon="3.54749">
        <ele>553.55</ele>
        <time>2015-04-18T16:02:20Z</time>
      </trkpt>
      <trkpt lat="46.05579" lon="3.54755">
        <ele>553.55</ele>
        <time>2015-04-18T16:02:23Z</time>
      </trkpt>
      <trkpt lat="46.05604" lon="3.54762">
        <ele>552.8</ele>
        <time>2015-04-18T16:02:26Z</time>
      </trkpt>
      <trkpt lat="46.0563" lon="3.54764">
        <ele>551.21</ele>
        <time>2015-04-18T16:02:29Z</time>
      </trkpt>
      <trkpt lat="46.05655" lon="3.54766">
        <ele>550.14</ele>
        <time>2015-04-18T16:02:32Z</time>
      </trkpt>
      <trkpt lat="46.05674" lon="3.54764">
        <ele>548.7</ele>
        <time>2015-04-18T16:02:34Z</time>
      </trkpt>
      <trkpt lat="46.05698" lon="3.5476">
        <ele>545.07</ele>
        <time>2015-04-18T16:02:37Z</time>
      </trkpt>
      <trkpt lat="46.05721" lon="3.54755">
        <ele>542.37</ele>
        <time>2015-04-18T16:02:40Z</time>
      </trkpt>
      <trkpt lat="46.05739" lon="3.54753">
        <ele>539.53</ele>
        <time>2015-04-18T16:02:43Z</time>
      </trkpt>
      <trkpt lat="46.05758" lon="3.54751">
        <ele>536.05</ele>
        <time>2015-04-18T16:02:46Z</time>
      </trkpt>
      <trkpt lat="46.05777" lon="3.54743">
        <ele>530.99</ele>
        <time>2015-04-18T16:02:49Z</time>
      </trkpt>
      <trkpt lat="46.05782" lon="3.54715">
        <ele>524.39</ele>
        <time>2015-04-18T16:02:53Z</time>
      </trkpt>
      <trkpt lat="46.05771" lon="3.54689">
        <ele>519.28</ele>
        <time>2015-04-18T16:02:56Z</time>
      </trkpt>
      <trkpt lat="46.05763" lon="3.54665">
        <ele>514.89</ele>
        <time>2015-04-18T16:02:59Z</time>
      </trkpt>
      <trkpt lat="46.05758" lon="3.54637">
        <ele>511.32</ele>
        <time>2015-04-18T16:03:03Z</time>
      </trkpt>
      <trkpt lat="46.05756" lon="3.54612">
        <ele>509.16</ele>
        <time>2015-04-18T16:03:07Z</time>
      </trkpt>
      <trkpt lat="46.05758" lon="3.54586">
        <ele>507.84</ele>
        <time>2015-04-18T16:03:11Z</time>
      </trkpt>
      <trkpt lat="46.05768" lon="3.54558">
        <ele>506.81</ele>
        <time>2015-04-18T16:03:16Z</time>
      </trkpt>
      <trkpt lat="46.05779" lon="3.54534">
        <ele>505.69</ele>
        <time>2015-04-18T16:03:20Z</time>
      </trkpt>
      <trkpt lat="46.05786" lon="3.54509">
        <ele>505.07</ele>
        <time>2015-04-18T16:03:23Z</time>
      </trkpt>
      <trkpt lat="46.05786" lon="3.54474">
        <ele>504.62</ele>
        <time>2015-04-18T16:03:26Z</time>
      </trkpt>
      <trkpt lat="46.05778" lon="3.54442">
        <ele>505.06</ele>
        <time>2015-04-18T16:03:29Z</time>
      </trkpt>
      <trkpt lat="46.0577" lon="3.54419">
        <ele>504.68</ele>
        <time>2015-04-18T16:03:31Z</time>
      </trkpt>
      <trkpt lat="46.05766" lon="3.54393">
        <ele>504.58</ele>
        <time>2015-04-18T16:03:33Z</time>
      </trkpt>
      <trkpt lat="46.05764" lon="3.54367">
        <ele>503.81</ele>
        <time>2015-04-18T16:03:35Z</time>
      </trkpt>
      <trkpt lat="46.05764" lon="3.54339">
        <ele>503.12</ele>
        <time>2015-04-18T16:03:37Z</time>
      </trkpt>
      <trkpt lat="46.05764" lon="3.54301">
        <ele>501.87</ele>
        <time>2015-04-18T16:03:40Z</time>
      </trkpt>
      <trkpt lat="46.05762" lon="3.54264">
        <ele>500.84</ele>
        <time>2015-04-18T16:03:43Z</time>
      </trkpt>
      <trkpt lat="46.05758" lon="3.5423">
        <ele>500.59</ele>
        <time>2015-04-18T16:03:46Z</time>
      </trkpt>
      <trkpt lat="46.05758" lon="3.54198">
        <ele>500.56</ele>
        <time>2015-04-18T16:03:49Z</time>
      </trkpt>
      <trkpt lat="46.05766" lon="3.54165">
        <ele>500.55</ele>
        <time>2015-04-18T16:03:52Z</time>
      </trkpt>
      <trkpt lat="46.05775" lon="3.54142">
        <ele>500.55</ele>
        <time>2015-04-18T16:03:56Z</time>
      </trkpt>
      <trkpt lat="46.05791" lon="3.5412">
        <ele>500.55</ele>
        <time>2015-04-18T16:04:00Z</time>
      </trkpt>
      <trkpt lat="46.05801" lon="3.54099">
        <ele>500.55</ele>
        <time>2015-04-18T16:04:03Z</time>
      </trkpt>
      <trkpt lat="46.05813" lon="3.54075">
        <ele>499.8</ele>
        <time>2015-04-18T16:04:07Z</time>
      </trkpt>
      <trkpt lat="46.0582" lon="3.54043">
        <ele>499.55</ele>
        <time>2015-04-18T16:04:17Z</time>
      </trkpt>
      <trkpt lat="46.05814" lon="3.54017">
        <ele>498.62</ele>
        <time>2015-04-18T16:04:27Z</time>
      </trkpt>
      <trkpt lat="46.05817" lon="3.53983">
        <ele>498.05</ele>
        <time>2015-04-18T16:04:39Z</time>
      </trkpt>
      <trkpt lat="46.05826" lon="3.53955">
        <ele>497.55</ele>
        <time>2015-04-18T16:04:50Z</time>
      </trkpt>
      <trkpt lat="46.05838" lon="3.53929">
        <ele>496.68</ele>
        <time>2015-04-18T16:04:58Z</time>
      </trkpt>
      <trkpt lat="46.05844" lon="3.53899">
        <ele>496.55</ele>
        <time>2015-04-18T16:05:08Z</time>
      </trkpt>
      <trkpt lat="46.05841" lon="3.53865">
        <ele>496.55</ele>
        <time>2015-04-18T16:05:20Z</time>
      </trkpt>
      <trkpt lat="46.05831" lon="3.53837">
        <ele>496.55</ele>
        <time>2015-04-18T16:05:32Z</time>
      </trkpt>
      <trkpt lat="46.05821" lon="3.53813">
        <ele>496.12</ele>
        <time>2015-04-18T16:05:44Z</time>
      </trkpt>
      <trkpt lat="46.05811" lon="3.53788">
        <ele>496.55</ele>
        <time>2015-04-18T16:05:56Z</time>
      </trkpt>
      <trkpt lat="46.05802" lon="3.53758">
        <ele>496.55</ele>
        <time>2015-04-18T16:06:09Z</time>
      </trkpt>
      <trkpt lat="46.05797" lon="3.53728">
        <ele>496.55</ele>
        <time>2015-04-18T16:06:25Z</time>
      </trkpt>
      <trkpt lat="46.05792" lon="3.537">
        <ele>497.05</ele>
        <time>2015-04-18T16:06:41Z</time>
      </trkpt>
      <trkpt lat="46.05785" lon="3.53672">
        <ele>498.49</ele>
        <time>2015-04-18T16:06:57Z</time>
      </trkpt>
      <trkpt lat="46.05779" lon="3.53646">
        <ele>501.53</ele>
        <time>2015-04-18T16:07:15Z</time>
      </trkpt>
      <trkpt lat="46.05771" lon="3.53622">
        <ele>504.04</ele>
        <time>2015-04-18T16:07:28Z</time>
      </trkpt>
      <trkpt lat="46.05769" lon="3.53597">
        <ele>506.54</ele>
        <time>2015-04-18T16:07:43Z</time>
      </trkpt>
      <trkpt lat="46.0577" lon="3.53569">
        <ele>509.43</ele>
        <time>2015-04-18T16:08:00Z</time>
      </trkpt>
      <trkpt lat="46.05771" lon="3.53541">
        <ele>511.49</ele>
        <time>2015-04-18T16:08:16Z</time>
      </trkpt>
      <trkpt lat="46.05769" lon="3.53515">
        <ele>513.05</ele>
        <time>2015-04-18T16:08:28Z</time>
      </trkpt>
      <trkpt lat="46.05768" lon="3.53485">
        <ele>515.04</ele>
        <time>2015-04-18T16:08:40Z</time>
      </trkpt>
      <trkpt lat="46.05769" lon="3.53457">
        <ele>517.42</ele>
        <time>2015-04-18T16:08:51Z</time>
      </trkpt>
      <trkpt lat="46.05772" lon="3.53431">
        <ele>519.04</ele>
        <time>2015-04-18T16:09:00Z</time>
      </trkpt>
      <trkpt lat="46.0578" lon="3.53408">
        <ele>520.05</ele>
        <time>2015-04-18T16:09:06Z</time>
      </trkpt>
      <trkpt lat="46.05791" lon="3.53384">
        <ele>521.04</ele>
        <time>2015-04-18T16:09:11Z</time>
      </trkpt>
      <trkpt lat="46.058" lon="3.53361">
        <ele>522.9</ele>
        <time>2015-04-18T16:09:15Z</time>
      </trkpt>
      <trkpt lat="46.05807" lon="3.53335">
        <ele>523.51</ele>
        <time>2015-04-18T16:09:19Z</time>
      </trkpt>
      <trkpt lat="46.05815" lon="3.53311">
        <ele>524.3</ele>
        <time>2015-04-18T16:09:23Z</time>
      </trkpt>
      <trkpt lat="46.05826" lon="3.5329">
        <ele>524.54</ele>
        <time>2015-04-18T16:09:27Z</time>
      </trkpt>
      <trkpt lat="46.05839" lon="3.53271">
        <ele>524.55</ele>
        <time>2015-04-18T16:09:31Z</time>
      </trkpt>
      <trkpt lat="46.05853" lon="3.53249">
        <ele>523.68</ele>
        <time>2015-04-18T16:09:35Z</time>
      </trkpt>
      <trkpt lat="46.05867" lon="3.53225">
        <ele>524.43</ele>
        <time>2015-04-18T16:09:40Z</time>
      </trkpt>
      <trkpt lat="46.05875" lon="3.532">
        <ele>524.55</ele>
        <time>2015-04-18T16:09:44Z</time>
      </trkpt>
      <trkpt lat="46.05882" lon="3.53174">
        <ele>524.55</ele>
        <time>2015-04-18T16:09:48Z</time>
      </trkpt>
      <trkpt lat="46.0589" lon="3.53146">
        <ele>524.55</ele>
        <time>2015-04-18T16:09:53Z</time>
      </trkpt>
      <trkpt lat="46.05901" lon="3.53125">
        <ele>524.55</ele>
        <time>2015-04-18T16:09:58Z</time>
      </trkpt>
      <trkpt lat="46.05918" lon="3.53103">
        <ele>525.05</ele>
        <time>2015-04-18T16:10:03Z</time>
      </trkpt>
      <trkpt lat="46.05934" lon="3.5309">
        <ele>526.27</ele>
        <time>2015-04-18T16:10:07Z</time>
      </trkpt>
      <trkpt lat="46.05953" lon="3.53086">
        <ele>527.29</ele>
        <time>2015-04-18T16:10:11Z</time>
      </trkpt>
      <trkpt lat="46.05972" lon="3.53084">
        <ele>528.41</ele>
        <time>2015-04-18T16:10:15Z</time>
      </trkpt>
      <trkpt lat="46.05992" lon="3.5308">
        <ele>529.48</ele>
        <time>2015-04-18T16:10:19Z</time>
      </trkpt>
      <trkpt lat="46.06009" lon="3.53067">
        <ele>529.55</ele>
        <time>2015-04-18T16:10:23Z</time>
      </trkpt>
      <trkpt lat="46.06023" lon="3.53043">
        <ele>530.43</ele>
        <time>2015-04-18T16:10:27Z</time>
      </trkpt>
      <trkpt lat="46.06037" lon="3.53024">
        <ele>530.55</ele>
        <time>2015-04-18T16:10:31Z</time>
      </trkpt>
      <trkpt lat="46.06053" lon="3.53007">
        <ele>530.55</ele>
        <time>2015-04-18T16:10:35Z</time>
      </trkpt>
      <trkpt lat="46.06072" lon="3.52996">
        <ele>530.55</ele>
        <time>2015-04-18T16:10:39Z</time>
      </trkpt>
      <trkpt lat="46.06091" lon="3.52987">
        <ele>531.3</ele>
        <time>2015-04-18T16:10:43Z</time>
      </trkpt>
      <trkpt lat="46.0611" lon="3.52979">
        <ele>531.54</ele>
        <time>2015-04-18T16:10:47Z</time>
      </trkpt>
      <trkpt lat="46.06128" lon="3.5297">
        <ele>531.55</ele>
        <time>2015-04-18T16:10:51Z</time>
      </trkpt>
      <trkpt lat="46.06146" lon="3.52962">
        <ele>531.55</ele>
        <time>2015-04-18T16:10:56Z</time>
      </trkpt>
      <trkpt lat="46.06166" lon="3.52962">
        <ele>530.62</ele>
        <time>2015-04-18T16:11:00Z</time>
      </trkpt>
      <trkpt lat="46.06188" lon="3.52962">
        <ele>529.62</ele>
        <time>2015-04-18T16:11:04Z</time>
      </trkpt>
      <trkpt lat="46.06209" lon="3.52966">
        <ele>528.62</ele>
        <time>2015-04-18T16:11:08Z</time>
      </trkpt>
      <trkpt lat="46.06228" lon="3.52972">
        <ele>527.68</ele>
        <time>2015-04-18T16:11:12Z</time>
      </trkpt>
      <trkpt lat="46.06248" lon="3.52979">
        <ele>526.81</ele>
        <time>2015-04-18T16:11:16Z</time>
      </trkpt>
      <trkpt lat="46.06268" lon="3.52989">
        <ele>526.57</ele>
        <time>2015-04-18T16:11:20Z</time>
      </trkpt>
      <trkpt lat="46.06287" lon="3.52996">
        <ele>526.55</ele>
        <time>2015-04-18T16:11:24Z</time>
      </trkpt>
      <trkpt lat="46.06309" lon="3.53004">
        <ele>526.55</ele>
        <time>2015-04-18T16:11:28Z</time>
      </trkpt>
      <trkpt lat="46.06329" lon="3.53011">
        <ele>527.05</ele>
        <time>2015-04-18T16:11:32Z</time>
      </trkpt>
      <trkpt lat="46.06351" lon="3.53013">
        <ele>527.52</ele>
        <time>2015-04-18T16:11:36Z</time>
      </trkpt>
      <trkpt lat="46.06371" lon="3.53015">
        <ele>527.55</ele>
        <time>2015-04-18T16:11:40Z</time>
      </trkpt>
      <trkpt lat="46.06391" lon="3.53019">
        <ele>527.55</ele>
        <time>2015-04-18T16:11:44Z</time>
      </trkpt>
      <trkpt lat="46.06411" lon="3.53022">
        <ele>527.55</ele>
        <time>2015-04-18T16:11:48Z</time>
      </trkpt>
      <trkpt lat="46.06429" lon="3.53015">
        <ele>527.55</ele>
        <time>2015-04-18T16:11:53Z</time>
      </trkpt>
      <trkpt lat="46.06444" lon="3.52989">
        <ele>527.55</ele>
        <time>2015-04-18T16:11:58Z</time>
      </trkpt>
      <trkpt lat="46.06454" lon="3.52966">
        <ele>527.55</ele>
        <time>2015-04-18T16:12:02Z</time>
      </trkpt>
      <trkpt lat="46.06469" lon="3.52942">
        <ele>527.55</ele>
        <time>2015-04-18T16:12:07Z</time>
      </trkpt>
      <trkpt lat="46.06488" lon="3.52925">
        <ele>528.52</ele>
        <time>2015-04-18T16:12:12Z</time>
      </trkpt>
      <trkpt lat="46.06503" lon="3.5291">
        <ele>528.55</ele>
        <time>2015-04-18T16:12:16Z</time>
      </trkpt>
      <trkpt lat="46.06505" lon="3.52882">
        <ele>529.43</ele>
        <time>2015-04-18T16:12:20Z</time>
      </trkpt>
      <trkpt lat="46.06503" lon="3.52852">
        <ele>529.55</ele>
        <time>2015-04-18T16:12:24Z</time>
      </trkpt>
      <trkpt lat="46.06498" lon="3.52826">
        <ele>530.05</ele>
        <time>2015-04-18T16:12:28Z</time>
      </trkpt>
      <trkpt lat="46.06489" lon="3.52801">
        <ele>531.04</ele>
        <time>2015-04-18T16:12:33Z</time>
      </trkpt>
      <trkpt lat="46.06479" lon="3.52775">
        <ele>531.54</ele>
        <time>2015-04-18T16:12:38Z</time>
      </trkpt>
      <trkpt lat="46.0647" lon="3.52751">
        <ele>531.55</ele>
        <time>2015-04-18T16:12:44Z</time>
      </trkpt>
      <trkpt lat="46.06461" lon="3.52728">
        <ele>531.55</ele>
        <time>2015-04-18T16:12:49Z</time>
      </trkpt>
      <trkpt lat="46.06445" lon="3.5271">
        <ele>532.49</ele>
        <time>2015-04-18T16:12:53Z</time>
      </trkpt>
      <trkpt lat="46.0643" lon="3.52693">
        <ele>533.49</ele>
        <time>2015-04-18T16:12:57Z</time>
      </trkpt>
      <trkpt lat="46.06423" lon="3.5267">
        <ele>533.55</ele>
        <time>2015-04-18T16:13:02Z</time>
      </trkpt>
      <trkpt lat="46.06417" lon="3.52642">
        <ele>534.3</ele>
        <time>2015-04-18T16:13:06Z</time>
      </trkpt>
      <trkpt lat="46.06413" lon="3.52607">
        <ele>535.41</ele>
        <time>2015-04-18T16:13:10Z</time>
      </trkpt>
      <trkpt lat="46.06412" lon="3.52575">
        <ele>535.04</ele>
        <time>2015-04-18T16:13:13Z</time>
      </trkpt>
      <trkpt lat="46.06403" lon="3.52539">
        <ele>534.61</ele>
        <time>2015-04-18T16:13:16Z</time>
      </trkpt>
      <trkpt lat="46.06394" lon="3.52513">
        <ele>534.57</ele>
        <time>2015-04-18T16:13:18Z</time>
      </trkpt>
      <trkpt lat="46.06384" lon="3.52489">
        <ele>534.56</ele>
        <time>2015-04-18T16:13:20Z</time>
      </trkpt>
      <trkpt lat="46.06375" lon="3.52464">
        <ele>534.55</ele>
        <time>2015-04-18T16:13:22Z</time>
      </trkpt>
      <trkpt lat="46.06366" lon="3.5244">
        <ele>534.05</ele>
        <time>2015-04-18T16:13:24Z</time>
      </trkpt>
      <trkpt lat="46.06354" lon="3.52419">
        <ele>533.68</ele>
        <time>2015-04-18T16:13:26Z</time>
      </trkpt>
      <trkpt lat="46.06342" lon="3.52397">
        <ele>533.58</ele>
        <time>2015-04-18T16:13:28Z</time>
      </trkpt>
      <trkpt lat="46.0633" lon="3.52374">
        <ele>533.56</ele>
        <time>2015-04-18T16:13:30Z</time>
      </trkpt>
      <trkpt lat="46.0632" lon="3.52348">
        <ele>533.55</ele>
        <time>2015-04-18T16:13:32Z</time>
      </trkpt>
      <trkpt lat="46.06309" lon="3.5232">
        <ele>533.05</ele>
        <time>2015-04-18T16:13:34Z</time>
      </trkpt>
      <trkpt lat="46.06296" lon="3.52292">
        <ele>532.68</ele>
        <time>2015-04-18T16:13:36Z</time>
      </trkpt>
      <trkpt lat="46.06283" lon="3.52264">
        <ele>532.58</ele>
        <time>2015-04-18T16:13:38Z</time>
      </trkpt>
      <trkpt lat="46.06268" lon="3.52234">
        <ele>532.56</ele>
        <time>2015-04-18T16:13:40Z</time>
      </trkpt>
      <trkpt lat="46.06255" lon="3.522">
        <ele>532.55</ele>
        <time>2015-04-18T16:13:42Z</time>
      </trkpt>
      <trkpt lat="46.06244" lon="3.52165">
        <ele>533.05</ele>
        <time>2015-04-18T16:13:44Z</time>
      </trkpt>
      <trkpt lat="46.06239" lon="3.52127">
        <ele>533.43</ele>
        <time>2015-04-18T16:13:46Z</time>
      </trkpt>
      <trkpt lat="46.06239" lon="3.52088">
        <ele>533.52</ele>
        <time>2015-04-18T16:13:48Z</time>
      </trkpt>
      <trkpt lat="46.0624" lon="3.52047">
        <ele>533.55</ele>
        <time>2015-04-18T16:13:50Z</time>
      </trkpt>
      <trkpt lat="46.06241" lon="3.52007">
        <ele>533.55</ele>
        <time>2015-04-18T16:13:52Z</time>
      </trkpt>
      <trkpt lat="46.06241" lon="3.5197">
        <ele>532.8</ele>
        <time>2015-04-18T16:13:54Z</time>
      </trkpt>
      <trkpt lat="46.06242" lon="3.51938">
        <ele>532.62</ele>
        <time>2015-04-18T16:13:56Z</time>
      </trkpt>
      <trkpt lat="46.06242" lon="3.51908">
        <ele>532.57</ele>
        <time>2015-04-18T16:13:58Z</time>
      </trkpt>
      <trkpt lat="46.06247" lon="3.51876">
        <ele>530.43</ele>
        <time>2015-04-18T16:14:01Z</time>
      </trkpt>
      <trkpt lat="46.06262" lon="3.51856">
        <ele>527.3</ele>
        <time>2015-04-18T16:14:05Z</time>
      </trkpt>
      <trkpt lat="46.06277" lon="3.51831">
        <ele>526.55</ele>
        <time>2015-04-18T16:14:19Z</time>
      </trkpt>
      <trkpt lat="46.0628" lon="3.51803">
        <ele>524.06</ele>
        <time>2015-04-18T16:14:32Z</time>
      </trkpt>
      <trkpt lat="46.06281" lon="3.51775">
        <ele>520.56</ele>
        <time>2015-04-18T16:14:47Z</time>
      </trkpt>
      <trkpt lat="46.0628" lon="3.51736">
        <ele>516.05</ele>
        <time>2015-04-18T16:15:09Z</time>
      </trkpt>
      <trkpt lat="46.06271" lon="3.51713">
        <ele>513.07</ele>
        <time>2015-04-18T16:15:23Z</time>
      </trkpt>
      <trkpt lat="46.06266" lon="3.51687">
        <ele>511.58</ele>
        <time>2015-04-18T16:15:36Z</time>
      </trkpt>
      <trkpt lat="46.06266" lon="3.51655">
        <ele>510.62</ele>
        <time>2015-04-18T16:15:51Z</time>
      </trkpt>
      <trkpt lat="46.06268" lon="3.51623">
        <ele>509.58</ele>
        <time>2015-04-18T16:16:06Z</time>
      </trkpt>
      <trkpt lat="46.06269" lon="3.51595">
        <ele>509.55</ele>
        <time>2015-04-18T16:16:21Z</time>
      </trkpt>
      <trkpt lat="46.0627" lon="3.51563">
        <ele>509.55</ele>
        <time>2015-04-18T16:16:37Z</time>
      </trkpt>
      <trkpt lat="46.06266" lon="3.51532">
        <ele>509.55</ele>
        <time>2015-04-18T16:16:51Z</time>
      </trkpt>
      <trkpt lat="46.06263" lon="3.51505">
        <ele>509.55</ele>
        <time>2015-04-18T16:17:02Z</time>
      </trkpt>
      <trkpt lat="46.06264" lon="3.51475">
        <ele>509.55</ele>
        <time>2015-04-18T16:17:12Z</time>
      </trkpt>
      <trkpt lat="46.06265" lon="3.51447">
        <ele>509.55</ele>
        <time>2015-04-18T16:17:19Z</time>
      </trkpt>
      <trkpt lat="46.06264" lon="3.51419">
        <ele>508.8</ele>
        <time>2015-04-18T16:17:28Z</time>
      </trkpt>
      <trkpt lat="46.06267" lon="3.51391">
        <ele>508.55</ele>
        <time>2015-04-18T16:17:37Z</time>
      </trkpt>
      <trkpt lat="46.06272" lon="3.51363">
        <ele>508.55</ele>
        <time>2015-04-18T16:17:43Z</time>
      </trkpt>
      <trkpt lat="46.06273" lon="3.51335">
        <ele>508.55</ele>
        <time>2015-04-18T16:17:48Z</time>
      </trkpt>
      <trkpt lat="46.0627" lon="3.51307">
        <ele>508.55</ele>
        <time>2015-04-18T16:17:54Z</time>
      </trkpt>
      <trkpt lat="46.06265" lon="3.51281">
        <ele>508.55</ele>
        <time>2015-04-18T16:18:00Z</time>
      </trkpt>
      <trkpt lat="46.06262" lon="3.51249">
        <ele>508.55</ele>
        <time>2015-04-18T16:18:06Z</time>
      </trkpt>
      <trkpt lat="46.06266" lon="3.51221">
        <ele>508.93</ele>
        <time>2015-04-18T16:18:09Z</time>
      </trkpt>
      <trkpt lat="46.06261" lon="3.51193">
        <ele>506.97</ele>
        <time>2015-04-18T16:18:12Z</time>
      </trkpt>
      <trkpt lat="46.06257" lon="3.51166">
        <ele>504.89</ele>
        <time>2015-04-18T16:18:16Z</time>
      </trkpt>
      <trkpt lat="46.06261" lon="3.5114">
        <ele>505.54</ele>
        <time>2015-04-18T16:18:22Z</time>
      </trkpt>
      <trkpt lat="46.06269" lon="3.51114">
        <ele>505.55</ele>
        <time>2015-04-18T16:18:28Z</time>
      </trkpt>
      <trkpt lat="46.06281" lon="3.51088">
        <ele>504.58</ele>
        <time>2015-04-18T16:18:35Z</time>
      </trkpt>
      <trkpt lat="46.06295" lon="3.51069">
        <ele>504.55</ele>
        <time>2015-04-18T16:18:42Z</time>
      </trkpt>
      <trkpt lat="46.06312" lon="3.5106">
        <ele>504.55</ele>
        <time>2015-04-18T16:18:48Z</time>
      </trkpt>
      <trkpt lat="46.0633" lon="3.51052">
        <ele>504.05</ele>
        <time>2015-04-18T16:18:54Z</time>
      </trkpt>
      <trkpt lat="46.06347" lon="3.51043">
        <ele>504.31</ele>
        <time>2015-04-18T16:19:00Z</time>
      </trkpt>
      <trkpt lat="46.06365" lon="3.51035">
        <ele>504.55</ele>
        <time>2015-04-18T16:19:06Z</time>
      </trkpt>
      <trkpt lat="46.06381" lon="3.51022">
        <ele>504.55</ele>
        <time>2015-04-18T16:19:12Z</time>
      </trkpt>
      <trkpt lat="46.06396" lon="3.51005">
        <ele>505.49</ele>
        <time>2015-04-18T16:19:18Z</time>
      </trkpt>
      <trkpt lat="46.06411" lon="3.50985">
        <ele>506.3</ele>
        <time>2015-04-18T16:19:24Z</time>
      </trkpt>
      <trkpt lat="46.06426" lon="3.5097">
        <ele>508.55</ele>
        <time>2015-04-18T16:19:29Z</time>
      </trkpt>
      <trkpt lat="46.06444" lon="3.5096">
        <ele>513.27</ele>
        <time>2015-04-18T16:19:34Z</time>
      </trkpt>
      <trkpt lat="46.06462" lon="3.5096">
        <ele>514.29</ele>
        <time>2015-04-18T16:19:38Z</time>
      </trkpt>
      <trkpt lat="46.06484" lon="3.50975">
        <ele>514.54</ele>
        <time>2015-04-18T16:19:42Z</time>
      </trkpt>
      <trkpt lat="46.06498" lon="3.50992">
        <ele>514.55</ele>
        <time>2015-04-18T16:19:44Z</time>
      </trkpt>
      <trkpt lat="46.06512" lon="3.51015">
        <ele>514.55</ele>
        <time>2015-04-18T16:19:47Z</time>
      </trkpt>
      <trkpt lat="46.06526" lon="3.51041">
        <ele>514.05</ele>
        <time>2015-04-18T16:19:51Z</time>
      </trkpt>
      <trkpt lat="46.06538" lon="3.51071">
        <ele>512.83</ele>
        <time>2015-04-18T16:19:55Z</time>
      </trkpt>
      <trkpt lat="46.0655" lon="3.51097">
        <ele>512.59</ele>
        <time>2015-04-18T16:19:58Z</time>
      </trkpt>
      <trkpt lat="46.06563" lon="3.51123">
        <ele>512.56</ele>
        <time>2015-04-18T16:20:01Z</time>
      </trkpt>
      <trkpt lat="46.06576" lon="3.51144">
        <ele>512.55</ele>
        <time>2015-04-18T16:20:04Z</time>
      </trkpt>
      <trkpt lat="46.06589" lon="3.51163">
        <ele>512.55</ele>
        <time>2015-04-18T16:20:07Z</time>
      </trkpt>
      <trkpt lat="46.06603" lon="3.51187">
        <ele>512.55</ele>
        <time>2015-04-18T16:20:10Z</time>
      </trkpt>
      <trkpt lat="46.06618" lon="3.51204">
        <ele>511.8</ele>
        <time>2015-04-18T16:20:13Z</time>
      </trkpt>
      <trkpt lat="46.06631" lon="3.51228">
        <ele>511.08</ele>
        <time>2015-04-18T16:20:16Z</time>
      </trkpt>
      <trkpt lat="46.06644" lon="3.51249">
        <ele>509.24</ele>
        <time>2015-04-18T16:20:19Z</time>
      </trkpt>
      <trkpt lat="46.06658" lon="3.51273">
        <ele>506.51</ele>
        <time>2015-04-18T16:20:22Z</time>
      </trkpt>
      <trkpt lat="46.06671" lon="3.51294">
        <ele>504.92</ele>
        <time>2015-04-18T16:20:25Z</time>
      </trkpt>
      <trkpt lat="46.06688" lon="3.5132">
        <ele>503.2</ele>
        <time>2015-04-18T16:20:29Z</time>
      </trkpt>
      <trkpt lat="46.06698" lon="3.51341">
        <ele>501.88</ele>
        <time>2015-04-18T16:20:32Z</time>
      </trkpt>
      <trkpt lat="46.0671" lon="3.51367">
        <ele>499.47</ele>
        <time>2015-04-18T16:20:35Z</time>
      </trkpt>
      <trkpt lat="46.06722" lon="3.51391">
        <ele>495.79</ele>
        <time>2015-04-18T16:20:38Z</time>
      </trkpt>
      <trkpt lat="46.06735" lon="3.51414">
        <ele>493.33</ele>
        <time>2015-04-18T16:20:41Z</time>
      </trkpt>
      <trkpt lat="46.0675" lon="3.5144">
        <ele>491.28</ele>
        <time>2015-04-18T16:20:44Z</time>
      </trkpt>
      <trkpt lat="46.06764" lon="3.51464">
        <ele>489.39</ele>
        <time>2015-04-18T16:20:47Z</time>
      </trkpt>
      <trkpt lat="46.06778" lon="3.51485">
        <ele>487.91</ele>
        <time>2015-04-18T16:20:50Z</time>
      </trkpt>
      <trkpt lat="46.06792" lon="3.51509">
        <ele>486.35</ele>
        <time>2015-04-18T16:20:53Z</time>
      </trkpt>
      <trkpt lat="46.0681" lon="3.51522">
        <ele>484.28</ele>
        <time>2015-04-18T16:20:56Z</time>
      </trkpt>
      <trkpt lat="46.06831" lon="3.51528">
        <ele>480.54</ele>
        <time>2015-04-18T16:21:00Z</time>
      </trkpt>
      <trkpt lat="46.06854" lon="3.51528">
        <ele>476.43</ele>
        <time>2015-04-18T16:21:05Z</time>
      </trkpt>
      <trkpt lat="46.06875" lon="3.51532">
        <ele>474.21</ele>
        <time>2015-04-18T16:21:10Z</time>
      </trkpt>
      <trkpt lat="46.06895" lon="3.51535">
        <ele>471.89</ele>
        <time>2015-04-18T16:21:15Z</time>
      </trkpt>
      <trkpt lat="46.06916" lon="3.51537">
        <ele>471.56</ele>
        <time>2015-04-18T16:21:21Z</time>
      </trkpt>
      <trkpt lat="46.06934" lon="3.51537">
        <ele>470.58</ele>
        <time>2015-04-18T16:21:26Z</time>
      </trkpt>
      <trkpt lat="46.06955" lon="3.51539">
        <ele>470.05</ele>
        <time>2015-04-18T16:21:32Z</time>
      </trkpt>
      <trkpt lat="46.06973" lon="3.51541">
        <ele>469.56</ele>
        <time>2015-04-18T16:21:39Z</time>
      </trkpt>
      <trkpt lat="46.06995" lon="3.51545">
        <ele>468.12</ele>
        <time>2015-04-18T16:21:45Z</time>
      </trkpt>
      <trkpt lat="46.07016" lon="3.51554">
        <ele>465.4</ele>
        <time>2015-04-18T16:21:49Z</time>
      </trkpt>
      <trkpt lat="46.07038" lon="3.51565">
        <ele>463.23</ele>
        <time>2015-04-18T16:21:53Z</time>
      </trkpt>
      <trkpt lat="46.07057" lon="3.51573">
        <ele>461.89</ele>
        <time>2015-04-18T16:21:56Z</time>
      </trkpt>
      <trkpt lat="46.07074" lon="3.51582">
        <ele>462.09</ele>
        <time>2015-04-18T16:21:59Z</time>
      </trkpt>
      <trkpt lat="46.07094" lon="3.51599">
        <ele>464.84</ele>
        <time>2015-04-18T16:22:03Z</time>
      </trkpt>
      <trkpt lat="46.0711" lon="3.51625">
        <ele>466.45</ele>
        <time>2015-04-18T16:22:07Z</time>
      </trkpt>
      <trkpt lat="46.07121" lon="3.5165">
        <ele>465.79</ele>
        <time>2015-04-18T16:22:10Z</time>
      </trkpt>
      <trkpt lat="46.07129" lon="3.51674">
        <ele>465.08</ele>
        <time>2015-04-18T16:22:13Z</time>
      </trkpt>
      <trkpt lat="46.07131" lon="3.51704">
        <ele>464.09</ele>
        <time>2015-04-18T16:22:17Z</time>
      </trkpt>
      <trkpt lat="46.0713" lon="3.51732">
        <ele>460.99</ele>
        <time>2015-04-18T16:22:20Z</time>
      </trkpt>
      <trkpt lat="46.07127" lon="3.5176">
        <ele>456.36</ele>
        <time>2015-04-18T16:22:23Z</time>
      </trkpt>
      <trkpt lat="46.07124" lon="3.5179">
        <ele>451.6</ele>
        <time>2015-04-18T16:22:27Z</time>
      </trkpt>
      <trkpt lat="46.07123" lon="3.51818">
        <ele>448.99</ele>
        <time>2015-04-18T16:22:31Z</time>
      </trkpt>
      <trkpt lat="46.07144" lon="3.51814">
        <ele>447.56</ele>
        <time>2015-04-18T16:22:45Z</time>
      </trkpt>
      <trkpt lat="46.07156" lon="3.51792">
        <ele>446.05</ele>
        <time>2015-04-18T16:23:03Z</time>
      </trkpt>
      <trkpt lat="46.07174" lon="3.51777">
        <ele>444.55</ele>
        <time>2015-04-18T16:23:21Z</time>
      </trkpt>
      <trkpt lat="46.07192" lon="3.51762">
        <ele>443.56</ele>
        <time>2015-04-18T16:23:34Z</time>
      </trkpt>
      <trkpt lat="46.07216" lon="3.51743">
        <ele>444.55</ele>
        <time>2015-04-18T16:23:52Z</time>
      </trkpt>
      <trkpt lat="46.07234" lon="3.51728">
        <ele>444.55</ele>
        <time>2015-04-18T16:24:04Z</time>
      </trkpt>
      <trkpt lat="46.07255" lon="3.51711">
        <ele>444.05</ele>
        <time>2015-04-18T16:24:17Z</time>
      </trkpt>
      <trkpt lat="46.07281" lon="3.51702">
        <ele>443.05</ele>
        <time>2015-04-18T16:24:34Z</time>
      </trkpt>
      <trkpt lat="46.073" lon="3.51708">
        <ele>442.55</ele>
        <time>2015-04-18T16:24:47Z</time>
      </trkpt>
      <trkpt lat="46.07324" lon="3.51719">
        <ele>442.55</ele>
        <time>2015-04-18T16:25:05Z</time>
      </trkpt>
      <trkpt lat="46.07342" lon="3.51726">
        <ele>443.55</ele>
        <time>2015-04-18T16:25:27Z</time>
      </trkpt>
      <trkpt lat="46.07361" lon="3.51732">
        <ele>444.55</ele>
        <time>2015-04-18T16:25:39Z</time>
      </trkpt>
      <trkpt lat="46.0738" lon="3.51745">
        <ele>445.05</ele>
        <time>2015-04-18T16:25:52Z</time>
      </trkpt>
      <trkpt lat="46.07395" lon="3.5176">
        <ele>447.42</ele>
        <time>2015-04-18T16:26:04Z</time>
      </trkpt>
      <trkpt lat="46.07409" lon="3.51777">
        <ele>450.29</ele>
        <time>2015-04-18T16:26:16Z</time>
      </trkpt>
      <trkpt lat="46.07422" lon="3.51794">
        <ele>454.41</ele>
        <time>2015-04-18T16:26:38Z</time>
      </trkpt>
      <trkpt lat="46.07432" lon="3.51818">
        <ele>458.41</ele>
        <time>2015-04-18T16:26:52Z</time>
      </trkpt>
      <trkpt lat="46.07443" lon="3.51839">
        <ele>461.41</ele>
        <time>2015-04-18T16:27:02Z</time>
      </trkpt>
      <trkpt lat="46.07453" lon="3.51863">
        <ele>465.49</ele>
        <time>2015-04-18T16:27:17Z</time>
      </trkpt>
      <trkpt lat="46.0746" lon="3.51887">
        <ele>469.49</ele>
        <time>2015-04-18T16:27:36Z</time>
      </trkpt>
      <trkpt lat="46.0747" lon="3.5191">
        <ele>472.52</ele>
        <time>2015-04-18T16:27:54Z</time>
      </trkpt>
      <trkpt lat="46.07477" lon="3.51934">
        <ele>474.52</ele>
        <time>2015-04-18T16:28:09Z</time>
      </trkpt>
      <trkpt lat="46.07487" lon="3.51957">
        <ele>475.55</ele>
        <time>2015-04-18T16:28:23Z</time>
      </trkpt>
      <trkpt lat="46.07498" lon="3.51979">
        <ele>476.55</ele>
        <time>2015-04-18T16:28:36Z</time>
      </trkpt>
      <trkpt lat="46.07514" lon="3.51992">
        <ele>478.52</ele>
        <time>2015-04-18T16:28:52Z</time>
      </trkpt>
      <trkpt lat="46.07532" lon="3.51992">
        <ele>480.54</ele>
        <time>2015-04-18T16:29:08Z</time>
      </trkpt>
      <trkpt lat="46.0755" lon="3.5199">
        <ele>482.52</ele>
        <time>2015-04-18T16:29:23Z</time>
      </trkpt>
      <trkpt lat="46.07569" lon="3.5199">
        <ele>484.43</ele>
        <time>2015-04-18T16:29:39Z</time>
      </trkpt>
      <trkpt lat="46.07589" lon="3.5199">
        <ele>486.05</ele>
        <time>2015-04-18T16:29:54Z</time>
      </trkpt>
      <trkpt lat="46.07607" lon="3.51987">
        <ele>487.52</ele>
        <time>2015-04-18T16:30:04Z</time>
      </trkpt>
      <trkpt lat="46.07625" lon="3.51987">
        <ele>490.43</ele>
        <time>2015-04-18T16:30:18Z</time>
      </trkpt>
      <trkpt lat="46.07643" lon="3.51987">
        <ele>492.49</ele>
        <time>2015-04-18T16:30:31Z</time>
      </trkpt>
      <trkpt lat="46.07662" lon="3.51983">
        <ele>494.49</ele>
        <time>2015-04-18T16:30:43Z</time>
      </trkpt>
      <trkpt lat="46.0768" lon="3.51979">
        <ele>495.55</ele>
        <time>2015-04-18T16:30:55Z</time>
      </trkpt>
      <trkpt lat="46.07698" lon="3.51974">
        <ele>497.43</ele>
        <time>2015-04-18T16:31:06Z</time>
      </trkpt>
      <trkpt lat="46.07716" lon="3.51977">
        <ele>498.54</ele>
        <time>2015-04-18T16:31:17Z</time>
      </trkpt>
      <trkpt lat="46.07736" lon="3.51979">
        <ele>500.43</ele>
        <time>2015-04-18T16:31:28Z</time>
      </trkpt>
      <trkpt lat="46.07755" lon="3.51974">
        <ele>502.43</ele>
        <time>2015-04-18T16:31:41Z</time>
      </trkpt>
      <trkpt lat="46.07773" lon="3.51974">
        <ele>504.42</ele>
        <time>2015-04-18T16:31:51Z</time>
      </trkpt>
      <trkpt lat="46.07792" lon="3.51972">
        <ele>506.04</ele>
        <time>2015-04-18T16:31:59Z</time>
      </trkpt>
      <trkpt lat="46.07811" lon="3.51974">
        <ele>507.52</ele>
        <time>2015-04-18T16:32:07Z</time>
      </trkpt>
      <trkpt lat="46.0783" lon="3.51977">
        <ele>508.54</ele>
        <time>2015-04-18T16:32:13Z</time>
      </trkpt>
      <trkpt lat="46.07848" lon="3.51979">
        <ele>509.52</ele>
        <time>2015-04-18T16:32:18Z</time>
      </trkpt>
      <trkpt lat="46.07868" lon="3.51981">
        <ele>510.52</ele>
        <time>2015-04-18T16:32:24Z</time>
      </trkpt>
      <trkpt lat="46.07887" lon="3.51985">
        <ele>511.52</ele>
        <time>2015-04-18T16:32:31Z</time>
      </trkpt>
      <trkpt lat="46.07907" lon="3.51985">
        <ele>512.43</ele>
        <time>2015-04-18T16:32:38Z</time>
      </trkpt>
      <trkpt lat="46.07927" lon="3.51987">
        <ele>512.55</ele>
        <time>2015-04-18T16:32:44Z</time>
      </trkpt>
      <trkpt lat="46.07947" lon="3.5199">
        <ele>513.43</ele>
        <time>2015-04-18T16:32:50Z</time>
      </trkpt>
      <trkpt lat="46.07965" lon="3.51992">
        <ele>513.55</ele>
        <time>2015-04-18T16:32:55Z</time>
      </trkpt>
      <trkpt lat="46.07985" lon="3.51994">
        <ele>514.05</ele>
        <time>2015-04-18T16:33:00Z</time>
      </trkpt>
      <trkpt lat="46.08002" lon="3.52002">
        <ele>514.55</ele>
        <time>2015-04-18T16:33:06Z</time>
      </trkpt>
      <trkpt lat="46.0802" lon="3.51998">
        <ele>515.43</ele>
        <time>2015-04-18T16:33:11Z</time>
      </trkpt>
      <trkpt lat="46.08039" lon="3.51998">
        <ele>515.55</ele>
        <time>2015-04-18T16:33:16Z</time>
      </trkpt>
      <trkpt lat="46.08059" lon="3.52">
        <ele>516.52</ele>
        <time>2015-04-18T16:33:21Z</time>
      </trkpt>
      <trkpt lat="46.08077" lon="3.52002">
        <ele>517.43</ele>
        <time>2015-04-18T16:33:26Z</time>
      </trkpt>
      <trkpt lat="46.08095" lon="3.52005">
        <ele>518.3</ele>
        <time>2015-04-18T16:33:31Z</time>
      </trkpt>
      <trkpt lat="46.08113" lon="3.52005">
        <ele>519.3</ele>
        <time>2015-04-18T16:33:36Z</time>
      </trkpt>
      <trkpt lat="46.08132" lon="3.52002">
        <ele>520.04</ele>
        <time>2015-04-18T16:33:41Z</time>
      </trkpt>
      <trkpt lat="46.0815" lon="3.51992">
        <ele>520.54</ele>
        <time>2015-04-18T16:33:46Z</time>
      </trkpt>
      <trkpt lat="46.08169" lon="3.51981">
        <ele>524.52</ele>
        <time>2015-04-18T16:33:51Z</time>
      </trkpt>
      <trkpt lat="46.08187" lon="3.5197">
        <ele>528.18</ele>
        <time>2015-04-18T16:33:56Z</time>
      </trkpt>
      <trkpt lat="46.08206" lon="3.51962">
        <ele>529.48</ele>
        <time>2015-04-18T16:34:01Z</time>
      </trkpt>
      <trkpt lat="46.08223" lon="3.51951">
        <ele>530.99</ele>
        <time>2015-04-18T16:34:05Z</time>
      </trkpt>
      <trkpt lat="46.08241" lon="3.5194">
        <ele>531.52</ele>
        <time>2015-04-18T16:34:09Z</time>
      </trkpt>
      <trkpt lat="46.08259" lon="3.51923">
        <ele>530.8</ele>
        <time>2015-04-18T16:34:13Z</time>
      </trkpt>
      <trkpt lat="46.08278" lon="3.51904">
        <ele>529.69</ele>
        <time>2015-04-18T16:34:17Z</time>
      </trkpt>
      <trkpt lat="46.08295" lon="3.51884">
        <ele>528.62</ele>
        <time>2015-04-18T16:34:21Z</time>
      </trkpt>
      <trkpt lat="46.08313" lon="3.51863">
        <ele>527.62</ele>
        <time>2015-04-18T16:34:25Z</time>
      </trkpt>
      <trkpt lat="46.0833" lon="3.51841">
        <ele>526.68</ele>
        <time>2015-04-18T16:34:29Z</time>
      </trkpt>
      <trkpt lat="46.08347" lon="3.51818">
        <ele>525.69</ele>
        <time>2015-04-18T16:34:33Z</time>
      </trkpt>
      <trkpt lat="46.08361" lon="3.51801">
        <ele>525.07</ele>
        <time>2015-04-18T16:34:36Z</time>
      </trkpt>
      <trkpt lat="46.08376" lon="3.51781">
        <ele>524.62</ele>
        <time>2015-04-18T16:34:39Z</time>
      </trkpt>
      <trkpt lat="46.08392" lon="3.51764">
        <ele>523.69</ele>
        <time>2015-04-18T16:34:42Z</time>
      </trkpt>
      <trkpt lat="46.08411" lon="3.51741">
        <ele>523.56</ele>
        <time>2015-04-18T16:34:46Z</time>
      </trkpt>
      <trkpt lat="46.08423" lon="3.51721">
        <ele>523.55</ele>
        <time>2015-04-18T16:34:49Z</time>
      </trkpt>
      <trkpt lat="46.08437" lon="3.51704">
        <ele>523.55</ele>
        <time>2015-04-18T16:34:52Z</time>
      </trkpt>
      <trkpt lat="46.08456" lon="3.51683">
        <ele>522.68</ele>
        <time>2015-04-18T16:34:56Z</time>
      </trkpt>
      <trkpt lat="46.08473" lon="3.51663">
        <ele>522.56</ele>
        <time>2015-04-18T16:35:00Z</time>
      </trkpt>
      <trkpt lat="46.0849" lon="3.51642">
        <ele>521.8</ele>
        <time>2015-04-18T16:35:04Z</time>
      </trkpt>
      <trkpt lat="46.08506" lon="3.5162">
        <ele>521.07</ele>
        <time>2015-04-18T16:35:08Z</time>
      </trkpt>
      <trkpt lat="46.08522" lon="3.51601">
        <ele>520.09</ele>
        <time>2015-04-18T16:35:12Z</time>
      </trkpt>
      <trkpt lat="46.08537" lon="3.51582">
        <ele>519.09</ele>
        <time>2015-04-18T16:35:16Z</time>
      </trkpt>
      <trkpt lat="46.08552" lon="3.51565">
        <ele>517.84</ele>
        <time>2015-04-18T16:35:20Z</time>
      </trkpt>
      <trkpt lat="46.08565" lon="3.51541">
        <ele>514.51</ele>
        <time>2015-04-18T16:35:24Z</time>
      </trkpt>
      <trkpt lat="46.08577" lon="3.5152">
        <ele>512.05</ele>
        <time>2015-04-18T16:35:27Z</time>
      </trkpt>
      <trkpt lat="46.08589" lon="3.51496">
        <ele>510.24</ele>
        <time>2015-04-18T16:35:30Z</time>
      </trkpt>
      <trkpt lat="46.08598" lon="3.5147">
        <ele>509.14</ele>
        <time>2015-04-18T16:35:33Z</time>
      </trkpt>
      <trkpt lat="46.08608" lon="3.51447">
        <ele>508.63</ele>
        <time>2015-04-18T16:35:36Z</time>
      </trkpt>
      <trkpt lat="46.08618" lon="3.51423">
        <ele>507.69</ele>
        <time>2015-04-18T16:35:39Z</time>
      </trkpt>
      <trkpt lat="46.08628" lon="3.51399">
        <ele>507.57</ele>
        <time>2015-04-18T16:35:42Z</time>
      </trkpt>
      <trkpt lat="46.08638" lon="3.51374">
        <ele>507.56</ele>
        <time>2015-04-18T16:35:45Z</time>
      </trkpt>
      <trkpt lat="46.08647" lon="3.5135">
        <ele>507.55</ele>
        <time>2015-04-18T16:35:48Z</time>
      </trkpt>
      <trkpt lat="46.08655" lon="3.51324">
        <ele>506.8</ele>
        <time>2015-04-18T16:35:51Z</time>
      </trkpt>
      <trkpt lat="46.08662" lon="3.51299">
        <ele>507.46</ele>
        <time>2015-04-18T16:35:54Z</time>
      </trkpt>
      <trkpt lat="46.08668" lon="3.51271">
        <ele>507.54</ele>
        <time>2015-04-18T16:35:57Z</time>
      </trkpt>
      <trkpt lat="46.08673" lon="3.51243">
        <ele>507.55</ele>
        <time>2015-04-18T16:36:00Z</time>
      </trkpt>
      <trkpt lat="46.08681" lon="3.51217">
        <ele>507.55</ele>
        <time>2015-04-18T16:36:03Z</time>
      </trkpt>
      <trkpt lat="46.08688" lon="3.51189">
        <ele>508.05</ele>
        <time>2015-04-18T16:36:06Z</time>
      </trkpt>
      <trkpt lat="46.08694" lon="3.51163">
        <ele>508.49</ele>
        <time>2015-04-18T16:36:09Z</time>
      </trkpt>
      <trkpt lat="46.08698" lon="3.51135">
        <ele>508.55</ele>
        <time>2015-04-18T16:36:12Z</time>
      </trkpt>
      <trkpt lat="46.08698" lon="3.51108">
        <ele>508.55</ele>
        <time>2015-04-18T16:36:15Z</time>
      </trkpt>
      <trkpt lat="46.08695" lon="3.51082">
        <ele>508.55</ele>
        <time>2015-04-18T16:36:18Z</time>
      </trkpt>
      <trkpt lat="46.08688" lon="3.5105">
        <ele>508.55</ele>
        <time>2015-04-18T16:36:22Z</time>
      </trkpt>
      <trkpt lat="46.08683" lon="3.5102">
        <ele>508.55</ele>
        <time>2015-04-18T16:36:26Z</time>
      </trkpt>
      <trkpt lat="46.08676" lon="3.5099">
        <ele>508.55</ele>
        <time>2015-04-18T16:36:30Z</time>
      </trkpt>
      <trkpt lat="46.08665" lon="3.50962">
        <ele>509.3</ele>
        <time>2015-04-18T16:36:34Z</time>
      </trkpt>
      <trkpt lat="46.08653" lon="3.50936">
        <ele>510.04</ele>
        <time>2015-04-18T16:36:38Z</time>
      </trkpt>
      <trkpt lat="46.08639" lon="3.50914">
        <ele>510.52</ele>
        <time>2015-04-18T16:36:42Z</time>
      </trkpt>
      <trkpt lat="46.08625" lon="3.50893">
        <ele>510.55</ele>
        <time>2015-04-18T16:36:46Z</time>
      </trkpt>
      <trkpt lat="46.08611" lon="3.50876">
        <ele>510.55</ele>
        <time>2015-04-18T16:36:50Z</time>
      </trkpt>
      <trkpt lat="46.08595" lon="3.50857">
        <ele>510.55</ele>
        <time>2015-04-18T16:36:55Z</time>
      </trkpt>
      <trkpt lat="46.08581" lon="3.50833">
        <ele>510.55</ele>
        <time>2015-04-18T16:37:00Z</time>
      </trkpt>
      <trkpt lat="46.08569" lon="3.50811">
        <ele>510.55</ele>
        <time>2015-04-18T16:37:05Z</time>
      </trkpt>
      <trkpt lat="46.08555" lon="3.50788">
        <ele>510.55</ele>
        <time>2015-04-18T16:37:11Z</time>
      </trkpt>
      <trkpt lat="46.08545" lon="3.50766">
        <ele>511.52</ele>
        <time>2015-04-18T16:37:16Z</time>
      </trkpt>
      <trkpt lat="46.08532" lon="3.50743">
        <ele>511.55</ele>
        <time>2015-04-18T16:37:22Z</time>
      </trkpt>
      <trkpt lat="46.08519" lon="3.50719">
        <ele>512.3</ele>
        <time>2015-04-18T16:37:27Z</time>
      </trkpt>
      <trkpt lat="46.08505" lon="3.50696">
        <ele>512.55</ele>
        <time>2015-04-18T16:37:33Z</time>
      </trkpt>
      <trkpt lat="46.08492" lon="3.50672">
        <ele>512.55</ele>
        <time>2015-04-18T16:37:38Z</time>
      </trkpt>
      <trkpt lat="46.08479" lon="3.50644">
        <ele>513.3</ele>
        <time>2015-04-18T16:37:43Z</time>
      </trkpt>
      <trkpt lat="46.08469" lon="3.50616">
        <ele>514.29</ele>
        <time>2015-04-18T16:37:47Z</time>
      </trkpt>
      <trkpt lat="46.0846" lon="3.5059">
        <ele>516.14</ele>
        <time>2015-04-18T16:37:50Z</time>
      </trkpt>
      <trkpt lat="46.08449" lon="3.50563">
        <ele>518.13</ele>
        <time>2015-04-18T16:37:53Z</time>
      </trkpt>
      <trkpt lat="46.08438" lon="3.5053">
        <ele>519.87</ele>
        <time>2015-04-18T16:37:56Z</time>
      </trkpt>
      <trkpt lat="46.08433" lon="3.50505">
        <ele>520.38</ele>
        <time>2015-04-18T16:37:58Z</time>
      </trkpt>
      <trkpt lat="46.08429" lon="3.50477">
        <ele>521.26</ele>
        <time>2015-04-18T16:38:00Z</time>
      </trkpt>
      <trkpt lat="46.08425" lon="3.50449">
        <ele>521.48</ele>
        <time>2015-04-18T16:38:02Z</time>
      </trkpt>
      <trkpt lat="46.08421" lon="3.50423">
        <ele>521.53</ele>
        <time>2015-04-18T16:38:04Z</time>
      </trkpt>
      <trkpt lat="46.08418" lon="3.50395">
        <ele>522.05</ele>
        <time>2015-04-18T16:38:06Z</time>
      </trkpt>
      <trkpt lat="46.08416" lon="3.50369">
        <ele>522.43</ele>
        <time>2015-04-18T16:38:08Z</time>
      </trkpt>
      <trkpt lat="46.08416" lon="3.50333">
        <ele>522.54</ele>
        <time>2015-04-18T16:38:11Z</time>
      </trkpt>
      <trkpt lat="46.08419" lon="3.50307">
        <ele>521.8</ele>
        <time>2015-04-18T16:38:13Z</time>
      </trkpt>
      <trkpt lat="46.08428" lon="3.50271">
        <ele>519.96</ele>
        <time>2015-04-18T16:38:16Z</time>
      </trkpt>
      <trkpt lat="46.08436" lon="3.50247">
        <ele>518.4</ele>
        <time>2015-04-18T16:38:18Z</time>
      </trkpt>
      <trkpt lat="46.08445" lon="3.50224">
        <ele>517.27</ele>
        <time>2015-04-18T16:38:20Z</time>
      </trkpt>
      <trkpt lat="46.08456" lon="3.502">
        <ele>515.48</ele>
        <time>2015-04-18T16:38:22Z</time>
      </trkpt>
      <trkpt lat="46.08466" lon="3.50178">
        <ele>513.54</ele>
        <time>2015-04-18T16:38:24Z</time>
      </trkpt>
      <trkpt lat="46.08482" lon="3.50148">
        <ele>510.55</ele>
        <time>2015-04-18T16:38:27Z</time>
      </trkpt>
      <trkpt lat="46.08501" lon="3.50129">
        <ele>508.05</ele>
        <time>2015-04-18T16:38:30Z</time>
      </trkpt>
      <trkpt lat="46.08519" lon="3.50114">
        <ele>506.24</ele>
        <time>2015-04-18T16:38:33Z</time>
      </trkpt>
      <trkpt lat="46.08539" lon="3.50095">
        <ele>504.89</ele>
        <time>2015-04-18T16:38:36Z</time>
      </trkpt>
      <trkpt lat="46.08555" lon="3.50078">
        <ele>503.89</ele>
        <time>2015-04-18T16:38:38Z</time>
      </trkpt>
      <trkpt lat="46.08574" lon="3.50063">
        <ele>502.39</ele>
        <time>2015-04-18T16:38:40Z</time>
      </trkpt>
      <trkpt lat="46.08593" lon="3.50048">
        <ele>501.26</ele>
        <time>2015-04-18T16:38:42Z</time>
      </trkpt>
      <trkpt lat="46.08613" lon="3.50037">
        <ele>500.23</ele>
        <time>2015-04-18T16:38:44Z</time>
      </trkpt>
      <trkpt lat="46.08635" lon="3.50026">
        <ele>498.01</ele>
        <time>2015-04-18T16:38:47Z</time>
      </trkpt>
      <trkpt lat="46.08654" lon="3.50018">
        <ele>495.49</ele>
        <time>2015-04-18T16:38:50Z</time>
      </trkpt>
      <trkpt lat="46.08676" lon="3.50013">
        <ele>493.42</ele>
        <time>2015-04-18T16:38:53Z</time>
      </trkpt>
      <trkpt lat="46.08699" lon="3.50009">
        <ele>491.29</ele>
        <time>2015-04-18T16:38:56Z</time>
      </trkpt>
      <trkpt lat="46.08725" lon="3.50005">
        <ele>489.02</ele>
        <time>2015-04-18T16:38:59Z</time>
      </trkpt>
      <trkpt lat="46.0875" lon="3.49994">
        <ele>486.49</ele>
        <time>2015-04-18T16:39:02Z</time>
      </trkpt>
      <trkpt lat="46.08767" lon="3.49981">
        <ele>485.29</ele>
        <time>2015-04-18T16:39:04Z</time>
      </trkpt>
      <trkpt lat="46.08783" lon="3.49962">
        <ele>484.24</ele>
        <time>2015-04-18T16:39:06Z</time>
      </trkpt>
      <trkpt lat="46.08797" lon="3.4994">
        <ele>483.72</ele>
        <time>2015-04-18T16:39:08Z</time>
      </trkpt>
      <trkpt lat="46.08811" lon="3.49915">
        <ele>482.85</ele>
        <time>2015-04-18T16:39:10Z</time>
      </trkpt>
      <trkpt lat="46.08824" lon="3.49889">
        <ele>481.88</ele>
        <time>2015-04-18T16:39:12Z</time>
      </trkpt>
      <trkpt lat="46.08838" lon="3.49861">
        <ele>480.38</ele>
        <time>2015-04-18T16:39:14Z</time>
      </trkpt>
      <trkpt lat="46.0885" lon="3.49831">
        <ele>479.01</ele>
        <time>2015-04-18T16:39:16Z</time>
      </trkpt>
      <trkpt lat="46.0886" lon="3.49801">
        <ele>478.17</ele>
        <time>2015-04-18T16:39:18Z</time>
      </trkpt>
      <trkpt lat="46.0887" lon="3.49769">
        <ele>477.21</ele>
        <time>2015-04-18T16:39:20Z</time>
      </trkpt>
      <trkpt lat="46.08877" lon="3.49739">
        <ele>476.22</ele>
        <time>2015-04-18T16:39:22Z</time>
      </trkpt>
      <trkpt lat="46.08884" lon="3.49711">
        <ele>475.22</ele>
        <time>2015-04-18T16:39:24Z</time>
      </trkpt>
      <trkpt lat="46.08888" lon="3.49683">
        <ele>473.47</ele>
        <time>2015-04-18T16:39:26Z</time>
      </trkpt>
      <trkpt lat="46.08889" lon="3.49655">
        <ele>472.03</ele>
        <time>2015-04-18T16:39:28Z</time>
      </trkpt>
      <trkpt lat="46.08889" lon="3.49625">
        <ele>470.42</ele>
        <time>2015-04-18T16:39:30Z</time>
      </trkpt>
      <trkpt lat="46.08887" lon="3.49597">
        <ele>469.27</ele>
        <time>2015-04-18T16:39:32Z</time>
      </trkpt>
      <trkpt lat="46.08887" lon="3.49567">
        <ele>467.98</ele>
        <time>2015-04-18T16:39:34Z</time>
      </trkpt>
      <trkpt lat="46.08888" lon="3.49539">
        <ele>466.41</ele>
        <time>2015-04-18T16:39:36Z</time>
      </trkpt>
      <trkpt lat="46.0889" lon="3.49511">
        <ele>465.02</ele>
        <time>2015-04-18T16:39:38Z</time>
      </trkpt>
      <trkpt lat="46.08891" lon="3.49481">
        <ele>463.42</ele>
        <time>2015-04-18T16:39:40Z</time>
      </trkpt>
      <trkpt lat="46.08893" lon="3.49451">
        <ele>462.27</ele>
        <time>2015-04-18T16:39:42Z</time>
      </trkpt>
      <trkpt lat="46.08894" lon="3.49421">
        <ele>461.23</ele>
        <time>2015-04-18T16:39:44Z</time>
      </trkpt>
      <trkpt lat="46.08894" lon="3.49391">
        <ele>459.97</ele>
        <time>2015-04-18T16:39:46Z</time>
      </trkpt>
      <trkpt lat="46.08892" lon="3.49361">
        <ele>458.91</ele>
        <time>2015-04-18T16:39:48Z</time>
      </trkpt>
      <trkpt lat="46.08889" lon="3.49333">
        <ele>458.14</ele>
        <time>2015-04-18T16:39:50Z</time>
      </trkpt>
      <trkpt lat="46.08887" lon="3.49307">
        <ele>457.7</ele>
        <time>2015-04-18T16:39:52Z</time>
      </trkpt>
      <trkpt lat="46.08887" lon="3.49271">
        <ele>456.2</ele>
        <time>2015-04-18T16:39:55Z</time>
      </trkpt>
      <trkpt lat="46.08899" lon="3.49241">
        <ele>455.13</ele>
        <time>2015-04-18T16:39:58Z</time>
      </trkpt>
      <trkpt lat="46.08917" lon="3.49228">
        <ele>453.38</ele>
        <time>2015-04-18T16:40:01Z</time>
      </trkpt>
      <trkpt lat="46.0894" lon="3.49221">
        <ele>447.35</ele>
        <time>2015-04-18T16:40:05Z</time>
      </trkpt>
      <trkpt lat="46.0896" lon="3.49219">
        <ele>442.6</ele>
        <time>2015-04-18T16:40:09Z</time>
      </trkpt>
      <trkpt lat="46.08972" lon="3.49198">
        <ele>440.13</ele>
        <time>2015-04-18T16:40:15Z</time>
      </trkpt>
      <trkpt lat="46.0897" lon="3.49164">
        <ele>436.41</ele>
        <time>2015-04-18T16:40:20Z</time>
      </trkpt>
      <trkpt lat="46.08966" lon="3.49131">
        <ele>433.29</ele>
        <time>2015-04-18T16:40:24Z</time>
      </trkpt>
      <trkpt lat="46.08963" lon="3.49106">
        <ele>431.27</ele>
        <time>2015-04-18T16:40:27Z</time>
      </trkpt>
      <trkpt lat="46.0896" lon="3.4908">
        <ele>430.14</ele>
        <time>2015-04-18T16:40:30Z</time>
      </trkpt>
      <trkpt lat="46.08956" lon="3.49048">
        <ele>429.09</ele>
        <time>2015-04-18T16:40:34Z</time>
      </trkpt>
      <trkpt lat="46.08951" lon="3.4902">
        <ele>428.62</ele>
        <time>2015-04-18T16:40:37Z</time>
      </trkpt>
      <trkpt lat="46.08948" lon="3.48992">
        <ele>428.56</ele>
        <time>2015-04-18T16:40:40Z</time>
      </trkpt>
      <trkpt lat="46.08944" lon="3.48964">
        <ele>428.55</ele>
        <time>2015-04-18T16:40:43Z</time>
      </trkpt>
      <trkpt lat="46.0894" lon="3.48938">
        <ele>428.55</ele>
        <time>2015-04-18T16:40:46Z</time>
      </trkpt>
      <trkpt lat="46.08935" lon="3.48912">
        <ele>429.3</ele>
        <time>2015-04-18T16:40:49Z</time>
      </trkpt>
      <trkpt lat="46.08931" lon="3.48887">
        <ele>429.52</ele>
        <time>2015-04-18T16:40:52Z</time>
      </trkpt>
      <trkpt lat="46.08928" lon="3.48861">
        <ele>428.67</ele>
        <time>2015-04-18T16:40:55Z</time>
      </trkpt>
      <trkpt lat="46.08916" lon="3.48835">
        <ele>428.56</ele>
        <time>2015-04-18T16:40:59Z</time>
      </trkpt>
      <trkpt lat="46.08904" lon="3.48814">
        <ele>427.68</ele>
        <time>2015-04-18T16:41:03Z</time>
      </trkpt>
      <trkpt lat="46.08905" lon="3.48779">
        <ele>427.56</ele>
        <time>2015-04-18T16:41:07Z</time>
      </trkpt>
      <trkpt lat="46.08907" lon="3.48752">
        <ele>427.05</ele>
        <time>2015-04-18T16:41:10Z</time>
      </trkpt>
      <trkpt lat="46.08912" lon="3.48719">
        <ele>425.87</ele>
        <time>2015-04-18T16:41:13Z</time>
      </trkpt>
      <trkpt lat="46.08915" lon="3.48691">
        <ele>423.47</ele>
        <time>2015-04-18T16:41:16Z</time>
      </trkpt>
      <trkpt lat="46.0893" lon="3.48676">
        <ele>421.64</ele>
        <time>2015-04-18T16:41:21Z</time>
      </trkpt>
      <trkpt lat="46.0895" lon="3.48659">
        <ele>420.05</ele>
        <time>2015-04-18T16:41:31Z</time>
      </trkpt>
      <trkpt lat="46.08962" lon="3.48638">
        <ele>418.62</ele>
        <time>2015-04-18T16:41:37Z</time>
      </trkpt>
      <trkpt lat="46.08969" lon="3.4861">
        <ele>416.59</ele>
        <time>2015-04-18T16:41:42Z</time>
      </trkpt>
      <trkpt lat="46.08965" lon="3.4858">
        <ele>411.62</ele>
        <time>2015-04-18T16:41:46Z</time>
      </trkpt>
      <trkpt lat="46.08963" lon="3.48552">
        <ele>409.94</ele>
        <time>2015-04-18T16:41:49Z</time>
      </trkpt>
      <trkpt lat="46.08966" lon="3.48524">
        <ele>407.76</ele>
        <time>2015-04-18T16:41:53Z</time>
      </trkpt>
      <trkpt lat="46.08967" lon="3.48496">
        <ele>406.59</ele>
        <time>2015-04-18T16:41:58Z</time>
      </trkpt>
      <trkpt lat="46.08977" lon="3.48468">
        <ele>405.68</ele>
        <time>2015-04-18T16:42:03Z</time>
      </trkpt>
      <trkpt lat="46.08975" lon="3.48443">
        <ele>405.56</ele>
        <time>2015-04-18T16:42:07Z</time>
      </trkpt>
      <trkpt lat="46.08991" lon="3.48421">
        <ele>404.3</ele>
        <time>2015-04-18T16:42:11Z</time>
      </trkpt>
      <trkpt lat="46.09007" lon="3.48406">
        <ele>399.77</ele>
        <time>2015-04-18T16:42:14Z</time>
      </trkpt>
      <trkpt lat="46.09024" lon="3.48395">
        <ele>394.08</ele>
        <time>2015-04-18T16:42:17Z</time>
      </trkpt>
      <trkpt lat="46.09045" lon="3.48382">
        <ele>388.65</ele>
        <time>2015-04-18T16:42:21Z</time>
      </trkpt>
      <trkpt lat="46.09064" lon="3.4837">
        <ele>385.31</ele>
        <time>2015-04-18T16:42:25Z</time>
      </trkpt>
      <trkpt lat="46.09083" lon="3.48357">
        <ele>383.85</ele>
        <time>2015-04-18T16:42:29Z</time>
      </trkpt>
      <trkpt lat="46.09102" lon="3.48342">
        <ele>383.57</ele>
        <time>2015-04-18T16:42:33Z</time>
      </trkpt>
      <trkpt lat="46.0912" lon="3.48327">
        <ele>383.55</ele>
        <time>2015-04-18T16:42:37Z</time>
      </trkpt>
      <trkpt lat="46.09139" lon="3.48314">
        <ele>383.55</ele>
        <time>2015-04-18T16:42:41Z</time>
      </trkpt>
      <trkpt lat="46.09161" lon="3.48305">
        <ele>383.55</ele>
        <time>2015-04-18T16:42:45Z</time>
      </trkpt>
      <trkpt lat="46.09183" lon="3.48295">
        <ele>383.55</ele>
        <time>2015-04-18T16:42:49Z</time>
      </trkpt>
      <trkpt lat="46.09202" lon="3.48286">
        <ele>382.8</ele>
        <time>2015-04-18T16:42:52Z</time>
      </trkpt>
      <trkpt lat="46.09221" lon="3.48275">
        <ele>382.58</ele>
        <time>2015-04-18T16:42:55Z</time>
      </trkpt>
      <trkpt lat="46.09236" lon="3.48258">
        <ele>383.06</ele>
        <time>2015-04-18T16:42:58Z</time>
      </trkpt>
      <trkpt lat="46.09252" lon="3.48237">
        <ele>383.52</ele>
        <time>2015-04-18T16:43:02Z</time>
      </trkpt>
      <trkpt lat="46.09262" lon="3.48213">
        <ele>383.55</ele>
        <time>2015-04-18T16:43:06Z</time>
      </trkpt>
      <trkpt lat="46.09274" lon="3.48189">
        <ele>382.68</ele>
        <time>2015-04-18T16:43:10Z</time>
      </trkpt>
      <trkpt lat="46.09287" lon="3.48166">
        <ele>382.06</ele>
        <time>2015-04-18T16:43:14Z</time>
      </trkpt>
      <trkpt lat="46.09304" lon="3.48142">
        <ele>381.58</ele>
        <time>2015-04-18T16:43:18Z</time>
      </trkpt>
      <trkpt lat="46.09325" lon="3.48125">
        <ele>381.55</ele>
        <time>2015-04-18T16:43:22Z</time>
      </trkpt>
      <trkpt lat="46.09344" lon="3.4811">
        <ele>382.3</ele>
        <time>2015-04-18T16:43:26Z</time>
      </trkpt>
      <trkpt lat="46.0936" lon="3.48093">
        <ele>381.79</ele>
        <time>2015-04-18T16:43:30Z</time>
      </trkpt>
      <trkpt lat="46.09376" lon="3.48073">
        <ele>379.87</ele>
        <time>2015-04-18T16:43:35Z</time>
      </trkpt>
      <trkpt lat="46.09389" lon="3.48054">
        <ele>379.56</ele>
        <time>2015-04-18T16:43:41Z</time>
      </trkpt>
      <trkpt lat="46.09402" lon="3.48031">
        <ele>380.05</ele>
        <time>2015-04-18T16:43:48Z</time>
      </trkpt>
      <trkpt lat="46.09414" lon="3.48007">
        <ele>380.05</ele>
        <time>2015-04-18T16:43:54Z</time>
      </trkpt>
      <trkpt lat="46.09428" lon="3.4799">
        <ele>379.57</ele>
        <time>2015-04-18T16:43:59Z</time>
      </trkpt>
      <trkpt lat="46.09445" lon="3.47975">
        <ele>379.55</ele>
        <time>2015-04-18T16:44:04Z</time>
      </trkpt>
      <trkpt lat="46.09461" lon="3.4796">
        <ele>379.55</ele>
        <time>2015-04-18T16:44:09Z</time>
      </trkpt>
      <trkpt lat="46.09478" lon="3.47947">
        <ele>379.55</ele>
        <time>2015-04-18T16:44:14Z</time>
      </trkpt>
      <trkpt lat="46.09494" lon="3.47934">
        <ele>379.05</ele>
        <time>2015-04-18T16:44:19Z</time>
      </trkpt>
      <trkpt lat="46.09515" lon="3.47923">
        <ele>378.57</ele>
        <time>2015-04-18T16:44:24Z</time>
      </trkpt>
      <trkpt lat="46.09534" lon="3.47915">
        <ele>378.55</ele>
        <time>2015-04-18T16:44:29Z</time>
      </trkpt>
      <trkpt lat="46.09553" lon="3.47908">
        <ele>378.55</ele>
        <time>2015-04-18T16:44:34Z</time>
      </trkpt>
      <trkpt lat="46.09571" lon="3.47908">
        <ele>378.55</ele>
        <time>2015-04-18T16:44:39Z</time>
      </trkpt>
      <trkpt lat="46.09591" lon="3.47908">
        <ele>378.55</ele>
        <time>2015-04-18T16:44:43Z</time>
      </trkpt>
      <trkpt lat="46.09609" lon="3.47908">
        <ele>378.55</ele>
        <time>2015-04-18T16:44:47Z</time>
      </trkpt>
      <trkpt lat="46.09628" lon="3.47908">
        <ele>379.52</ele>
        <time>2015-04-18T16:44:52Z</time>
      </trkpt>
      <trkpt lat="46.09647" lon="3.47908">
        <ele>379.55</ele>
        <time>2015-04-18T16:44:56Z</time>
      </trkpt>
      <trkpt lat="46.09667" lon="3.47913">
        <ele>379.55</ele>
        <time>2015-04-18T16:45:01Z</time>
      </trkpt>
      <trkpt lat="46.09687" lon="3.479">
        <ele>379.55</ele>
        <time>2015-04-18T16:45:06Z</time>
      </trkpt>
      <trkpt lat="46.09706" lon="3.47883">
        <ele>379.55</ele>
        <time>2015-04-18T16:45:11Z</time>
      </trkpt>
      <trkpt lat="46.0972" lon="3.47865">
        <ele>379.55</ele>
        <time>2015-04-18T16:45:15Z</time>
      </trkpt>
      <trkpt lat="46.09738" lon="3.47846">
        <ele>379.55</ele>
        <time>2015-04-18T16:45:20Z</time>
      </trkpt>
      <trkpt lat="46.09754" lon="3.47829">
        <ele>379.05</ele>
        <time>2015-04-18T16:45:25Z</time>
      </trkpt>
      <trkpt lat="46.09771" lon="3.47814">
        <ele>378.57</ele>
        <time>2015-04-18T16:45:30Z</time>
      </trkpt>
      <trkpt lat="46.09788" lon="3.47797">
        <ele>379.43</ele>
        <time>2015-04-18T16:45:35Z</time>
      </trkpt>
      <trkpt lat="46.09802" lon="3.47777">
        <ele>379.55</ele>
        <time>2015-04-18T16:45:40Z</time>
      </trkpt>
      <trkpt lat="46.09816" lon="3.4776">
        <ele>380.52</ele>
        <time>2015-04-18T16:45:45Z</time>
      </trkpt>
      <trkpt lat="46.0983" lon="3.47739">
        <ele>380.55</ele>
        <time>2015-04-18T16:45:51Z</time>
      </trkpt>
      <trkpt lat="46.09844" lon="3.47719">
        <ele>380.55</ele>
        <time>2015-04-18T16:45:57Z</time>
      </trkpt>
      <trkpt lat="46.09857" lon="3.47698">
        <ele>380.55</ele>
        <time>2015-04-18T16:46:03Z</time>
      </trkpt>
      <trkpt lat="46.0987" lon="3.47677">
        <ele>380.55</ele>
        <time>2015-04-18T16:46:09Z</time>
      </trkpt>
      <trkpt lat="46.09884" lon="3.47657">
        <ele>380.55</ele>
        <time>2015-04-18T16:46:15Z</time>
      </trkpt>
      <trkpt lat="46.09898" lon="3.47636">
        <ele>381.54</ele>
        <time>2015-04-18T16:46:21Z</time>
      </trkpt>
      <trkpt lat="46.0991" lon="3.47616">
        <ele>381.55</ele>
        <time>2015-04-18T16:46:27Z</time>
      </trkpt>
      <trkpt lat="46.09924" lon="3.47599">
        <ele>381.55</ele>
        <time>2015-04-18T16:46:34Z</time>
      </trkpt>
      <trkpt lat="46.09936" lon="3.47578">
        <ele>382.54</ele>
        <time>2015-04-18T16:46:40Z</time>
      </trkpt>
      <trkpt lat="46.09948" lon="3.47556">
        <ele>382.55</ele>
        <time>2015-04-18T16:46:46Z</time>
      </trkpt>
      <trkpt lat="46.09959" lon="3.47535">
        <ele>383.54</ele>
        <time>2015-04-18T16:46:52Z</time>
      </trkpt>
      <trkpt lat="46.09971" lon="3.47509">
        <ele>384.43</ele>
        <time>2015-04-18T16:46:59Z</time>
      </trkpt>
      <trkpt lat="46.09982" lon="3.47486">
        <ele>385.3</ele>
        <time>2015-04-18T16:47:05Z</time>
      </trkpt>
      <trkpt lat="46.09992" lon="3.47462">
        <ele>386.49</ele>
        <time>2015-04-18T16:47:12Z</time>
      </trkpt>
      <trkpt lat="46.10002" lon="3.47436">
        <ele>388.29</ele>
        <time>2015-04-18T16:47:19Z</time>
      </trkpt>
      <trkpt lat="46.1001" lon="3.47413">
        <ele>389.42</ele>
        <time>2015-04-18T16:47:25Z</time>
      </trkpt>
      <trkpt lat="46.10019" lon="3.47389">
        <ele>390.49</ele>
        <time>2015-04-18T16:47:31Z</time>
      </trkpt>
      <trkpt lat="46.10029" lon="3.47363">
        <ele>392.42</ele>
        <time>2015-04-18T16:47:38Z</time>
      </trkpt>
      <trkpt lat="46.10037" lon="3.47337">
        <ele>394.02</ele>
        <time>2015-04-18T16:47:45Z</time>
      </trkpt>
      <trkpt lat="46.10046" lon="3.47314">
        <ele>395.42</ele>
        <time>2015-04-18T16:47:51Z</time>
      </trkpt>
      <trkpt lat="46.10054" lon="3.47288">
        <ele>397.02</ele>
        <time>2015-04-18T16:47:57Z</time>
      </trkpt>
      <trkpt lat="46.10062" lon="3.47265">
        <ele>398.29</ele>
        <time>2015-04-18T16:48:02Z</time>
      </trkpt>
      <trkpt lat="46.10071" lon="3.47237">
        <ele>399.42</ele>
        <time>2015-04-18T16:48:08Z</time>
      </trkpt>
      <trkpt lat="46.10079" lon="3.47213">
        <ele>400.49</ele>
        <time>2015-04-18T16:48:13Z</time>
      </trkpt>
      <trkpt lat="46.10086" lon="3.47189">
        <ele>401.49</ele>
        <time>2015-04-18T16:48:18Z</time>
      </trkpt>
      <trkpt lat="46.10094" lon="3.47162">
        <ele>402.52</ele>
        <time>2015-04-18T16:48:24Z</time>
      </trkpt>
      <trkpt lat="46.10105" lon="3.47138">
        <ele>403.54</ele>
        <time>2015-04-18T16:48:30Z</time>
      </trkpt>
      <trkpt lat="46.10119" lon="3.47121">
        <ele>407.55</ele>
        <time>2015-04-18T16:48:34Z</time>
      </trkpt>
      <trkpt lat="46.10137" lon="3.47101">
        <ele>410.18</ele>
        <time>2015-04-18T16:48:38Z</time>
      </trkpt>
      <trkpt lat="46.10151" lon="3.47084">
        <ele>411.01</ele>
        <time>2015-04-18T16:48:41Z</time>
      </trkpt>
      <trkpt lat="46.10167" lon="3.47069">
        <ele>411.48</ele>
        <time>2015-04-18T16:48:44Z</time>
      </trkpt>
      <trkpt lat="46.10184" lon="3.47052">
        <ele>411.54</ele>
        <time>2015-04-18T16:48:47Z</time>
      </trkpt>
      <trkpt lat="46.10203" lon="3.47031">
        <ele>410.68</ele>
        <time>2015-04-18T16:48:50Z</time>
      </trkpt>
      <trkpt lat="46.10224" lon="3.47011">
        <ele>410.07</ele>
        <time>2015-04-18T16:48:53Z</time>
      </trkpt>
      <trkpt lat="46.10239" lon="3.46996">
        <ele>409.62</ele>
        <time>2015-04-18T16:48:56Z</time>
      </trkpt>
      <trkpt lat="46.10254" lon="3.46981">
        <ele>408.81</ele>
        <time>2015-04-18T16:48:59Z</time>
      </trkpt>
      <trkpt lat="46.10274" lon="3.46964">
        <ele>408.57</ele>
        <time>2015-04-18T16:49:03Z</time>
      </trkpt>
      <trkpt lat="46.10295" lon="3.46949">
        <ele>408.55</ele>
        <time>2015-04-18T16:49:07Z</time>
      </trkpt>
      <trkpt lat="46.10314" lon="3.46936">
        <ele>408.55</ele>
        <time>2015-04-18T16:49:11Z</time>
      </trkpt>
      <trkpt lat="46.10335" lon="3.46928">
        <ele>407.8</ele>
        <time>2015-04-18T16:49:15Z</time>
      </trkpt>
      <trkpt lat="46.10353" lon="3.46919">
        <ele>407.58</ele>
        <time>2015-04-18T16:49:18Z</time>
      </trkpt>
      <trkpt lat="46.10374" lon="3.46913">
        <ele>406.68</ele>
        <time>2015-04-18T16:49:22Z</time>
      </trkpt>
      <trkpt lat="46.10394" lon="3.46904">
        <ele>406.56</ele>
        <time>2015-04-18T16:49:26Z</time>
      </trkpt>
      <trkpt lat="46.10413" lon="3.46895">
        <ele>406.55</ele>
        <time>2015-04-18T16:49:30Z</time>
      </trkpt>
      <trkpt lat="46.10431" lon="3.46885">
        <ele>406.55</ele>
        <time>2015-04-18T16:49:35Z</time>
      </trkpt>
      <trkpt lat="46.10451" lon="3.46876">
        <ele>407.52</ele>
        <time>2015-04-18T16:49:40Z</time>
      </trkpt>
      <trkpt lat="46.10471" lon="3.46868">
        <ele>407.55</ele>
        <time>2015-04-18T16:49:45Z</time>
      </trkpt>
      <trkpt lat="46.10491" lon="3.46861">
        <ele>407.55</ele>
        <time>2015-04-18T16:49:50Z</time>
      </trkpt>
      <trkpt lat="46.10509" lon="3.46857">
        <ele>408.49</ele>
        <time>2015-04-18T16:49:54Z</time>
      </trkpt>
      <trkpt lat="46.10527" lon="3.4685">
        <ele>408.55</ele>
        <time>2015-04-18T16:49:58Z</time>
      </trkpt>
      <trkpt lat="46.10546" lon="3.46842">
        <ele>408.55</ele>
        <time>2015-04-18T16:50:01Z</time>
      </trkpt>
      <trkpt lat="46.10564" lon="3.46831">
        <ele>408.55</ele>
        <time>2015-04-18T16:50:05Z</time>
      </trkpt>
      <trkpt lat="46.10579" lon="3.46816">
        <ele>408.55</ele>
        <time>2015-04-18T16:50:10Z</time>
      </trkpt>
      <trkpt lat="46.10594" lon="3.46801">
        <ele>408.55</ele>
        <time>2015-04-18T16:50:15Z</time>
      </trkpt>
      <trkpt lat="46.10611" lon="3.46792">
        <ele>408.55</ele>
        <time>2015-04-18T16:50:20Z</time>
      </trkpt>
      <trkpt lat="46.10633" lon="3.46786">
        <ele>408.55</ele>
        <time>2015-04-18T16:50:25Z</time>
      </trkpt>
      <trkpt lat="46.10656" lon="3.4678">
        <ele>408.55</ele>
        <time>2015-04-18T16:50:29Z</time>
      </trkpt>
      <trkpt lat="46.10674" lon="3.46777">
        <ele>408.55</ele>
        <time>2015-04-18T16:50:32Z</time>
      </trkpt>
      <trkpt lat="46.10692" lon="3.46767">
        <ele>408.55</ele>
        <time>2015-04-18T16:50:35Z</time>
      </trkpt>
      <trkpt lat="46.10707" lon="3.46743">
        <ele>408.55</ele>
        <time>2015-04-18T16:50:39Z</time>
      </trkpt>
      <trkpt lat="46.10718" lon="3.46717">
        <ele>409.99</ele>
        <time>2015-04-18T16:50:43Z</time>
      </trkpt>
      <trkpt lat="46.1073" lon="3.46692">
        <ele>411.02</ele>
        <time>2015-04-18T16:50:47Z</time>
      </trkpt>
      <trkpt lat="46.10742" lon="3.46668">
        <ele>412.27</ele>
        <time>2015-04-18T16:50:51Z</time>
      </trkpt>
      <trkpt lat="46.10755" lon="3.46644">
        <ele>413.29</ele>
        <time>2015-04-18T16:50:55Z</time>
      </trkpt>
      <trkpt lat="46.10768" lon="3.46621">
        <ele>414.04</ele>
        <time>2015-04-18T16:50:59Z</time>
      </trkpt>
      <trkpt lat="46.10778" lon="3.46597">
        <ele>414.52</ele>
        <time>2015-04-18T16:51:03Z</time>
      </trkpt>
      <trkpt lat="46.10781" lon="3.46567">
        <ele>415.05</ele>
        <time>2015-04-18T16:51:07Z</time>
      </trkpt>
      <trkpt lat="46.10777" lon="3.46537">
        <ele>416.02</ele>
        <time>2015-04-18T16:51:11Z</time>
      </trkpt>
      <trkpt lat="46.10773" lon="3.46509">
        <ele>416.54</ele>
        <time>2015-04-18T16:51:16Z</time>
      </trkpt>
      <trkpt lat="46.10788" lon="3.46494">
        <ele>416.55</ele>
        <time>2015-04-18T16:51:22Z</time>
      </trkpt>
      <trkpt lat="46.10812" lon="3.46486">
        <ele>416.55</ele>
        <time>2015-04-18T16:51:26Z</time>
      </trkpt>
      <trkpt lat="46.10832" lon="3.46481">
        <ele>415.68</ele>
        <time>2015-04-18T16:51:29Z</time>
      </trkpt>
      <trkpt lat="46.10851" lon="3.46477">
        <ele>414.62</ele>
        <time>2015-04-18T16:51:33Z</time>
      </trkpt>
      <trkpt lat="46.10872" lon="3.46475">
        <ele>413.62</ele>
        <time>2015-04-18T16:51:37Z</time>
      </trkpt>
      <trkpt lat="46.10893" lon="3.46468">
        <ele>412.62</ele>
        <time>2015-04-18T16:51:41Z</time>
      </trkpt>
      <trkpt lat="46.10914" lon="3.46462">
        <ele>412.56</ele>
        <time>2015-04-18T16:51:44Z</time>
      </trkpt>
      <trkpt lat="46.10938" lon="3.46453">
        <ele>412.55</ele>
        <time>2015-04-18T16:51:47Z</time>
      </trkpt>
      <trkpt lat="46.10957" lon="3.46451">
        <ele>412.55</ele>
        <time>2015-04-18T16:51:49Z</time>
      </trkpt>
      <trkpt lat="46.10982" lon="3.46449">
        <ele>412.55</ele>
        <time>2015-04-18T16:51:52Z</time>
      </trkpt>
      <trkpt lat="46.11008" lon="3.46447">
        <ele>411.8</ele>
        <time>2015-04-18T16:51:55Z</time>
      </trkpt>
      <trkpt lat="46.11032" lon="3.46447">
        <ele>410.71</ele>
        <time>2015-04-18T16:51:58Z</time>
      </trkpt>
      <trkpt lat="46.11051" lon="3.46447">
        <ele>409.7</ele>
        <time>2015-04-18T16:52:01Z</time>
      </trkpt>
      <trkpt lat="46.1107" lon="3.46449">
        <ele>408.7</ele>
        <time>2015-04-18T16:52:04Z</time>
      </trkpt>
      <trkpt lat="46.11089" lon="3.46451">
        <ele>407.82</ele>
        <time>2015-04-18T16:52:07Z</time>
      </trkpt>
      <trkpt lat="46.1111" lon="3.46456">
        <ele>407.57</ele>
        <time>2015-04-18T16:52:11Z</time>
      </trkpt>
      <trkpt lat="46.1113" lon="3.4646">
        <ele>407.55</ele>
        <time>2015-04-18T16:52:15Z</time>
      </trkpt>
      <trkpt lat="46.11152" lon="3.46466">
        <ele>407.55</ele>
        <time>2015-04-18T16:52:19Z</time>
      </trkpt>
      <trkpt lat="46.11174" lon="3.46468">
        <ele>407.55</ele>
        <time>2015-04-18T16:52:23Z</time>
      </trkpt>
      <trkpt lat="46.11193" lon="3.46466">
        <ele>407.55</ele>
        <time>2015-04-18T16:52:26Z</time>
      </trkpt>
      <trkpt lat="46.11212" lon="3.46464">
        <ele>407.55</ele>
        <time>2015-04-18T16:52:30Z</time>
      </trkpt>
      <trkpt lat="46.1123" lon="3.4646">
        <ele>407.55</ele>
        <time>2015-04-18T16:52:36Z</time>
      </trkpt>
      <trkpt lat="46.11251" lon="3.46456">
        <ele>407.55</ele>
        <time>2015-04-18T16:52:42Z</time>
      </trkpt>
      <trkpt lat="46.11269" lon="3.4646">
        <ele>407.55</ele>
        <time>2015-04-18T16:52:46Z</time>
      </trkpt>
      <trkpt lat="46.11289" lon="3.46462">
        <ele>406.62</ele>
        <time>2015-04-18T16:52:50Z</time>
      </trkpt>
      <trkpt lat="46.1131" lon="3.46464">
        <ele>406.56</ele>
        <time>2015-04-18T16:52:54Z</time>
      </trkpt>
      <trkpt lat="46.11331" lon="3.46466">
        <ele>406.55</ele>
        <time>2015-04-18T16:52:58Z</time>
      </trkpt>
      <trkpt lat="46.11354" lon="3.46468">
        <ele>406.55</ele>
        <time>2015-04-18T16:53:02Z</time>
      </trkpt>
      <trkpt lat="46.11372" lon="3.46473">
        <ele>406.55</ele>
        <time>2015-04-18T16:53:06Z</time>
      </trkpt>
      <trkpt lat="46.1139" lon="3.46475">
        <ele>406.05</ele>
        <time>2015-04-18T16:53:11Z</time>
      </trkpt>
      <trkpt lat="46.11405" lon="3.4649">
        <ele>405.62</ele>
        <time>2015-04-18T16:53:14Z</time>
      </trkpt>
      <trkpt lat="46.11426" lon="3.46503">
        <ele>405.56</ele>
        <time>2015-04-18T16:53:17Z</time>
      </trkpt>
      <trkpt lat="46.11449" lon="3.46503">
        <ele>404.18</ele>
        <time>2015-04-18T16:53:20Z</time>
      </trkpt>
      <trkpt lat="46.11467" lon="3.46498">
        <ele>402.88</ele>
        <time>2015-04-18T16:53:23Z</time>
      </trkpt>
      <trkpt lat="46.11488" lon="3.4649">
        <ele>401.7</ele>
        <time>2015-04-18T16:53:27Z</time>
      </trkpt>
      <trkpt lat="46.11507" lon="3.46477">
        <ele>400.62</ele>
        <time>2015-04-18T16:53:31Z</time>
      </trkpt>
      <trkpt lat="46.11522" lon="3.46458">
        <ele>399.62</ele>
        <time>2015-04-18T16:53:35Z</time>
      </trkpt>
      <trkpt lat="46.11537" lon="3.46441">
        <ele>398.68</ele>
        <time>2015-04-18T16:53:39Z</time>
      </trkpt>
      <trkpt lat="46.11553" lon="3.46417">
        <ele>399.5</ele>
        <time>2015-04-18T16:53:43Z</time>
      </trkpt>
      <trkpt lat="46.1157" lon="3.46395">
        <ele>399.05</ele>
        <time>2015-04-18T16:53:47Z</time>
      </trkpt>
      <trkpt lat="46.11587" lon="3.4638">
        <ele>398.58</ele>
        <time>2015-04-18T16:53:51Z</time>
      </trkpt>
      <trkpt lat="46.11602" lon="3.46365">
        <ele>397.12</ele>
        <time>2015-04-18T16:53:55Z</time>
      </trkpt>
      <trkpt lat="46.11619" lon="3.46353">
        <ele>396.57</ele>
        <time>2015-04-18T16:54:00Z</time>
      </trkpt>
      <trkpt lat="46.11639" lon="3.4634">
        <ele>396.55</ele>
        <time>2015-04-18T16:54:06Z</time>
      </trkpt>
      <trkpt lat="46.11658" lon="3.46338">
        <ele>395.12</ele>
        <time>2015-04-18T16:54:10Z</time>
      </trkpt>
      <trkpt lat="46.11679" lon="3.4634">
        <ele>392.5</ele>
        <time>2015-04-18T16:54:13Z</time>
      </trkpt>
      <trkpt lat="46.11699" lon="3.46338">
        <ele>389.05</ele>
        <time>2015-04-18T16:54:16Z</time>
      </trkpt>
      <trkpt lat="46.11723" lon="3.46338">
        <ele>385.61</ele>
        <time>2015-04-18T16:54:19Z</time>
      </trkpt>
      <trkpt lat="46.11742" lon="3.46335">
        <ele>382.81</ele>
        <time>2015-04-18T16:54:23Z</time>
      </trkpt>
      <trkpt lat="46.11763" lon="3.46331">
        <ele>381.8</ele>
        <time>2015-04-18T16:54:30Z</time>
      </trkpt>
      <trkpt lat="46.11784" lon="3.46323">
        <ele>380.13</ele>
        <time>2015-04-18T16:54:34Z</time>
      </trkpt>
      <trkpt lat="46.11805" lon="3.46314">
        <ele>378.84</ele>
        <time>2015-04-18T16:54:38Z</time>
      </trkpt>
      <trkpt lat="46.11825" lon="3.46303">
        <ele>377.82</ele>
        <time>2015-04-18T16:54:42Z</time>
      </trkpt>
      <trkpt lat="46.11844" lon="3.46293">
        <ele>376.69</ele>
        <time>2015-04-18T16:54:46Z</time>
      </trkpt>
      <trkpt lat="46.11863" lon="3.46282">
        <ele>375.62</ele>
        <time>2015-04-18T16:54:50Z</time>
      </trkpt>
      <trkpt lat="46.1188" lon="3.46271">
        <ele>374.81</ele>
        <time>2015-04-18T16:54:53Z</time>
      </trkpt>
      <trkpt lat="46.11899" lon="3.4626">
        <ele>374.59</ele>
        <time>2015-04-18T16:54:56Z</time>
      </trkpt>
      <trkpt lat="46.11916" lon="3.4625">
        <ele>374.06</ele>
        <time>2015-04-18T16:54:59Z</time>
      </trkpt>
      <trkpt lat="46.11933" lon="3.46241">
        <ele>373.12</ele>
        <time>2015-04-18T16:55:02Z</time>
      </trkpt>
      <trkpt lat="46.11953" lon="3.4623">
        <ele>372.59</ele>
        <time>2015-04-18T16:55:06Z</time>
      </trkpt>
      <trkpt lat="46.11972" lon="3.4622">
        <ele>371.81</ele>
        <time>2015-04-18T16:55:10Z</time>
      </trkpt>
      <trkpt lat="46.11993" lon="3.46213">
        <ele>371.56</ele>
        <time>2015-04-18T16:55:15Z</time>
      </trkpt>
      <trkpt lat="46.12014" lon="3.46209">
        <ele>371.05</ele>
        <time>2015-04-18T16:55:19Z</time>
      </trkpt>
      <trkpt lat="46.12033" lon="3.46207">
        <ele>371.49</ele>
        <time>2015-04-18T16:55:22Z</time>
      </trkpt>
      <trkpt lat="46.12051" lon="3.46205">
        <ele>371.55</ele>
        <time>2015-04-18T16:55:25Z</time>
      </trkpt>
      <trkpt lat="46.12072" lon="3.46202">
        <ele>370.62</ele>
        <time>2015-04-18T16:55:29Z</time>
      </trkpt>
      <trkpt lat="46.12096" lon="3.46202">
        <ele>370.56</ele>
        <time>2015-04-18T16:55:33Z</time>
      </trkpt>
      <trkpt lat="46.12114" lon="3.462">
        <ele>369.8</ele>
        <time>2015-04-18T16:55:36Z</time>
      </trkpt>
      <trkpt lat="46.12132" lon="3.46198">
        <ele>369.58</ele>
        <time>2015-04-18T16:55:39Z</time>
      </trkpt>
      <trkpt lat="46.12154" lon="3.46202">
        <ele>368.68</ele>
        <time>2015-04-18T16:55:43Z</time>
      </trkpt>
      <trkpt lat="46.12165" lon="3.46226">
        <ele>366.21</ele>
        <time>2015-04-18T16:55:48Z</time>
      </trkpt>
      <trkpt lat="46.12168" lon="3.46258">
        <ele>363.47</ele>
        <time>2015-04-18T16:55:52Z</time>
      </trkpt>
      <trkpt lat="46.12185" lon="3.46267">
        <ele>359.93</ele>
        <time>2015-04-18T16:55:57Z</time>
      </trkpt>
      <trkpt lat="46.12203" lon="3.46262">
        <ele>359.58</ele>
        <time>2015-04-18T16:56:01Z</time>
      </trkpt>
      <trkpt lat="46.12224" lon="3.4626">
        <ele>359.05</ele>
        <time>2015-04-18T16:56:05Z</time>
      </trkpt>
      <trkpt lat="46.12245" lon="3.46258">
        <ele>358.57</ele>
        <time>2015-04-18T16:56:10Z</time>
      </trkpt>
      <trkpt lat="46.12265" lon="3.4625">
        <ele>357.8</ele>
        <time>2015-04-18T16:56:15Z</time>
      </trkpt>
      <trkpt lat="46.12285" lon="3.46235">
        <ele>357.56</ele>
        <time>2015-04-18T16:56:21Z</time>
      </trkpt>
      <trkpt lat="46.123" lon="3.4622">
        <ele>356.58</ele>
        <time>2015-04-18T16:56:26Z</time>
      </trkpt>
      <trkpt lat="46.12316" lon="3.46198">
        <ele>355.8</ele>
        <time>2015-04-18T16:56:31Z</time>
      </trkpt>
      <trkpt lat="46.12333" lon="3.46174">
        <ele>354.69</ele>
        <time>2015-04-18T16:56:36Z</time>
      </trkpt>
      <trkpt lat="46.12348" lon="3.46155">
        <ele>353.81</ele>
        <time>2015-04-18T16:56:40Z</time>
      </trkpt>
      <trkpt lat="46.12365" lon="3.46138">
        <ele>353.57</ele>
        <time>2015-04-18T16:56:44Z</time>
      </trkpt>
      <trkpt lat="46.12386" lon="3.46123">
        <ele>352.8</ele>
        <time>2015-04-18T16:56:48Z</time>
      </trkpt>
      <trkpt lat="46.12407" lon="3.4611">
        <ele>352.07</ele>
        <time>2015-04-18T16:56:52Z</time>
      </trkpt>
      <trkpt lat="46.12427" lon="3.46104">
        <ele>351.59</ele>
        <time>2015-04-18T16:56:56Z</time>
      </trkpt>
      <trkpt lat="46.12446" lon="3.46104">
        <ele>350.68</ele>
        <time>2015-04-18T16:57:00Z</time>
      </trkpt>
      <trkpt lat="46.12464" lon="3.46104">
        <ele>350.56</ele>
        <time>2015-04-18T16:57:04Z</time>
      </trkpt>
      <trkpt lat="46.12482" lon="3.46102">
        <ele>350.55</ele>
        <time>2015-04-18T16:57:08Z</time>
      </trkpt>
      <trkpt lat="46.12499" lon="3.46093">
        <ele>350.55</ele>
        <time>2015-04-18T16:57:12Z</time>
      </trkpt>
      <trkpt lat="46.12519" lon="3.46076">
        <ele>350.55</ele>
        <time>2015-04-18T16:57:17Z</time>
      </trkpt>
      <trkpt lat="46.12535" lon="3.46054">
        <ele>349.8</ele>
        <time>2015-04-18T16:57:21Z</time>
      </trkpt>
      <trkpt lat="46.12544" lon="3.46029">
        <ele>349.56</ele>
        <time>2015-04-18T16:57:26Z</time>
      </trkpt>
      <trkpt lat="46.12551" lon="3.46003">
        <ele>349.55</ele>
        <time>2015-04-18T16:57:32Z</time>
      </trkpt>
      <trkpt lat="46.12559" lon="3.45979">
        <ele>350.54</ele>
        <time>2015-04-18T16:57:39Z</time>
      </trkpt>
      <trkpt lat="46.12578" lon="3.4599">
        <ele>349.68</ele>
        <time>2015-04-18T16:57:45Z</time>
      </trkpt>
      <trkpt lat="46.12595" lon="3.46001">
        <ele>349.56</ele>
        <time>2015-04-18T16:57:50Z</time>
      </trkpt>
      <trkpt lat="46.12614" lon="3.45996">
        <ele>349.55</ele>
        <time>2015-04-18T16:57:55Z</time>
      </trkpt>
      <trkpt lat="46.12632" lon="3.45994">
        <ele>349.55</ele>
        <time>2015-04-18T16:58:01Z</time>
      </trkpt>
      <trkpt lat="46.12651" lon="3.45986">
        <ele>349.55</ele>
        <time>2015-04-18T16:58:09Z</time>
      </trkpt>
      <trkpt lat="46.12666" lon="3.45964">
        <ele>349.05</ele>
        <time>2015-04-18T16:58:17Z</time>
      </trkpt>
      <trkpt lat="46.1268" lon="3.45947">
        <ele>348.56</ele>
        <time>2015-04-18T16:58:23Z</time>
      </trkpt>
      <trkpt lat="46.12692" lon="3.45923">
        <ele>347.8</ele>
        <time>2015-04-18T16:58:29Z</time>
      </trkpt>
      <trkpt lat="46.12709" lon="3.45908">
        <ele>345.88</ele>
        <time>2015-04-18T16:58:33Z</time>
      </trkpt>
      <trkpt lat="46.12725" lon="3.45896">
        <ele>344.63</ele>
        <time>2015-04-18T16:58:38Z</time>
      </trkpt>
      <trkpt lat="46.12742" lon="3.45885">
        <ele>344.56</ele>
        <time>2015-04-18T16:58:43Z</time>
      </trkpt>
      <trkpt lat="46.1276" lon="3.45887">
        <ele>343.68</ele>
        <time>2015-04-18T16:58:47Z</time>
      </trkpt>
      <trkpt lat="46.12778" lon="3.45883">
        <ele>343.55</ele>
        <time>2015-04-18T16:58:53Z</time>
      </trkpt>
      <trkpt lat="46.12793" lon="3.45868">
        <ele>341.81</ele>
        <time>2015-04-18T16:59:00Z</time>
      </trkpt>
      <trkpt lat="46.12812" lon="3.45857">
        <ele>340.12</ele>
        <time>2015-04-18T16:59:07Z</time>
      </trkpt>
      <trkpt lat="46.12822" lon="3.45833">
        <ele>338.82</ele>
        <time>2015-04-18T16:59:12Z</time>
      </trkpt>
      <trkpt lat="46.12837" lon="3.45814">
        <ele>336.84</ele>
        <time>2015-04-18T16:59:17Z</time>
      </trkpt>
      <trkpt lat="46.12857" lon="3.45814">
        <ele>333.82</ele>
        <time>2015-04-18T16:59:24Z</time>
      </trkpt>
      <trkpt lat="46.12878" lon="3.45818">
        <ele>327.44</ele>
        <time>2015-04-18T16:59:28Z</time>
      </trkpt>
      <trkpt lat="46.12896" lon="3.45829">
        <ele>322.79</ele>
        <time>2015-04-18T16:59:31Z</time>
      </trkpt>
      <trkpt lat="46.12913" lon="3.4584">
        <ele>319.46</ele>
        <time>2015-04-18T16:59:34Z</time>
      </trkpt>
      <trkpt lat="46.12921" lon="3.45865">
        <ele>317.6</ele>
        <time>2015-04-18T16:59:40Z</time>
      </trkpt>
      <trkpt lat="46.12935" lon="3.45893">
        <ele>311.49</ele>
        <time>2015-04-18T16:59:45Z</time>
      </trkpt>
      <trkpt lat="46.12953" lon="3.459">
        <ele>306.55</ele>
        <time>2015-04-18T16:59:48Z</time>
      </trkpt>
      <trkpt lat="46.12965" lon="3.45923">
        <ele>304.68</ele>
        <time>2015-04-18T16:59:57Z</time>
      </trkpt>
      <trkpt lat="46.12966" lon="3.45953">
        <ele>303.68</ele>
        <time>2015-04-18T17:00:03Z</time>
      </trkpt>
      <trkpt lat="46.1298" lon="3.45973">
        <ele>301.7</ele>
        <time>2015-04-18T17:00:09Z</time>
      </trkpt>
      <trkpt lat="46.12998" lon="3.45981">
        <ele>300.09</ele>
        <time>2015-04-18T17:00:14Z</time>
      </trkpt>
      <trkpt lat="46.13019" lon="3.45992">
        <ele>296.19</ele>
        <time>2015-04-18T17:00:19Z</time>
      </trkpt>
      <trkpt lat="46.13039" lon="3.46001">
        <ele>290.66</ele>
        <time>2015-04-18T17:00:23Z</time>
      </trkpt>
      <trkpt lat="46.13057" lon="3.46009">
        <ele>287.5</ele>
        <time>2015-04-18T17:00:27Z</time>
      </trkpt>
      <trkpt lat="46.13077" lon="3.4602">
        <ele>284.77</ele>
        <time>2015-04-18T17:00:32Z</time>
      </trkpt>
      <trkpt lat="46.13096" lon="3.46009">
        <ele>284.05</ele>
        <time>2015-04-18T17:00:41Z</time>
      </trkpt>
      <trkpt lat="46.131" lon="3.45984">
        <ele>283.58</ele>
        <time>2015-04-18T17:00:45Z</time>
      </trkpt>
      <trkpt lat="46.13099" lon="3.45949">
        <ele>283.55</ele>
        <time>2015-04-18T17:00:50Z</time>
      </trkpt>
      <trkpt lat="46.13097" lon="3.45921">
        <ele>283.05</ele>
        <time>2015-04-18T17:00:55Z</time>
      </trkpt>
      <trkpt lat="46.13102" lon="3.45893">
        <ele>282.56</ele>
        <time>2015-04-18T17:01:01Z</time>
      </trkpt>
      <trkpt lat="46.13121" lon="3.45881">
        <ele>282.05</ele>
        <time>2015-04-18T17:01:10Z</time>
      </trkpt>
      <trkpt lat="46.13139" lon="3.45878">
        <ele>281.56</ele>
        <time>2015-04-18T17:01:16Z</time>
      </trkpt>
      <trkpt lat="46.13157" lon="3.45887">
        <ele>280.58</ele>
        <time>2015-04-18T17:01:22Z</time>
      </trkpt>
      <trkpt lat="46.13177" lon="3.45891">
        <ele>279.8</ele>
        <time>2015-04-18T17:01:28Z</time>
      </trkpt>
      <trkpt lat="46.13197" lon="3.45898">
        <ele>279.56</ele>
        <time>2015-04-18T17:01:33Z</time>
      </trkpt>
      <trkpt lat="46.13217" lon="3.45904">
        <ele>279.55</ele>
        <time>2015-04-18T17:01:38Z</time>
      </trkpt>
      <trkpt lat="46.13236" lon="3.45911">
        <ele>279.55</ele>
        <time>2015-04-18T17:01:44Z</time>
      </trkpt>
      <trkpt lat="46.13255" lon="3.45913">
        <ele>279.55</ele>
        <time>2015-04-18T17:01:51Z</time>
      </trkpt>
      <trkpt lat="46.13274" lon="3.45919">
        <ele>279.55</ele>
        <time>2015-04-18T17:01:59Z</time>
      </trkpt>
      <trkpt lat="46.13293" lon="3.45923">
        <ele>280.55</ele>
        <time>2015-04-18T17:02:06Z</time>
      </trkpt>
      <trkpt lat="46.1332" lon="3.45921">
        <ele>281.05</ele>
        <time>2015-04-18T17:02:19Z</time>
      </trkpt>
      <trkpt lat="46.13333" lon="3.459">
        <ele>282.3</ele>
        <time>2015-04-18T17:02:25Z</time>
      </trkpt>
      <trkpt lat="46.13349" lon="3.45881">
        <ele>282.76</ele>
        <time>2015-04-18T17:02:30Z</time>
      </trkpt>
      <trkpt lat="46.13362" lon="3.45861">
        <ele>282.56</ele>
        <time>2015-04-18T17:02:35Z</time>
      </trkpt>
      <trkpt lat="46.13373" lon="3.4584">
        <ele>282.55</ele>
        <time>2015-04-18T17:02:40Z</time>
      </trkpt>
      <trkpt lat="46.13382" lon="3.45816">
        <ele>281.68</ele>
        <time>2015-04-18T17:02:45Z</time>
      </trkpt>
      <trkpt lat="46.13393" lon="3.45793">
        <ele>281.56</ele>
        <time>2015-04-18T17:02:50Z</time>
      </trkpt>
      <trkpt lat="46.13404" lon="3.45769">
        <ele>280.8</ele>
        <time>2015-04-18T17:02:55Z</time>
      </trkpt>
      <trkpt lat="46.13416" lon="3.45745">
        <ele>279.82</ele>
        <time>2015-04-18T17:02:59Z</time>
      </trkpt>
      <trkpt lat="46.13435" lon="3.45737">
        <ele>279.07</ele>
        <time>2015-04-18T17:03:03Z</time>
      </trkpt>
      <trkpt lat="46.13451" lon="3.4572">
        <ele>278.56</ele>
        <time>2015-04-18T17:03:09Z</time>
      </trkpt>
      <trkpt lat="46.13457" lon="3.4569">
        <ele>278.55</ele>
        <time>2015-04-18T17:03:14Z</time>
      </trkpt>
      <trkpt lat="46.13466" lon="3.45664">
        <ele>278.55</ele>
        <time>2015-04-18T17:03:18Z</time>
      </trkpt>
      <trkpt lat="46.13477" lon="3.45638">
        <ele>278.55</ele>
        <time>2015-04-18T17:03:23Z</time>
      </trkpt>
      <trkpt lat="46.13482" lon="3.45608">
        <ele>278.55</ele>
        <time>2015-04-18T17:03:28Z</time>
      </trkpt>
      <trkpt lat="46.13497" lon="3.45591">
        <ele>278.55</ele>
        <time>2015-04-18T17:03:34Z</time>
      </trkpt>
      <trkpt lat="46.13519" lon="3.45582">
        <ele>277.68</ele>
        <time>2015-04-18T17:03:39Z</time>
      </trkpt>
      <trkpt lat="46.13538" lon="3.45572">
        <ele>277.56</ele>
        <time>2015-04-18T17:03:44Z</time>
      </trkpt>
      <trkpt lat="46.13559" lon="3.45572">
        <ele>277.55</ele>
        <time>2015-04-18T17:03:49Z</time>
      </trkpt>
      <trkpt lat="46.13581" lon="3.45574">
        <ele>276.68</ele>
        <time>2015-04-18T17:03:53Z</time>
      </trkpt>
      <trkpt lat="46.13602" lon="3.45569">
        <ele>276.56</ele>
        <time>2015-04-18T17:03:57Z</time>
      </trkpt>
      <trkpt lat="46.13623" lon="3.45569">
        <ele>276.55</ele>
        <time>2015-04-18T17:04:01Z</time>
      </trkpt>
      <trkpt lat="46.13642" lon="3.45557">
        <ele>276.55</ele>
        <time>2015-04-18T17:04:06Z</time>
      </trkpt>
      <trkpt lat="46.13645" lon="3.45531">
        <ele>276.55</ele>
        <time>2015-04-18T17:04:10Z</time>
      </trkpt>
      <trkpt lat="46.13651" lon="3.45501">
        <ele>278.02</ele>
        <time>2015-04-18T17:04:15Z</time>
      </trkpt>
      <trkpt lat="46.13655" lon="3.45475">
        <ele>278.52</ele>
        <time>2015-04-18T17:04:19Z</time>
      </trkpt>
      <trkpt lat="46.1366" lon="3.45447">
        <ele>277.68</ele>
        <time>2015-04-18T17:04:23Z</time>
      </trkpt>
      <trkpt lat="46.13667" lon="3.45415">
        <ele>277.56</ele>
        <time>2015-04-18T17:04:27Z</time>
      </trkpt>
      <trkpt lat="46.13676" lon="3.45385">
        <ele>278.3</ele>
        <time>2015-04-18T17:04:31Z</time>
      </trkpt>
      <trkpt lat="46.13687" lon="3.45363">
        <ele>277.77</ele>
        <time>2015-04-18T17:04:34Z</time>
      </trkpt>
      <trkpt lat="46.13699" lon="3.45338">
        <ele>277.56</ele>
        <time>2015-04-18T17:04:40Z</time>
      </trkpt>
      <trkpt lat="46.13717" lon="3.45344">
        <ele>277.05</ele>
        <time>2015-04-18T17:04:47Z</time>
      </trkpt>
      <trkpt lat="46.13736" lon="3.45359">
        <ele>276.57</ele>
        <time>2015-04-18T17:04:52Z</time>
      </trkpt>
      <trkpt lat="46.13754" lon="3.45368">
        <ele>275.62</ele>
        <time>2015-04-18T17:04:56Z</time>
      </trkpt>
      <trkpt lat="46.1377" lon="3.45383">
        <ele>274.81</ele>
        <time>2015-04-18T17:05:00Z</time>
      </trkpt>
      <trkpt lat="46.13785" lon="3.454">
        <ele>274.57</ele>
        <time>2015-04-18T17:05:04Z</time>
      </trkpt>
      <trkpt lat="46.13802" lon="3.45417">
        <ele>274.55</ele>
        <time>2015-04-18T17:05:09Z</time>
      </trkpt>
      <trkpt lat="46.1382" lon="3.45423">
        <ele>273.57</ele>
        <time>2015-04-18T17:05:15Z</time>
      </trkpt>
      <trkpt lat="46.13836" lon="3.45406">
        <ele>273.55</ele>
        <time>2015-04-18T17:05:22Z</time>
      </trkpt>
      <trkpt lat="46.1384" lon="3.45378">
        <ele>274.43</ele>
        <time>2015-04-18T17:05:27Z</time>
      </trkpt>
      <trkpt lat="46.13845" lon="3.45348">
        <ele>275.42</ele>
        <time>2015-04-18T17:05:32Z</time>
      </trkpt>
      <trkpt lat="46.13848" lon="3.45323">
        <ele>276.29</ele>
        <time>2015-04-18T17:05:36Z</time>
      </trkpt>
      <trkpt lat="46.13851" lon="3.4529">
        <ele>276.54</ele>
        <time>2015-04-18T17:05:41Z</time>
      </trkpt>
      <trkpt lat="46.13854" lon="3.45258">
        <ele>277.3</ele>
        <time>2015-04-18T17:05:46Z</time>
      </trkpt>
      <trkpt lat="46.13858" lon="3.45228">
        <ele>277.55</ele>
        <time>2015-04-18T17:05:51Z</time>
      </trkpt>
      <trkpt lat="46.13862" lon="3.45198">
        <ele>277.55</ele>
        <time>2015-04-18T17:05:56Z</time>
      </trkpt>
      <trkpt lat="46.13865" lon="3.4517">
        <ele>277.55</ele>
        <time>2015-04-18T17:06:00Z</time>
      </trkpt>
      <trkpt lat="46.13869" lon="3.45142">
        <ele>276.8</ele>
        <time>2015-04-18T17:06:04Z</time>
      </trkpt>
      <trkpt lat="46.13873" lon="3.4511">
        <ele>276.56</ele>
        <time>2015-04-18T17:06:09Z</time>
      </trkpt>
      <trkpt lat="46.13876" lon="3.45084">
        <ele>276.55</ele>
        <time>2015-04-18T17:06:13Z</time>
      </trkpt>
      <trkpt lat="46.13879" lon="3.45057">
        <ele>275.68</ele>
        <time>2015-04-18T17:06:18Z</time>
      </trkpt>
      <trkpt lat="46.1388" lon="3.45024">
        <ele>275.56</ele>
        <time>2015-04-18T17:06:23Z</time>
      </trkpt>
      <trkpt lat="46.13878" lon="3.44994">
        <ele>274.58</ele>
        <time>2015-04-18T17:06:28Z</time>
      </trkpt>
      <trkpt lat="46.13886" lon="3.44971">
        <ele>274.55</ele>
        <time>2015-04-18T17:06:33Z</time>
      </trkpt>
      <trkpt lat="46.13904" lon="3.44956">
        <ele>273.8</ele>
        <time>2015-04-18T17:06:38Z</time>
      </trkpt>
      <trkpt lat="46.13923" lon="3.44954">
        <ele>273.56</ele>
        <time>2015-04-18T17:06:43Z</time>
      </trkpt>
      <trkpt lat="46.13941" lon="3.44956">
        <ele>274.05</ele>
        <time>2015-04-18T17:06:48Z</time>
      </trkpt>
      <trkpt lat="46.13962" lon="3.4496">
        <ele>274.54</ele>
        <time>2015-04-18T17:06:53Z</time>
      </trkpt>
      <trkpt lat="46.13983" lon="3.44962">
        <ele>275.43</ele>
        <time>2015-04-18T17:06:58Z</time>
      </trkpt>
      <trkpt lat="46.14005" lon="3.44962">
        <ele>275.55</ele>
        <time>2015-04-18T17:07:03Z</time>
      </trkpt>
      <trkpt lat="46.14028" lon="3.44962">
        <ele>276.55</ele>
        <time>2015-04-18T17:07:11Z</time>
      </trkpt>
      <trkpt lat="46.14045" lon="3.44954">
        <ele>277.05</ele>
        <time>2015-04-18T17:07:16Z</time>
      </trkpt>
      <trkpt lat="46.14064" lon="3.44947">
        <ele>277.54</ele>
        <time>2015-04-18T17:07:21Z</time>
      </trkpt>
      <trkpt lat="46.14082" lon="3.44939">
        <ele>277.55</ele>
        <time>2015-04-18T17:07:28Z</time>
      </trkpt>
      <trkpt lat="46.14099" lon="3.44928">
        <ele>279.05</ele>
        <time>2015-04-18T17:07:35Z</time>
      </trkpt>
      <trkpt lat="46.14118" lon="3.44926">
        <ele>280.3</ele>
        <time>2015-04-18T17:07:41Z</time>
      </trkpt>
      <trkpt lat="46.14146" lon="3.44924">
        <ele>282.55</ele>
        <time>2015-04-18T17:08:01Z</time>
      </trkpt>
      <trkpt lat="46.14167" lon="3.44924">
        <ele>283.52</ele>
        <time>2015-04-18T17:08:08Z</time>
      </trkpt>
      <trkpt lat="46.14185" lon="3.44921">
        <ele>283.55</ele>
        <time>2015-04-18T17:08:14Z</time>
      </trkpt>
      <trkpt lat="46.14203" lon="3.44921">
        <ele>284.3</ele>
        <time>2015-04-18T17:08:20Z</time>
      </trkpt>
      <trkpt lat="46.14222" lon="3.44919">
        <ele>284.55</ele>
        <time>2015-04-18T17:08:26Z</time>
      </trkpt>
      <trkpt lat="46.14241" lon="3.44921">
        <ele>284.55</ele>
        <time>2015-04-18T17:08:32Z</time>
      </trkpt>
      <trkpt lat="46.1426" lon="3.44924">
        <ele>284.55</ele>
        <time>2015-04-18T17:08:38Z</time>
      </trkpt>
      <trkpt lat="46.1428" lon="3.44926">
        <ele>285.43</ele>
        <time>2015-04-18T17:08:44Z</time>
      </trkpt>
      <trkpt lat="46.14301" lon="3.44932">
        <ele>285.55</ele>
        <time>2015-04-18T17:08:50Z</time>
      </trkpt>
      <trkpt lat="46.1432" lon="3.44939">
        <ele>285.55</ele>
        <time>2015-04-18T17:08:57Z</time>
      </trkpt>
      <trkpt lat="46.14337" lon="3.44924">
        <ele>287.05</ele>
        <time>2015-04-18T17:09:10Z</time>
      </trkpt>
      <trkpt lat="46.14349" lon="3.449">
        <ele>288.05</ele>
        <time>2015-04-18T17:09:18Z</time>
      </trkpt>
      <trkpt lat="46.14359" lon="3.44876">
        <ele>289.49</ele>
        <time>2015-04-18T17:09:27Z</time>
      </trkpt>
      <trkpt lat="46.14366" lon="3.44851">
        <ele>290.49</ele>
        <time>2015-04-18T17:09:36Z</time>
      </trkpt>
      <trkpt lat="46.14374" lon="3.44825">
        <ele>290.55</ele>
        <time>2015-04-18T17:09:45Z</time>
      </trkpt>
      <trkpt lat="46.14383" lon="3.44795">
        <ele>291.55</ele>
        <time>2015-04-18T17:09:57Z</time>
      </trkpt>
      <trkpt lat="46.14393" lon="3.44765">
        <ele>292.05</ele>
        <time>2015-04-18T17:10:08Z</time>
      </trkpt>
      <trkpt lat="46.14407" lon="3.44741">
        <ele>293.43</ele>
        <time>2015-04-18T17:10:19Z</time>
      </trkpt>
      <trkpt lat="46.14421" lon="3.44724">
        <ele>294.05</ele>
        <time>2015-04-18T17:10:28Z</time>
      </trkpt>
      <trkpt lat="46.14435" lon="3.44707">
        <ele>294.55</ele>
        <time>2015-04-18T17:10:36Z</time>
      </trkpt>
      <trkpt lat="46.1445" lon="3.44692">
        <ele>295.52</ele>
        <time>2015-04-18T17:10:44Z</time>
      </trkpt>
      <trkpt lat="46.14468" lon="3.44685">
        <ele>296.52</ele>
        <time>2015-04-18T17:10:53Z</time>
      </trkpt>
      <trkpt lat="46.14486" lon="3.44683">
        <ele>297.54</ele>
        <time>2015-04-18T17:11:03Z</time>
      </trkpt>
      <trkpt lat="46.14504" lon="3.44672">
        <ele>299.05</ele>
        <time>2015-04-18T17:11:12Z</time>
      </trkpt>
      <trkpt lat="46.1452" lon="3.44657">
        <ele>301.04</ele>
        <time>2015-04-18T17:11:21Z</time>
      </trkpt>
      <trkpt lat="46.14535" lon="3.4464">
        <ele>303.49</ele>
        <time>2015-04-18T17:11:33Z</time>
      </trkpt>
      <trkpt lat="46.14547" lon="3.44621">
        <ele>305.49</ele>
        <time>2015-04-18T17:11:44Z</time>
      </trkpt>
      <trkpt lat="46.14561" lon="3.44597">
        <ele>307.04</ele>
        <time>2015-04-18T17:11:52Z</time>
      </trkpt>
      <trkpt lat="46.14578" lon="3.4458">
        <ele>309.54</ele>
        <time>2015-04-18T17:11:57Z</time>
      </trkpt>
      <trkpt lat="46.14591" lon="3.44563">
        <ele>313.74</ele>
        <time>2015-04-18T17:12:01Z</time>
      </trkpt>
      <trkpt lat="46.14608" lon="3.44544">
        <ele>315.38</ele>
        <time>2015-04-18T17:12:05Z</time>
      </trkpt>
      <trkpt lat="46.14623" lon="3.44524">
        <ele>315.54</ele>
        <time>2015-04-18T17:12:09Z</time>
      </trkpt>
      <trkpt lat="46.14637" lon="3.44507">
        <ele>314.8</ele>
        <time>2015-04-18T17:12:13Z</time>
      </trkpt>
      <trkpt lat="46.14652" lon="3.4449">
        <ele>313.62</ele>
        <time>2015-04-18T17:12:18Z</time>
      </trkpt>
      <trkpt lat="46.14667" lon="3.44469">
        <ele>313.55</ele>
        <time>2015-04-18T17:12:24Z</time>
      </trkpt>
      <trkpt lat="46.14681" lon="3.44447">
        <ele>312.18</ele>
        <time>2015-04-18T17:12:29Z</time>
      </trkpt>
      <trkpt lat="46.14694" lon="3.44426">
        <ele>311.56</ele>
        <time>2015-04-18T17:12:35Z</time>
      </trkpt>
      <trkpt lat="46.14705" lon="3.44404">
        <ele>311.55</ele>
        <time>2015-04-18T17:12:40Z</time>
      </trkpt>
      <trkpt lat="46.14715" lon="3.44378">
        <ele>311.55</ele>
        <time>2015-04-18T17:12:45Z</time>
      </trkpt>
      <trkpt lat="46.14723" lon="3.44353">
        <ele>311.55</ele>
        <time>2015-04-18T17:12:51Z</time>
      </trkpt>
      <trkpt lat="46.14734" lon="3.44327">
        <ele>311.55</ele>
        <time>2015-04-18T17:12:58Z</time>
      </trkpt>
      <trkpt lat="46.14748" lon="3.44308">
        <ele>311.55</ele>
        <time>2015-04-18T17:13:04Z</time>
      </trkpt>
      <trkpt lat="46.14763" lon="3.4429">
        <ele>310.62</ele>
        <time>2015-04-18T17:13:10Z</time>
      </trkpt>
      <trkpt lat="46.14779" lon="3.44273">
        <ele>311.3</ele>
        <time>2015-04-18T17:13:16Z</time>
      </trkpt>
      <trkpt lat="46.14796" lon="3.44258">
        <ele>311.55</ele>
        <time>2015-04-18T17:13:23Z</time>
      </trkpt>
      <trkpt lat="46.14814" lon="3.44243">
        <ele>311.55</ele>
        <time>2015-04-18T17:13:31Z</time>
      </trkpt>
      <trkpt lat="46.1483" lon="3.44228">
        <ele>311.55</ele>
        <time>2015-04-18T17:13:39Z</time>
      </trkpt>
      <trkpt lat="46.14846" lon="3.44211">
        <ele>312.05</ele>
        <time>2015-04-18T17:13:46Z</time>
      </trkpt>
      <trkpt lat="46.14862" lon="3.44194">
        <ele>312.55</ele>
        <time>2015-04-18T17:13:52Z</time>
      </trkpt>
      <trkpt lat="46.14877" lon="3.44177">
        <ele>313.05</ele>
        <time>2015-04-18T17:14:00Z</time>
      </trkpt>
      <trkpt lat="46.14894" lon="3.44162">
        <ele>313.55</ele>
        <time>2015-04-18T17:14:06Z</time>
      </trkpt>
      <trkpt lat="46.14912" lon="3.44151">
        <ele>313.55</ele>
        <time>2015-04-18T17:14:12Z</time>
      </trkpt>
      <trkpt lat="46.14929" lon="3.44142">
        <ele>313.55</ele>
        <time>2015-04-18T17:14:18Z</time>
      </trkpt>
      <trkpt lat="46.14947" lon="3.44134">
        <ele>313.55</ele>
        <time>2015-04-18T17:14:24Z</time>
      </trkpt>
      <trkpt lat="46.14966" lon="3.44123">
        <ele>313.55</ele>
        <time>2015-04-18T17:14:30Z</time>
      </trkpt>
      <trkpt lat="46.14986" lon="3.44115">
        <ele>314.3</ele>
        <time>2015-04-18T17:14:36Z</time>
      </trkpt>
      <trkpt lat="46.15007" lon="3.44108">
        <ele>314.55</ele>
        <time>2015-04-18T17:14:42Z</time>
      </trkpt>
      <trkpt lat="46.15026" lon="3.441">
        <ele>314.55</ele>
        <time>2015-04-18T17:14:47Z</time>
      </trkpt>
      <trkpt lat="46.15047" lon="3.44091">
        <ele>315.8</ele>
        <time>2015-04-18T17:14:53Z</time>
      </trkpt>
      <trkpt lat="46.15065" lon="3.44082">
        <ele>318.82</ele>
        <time>2015-04-18T17:14:57Z</time>
      </trkpt>
      <trkpt lat="46.15083" lon="3.44074">
        <ele>321.25</ele>
        <time>2015-04-18T17:15:02Z</time>
      </trkpt>
      <trkpt lat="46.15103" lon="3.44065">
        <ele>322.29</ele>
        <time>2015-04-18T17:15:07Z</time>
      </trkpt>
      <trkpt lat="46.1512" lon="3.44052">
        <ele>323.91</ele>
        <time>2015-04-18T17:15:11Z</time>
      </trkpt>
      <trkpt lat="46.15138" lon="3.44037">
        <ele>324.51</ele>
        <time>2015-04-18T17:15:15Z</time>
      </trkpt>
      <trkpt lat="46.15154" lon="3.4402">
        <ele>324.55</ele>
        <time>2015-04-18T17:15:19Z</time>
      </trkpt>
      <trkpt lat="46.15172" lon="3.44009">
        <ele>324.55</ele>
        <time>2015-04-18T17:15:24Z</time>
      </trkpt>
      <trkpt lat="46.15192" lon="3.44012">
        <ele>323.8</ele>
        <time>2015-04-18T17:15:30Z</time>
      </trkpt>
      <trkpt lat="46.15211" lon="3.44016">
        <ele>323.56</ele>
        <time>2015-04-18T17:15:35Z</time>
      </trkpt>
      <trkpt lat="46.1523" lon="3.44016">
        <ele>323.55</ele>
        <time>2015-04-18T17:15:41Z</time>
      </trkpt>
      <trkpt lat="46.15245" lon="3.4399">
        <ele>324.49</ele>
        <time>2015-04-18T17:15:50Z</time>
      </trkpt>
      <trkpt lat="46.1526" lon="3.43962">
        <ele>324.55</ele>
        <time>2015-04-18T17:16:01Z</time>
      </trkpt>
      <trkpt lat="46.15278" lon="3.43958">
        <ele>326.05</ele>
        <time>2015-04-18T17:16:15Z</time>
      </trkpt>
      <trkpt lat="46.15304" lon="3.43956">
        <ele>328.04</ele>
        <time>2015-04-18T17:16:30Z</time>
      </trkpt>
      <trkpt lat="46.15326" lon="3.43954">
        <ele>329.49</ele>
        <time>2015-04-18T17:16:41Z</time>
      </trkpt>
      <trkpt lat="46.15345" lon="3.43947">
        <ele>331.05</ele>
        <time>2015-04-18T17:16:51Z</time>
      </trkpt>
      <trkpt lat="46.15363" lon="3.43934">
        <ele>332.05</ele>
        <time>2015-04-18T17:17:01Z</time>
      </trkpt>
      <trkpt lat="46.15386" lon="3.43928">
        <ele>333.55</ele>
        <time>2015-04-18T17:17:16Z</time>
      </trkpt>
      <trkpt lat="46.15407" lon="3.43928">
        <ele>334.54</ele>
        <time>2015-04-18T17:17:27Z</time>
      </trkpt>
      <trkpt lat="46.15425" lon="3.43928">
        <ele>335.55</ele>
        <time>2015-04-18T17:17:35Z</time>
      </trkpt>
      <trkpt lat="46.15448" lon="3.43924">
        <ele>336.54</ele>
        <time>2015-04-18T17:17:44Z</time>
      </trkpt>
      <trkpt lat="46.15467" lon="3.43919">
        <ele>336.55</ele>
        <time>2015-04-18T17:17:52Z</time>
      </trkpt>
      <trkpt lat="46.15488" lon="3.43911">
        <ele>337.55</ele>
        <time>2015-04-18T17:18:03Z</time>
      </trkpt>
      <trkpt lat="46.15512" lon="3.43902">
        <ele>339.05</ele>
        <time>2015-04-18T17:18:17Z</time>
      </trkpt>
      <trkpt lat="46.1553" lon="3.43896">
        <ele>340.43</ele>
        <time>2015-04-18T17:18:27Z</time>
      </trkpt>
      <trkpt lat="46.15548" lon="3.43887">
        <ele>341.43</ele>
        <time>2015-04-18T17:18:36Z</time>
      </trkpt>
      <trkpt lat="46.15567" lon="3.43881">
        <ele>342.54</ele>
        <time>2015-04-18T17:18:46Z</time>
      </trkpt>
      <trkpt lat="46.15585" lon="3.43874">
        <ele>344.3</ele>
        <time>2015-04-18T17:18:56Z</time>
      </trkpt>
      <trkpt lat="46.15602" lon="3.43863">
        <ele>346.05</ele>
        <time>2015-04-18T17:19:07Z</time>
      </trkpt>
      <trkpt lat="46.15619" lon="3.43851">
        <ele>347.54</ele>
        <time>2015-04-18T17:19:18Z</time>
      </trkpt>
      <trkpt lat="46.15635" lon="3.43838">
        <ele>349.54</ele>
        <time>2015-04-18T17:19:29Z</time>
      </trkpt>
      <trkpt lat="46.15654" lon="3.43827">
        <ele>351.54</ele>
        <time>2015-04-18T17:19:41Z</time>
      </trkpt>
      <trkpt lat="46.15671" lon="3.43818">
        <ele>353.3</ele>
        <time>2015-04-18T17:19:52Z</time>
      </trkpt>
      <trkpt lat="46.15689" lon="3.43814">
        <ele>354.54</ele>
        <time>2015-04-18T17:20:04Z</time>
      </trkpt>
      <trkpt lat="46.15708" lon="3.43818">
        <ele>356.3</ele>
        <time>2015-04-18T17:20:14Z</time>
      </trkpt>
      <trkpt lat="46.15727" lon="3.43818">
        <ele>357.52</ele>
        <time>2015-04-18T17:20:22Z</time>
      </trkpt>
      <trkpt lat="46.15746" lon="3.43821">
        <ele>359.02</ele>
        <time>2015-04-18T17:20:28Z</time>
      </trkpt>
      <trkpt lat="46.15765" lon="3.43821">
        <ele>361.02</ele>
        <time>2015-04-18T17:20:35Z</time>
      </trkpt>
      <trkpt lat="46.15785" lon="3.43814">
        <ele>363.29</ele>
        <time>2015-04-18T17:20:44Z</time>
      </trkpt>
      <trkpt lat="46.15802" lon="3.43806">
        <ele>365.42</ele>
        <time>2015-04-18T17:20:53Z</time>
      </trkpt>
      <trkpt lat="46.15819" lon="3.43797">
        <ele>367.42</ele>
        <time>2015-04-18T17:21:01Z</time>
      </trkpt>
      <trkpt lat="46.15837" lon="3.43803">
        <ele>370.27</ele>
        <time>2015-04-18T17:21:09Z</time>
      </trkpt>
      <trkpt lat="46.15855" lon="3.43814">
        <ele>372.48</ele>
        <time>2015-04-18T17:21:17Z</time>
      </trkpt>
      <trkpt lat="46.15876" lon="3.43821">
        <ele>374.49</ele>
        <time>2015-04-18T17:21:25Z</time>
      </trkpt>
      <trkpt lat="46.15895" lon="3.43825">
        <ele>376.42</ele>
        <time>2015-04-18T17:21:32Z</time>
      </trkpt>
      <trkpt lat="46.15912" lon="3.43816">
        <ele>378.02</ele>
        <time>2015-04-18T17:21:39Z</time>
      </trkpt>
      <trkpt lat="46.15929" lon="3.43803">
        <ele>379.49</ele>
        <time>2015-04-18T17:21:46Z</time>
      </trkpt>
      <trkpt lat="46.15948" lon="3.43791">
        <ele>380.52</ele>
        <time>2015-04-18T17:21:54Z</time>
      </trkpt>
      <trkpt lat="46.15965" lon="3.43782">
        <ele>381.49</ele>
        <time>2015-04-18T17:22:01Z</time>
      </trkpt>
      <trkpt lat="46.15983" lon="3.43776">
        <ele>382.49</ele>
        <time>2015-04-18T17:22:09Z</time>
      </trkpt>
      <trkpt lat="46.16002" lon="3.43767">
        <ele>383.52</ele>
        <time>2015-04-18T17:22:17Z</time>
      </trkpt>
      <trkpt lat="46.16018" lon="3.43752">
        <ele>384.54</ele>
        <time>2015-04-18T17:22:25Z</time>
      </trkpt>
      <trkpt lat="46.16035" lon="3.43735">
        <ele>385.55</ele>
        <time>2015-04-18T17:22:33Z</time>
      </trkpt>
      <trkpt lat="46.16045" lon="3.43711">
        <ele>386.55</ele>
        <time>2015-04-18T17:22:40Z</time>
      </trkpt>
      <trkpt lat="46.16054" lon="3.43688">
        <ele>387.49</ele>
        <time>2015-04-18T17:22:45Z</time>
      </trkpt>
      <trkpt lat="46.16069" lon="3.4367">
        <ele>389.17</ele>
        <time>2015-04-18T17:22:49Z</time>
      </trkpt>
      <trkpt lat="46.16091" lon="3.43677">
        <ele>390.4</ele>
        <time>2015-04-18T17:22:53Z</time>
      </trkpt>
      <trkpt lat="46.16112" lon="3.43683">
        <ele>391.28</ele>
        <time>2015-04-18T17:22:56Z</time>
      </trkpt>
      <trkpt lat="46.16136" lon="3.43685">
        <ele>391.52</ele>
        <time>2015-04-18T17:22:59Z</time>
      </trkpt>
      <trkpt lat="46.16163" lon="3.43685">
        <ele>391.05</ele>
        <time>2015-04-18T17:23:02Z</time>
      </trkpt>
      <trkpt lat="46.16181" lon="3.43688">
        <ele>390.68</ele>
        <time>2015-04-18T17:23:04Z</time>
      </trkpt>
      <trkpt lat="46.16201" lon="3.43685">
        <ele>390.58</ele>
        <time>2015-04-18T17:23:06Z</time>
      </trkpt>
      <trkpt lat="46.16219" lon="3.43685">
        <ele>390.56</ele>
        <time>2015-04-18T17:23:08Z</time>
      </trkpt>
      <trkpt lat="46.16238" lon="3.43683">
        <ele>389.8</ele>
        <time>2015-04-18T17:23:10Z</time>
      </trkpt>
      <trkpt lat="46.16257" lon="3.43683">
        <ele>389.62</ele>
        <time>2015-04-18T17:23:12Z</time>
      </trkpt>
      <trkpt lat="46.16281" lon="3.43675">
        <ele>388.81</ele>
        <time>2015-04-18T17:23:15Z</time>
      </trkpt>
      <trkpt lat="46.16298" lon="3.4366">
        <ele>387.87</ele>
        <time>2015-04-18T17:23:17Z</time>
      </trkpt>
      <trkpt lat="46.16317" lon="3.43638">
        <ele>386.38</ele>
        <time>2015-04-18T17:23:19Z</time>
      </trkpt>
      <trkpt lat="46.16333" lon="3.43619">
        <ele>385.26</ele>
        <time>2015-04-18T17:23:21Z</time>
      </trkpt>
      <trkpt lat="46.16348" lon="3.43597">
        <ele>383.98</ele>
        <time>2015-04-18T17:23:23Z</time>
      </trkpt>
      <trkpt lat="46.16364" lon="3.43578">
        <ele>382.41</ele>
        <time>2015-04-18T17:23:25Z</time>
      </trkpt>
      <trkpt lat="46.1638" lon="3.43561">
        <ele>381.27</ele>
        <time>2015-04-18T17:23:27Z</time>
      </trkpt>
      <trkpt lat="46.16397" lon="3.43548">
        <ele>379.48</ele>
        <time>2015-04-18T17:23:29Z</time>
      </trkpt>
      <trkpt lat="46.16422" lon="3.43539">
        <ele>376.04</ele>
        <time>2015-04-18T17:23:32Z</time>
      </trkpt>
      <trkpt lat="46.16447" lon="3.43546">
        <ele>371.36</ele>
        <time>2015-04-18T17:23:35Z</time>
      </trkpt>
      <trkpt lat="46.16468" lon="3.43555">
        <ele>366.9</ele>
        <time>2015-04-18T17:23:38Z</time>
      </trkpt>
      <trkpt lat="46.16485" lon="3.43563">
        <ele>363.6</ele>
        <time>2015-04-18T17:23:41Z</time>
      </trkpt>
      <trkpt lat="46.16503" lon="3.4357">
        <ele>360.06</ele>
        <time>2015-04-18T17:23:45Z</time>
      </trkpt>
      <trkpt lat="46.16522" lon="3.43574">
        <ele>358.15</ele>
        <time>2015-04-18T17:23:49Z</time>
      </trkpt>
      <trkpt lat="46.1654" lon="3.43578">
        <ele>356.84</ele>
        <time>2015-04-18T17:23:53Z</time>
      </trkpt>
      <trkpt lat="46.16559" lon="3.4358">
        <ele>356.07</ele>
        <time>2015-04-18T17:23:57Z</time>
      </trkpt>
      <trkpt lat="46.16577" lon="3.43582">
        <ele>355.59</ele>
        <time>2015-04-18T17:24:01Z</time>
      </trkpt>
      <trkpt lat="46.16598" lon="3.43582">
        <ele>354.68</ele>
        <time>2015-04-18T17:24:06Z</time>
      </trkpt>
      <trkpt lat="46.16618" lon="3.43578">
        <ele>354.56</ele>
        <time>2015-04-18T17:24:11Z</time>
      </trkpt>
      <trkpt lat="46.16642" lon="3.43574">
        <ele>353.8</ele>
        <time>2015-04-18T17:24:15Z</time>
      </trkpt>
      <trkpt lat="46.1666" lon="3.43574">
        <ele>353.58</ele>
        <time>2015-04-18T17:24:18Z</time>
      </trkpt>
      <trkpt lat="46.16678" lon="3.4357">
        <ele>352.81</ele>
        <time>2015-04-18T17:24:21Z</time>
      </trkpt>
      <trkpt lat="46.16698" lon="3.43565">
        <ele>352.08</ele>
        <time>2015-04-18T17:24:24Z</time>
      </trkpt>
      <trkpt lat="46.16716" lon="3.4357">
        <ele>351.12</ele>
        <time>2015-04-18T17:24:27Z</time>
      </trkpt>
      <trkpt lat="46.16737" lon="3.43582">
        <ele>349.84</ele>
        <time>2015-04-18T17:24:31Z</time>
      </trkpt>
      <trkpt lat="46.16758" lon="3.43597">
        <ele>348.2</ele>
        <time>2015-04-18T17:24:35Z</time>
      </trkpt>
      <trkpt lat="46.16777" lon="3.43608">
        <ele>346.72</ele>
        <time>2015-04-18T17:24:39Z</time>
      </trkpt>
      <trkpt lat="46.16796" lon="3.43619">
        <ele>344.88</ele>
        <time>2015-04-18T17:24:43Z</time>
      </trkpt>
      <trkpt lat="46.16816" lon="3.43625">
        <ele>343.7</ele>
        <time>2015-04-18T17:24:47Z</time>
      </trkpt>
      <trkpt lat="46.16837" lon="3.43617">
        <ele>343.56</ele>
        <time>2015-04-18T17:24:52Z</time>
      </trkpt>
      <trkpt lat="46.1685" lon="3.43595">
        <ele>344.3</ele>
        <time>2015-04-18T17:24:56Z</time>
      </trkpt>
      <trkpt lat="46.1686" lon="3.43572">
        <ele>344.52</ele>
        <time>2015-04-18T17:24:59Z</time>
      </trkpt>
      <trkpt lat="46.16874" lon="3.43548">
        <ele>344.55</ele>
        <time>2015-04-18T17:25:02Z</time>
      </trkpt>
      <trkpt lat="46.16895" lon="3.43539">
        <ele>343.68</ele>
        <time>2015-04-18T17:25:05Z</time>
      </trkpt>
      <trkpt lat="46.16921" lon="3.43537">
        <ele>343.57</ele>
        <time>2015-04-18T17:25:08Z</time>
      </trkpt>
      <trkpt lat="46.16946" lon="3.43537">
        <ele>342.8</ele>
        <time>2015-04-18T17:25:11Z</time>
      </trkpt>
      <trkpt lat="46.16965" lon="3.43537">
        <ele>341.87</ele>
        <time>2015-04-18T17:25:13Z</time>
      </trkpt>
      <trkpt lat="46.16984" lon="3.43539">
        <ele>340.38</ele>
        <time>2015-04-18T17:25:15Z</time>
      </trkpt>
      <trkpt lat="46.17003" lon="3.4355">
        <ele>339.26</ele>
        <time>2015-04-18T17:25:17Z</time>
      </trkpt>
      <trkpt lat="46.17018" lon="3.43567">
        <ele>337.98</ele>
        <time>2015-04-18T17:25:19Z</time>
      </trkpt>
      <trkpt lat="46.17033" lon="3.43587">
        <ele>336.91</ele>
        <time>2015-04-18T17:25:21Z</time>
      </trkpt>
      <trkpt lat="46.17047" lon="3.43606">
        <ele>335.89</ele>
        <time>2015-04-18T17:25:23Z</time>
      </trkpt>
      <trkpt lat="46.17062" lon="3.43625">
        <ele>334.39</ele>
        <time>2015-04-18T17:25:25Z</time>
      </trkpt>
      <trkpt lat="46.17081" lon="3.43636">
        <ele>332.51</ele>
        <time>2015-04-18T17:25:27Z</time>
      </trkpt>
      <trkpt lat="46.171" lon="3.4364">
        <ele>331.29</ele>
        <time>2015-04-18T17:25:29Z</time>
      </trkpt>
      <trkpt lat="46.17125" lon="3.43638">
        <ele>329.77</ele>
        <time>2015-04-18T17:25:32Z</time>
      </trkpt>
      <trkpt lat="46.17144" lon="3.43632">
        <ele>328.21</ele>
        <time>2015-04-18T17:25:35Z</time>
      </trkpt>
      <trkpt lat="46.17165" lon="3.43619">
        <ele>326.84</ele>
        <time>2015-04-18T17:25:39Z</time>
      </trkpt>
      <trkpt lat="46.17186" lon="3.43608">
        <ele>325.82</ele>
        <time>2015-04-18T17:25:43Z</time>
      </trkpt>
      <trkpt lat="46.17207" lon="3.43597">
        <ele>325.57</ele>
        <time>2015-04-18T17:25:47Z</time>
      </trkpt>
      <trkpt lat="46.17226" lon="3.43582">
        <ele>325.12</ele>
        <time>2015-04-18T17:25:51Z</time>
      </trkpt>
      <trkpt lat="46.17242" lon="3.43559">
        <ele>325.53</ele>
        <time>2015-04-18T17:25:55Z</time>
      </trkpt>
      <trkpt lat="46.17253" lon="3.43535">
        <ele>325.55</ele>
        <time>2015-04-18T17:25:59Z</time>
      </trkpt>
      <trkpt lat="46.17264" lon="3.43512">
        <ele>325.55</ele>
        <time>2015-04-18T17:26:04Z</time>
      </trkpt>
      <trkpt lat="46.17273" lon="3.43486">
        <ele>325.55</ele>
        <time>2015-04-18T17:26:10Z</time>
      </trkpt>
      <trkpt lat="46.17259" lon="3.43467">
        <ele>325.55</ele>
        <time>2015-04-18T17:26:19Z</time>
      </trkpt>
      <trkpt lat="46.1724" lon="3.43462">
        <ele>324.56</ele>
        <time>2015-04-18T17:26:26Z</time>
      </trkpt>
      <trkpt lat="46.17223" lon="3.43449">
        <ele>324.55</ele>
        <time>2015-04-18T17:26:35Z</time>
      </trkpt>
      <trkpt lat="46.17221" lon="3.43421">
        <ele>324.55</ele>
        <time>2015-04-18T17:26:44Z</time>
      </trkpt>
      <trkpt lat="46.17219" lon="3.43394">
        <ele>324.55</ele>
        <time>2015-04-18T17:26:52Z</time>
      </trkpt>
      <trkpt lat="46.17214" lon="3.43366">
        <ele>324.55</ele>
        <time>2015-04-18T17:26:59Z</time>
      </trkpt>
      <trkpt lat="46.17206" lon="3.4334">
        <ele>325.55</ele>
        <time>2015-04-18T17:27:06Z</time>
      </trkpt>
      <trkpt lat="46.17202" lon="3.43312">
        <ele>326.55</ele>
        <time>2015-04-18T17:27:14Z</time>
      </trkpt>
      <trkpt lat="46.1721" lon="3.43284">
        <ele>327.54</ele>
        <time>2015-04-18T17:27:22Z</time>
      </trkpt>
      <trkpt lat="46.17206" lon="3.43256">
        <ele>328.43</ele>
        <time>2015-04-18T17:27:28Z</time>
      </trkpt>
      <trkpt lat="46.17188" lon="3.43239">
        <ele>329.98</ele>
        <time>2015-04-18T17:27:32Z</time>
      </trkpt>
      <trkpt lat="46.17171" lon="3.43224">
        <ele>330.48</ele>
        <time>2015-04-18T17:27:35Z</time>
      </trkpt>
      <trkpt lat="46.17154" lon="3.43211">
        <ele>331.29</ele>
        <time>2015-04-18T17:27:38Z</time>
      </trkpt>
      <trkpt lat="46.17133" lon="3.43198">
        <ele>331.52</ele>
        <time>2015-04-18T17:27:41Z</time>
      </trkpt>
      <trkpt lat="46.17113" lon="3.43183">
        <ele>331.55</ele>
        <time>2015-04-18T17:27:44Z</time>
      </trkpt>
      <trkpt lat="46.17089" lon="3.43164">
        <ele>331.55</ele>
        <time>2015-04-18T17:27:47Z</time>
      </trkpt>
      <trkpt lat="46.17072" lon="3.43149">
        <ele>331.55</ele>
        <time>2015-04-18T17:27:50Z</time>
      </trkpt>
      <trkpt lat="46.17056" lon="3.43134">
        <ele>331.55</ele>
        <time>2015-04-18T17:27:54Z</time>
      </trkpt>
    </trkseg>
  </trk>
</gpx>